GFSGBSN_prec_precacc24_027.txt.gz
Total_Precipitation_Accumulation
0.12 0.09 0.07 0.06 0.07 0.07 0.07 0.09 0.11 0.08 0.06 0.09 0.12 0.11 0.11 0.10 0.09 0.09 0.10 0.08 0.02 0.00 0.00 0.00 0.01 0.02 0.01 0.04 0.01 0.00 0.00 0.00 0.01 0.18 0.05 0.00 0.00 0.00 0.00 0.00 0.00 0.00 0.00 0.00 0.00 0.00 0.00
0.08 0.06 0.05 0.05 0.06 0.07 0.09 0.10 0.10 0.08 0.09 0.12 0.11 0.11 0.09 0.08 0.09 0.09 0.10 0.08 0.02 0.00 0.00 0.00 0.00 0.03 0.01 0.01 0.00 0.00 0.00 0.00 0.00 0.05 0.08 0.02 0.01 0.00 0.00 0.00 0.02 0.00 0.00 0.00 0.00 0.00 0.00
0.04 0.04 0.05 0.06 0.08 0.10 0.10 0.11 0.10 0.13 0.16 0.13 0.13 0.13 0.11 0.11 0.12 0.11 0.11 0.10 0.09 0.03 0.00 0.00 0.02 0.01 0.02 0.00 0.00 0.00 0.00 0.00 0.00 0.04 0.07 0.05 0.02 0.04 0.04 0.02 0.00 0.01 0.03 0.01 0.00 0.00 0.00
0.03 0.05 0.06 0.06 0.07 0.07 0.08 0.08 0.11 0.12 0.12 0.13 0.14 0.14 0.14 0.14 0.16 0.16 0.15 0.13 0.16 0.13 0.05 0.02 0.01 0.02 0.02 0.00 0.00 0.00 0.00 0.00 0.00 0.01 0.07 0.05 0.01 0.01 0.01 0.03 0.02 0.06 0.08 0.02 0.00 0.00 0.00
0.05 0.06 0.07 0.07 0.08 0.08 0.07 0.09 0.13 0.11 0.12 0.14 0.16 0.14 0.16 0.20 0.20 0.20 0.24 0.24 0.29 0.17 0.16 0.11 0.00 0.01 0.00 0.00 0.00 0.00 0.00 0.00 0.00 0.00 0.02 0.03 0.01 0.01 0.01 0.04 0.06 0.07 0.03 0.01 0.00 0.00 0.00
0.06 0.05 0.05 0.05 0.07 0.07 0.10 0.12 0.12 0.14 0.16 0.16 0.17 0.19 0.22 0.23 0.26 0.28 0.32 0.53 0.46 0.30 0.24 0.19 0.03 0.03 0.00 0.00 0.00 0.00 0.00 0.00 0.00 0.00 0.00 0.00 0.00 0.02 0.01 0.05 0.04 0.03 0.02 0.01 0.01 0.00 0.01
0.06 0.05 0.05 0.07 0.10 0.14 0.15 0.14 0.12 0.13 0.16 0.20 0.27 0.26 0.23 0.27 0.30 0.35 0.60 1.06 0.77 0.40 0.21 0.05 0.01 0.00 0.00 0.00 0.00 0.00 0.00 0.00 0.00 0.00 0.01 0.01 0.03 0.02 0.00 0.00 0.00 0.01 0.04 0.03 0.00 0.01 0.02
0.06 0.07 0.07 0.12 0.17 0.15 0.17 0.18 0.16 0.16 0.19 0.24 0.28 0.25 0.25 0.23 0.31 0.62 0.89 1.03 0.50 0.10 0.07 0.02 0.00 0.00 0.00 0.00 0.00 0.00 0.00 0.00 0.01 0.00 0.00 0.04 0.04 0.00 0.00 0.00 0.01 0.06 0.08 0.04 0.02 0.02 0.04
0.09 0.13 0.20 0.22 0.15 0.17 0.19 0.22 0.31 0.41 0.38 0.28 0.21 0.27 0.27 0.37 0.53 0.82 0.84 0.53 0.18 0.18 0.17 0.06 0.00 0.00 0.00 0.01 0.01 0.00 0.00 0.00 0.00 0.01 0.01 0.01 0.00 0.00 0.00 0.00 0.03 0.06 0.11 0.09 0.04 0.06 0.05
0.08 0.15 0.20 0.18 0.23 0.30 0.32 0.36 0.39 0.40 0.45 0.42 0.34 0.37 0.49 0.65 1.07 0.67 0.64 0.36 0.36 0.36 0.27 0.05 0.01 0.01 0.01 0.07 0.07 0.00 0.00 0.01 0.02 0.01 0.02 0.05 0.00 0.05 0.03 0.01 0.04 0.05 0.05 0.11 0.16 0.15 0.03
0.07 0.19 0.16 0.16 0.22 0.31 0.41 0.48 0.46 0.40 0.36 0.55 0.76 0.63 0.49 0.78 0.99 0.86 0.48 0.31 0.54 0.52 0.31 0.01 0.01 0.01 0.04 0.06 0.05 0.01 0.00 0.08 0.06 0.02 0.08 0.08 0.00 0.01 0.05 0.01 0.01 0.08 0.06 0.11 0.23 0.35 0.34
0.07 0.16 0.23 0.29 0.35 0.36 0.31 0.31 0.37 0.52 0.62 0.86 0.87 0.81 0.70 0.77 0.81 0.71 0.52 0.46 0.87 0.63 0.17 0.01 0.01 0.05 0.10 0.05 0.04 0.04 0.02 0.10 0.15 0.31 0.29 0.05 0.04 0.09 0.04 0.02 0.04 0.12 0.21 0.24 0.46 0.48 0.68
0.10 0.17 0.30 0.38 0.39 0.37 0.36 0.33 0.37 0.53 0.76 0.76 0.82 1.03 1.05 0.61 0.60 0.59 1.06 0.93 0.92 0.36 0.02 0.04 0.02 0.06 0.04 0.05 0.06 0.09 0.14 0.14 0.28 0.38 0.43 0.29 0.08 0.08 0.10 0.12 0.19 0.33 0.52 0.76 0.70 0.88 0.42
0.12 0.17 0.30 0.40 0.43 0.45 0.55 0.50 0.50 0.54 0.66 0.71 1.03 1.13 1.22 0.81 0.62 0.74 1.45 0.85 0.43 0.07 0.00 0.01 0.04 0.08 0.11 0.07 0.09 0.08 0.28 0.16 0.10 0.24 0.38 0.18 0.08 0.08 0.06 0.11 0.31 0.42 0.50 0.60 0.35 0.28 0.17
0.15 0.23 0.36 0.41 0.48 0.56 0.54 0.46 0.43 0.56 0.59 0.75 1.31 1.59 1.35 1.12 0.87 1.08 1.06 0.66 0.15 0.03 0.03 0.05 0.11 0.14 0.13 0.07 0.08 0.08 0.13 0.11 0.01 0.05 0.31 0.17 0.07 0.03 0.03 0.08 0.33 0.57 0.61 0.35 0.50 0.18 0.27
0.20 0.24 0.40 0.54 0.60 0.71 0.55 0.49 0.64 0.67 0.84 0.98 1.76 2.16 1.18 0.91 1.20 1.10 0.74 0.39 0.04 0.05 0.07 0.13 0.08 0.03 0.03 0.02 0.03 0.03 0.03 0.00 0.00 0.00 0.07 0.15 0.17 0.14 0.14 0.29 0.30 0.47 0.31 0.48 1.02 0.61 0.19
0.19 0.23 0.31 0.61 0.73 0.73 0.64 0.62 0.72 0.93 1.03 1.44 1.82 1.99 1.14 1.09 1.66 1.46 0.76 0.22 0.03 0.04 0.08 0.12 0.05 0.02 0.00 0.00 0.00 0.00 0.00 0.00 0.00 0.00 0.03 0.18 0.24 0.37 0.69 0.50 0.25 0.48 0.55 0.37 0.51 0.43 0.25
0.17 0.21 0.31 0.50 0.64 0.58 0.75 0.70 0.70 0.96 1.13 1.61 1.66 1.47 1.32 1.55 1.91 1.20 0.34 0.09 0.07 0.07 0.14 0.13 0.10 0.02 0.00 0.00 0.00 0.00 0.00 0.00 0.00 0.01 0.10 0.26 0.47 0.58 0.42 0.16 0.10 0.18 0.23 0.18 0.64 0.42 0.36
0.16 0.20 0.30 0.41 0.55 0.46 0.55 0.70 0.43 0.78 1.14 1.39 1.49 1.23 1.86 1.03 0.80 0.50 0.13 0.12 0.12 0.06 0.12 0.15 0.07 0.01 0.00 0.00 0.00 0.00 0.00 0.00 0.00 0.01 0.18 0.43 0.92 0.71 0.56 0.43 0.48 0.64 0.32 0.36 0.60 0.91 0.70
0.14 0.18 0.24 0.30 0.38 0.39 0.51 0.65 0.53 0.70 1.03 1.31 1.50 1.40 2.72 1.80 0.49 0.05 0.06 0.13 0.12 0.05 0.07 0.13 0.09 0.02 0.04 0.02 0.00 0.00 0.00 0.00 0.00 0.00 0.16 0.72 0.80 0.85 0.67 0.61 0.87 0.72 0.33 0.52 0.99 0.94 0.32
0.14 0.15 0.17 0.23 0.29 0.34 0.50 0.77 0.93 1.16 1.40 1.22 1.02 0.66 0.68 0.78 0.41 0.03 0.07 0.11 0.17 0.17 0.12 0.14 0.09 0.03 0.06 0.02 0.00 0.00 0.00 0.00 0.00 0.00 0.16 0.66 1.15 1.28 0.54 0.32 0.69 0.60 0.31 0.43 0.91 0.49 0.32
0.11 0.10 0.13 0.21 0.21 0.30 0.45 0.81 0.99 1.21 1.45 1.04 0.64 0.55 0.10 0.04 0.03 0.02 0.03 0.09 0.17 0.24 0.25 0.16 0.10 0.04 0.04 0.05 0.00 0.00 0.00 0.00 0.00 0.01 0.14 0.55 0.95 0.81 0.34 0.20 0.40 0.47 0.23 0.33 0.54 0.39 0.26
0.10 0.09 0.12 0.19 0.13 0.21 0.30 0.64 0.62 1.00 1.43 1.19 0.62 0.48 0.12 0.06 0.03 0.03 0.02 0.02 0.09 0.26 0.17 0.07 0.06 0.09 0.06 0.03 0.01 0.00 0.00 0.00 0.00 0.01 0.07 0.33 0.63 0.81 0.64 0.41 0.55 0.51 0.26 0.30 0.40 0.33 0.21
0.10 0.11 0.13 0.15 0.11 0.11 0.24 0.69 0.78 1.14 1.30 1.05 0.61 0.64 0.30 0.10 0.03 0.01 0.01 0.02 0.09 0.19 0.19 0.11 0.06 0.09 0.06 0.06 0.04 0.01 0.01 0.00 0.01 0.01 0.01 0.06 0.29 0.63 0.73 0.66 0.67 0.48 0.29 0.21 0.23 0.23 0.17
0.10 0.10 0.15 0.11 0.11 0.07 0.23 0.64 0.78 0.76 0.68 0.52 0.46 0.59 0.36 0.09 0.02 0.02 0.02 0.03 0.10 0.16 0.24 0.22 0.08 0.03 0.05 0.07 0.16 0.11 0.07 0.05 0.01 0.01 0.01 0.01 0.07 0.27 0.23 0.25 0.19 0.07 0.16 0.17 0.23 0.16 0.07
0.09 0.09 0.11 0.09 0.10 0.06 0.14 0.37 0.49 0.46 0.57 0.40 0.44 0.61 0.53 0.21 0.05 0.02 0.02 0.06 0.13 0.18 0.25 0.20 0.10 0.08 0.13 0.20 0.32 0.18 0.06 0.05 0.01 0.01 0.01 0.01 0.02 0.12 0.09 0.17 0.08 0.03 0.02 0.01 0.02 0.04 0.00
0.08 0.09 0.08 0.07 0.07 0.06 0.09 0.31 0.59 0.45 0.44 0.36 0.41 0.47 0.46 0.19 0.03 0.01 0.02 0.10 0.18 0.18 0.24 0.31 0.22 0.19 0.17 0.31 0.28 0.15 0.03 0.00 0.00 0.00 0.02 0.04 0.04 0.07 0.05 0.08 0.00 0.00 0.00 0.00 0.00 0.00 0.00
0.08 0.07 0.05 0.07 0.06 0.07 0.06 0.20 0.45 0.38 0.39 0.44 0.26 0.32 0.46 0.24 0.01 0.00 0.00 0.05 0.21 0.24 0.23 0.30 0.33 0.28 0.29 0.31 0.24 0.10 0.02 0.00 0.00 0.00 0.00 0.02 0.03 0.02 0.01 0.01 0.00 0.00 0.00 0.00 0.00 0.00 0.00
0.07 0.04 0.05 0.05 0.06 0.07 0.06 0.13 0.31 0.34 0.32 0.43 0.35 0.23 0.34 0.19 0.03 0.00 0.00 0.01 0.12 0.26 0.30 0.33 0.27 0.15 0.20 0.15 0.14 0.08 0.03 0.01 0.00 0.00 0.00 0.00 0.00 0.00 0.00 0.00 0.00 0.00 0.00 0.00 0.00 0.00 0.00

GFSGBSN_prec_precacc24_030.txt.gz
Total_Precipitation_Accumulation
0.11 0.08 0.06 0.06 0.06 0.06 0.07 0.08 0.10 0.08 0.06 0.09 0.12 0.10 0.11 0.10 0.09 0.09 0.11 0.09 0.09 0.08 0.02 0.00 0.00 0.02 0.01 0.03 0.01 0.00 0.00 0.00 0.03 0.24 0.07 0.00 0.00 0.00 0.00 0.00 0.00 0.00 0.00 0.00 0.00 0.00 0.00
0.07 0.05 0.04 0.05 0.05 0.07 0.09 0.10 0.09 0.07 0.09 0.12 0.11 0.11 0.09 0.09 0.10 0.09 0.11 0.09 0.08 0.09 0.04 0.00 0.00 0.02 0.01 0.01 0.00 0.00 0.00 0.00 0.00 0.09 0.11 0.03 0.00 0.00 0.00 0.00 0.00 0.00 0.00 0.00 0.00 0.00 0.00
0.04 0.04 0.05 0.06 0.08 0.11 0.11 0.11 0.11 0.14 0.15 0.13 0.13 0.14 0.11 0.12 0.13 0.11 0.11 0.12 0.14 0.11 0.12 0.00 0.01 0.01 0.01 0.00 0.00 0.00 0.00 0.00 0.00 0.05 0.13 0.06 0.02 0.04 0.04 0.01 0.00 0.00 0.01 0.00 0.00 0.00 0.00
0.03 0.05 0.06 0.06 0.08 0.08 0.09 0.09 0.13 0.14 0.12 0.13 0.14 0.14 0.14 0.14 0.17 0.19 0.16 0.13 0.19 0.25 0.27 0.05 0.01 0.01 0.01 0.00 0.00 0.00 0.00 0.00 0.00 0.02 0.14 0.11 0.01 0.01 0.01 0.01 0.00 0.01 0.02 0.00 0.00 0.00 0.00
0.05 0.06 0.07 0.08 0.08 0.07 0.08 0.11 0.14 0.12 0.13 0.16 0.17 0.15 0.17 0.23 0.24 0.23 0.24 0.24 0.28 0.26 0.36 0.21 0.02 0.01 0.00 0.00 0.00 0.00 0.00 0.00 0.00 0.07 0.12 0.07 0.01 0.00 0.00 0.02 0.02 0.01 0.01 0.00 0.00 0.00 0.00
0.05 0.06 0.05 0.05 0.07 0.08 0.13 0.15 0.14 0.16 0.17 0.20 0.19 0.20 0.27 0.27 0.31 0.32 0.32 0.52 0.44 0.45 0.54 0.38 0.04 0.02 0.00 0.00 0.00 0.00 0.00 0.00 0.00 0.02 0.06 0.04 0.01 0.00 0.00 0.02 0.02 0.01 0.01 0.00 0.00 0.00 0.01
0.03 0.04 0.05 0.07 0.11 0.16 0.16 0.16 0.14 0.16 0.18 0.24 0.29 0.27 0.24 0.29 0.32 0.35 0.60 1.07 0.85 0.73 0.68 0.24 0.03 0.00 0.00 0.00 0.00 0.00 0.00 0.00 0.00 0.01 0.01 0.01 0.02 0.01 0.00 0.00 0.00 0.00 0.00 0.01 0.00 0.00 0.02
0.02 0.03 0.05 0.13 0.18 0.16 0.19 0.20 0.20 0.20 0.22 0.27 0.30 0.26 0.28 0.26 0.32 0.62 0.90 1.05 0.68 0.49 0.42 0.12 0.00 0.00 0.00 0.00 0.00 0.00 0.00 0.00 0.01 0.01 0.00 0.01 0.01 0.00 0.00 0.00 0.00 0.00 0.00 0.00 0.00 0.01 0.04
0.02 0.04 0.08 0.17 0.15 0.18 0.21 0.25 0.34 0.44 0.40 0.31 0.23 0.28 0.32 0.40 0.57 0.84 0.84 0.53 0.32 0.62 0.43 0.18 0.02 0.00 0.00 0.00 0.01 0.00 0.00 0.00 0.00 0.00 0.00 0.00 0.00 0.00 0.00 0.00 0.00 0.00 0.00 0.00 0.00 0.03 0.04
0.03 0.04 0.08 0.13 0.22 0.30 0.33 0.37 0.40 0.42 0.45 0.42 0.34 0.39 0.52 0.71 1.14 0.76 0.65 0.36 0.53 0.78 0.36 0.19 0.02 0.01 0.01 0.03 0.03 0.00 0.00 0.00 0.01 0.00 0.01 0.02 0.00 0.00 0.00 0.00 0.00 0.00 0.00 0.00 0.01 0.07 0.02
0.03 0.06 0.08 0.11 0.18 0.29 0.40 0.48 0.46 0.40 0.34 0.54 0.76 0.64 0.50 0.84 1.03 0.88 0.56 0.34 0.68 0.87 0.41 0.11 0.02 0.01 0.04 0.03 0.01 0.00 0.00 0.05 0.04 0.00 0.03 0.05 0.00 0.00 0.00 0.00 0.00 0.00 0.00 0.01 0.04 0.29 0.28
0.04 0.10 0.14 0.16 0.22 0.29 0.29 0.30 0.36 0.49 0.60 0.85 0.87 0.81 0.71 0.78 0.83 0.76 0.65 0.49 1.08 0.90 0.38 0.11 0.03 0.05 0.08 0.04 0.03 0.01 0.02 0.07 0.12 0.24 0.23 0.04 0.00 0.01 0.00 0.00 0.00 0.01 0.04 0.06 0.17 0.31 0.62
0.08 0.13 0.19 0.19 0.22 0.24 0.33 0.31 0.35 0.50 0.73 0.75 0.81 1.03 1.05 0.62 0.64 0.68 1.15 0.95 1.14 0.54 0.12 0.03 0.02 0.05 0.03 0.03 0.05 0.05 0.11 0.12 0.24 0.35 0.37 0.24 0.06 0.01 0.03 0.02 0.02 0.04 0.17 0.26 0.38 0.67 0.36
0.08 0.14 0.22 0.23 0.25 0.31 0.51 0.50 0.47 0.49 0.62 0.70 1.02 1.11 1.24 0.86 0.71 0.80 1.58 0.90 0.50 0.15 0.04 0.00 0.02 0.04 0.04 0.02 0.05 0.05 0.23 0.14 0.08 0.22 0.24 0.13 0.07 0.03 0.01 0.01 0.03 0.04 0.07 0.24 0.16 0.19 0.17
0.11 0.17 0.23 0.23 0.27 0.38 0.47 0.44 0.39 0.50 0.57 0.73 1.23 1.55 1.44 1.25 0.94 1.09 1.14 0.68 0.29 0.04 0.01 0.02 0.06 0.11 0.07 0.03 0.07 0.07 0.11 0.09 0.01 0.03 0.09 0.07 0.06 0.01 0.00 0.00 0.10 0.21 0.23 0.15 0.44 0.18 0.27
0.13 0.18 0.22 0.23 0.31 0.53 0.49 0.45 0.53 0.59 0.83 0.97 1.71 2.17 1.25 1.00 1.18 1.07 0.78 0.49 0.11 0.01 0.01 0.05 0.07 0.03 0.02 0.01 0.04 0.03 0.02 0.00 0.00 0.00 0.00 0.02 0.14 0.09 0.05 0.04 0.06 0.17 0.10 0.31 0.96 0.60 0.18
0.12 0.18 0.20 0.27 0.39 0.53 0.57 0.59 0.60 0.75 1.03 1.40 1.82 1.97 1.24 1.12 1.63 1.37 0.92 0.46 0.03 0.00 0.03 0.07 0.05 0.02 0.00 0.00 0.00 0.00 0.00 0.00 0.00 0.00 0.00 0.03 0.11 0.13 0.34 0.14 0.04 0.24 0.30 0.29 0.47 0.42 0.24
0.12 0.17 0.20 0.29 0.36 0.46 0.64 0.62 0.60 0.87 1.12 1.53 1.63 1.51 1.38 1.58 1.88 1.18 0.43 0.16 0.02 0.01 0.04 0.10 0.10 0.02 0.00 0.00 0.00 0.00 0.00 0.00 0.00 0.00 0.01 0.04 0.20 0.19 0.10 0.05 0.04 0.07 0.17 0.16 0.63 0.41 0.36
0.14 0.15 0.16 0.22 0.35 0.35 0.44 0.38 0.33 0.73 1.13 1.37 1.47 1.31 1.83 1.04 0.78 0.52 0.23 0.07 0.03 0.03 0.07 0.12 0.07 0.01 0.00 0.00 0.00 0.00 0.00 0.00 0.00 0.01 0.08 0.25 0.51 0.33 0.22 0.36 0.42 0.51 0.27 0.36 0.61 0.96 0.73
0.12 0.13 0.13 0.16 0.26 0.28 0.33 0.30 0.32 0.68 1.01 1.29 1.49 1.39 2.58 1.67 0.48 0.06 0.08 0.07 0.04 0.03 0.06 0.12 0.09 0.02 0.04 0.02 0.00 0.00 0.00 0.00 0.00 0.00 0.10 0.56 0.53 0.62 0.60 0.60 0.85 0.69 0.33 0.52 1.05 1.07 0.35
0.12 0.11 0.11 0.14 0.18 0.21 0.24 0.27 0.60 1.13 1.36 1.16 0.99 0.65 0.65 0.75 0.41 0.04 0.03 0.05 0.06 0.09 0.11 0.14 0.09 0.03 0.06 0.02 0.00 0.00 0.00 0.00 0.00 0.00 0.14 0.59 1.04 1.23 0.54 0.32 0.69 0.60 0.31 0.43 0.96 0.54 0.42
0.10 0.08 0.10 0.14 0.12 0.15 0.17 0.19 0.52 1.14 1.36 0.95 0.61 0.54 0.09 0.03 0.03 0.02 0.02 0.05 0.04 0.09 0.18 0.15 0.10 0.03 0.03 0.05 0.00 0.00 0.00 0.00 0.00 0.01 0.14 0.55 0.95 0.81 0.34 0.20 0.40 0.47 0.23 0.35 0.56 0.41 0.29
0.10 0.07 0.09 0.13 0.08 0.11 0.11 0.24 0.46 0.96 1.33 1.12 0.60 0.48 0.12 0.05 0.03 0.03 0.02 0.01 0.01 0.11 0.08 0.06 0.06 0.07 0.05 0.03 0.01 0.00 0.00 0.00 0.00 0.01 0.06 0.34 0.63 0.81 0.64 0.41 0.55 0.52 0.26 0.31 0.41 0.35 0.23
0.09 0.10 0.10 0.09 0.05 0.07 0.09 0.31 0.59 1.09 1.29 1.05 0.61 0.61 0.25 0.09 0.03 0.01 0.00 0.01 0.01 0.06 0.09 0.08 0.05 0.07 0.04 0.04 0.04 0.01 0.01 0.00 0.00 0.01 0.01 0.06 0.30 0.63 0.74 0.66 0.67 0.48 0.29 0.21 0.23 0.23 0.17
0.10 0.09 0.12 0.07 0.04 0.05 0.08 0.34 0.55 0.67 0.67 0.52 0.45 0.53 0.31 0.08 0.02 0.02 0.02 0.01 0.03 0.06 0.10 0.13 0.07 0.03 0.03 0.07 0.13 0.08 0.05 0.04 0.01 0.01 0.01 0.01 0.07 0.29 0.24 0.25 0.19 0.08 0.16 0.17 0.23 0.16 0.07
0.09 0.08 0.08 0.04 0.04 0.04 0.05 0.20 0.42 0.43 0.55 0.39 0.44 0.57 0.47 0.18 0.04 0.02 0.02 0.01 0.03 0.12 0.16 0.14 0.09 0.07 0.10 0.19 0.31 0.18 0.06 0.04 0.01 0.00 0.01 0.01 0.02 0.14 0.10 0.19 0.08 0.04 0.02 0.01 0.02 0.04 0.01
0.09 0.09 0.06 0.04 0.02 0.03 0.03 0.09 0.41 0.36 0.42 0.35 0.41 0.46 0.39 0.16 0.03 0.01 0.01 0.01 0.03 0.12 0.19 0.29 0.20 0.17 0.13 0.30 0.27 0.14 0.02 0.00 0.00 0.00 0.01 0.02 0.02 0.07 0.07 0.12 0.00 0.00 0.00 0.00 0.00 0.00 0.00
0.08 0.07 0.04 0.04 0.02 0.04 0.03 0.06 0.31 0.31 0.38 0.43 0.26 0.31 0.42 0.22 0.01 0.00 0.00 0.01 0.06 0.13 0.20 0.29 0.31 0.26 0.26 0.31 0.21 0.09 0.02 0.01 0.00 0.00 0.00 0.01 0.02 0.01 0.02 0.02 0.00 0.00 0.00 0.00 0.00 0.00 0.00
0.08 0.04 0.04 0.03 0.02 0.03 0.03 0.04 0.19 0.28 0.30 0.42 0.35 0.22 0.29 0.18 0.03 0.00 0.00 0.00 0.03 0.09 0.21 0.31 0.27 0.15 0.20 0.16 0.13 0.09 0.04 0.01 0.00 0.00 0.00 0.00 0.00 0.00 0.00 0.00 0.00 0.00 0.00 0.00 0.00 0.00 0.00

GFSGBSN_prec_precacc24_033.txt.gz
Total_Precipitation_Accumulation
0.10 0.08 0.06 0.06 0.06 0.06 0.06 0.08 0.10 0.08 0.06 0.09 0.12 0.11 0.11 0.10 0.09 0.10 0.12 0.10 0.10 0.11 0.10 0.05 0.01 0.01 0.00 0.03 0.01 0.00 0.00 0.02 0.10 0.30 0.08 0.00 0.00 0.00 0.00 0.00 0.00 0.00 0.00 0.00 0.00 0.00 0.00
0.07 0.06 0.04 0.05 0.05 0.07 0.10 0.11 0.10 0.08 0.11 0.13 0.12 0.11 0.10 0.10 0.10 0.10 0.12 0.10 0.09 0.12 0.12 0.09 0.02 0.01 0.00 0.00 0.00 0.00 0.00 0.00 0.01 0.14 0.14 0.03 0.00 0.00 0.00 0.00 0.00 0.00 0.00 0.00 0.00 0.00 0.00
0.02 0.03 0.05 0.07 0.09 0.12 0.12 0.12 0.12 0.16 0.17 0.15 0.13 0.14 0.12 0.12 0.13 0.12 0.12 0.14 0.15 0.13 0.19 0.24 0.07 0.00 0.00 0.00 0.00 0.00 0.00 0.00 0.00 0.06 0.16 0.09 0.03 0.03 0.03 0.01 0.00 0.00 0.00 0.00 0.00 0.00 0.00
0.01 0.02 0.04 0.07 0.09 0.09 0.09 0.10 0.14 0.16 0.15 0.15 0.17 0.15 0.14 0.14 0.18 0.21 0.21 0.16 0.19 0.29 0.33 0.30 0.12 0.01 0.00 0.00 0.00 0.00 0.00 0.00 0.00 0.02 0.16 0.21 0.03 0.01 0.00 0.01 0.00 0.00 0.00 0.00 0.00 0.00 0.00
0.02 0.02 0.02 0.05 0.09 0.08 0.10 0.11 0.15 0.14 0.16 0.19 0.22 0.18 0.19 0.26 0.29 0.30 0.29 0.24 0.28 0.28 0.42 0.63 0.23 0.02 0.00 0.00 0.00 0.00 0.00 0.00 0.00 0.09 0.19 0.17 0.07 0.01 0.00 0.01 0.01 0.00 0.00 0.00 0.00 0.00 0.00
0.03 0.02 0.02 0.04 0.07 0.10 0.14 0.16 0.16 0.18 0.19 0.22 0.22 0.23 0.29 0.30 0.33 0.37 0.34 0.52 0.44 0.46 0.61 0.91 0.25 0.03 0.00 0.00 0.00 0.00 0.00 0.00 0.00 0.09 0.11 0.10 0.07 0.06 0.02 0.02 0.01 0.00 0.00 0.00 0.00 0.00 0.00
0.03 0.02 0.02 0.06 0.09 0.14 0.17 0.17 0.16 0.17 0.20 0.25 0.30 0.27 0.25 0.32 0.34 0.38 0.61 1.07 0.85 0.77 0.92 0.67 0.15 0.01 0.00 0.00 0.00 0.00 0.00 0.00 0.01 0.04 0.05 0.05 0.04 0.04 0.01 0.00 0.00 0.00 0.00 0.00 0.00 0.00 0.00
0.02 0.03 0.04 0.09 0.08 0.10 0.17 0.20 0.21 0.21 0.24 0.28 0.32 0.26 0.28 0.30 0.38 0.70 1.00 1.06 0.68 0.57 0.69 0.36 0.02 0.00 0.00 0.00 0.00 0.00 0.00 0.00 0.01 0.01 0.01 0.03 0.05 0.01 0.00 0.00 0.00 0.00 0.00 0.00 0.00 0.00 0.01
0.03 0.04 0.07 0.09 0.07 0.10 0.13 0.22 0.33 0.44 0.41 0.29 0.22 0.28 0.33 0.44 0.62 0.95 0.95 0.54 0.33 0.65 0.66 0.44 0.09 0.01 0.00 0.00 0.00 0.00 0.00 0.00 0.00 0.01 0.00 0.00 0.00 0.00 0.00 0.00 0.00 0.00 0.00 0.00 0.00 0.00 0.00
0.03 0.04 0.09 0.09 0.10 0.13 0.16 0.28 0.37 0.39 0.43 0.39 0.32 0.38 0.54 0.74 1.17 0.81 0.68 0.38 0.54 0.85 0.47 0.39 0.18 0.04 0.01 0.02 0.01 0.00 0.00 0.00 0.01 0.00 0.00 0.02 0.00 0.00 0.00 0.00 0.00 0.00 0.00 0.00 0.00 0.01 0.00
0.03 0.05 0.09 0.12 0.16 0.20 0.26 0.34 0.41 0.37 0.28 0.51 0.74 0.63 0.50 0.88 1.04 0.89 0.62 0.35 0.71 1.03 0.55 0.29 0.14 0.02 0.04 0.02 0.00 0.00 0.00 0.01 0.01 0.00 0.02 0.03 0.00 0.00 0.00 0.00 0.00 0.00 0.00 0.00 0.01 0.02 0.05
0.04 0.08 0.13 0.16 0.22 0.25 0.22 0.22 0.26 0.43 0.52 0.80 0.85 0.81 0.71 0.78 0.84 0.78 0.73 0.49 1.11 1.05 0.63 0.38 0.10 0.06 0.08 0.05 0.02 0.01 0.02 0.04 0.07 0.16 0.17 0.03 0.00 0.00 0.00 0.00 0.00 0.01 0.03 0.04 0.06 0.13 0.14
0.06 0.10 0.17 0.18 0.21 0.19 0.21 0.19 0.23 0.39 0.65 0.69 0.80 1.05 1.07 0.65 0.67 0.71 1.19 0.95 1.15 0.63 0.36 0.18 0.05 0.05 0.03 0.03 0.03 0.02 0.05 0.09 0.16 0.25 0.32 0.23 0.06 0.00 0.00 0.00 0.01 0.03 0.15 0.21 0.20 0.25 0.07
0.06 0.11 0.19 0.19 0.20 0.23 0.35 0.32 0.30 0.34 0.52 0.61 0.95 1.10 1.25 0.89 0.75 0.81 1.59 0.90 0.54 0.27 0.18 0.04 0.02 0.04 0.04 0.01 0.03 0.03 0.07 0.08 0.06 0.20 0.23 0.13 0.07 0.03 0.01 0.00 0.01 0.02 0.04 0.13 0.07 0.02 0.00
0.08 0.13 0.17 0.17 0.18 0.22 0.26 0.25 0.23 0.36 0.48 0.64 1.12 1.40 1.46 1.32 0.98 1.09 1.15 0.68 0.39 0.18 0.03 0.02 0.05 0.07 0.07 0.02 0.02 0.04 0.05 0.03 0.01 0.03 0.08 0.03 0.01 0.00 0.00 0.00 0.05 0.16 0.20 0.06 0.14 0.12 0.20
0.09 0.13 0.16 0.17 0.22 0.31 0.29 0.26 0.35 0.44 0.75 0.83 1.51 1.96 1.22 1.06 1.16 1.05 0.82 0.52 0.25 0.08 0.00 0.00 0.05 0.03 0.02 0.01 0.03 0.03 0.01 0.00 0.00 0.00 0.00 0.00 0.01 0.00 0.02 0.01 0.01 0.06 0.06 0.17 0.49 0.26 0.11
0.10 0.15 0.15 0.14 0.18 0.24 0.34 0.40 0.41 0.56 0.84 0.99 1.70 1.84 1.17 1.06 1.44 1.29 1.02 0.63 0.12 0.02 0.00 0.00 0.02 0.02 0.00 0.00 0.00 0.00 0.00 0.00 0.00 0.00 0.00 0.00 0.03 0.04 0.23 0.08 0.00 0.03 0.13 0.14 0.16 0.17 0.14
0.12 0.15 0.14 0.12 0.13 0.16 0.33 0.42 0.47 0.45 0.71 0.94 1.47 1.44 1.33 1.49 1.68 1.20 0.71 0.39 0.12 0.01 0.00 0.01 0.05 0.02 0.00 0.00 0.00 0.00 0.00 0.00 0.00 0.00 0.00 0.01 0.12 0.11 0.03 0.02 0.02 0.02 0.04 0.07 0.32 0.10 0.26
0.14 0.14 0.12 0.11 0.12 0.11 0.20 0.22 0.27 0.25 0.63 1.04 1.31 1.21 1.67 0.99 0.75 0.60 0.31 0.08 0.03 0.01 0.01 0.04 0.05 0.01 0.00 0.00 0.00 0.00 0.00 0.00 0.00 0.00 0.04 0.11 0.35 0.25 0.13 0.25 0.27 0.34 0.11 0.14 0.32 0.65 0.66
0.12 0.13 0.11 0.11 0.12 0.10 0.15 0.13 0.19 0.26 0.70 1.17 1.38 1.29 2.33 1.48 0.47 0.10 0.14 0.09 0.03 0.01 0.01 0.08 0.07 0.02 0.04 0.02 0.00 0.00 0.00 0.00 0.00 0.00 0.04 0.23 0.31 0.30 0.37 0.47 0.77 0.53 0.16 0.26 0.72 1.01 0.35
0.12 0.11 0.11 0.11 0.10 0.07 0.09 0.07 0.14 0.45 1.05 1.13 0.95 0.61 0.62 0.69 0.39 0.04 0.03 0.05 0.03 0.01 0.03 0.12 0.08 0.03 0.06 0.02 0.00 0.00 0.00 0.00 0.00 0.00 0.10 0.41 0.55 0.61 0.41 0.28 0.69 0.56 0.21 0.25 0.80 0.53 0.49
0.10 0.08 0.09 0.12 0.08 0.04 0.08 0.08 0.15 0.52 0.99 0.88 0.58 0.53 0.08 0.02 0.02 0.01 0.02 0.05 0.01 0.01 0.06 0.12 0.09 0.03 0.03 0.04 0.00 0.00 0.00 0.00 0.00 0.01 0.13 0.47 0.72 0.67 0.32 0.19 0.38 0.44 0.21 0.34 0.55 0.41 0.30
0.10 0.07 0.09 0.12 0.05 0.03 0.06 0.11 0.17 0.43 1.06 1.01 0.56 0.46 0.11 0.05 0.02 0.02 0.02 0.01 0.00 0.01 0.01 0.03 0.06 0.07 0.04 0.02 0.01 0.00 0.00 0.00 0.00 0.01 0.06 0.31 0.58 0.80 0.63 0.41 0.55 0.52 0.26 0.31 0.41 0.35 0.24
0.09 0.10 0.10 0.09 0.03 0.02 0.04 0.09 0.18 0.45 0.81 1.00 0.60 0.58 0.23 0.07 0.02 0.01 0.00 0.00 0.00 0.01 0.01 0.01 0.04 0.07 0.03 0.02 0.02 0.01 0.00 0.00 0.00 0.00 0.01 0.06 0.30 0.63 0.74 0.66 0.67 0.49 0.29 0.21 0.23 0.23 0.17
0.10 0.09 0.12 0.07 0.03 0.02 0.03 0.06 0.19 0.47 0.45 0.48 0.43 0.50 0.28 0.06 0.01 0.01 0.01 0.01 0.02 0.04 0.02 0.03 0.04 0.02 0.02 0.05 0.10 0.04 0.02 0.02 0.00 0.00 0.01 0.01 0.07 0.29 0.24 0.25 0.19 0.08 0.16 0.17 0.23 0.16 0.08
0.09 0.09 0.08 0.05 0.02 0.01 0.02 0.04 0.17 0.35 0.39 0.30 0.42 0.53 0.44 0.16 0.02 0.00 0.01 0.01 0.02 0.06 0.07 0.05 0.05 0.05 0.08 0.17 0.28 0.14 0.04 0.01 0.01 0.00 0.00 0.01 0.02 0.15 0.11 0.20 0.08 0.04 0.02 0.01 0.02 0.04 0.01
0.09 0.09 0.06 0.04 0.01 0.01 0.02 0.04 0.20 0.29 0.35 0.29 0.39 0.44 0.33 0.13 0.02 0.00 0.00 0.01 0.00 0.01 0.07 0.18 0.16 0.15 0.12 0.22 0.22 0.13 0.02 0.00 0.00 0.00 0.00 0.02 0.04 0.11 0.10 0.16 0.00 0.00 0.00 0.00 0.00 0.00 0.00
0.07 0.07 0.04 0.04 0.02 0.02 0.02 0.03 0.16 0.24 0.28 0.35 0.26 0.30 0.39 0.20 0.01 0.00 0.00 0.00 0.01 0.02 0.07 0.17 0.23 0.20 0.21 0.25 0.15 0.08 0.02 0.01 0.00 0.00 0.00 0.00 0.01 0.01 0.02 0.04 0.00 0.00 0.00 0.00 0.00 0.00 0.00
0.06 0.05 0.04 0.03 0.02 0.02 0.02 0.01 0.06 0.18 0.22 0.32 0.34 0.22 0.27 0.16 0.03 0.00 0.00 0.00 0.00 0.01 0.10 0.18 0.19 0.13 0.18 0.15 0.13 0.08 0.04 0.01 0.00 0.00 0.00 0.00 0.00 0.00 0.00 0.00 0.00 0.00 0.00 0.00 0.00 0.00 0.00

GFSGBSN_prec_precacc24_036.txt.gz
Total_Precipitation_Accumulation
0.00 0.02 0.03 0.06 0.07 0.06 0.07 0.09 0.11 0.08 0.08 0.13 0.15 0.15 0.13 0.11 0.10 0.10 0.12 0.10 0.10 0.11 0.11 0.09 0.13 0.06 0.01 0.03 0.01 0.00 0.00 0.02 0.12 0.31 0.08 0.00 0.00 0.00 0.00 0.00 0.00 0.00 0.00 0.00 0.00 0.00 0.00
0.01 0.01 0.02 0.02 0.03 0.07 0.11 0.12 0.11 0.09 0.12 0.15 0.15 0.16 0.12 0.12 0.12 0.10 0.12 0.10 0.10 0.13 0.13 0.11 0.17 0.13 0.01 0.00 0.00 0.00 0.01 0.01 0.03 0.16 0.14 0.03 0.00 0.00 0.00 0.00 0.00 0.00 0.00 0.00 0.00 0.00 0.00
0.02 0.02 0.02 0.01 0.02 0.08 0.12 0.13 0.13 0.16 0.18 0.17 0.16 0.17 0.12 0.14 0.17 0.13 0.12 0.14 0.16 0.15 0.20 0.25 0.23 0.23 0.00 0.00 0.00 0.00 0.01 0.02 0.03 0.09 0.16 0.09 0.03 0.02 0.02 0.01 0.00 0.00 0.00 0.00 0.00 0.00 0.00
0.02 0.03 0.01 0.01 0.03 0.05 0.08 0.11 0.15 0.16 0.15 0.17 0.20 0.18 0.15 0.17 0.20 0.23 0.26 0.19 0.20 0.29 0.33 0.31 0.36 0.23 0.02 0.00 0.00 0.00 0.00 0.00 0.00 0.03 0.18 0.25 0.06 0.01 0.00 0.00 0.00 0.00 0.00 0.00 0.00 0.00 0.00
0.02 0.02 0.01 0.02 0.06 0.06 0.08 0.10 0.15 0.14 0.16 0.21 0.23 0.19 0.22 0.29 0.31 0.33 0.33 0.25 0.28 0.28 0.41 0.64 0.62 0.22 0.01 0.00 0.00 0.00 0.00 0.00 0.00 0.10 0.28 0.22 0.11 0.02 0.00 0.01 0.01 0.00 0.00 0.00 0.00 0.00 0.00
0.03 0.02 0.02 0.04 0.08 0.09 0.10 0.11 0.13 0.17 0.20 0.23 0.22 0.23 0.32 0.32 0.35 0.41 0.37 0.52 0.44 0.46 0.60 1.00 0.71 0.25 0.01 0.00 0.00 0.00 0.00 0.00 0.02 0.11 0.16 0.16 0.16 0.10 0.03 0.01 0.01 0.00 0.00 0.00 0.00 0.00 0.00
0.03 0.02 0.03 0.07 0.09 0.09 0.11 0.12 0.12 0.15 0.19 0.25 0.30 0.24 0.24 0.33 0.37 0.43 0.66 1.08 0.85 0.77 0.92 0.88 0.35 0.08 0.00 0.00 0.00 0.00 0.00 0.00 0.05 0.12 0.07 0.06 0.08 0.14 0.05 0.01 0.00 0.00 0.00 0.00 0.00 0.00 0.00
0.03 0.03 0.04 0.10 0.09 0.09 0.12 0.12 0.14 0.18 0.22 0.26 0.31 0.23 0.26 0.31 0.41 0.76 1.10 1.14 0.69 0.57 0.72 0.52 0.11 0.03 0.00 0.00 0.00 0.00 0.00 0.00 0.02 0.05 0.05 0.04 0.06 0.03 0.04 0.02 0.00 0.00 0.00 0.00 0.00 0.00 0.00
0.03 0.04 0.07 0.10 0.09 0.11 0.13 0.15 0.19 0.28 0.37 0.26 0.18 0.24 0.31 0.44 0.62 0.95 0.98 0.56 0.33 0.66 0.81 0.64 0.26 0.10 0.00 0.00 0.00 0.00 0.00 0.00 0.00 0.01 0.02 0.02 0.00 0.00 0.01 0.00 0.00 0.00 0.00 0.00 0.00 0.00 0.00
0.03 0.04 0.09 0.10 0.11 0.13 0.15 0.20 0.27 0.28 0.31 0.31 0.25 0.31 0.51 0.73 1.17 0.81 0.68 0.42 0.54 0.86 0.65 0.73 0.37 0.11 0.01 0.02 0.01 0.00 0.00 0.00 0.00 0.00 0.01 0.02 0.00 0.00 0.00 0.00 0.00 0.00 0.00 0.00 0.00 0.01 0.00
0.03 0.05 0.10 0.11 0.14 0.19 0.25 0.26 0.25 0.18 0.11 0.39 0.66 0.57 0.49 0.93 1.06 0.90 0.62 0.37 0.71 1.06 0.70 0.59 0.30 0.04 0.04 0.02 0.00 0.03 0.01 0.00 0.00 0.00 0.01 0.02 0.00 0.00 0.00 0.00 0.00 0.00 0.00 0.00 0.00 0.01 0.03
0.04 0.08 0.12 0.13 0.17 0.22 0.20 0.18 0.15 0.14 0.25 0.60 0.71 0.78 0.75 0.80 0.85 0.80 0.75 0.50 1.11 1.09 0.87 0.75 0.22 0.06 0.09 0.05 0.02 0.02 0.02 0.03 0.03 0.05 0.05 0.01 0.00 0.00 0.00 0.00 0.00 0.00 0.02 0.03 0.05 0.08 0.11
0.05 0.10 0.15 0.13 0.14 0.16 0.16 0.15 0.19 0.24 0.40 0.47 0.52 1.03 1.09 0.67 0.70 0.72 1.19 0.95 1.15 0.66 0.50 0.44 0.14 0.06 0.04 0.03 0.04 0.03 0.05 0.05 0.05 0.10 0.14 0.11 0.04 0.00 0.00 0.00 0.00 0.02 0.13 0.17 0.18 0.22 0.06
0.06 0.11 0.16 0.15 0.16 0.14 0.16 0.21 0.25 0.29 0.37 0.37 0.58 0.94 1.23 0.91 0.75 0.82 1.59 0.90 0.55 0.32 0.34 0.20 0.03 0.05 0.04 0.02 0.03 0.03 0.04 0.04 0.03 0.09 0.15 0.06 0.03 0.02 0.01 0.00 0.00 0.02 0.04 0.12 0.06 0.01 0.00
0.07 0.13 0.16 0.15 0.15 0.12 0.14 0.16 0.19 0.30 0.34 0.42 0.54 1.12 1.35 1.34 0.98 1.09 1.15 0.68 0.43 0.34 0.29 0.07 0.06 0.05 0.07 0.02 0.02 0.03 0.03 0.01 0.01 0.01 0.04 0.03 0.01 0.00 0.00 0.00 0.04 0.15 0.17 0.06 0.12 0.09 0.18
0.08 0.13 0.16 0.15 0.13 0.10 0.12 0.15 0.26 0.35 0.51 0.55 0.54 1.40 1.10 1.07 1.15 1.04 0.86 0.57 0.31 0.18 0.03 0.00 0.06 0.02 0.02 0.02 0.02 0.02 0.01 0.00 0.00 0.00 0.00 0.00 0.01 0.00 0.00 0.00 0.01 0.04 0.05 0.16 0.45 0.22 0.10
0.09 0.14 0.15 0.12 0.11 0.07 0.07 0.15 0.21 0.36 0.60 0.59 0.87 1.30 0.99 0.99 1.32 1.19 1.10 0.81 0.23 0.08 0.01 0.00 0.00 0.00 0.00 0.01 0.01 0.00 0.00 0.00 0.00 0.00 0.00 0.00 0.01 0.01 0.00 0.01 0.00 0.01 0.07 0.11 0.15 0.13 0.04
0.11 0.14 0.14 0.11 0.10 0.04 0.06 0.19 0.17 0.24 0.51 0.50 0.66 0.97 1.20 1.28 1.52 1.24 0.90 0.52 0.21 0.03 0.00 0.00 0.00 0.00 0.00 0.00 0.00 0.00 0.00 0.00 0.00 0.00 0.00 0.00 0.07 0.03 0.00 0.00 0.01 0.02 0.00 0.05 0.31 0.09 0.16
0.13 0.13 0.12 0.11 0.10 0.04 0.04 0.09 0.12 0.16 0.50 0.57 0.56 0.88 1.45 0.81 0.69 0.59 0.32 0.09 0.04 0.02 0.00 0.00 0.00 0.00 0.00 0.00 0.00 0.00 0.00 0.00 0.00 0.00 0.00 0.04 0.20 0.15 0.08 0.12 0.14 0.28 0.08 0.12 0.31 0.57 0.45
0.12 0.12 0.11 0.11 0.11 0.04 0.03 0.03 0.07 0.14 0.47 0.74 0.67 0.99 2.09 1.14 0.36 0.11 0.14 0.09 0.03 0.00 0.00 0.01 0.02 0.02 0.04 0.01 0.00 0.00 0.00 0.00 0.00 0.00 0.01 0.12 0.20 0.17 0.22 0.34 0.62 0.50 0.15 0.22 0.61 0.75 0.14
0.12 0.11 0.10 0.11 0.09 0.04 0.02 0.01 0.04 0.16 0.39 0.46 0.49 0.44 0.58 0.58 0.33 0.03 0.03 0.04 0.03 0.01 0.01 0.03 0.04 0.02 0.06 0.02 0.00 0.00 0.00 0.00 0.00 0.00 0.05 0.24 0.28 0.30 0.30 0.26 0.62 0.53 0.20 0.17 0.48 0.25 0.34
0.10 0.08 0.09 0.12 0.07 0.02 0.02 0.02 0.06 0.24 0.40 0.43 0.40 0.46 0.07 0.02 0.02 0.01 0.01 0.04 0.01 0.00 0.02 0.04 0.03 0.02 0.03 0.04 0.00 0.00 0.00 0.00 0.00 0.01 0.11 0.28 0.33 0.39 0.25 0.18 0.36 0.42 0.14 0.17 0.16 0.07 0.08
0.08 0.07 0.08 0.12 0.05 0.01 0.01 0.02 0.07 0.19 0.40 0.57 0.48 0.45 0.11 0.04 0.02 0.02 0.01 0.00 0.00 0.01 0.00 0.01 0.01 0.05 0.04 0.02 0.01 0.00 0.00 0.00 0.00 0.01 0.06 0.22 0.36 0.66 0.49 0.35 0.39 0.42 0.20 0.12 0.10 0.12 0.09
0.07 0.09 0.10 0.09 0.03 0.01 0.01 0.02 0.06 0.16 0.35 0.57 0.53 0.57 0.21 0.06 0.02 0.00 0.00 0.00 0.00 0.01 0.01 0.00 0.01 0.04 0.03 0.01 0.02 0.00 0.00 0.00 0.00 0.00 0.01 0.06 0.28 0.61 0.68 0.58 0.63 0.48 0.28 0.16 0.17 0.17 0.13
0.08 0.08 0.11 0.06 0.03 0.01 0.01 0.02 0.04 0.12 0.17 0.28 0.35 0.50 0.25 0.04 0.01 0.00 0.00 0.01 0.02 0.04 0.02 0.01 0.01 0.01 0.02 0.04 0.05 0.02 0.01 0.01 0.00 0.00 0.01 0.01 0.07 0.29 0.25 0.26 0.19 0.08 0.16 0.17 0.22 0.16 0.08
0.07 0.08 0.08 0.04 0.03 0.01 0.01 0.01 0.03 0.06 0.10 0.18 0.35 0.48 0.43 0.14 0.01 0.00 0.00 0.01 0.02 0.06 0.06 0.03 0.02 0.04 0.07 0.14 0.14 0.10 0.02 0.01 0.01 0.00 0.00 0.01 0.03 0.16 0.12 0.22 0.10 0.04 0.02 0.01 0.02 0.04 0.01
0.07 0.08 0.06 0.04 0.02 0.01 0.01 0.01 0.03 0.06 0.10 0.15 0.34 0.40 0.31 0.12 0.02 0.00 0.00 0.00 0.00 0.01 0.05 0.12 0.10 0.08 0.09 0.15 0.16 0.11 0.02 0.00 0.00 0.00 0.01 0.02 0.05 0.13 0.11 0.19 0.01 0.00 0.00 0.00 0.00 0.00 0.00
0.06 0.07 0.04 0.04 0.02 0.02 0.02 0.01 0.03 0.09 0.15 0.19 0.18 0.27 0.38 0.20 0.01 0.00 0.00 0.00 0.00 0.01 0.05 0.09 0.11 0.11 0.19 0.18 0.13 0.06 0.02 0.01 0.00 0.00 0.00 0.00 0.01 0.02 0.03 0.06 0.00 0.00 0.00 0.00 0.00 0.00 0.00
0.05 0.05 0.04 0.03 0.02 0.02 0.01 0.01 0.03 0.08 0.16 0.25 0.32 0.21 0.27 0.16 0.03 0.00 0.00 0.00 0.00 0.00 0.06 0.12 0.11 0.10 0.16 0.14 0.13 0.08 0.03 0.01 0.00 0.00 0.00 0.00 0.00 0.00 0.00 0.00 0.00 0.00 0.00 0.00 0.00 0.00 0.00

GFSGBSN_prec_precacc24_039.txt.gz
Total_Precipitation_Accumulation
0.01 0.01 0.02 0.02 0.01 0.01 0.04 0.10 0.12 0.09 0.08 0.12 0.15 0.17 0.17 0.13 0.11 0.14 0.14 0.12 0.10 0.12 0.11 0.10 0.15 0.47 0.29 0.03 0.01 0.00 0.01 0.02 0.13 0.32 0.07 0.00 0.00 0.00 0.00 0.00 0.00 0.00 0.00 0.00 0.00 0.00 0.00
0.01 0.02 0.02 0.01 0.01 0.02 0.05 0.06 0.09 0.09 0.13 0.15 0.15 0.17 0.14 0.14 0.18 0.14 0.13 0.11 0.10 0.14 0.14 0.12 0.17 0.39 0.29 0.02 0.00 0.00 0.02 0.04 0.05 0.18 0.14 0.03 0.00 0.00 0.00 0.00 0.00 0.00 0.00 0.00 0.00 0.00 0.00
0.02 0.03 0.02 0.01 0.02 0.05 0.06 0.05 0.07 0.15 0.18 0.18 0.17 0.17 0.13 0.17 0.22 0.16 0.14 0.16 0.17 0.16 0.21 0.25 0.23 0.39 0.21 0.02 0.00 0.00 0.03 0.11 0.09 0.12 0.16 0.09 0.03 0.00 0.01 0.00 0.00 0.00 0.00 0.00 0.00 0.00 0.00
0.02 0.03 0.02 0.01 0.04 0.06 0.06 0.06 0.07 0.09 0.14 0.18 0.21 0.18 0.17 0.20 0.23 0.28 0.28 0.27 0.29 0.32 0.36 0.31 0.37 0.39 0.16 0.00 0.00 0.00 0.02 0.06 0.13 0.16 0.22 0.27 0.08 0.01 0.00 0.00 0.00 0.00 0.00 0.00 0.00 0.00 0.00
0.03 0.03 0.02 0.02 0.07 0.08 0.09 0.07 0.08 0.09 0.11 0.19 0.21 0.18 0.24 0.30 0.35 0.37 0.34 0.26 0.30 0.28 0.41 0.64 0.62 0.32 0.11 0.00 0.00 0.00 0.00 0.01 0.03 0.16 0.38 0.29 0.15 0.03 0.00 0.00 0.01 0.00 0.00 0.00 0.00 0.00 0.00
0.04 0.02 0.02 0.05 0.09 0.10 0.11 0.12 0.11 0.12 0.15 0.19 0.18 0.19 0.28 0.31 0.38 0.46 0.42 0.51 0.45 0.46 0.58 0.98 0.72 0.44 0.07 0.00 0.00 0.00 0.00 0.00 0.03 0.16 0.22 0.22 0.22 0.11 0.03 0.01 0.01 0.00 0.00 0.00 0.00 0.00 0.00
0.04 0.03 0.03 0.08 0.12 0.11 0.12 0.13 0.12 0.15 0.17 0.20 0.25 0.19 0.18 0.28 0.40 0.46 0.72 1.09 0.85 0.78 0.92 0.88 0.36 0.16 0.00 0.00 0.01 0.00 0.00 0.00 0.12 0.19 0.11 0.12 0.12 0.16 0.06 0.01 0.00 0.00 0.00 0.00 0.00 0.00 0.00
0.03 0.04 0.04 0.11 0.11 0.11 0.13 0.12 0.15 0.18 0.23 0.22 0.23 0.17 0.19 0.27 0.42 0.78 1.14 1.16 0.70 0.58 0.73 0.52 0.12 0.06 0.00 0.00 0.01 0.00 0.00 0.01 0.07 0.08 0.07 0.07 0.11 0.06 0.11 0.04 0.01 0.00 0.00 0.00 0.00 0.00 0.00
0.04 0.04 0.07 0.12 0.10 0.12 0.12 0.15 0.19 0.26 0.25 0.16 0.07 0.13 0.24 0.36 0.59 0.93 0.98 0.57 0.34 0.66 0.81 0.65 0.27 0.15 0.01 0.00 0.00 0.00 0.00 0.01 0.03 0.05 0.04 0.02 0.02 0.04 0.08 0.07 0.01 0.00 0.00 0.00 0.00 0.00 0.00
0.03 0.03 0.09 0.11 0.12 0.12 0.13 0.18 0.26 0.27 0.16 0.08 0.09 0.16 0.41 0.68 1.12 0.82 0.68 0.44 0.54 0.86 0.67 0.81 0.46 0.18 0.02 0.01 0.01 0.00 0.01 0.01 0.01 0.04 0.04 0.04 0.00 0.00 0.01 0.04 0.01 0.00 0.00 0.00 0.00 0.00 0.00
0.03 0.05 0.09 0.11 0.12 0.12 0.15 0.17 0.23 0.17 0.09 0.19 0.38 0.38 0.39 0.98 1.08 0.90 0.64 0.38 0.71 1.08 0.79 0.73 0.48 0.13 0.04 0.01 0.00 0.04 0.02 0.00 0.00 0.01 0.02 0.03 0.00 0.00 0.00 0.00 0.00 0.00 0.00 0.00 0.00 0.01 0.02
0.03 0.07 0.11 0.13 0.12 0.13 0.13 0.14 0.14 0.13 0.25 0.53 0.38 0.40 0.50 0.77 0.86 0.81 0.76 0.50 1.11 1.15 1.09 1.10 0.47 0.11 0.09 0.05 0.01 0.03 0.04 0.03 0.01 0.02 0.02 0.01 0.00 0.00 0.00 0.00 0.00 0.00 0.01 0.01 0.03 0.06 0.09
0.04 0.08 0.14 0.14 0.13 0.14 0.12 0.10 0.15 0.22 0.38 0.36 0.22 0.47 0.69 0.63 0.70 0.72 1.20 0.94 1.17 0.75 0.70 0.73 0.27 0.07 0.04 0.04 0.05 0.04 0.06 0.05 0.03 0.06 0.07 0.02 0.00 0.00 0.00 0.00 0.00 0.02 0.11 0.13 0.14 0.18 0.05
0.05 0.09 0.16 0.14 0.16 0.13 0.09 0.06 0.10 0.19 0.31 0.24 0.26 0.31 0.70 0.84 0.73 0.82 1.59 0.90 0.59 0.42 0.58 0.33 0.04 0.05 0.04 0.02 0.04 0.05 0.03 0.03 0.02 0.03 0.05 0.03 0.00 0.00 0.00 0.00 0.00 0.01 0.03 0.09 0.03 0.00 0.00
0.05 0.11 0.15 0.15 0.15 0.11 0.08 0.06 0.08 0.20 0.28 0.35 0.22 0.26 0.75 1.25 0.97 1.09 1.16 0.70 0.51 0.53 0.54 0.13 0.07 0.06 0.08 0.02 0.04 0.06 0.03 0.01 0.01 0.01 0.03 0.02 0.00 0.00 0.00 0.00 0.01 0.08 0.09 0.04 0.10 0.07 0.13
0.07 0.11 0.15 0.14 0.13 0.09 0.06 0.04 0.06 0.21 0.41 0.41 0.22 0.35 0.51 0.99 1.13 1.04 0.86 0.61 0.38 0.26 0.06 0.00 0.09 0.04 0.03 0.02 0.02 0.03 0.01 0.00 0.00 0.00 0.00 0.00 0.00 0.00 0.00 0.00 0.00 0.04 0.03 0.13 0.34 0.16 0.08
0.07 0.12 0.13 0.12 0.11 0.07 0.04 0.03 0.05 0.18 0.39 0.43 0.54 0.45 0.46 0.86 1.24 1.16 1.09 0.83 0.25 0.10 0.01 0.00 0.00 0.00 0.00 0.01 0.01 0.00 0.00 0.00 0.00 0.00 0.00 0.00 0.01 0.01 0.00 0.00 0.00 0.01 0.04 0.08 0.14 0.12 0.03
0.09 0.12 0.12 0.11 0.10 0.04 0.04 0.02 0.04 0.14 0.37 0.40 0.38 0.48 0.66 1.04 1.29 1.15 0.89 0.53 0.22 0.03 0.00 0.00 0.00 0.00 0.00 0.00 0.00 0.00 0.00 0.00 0.00 0.00 0.00 0.00 0.04 0.02 0.00 0.00 0.00 0.01 0.00 0.04 0.28 0.09 0.15
0.11 0.11 0.10 0.10 0.10 0.04 0.04 0.02 0.02 0.08 0.30 0.34 0.26 0.46 0.95 0.64 0.55 0.55 0.31 0.09 0.04 0.02 0.00 0.00 0.00 0.00 0.00 0.00 0.00 0.00 0.00 0.00 0.00 0.00 0.00 0.00 0.06 0.06 0.04 0.05 0.08 0.18 0.07 0.12 0.31 0.56 0.45
0.10 0.09 0.08 0.10 0.11 0.04 0.03 0.01 0.01 0.08 0.24 0.37 0.29 0.47 1.38 0.81 0.26 0.10 0.14 0.09 0.03 0.00 0.00 0.00 0.00 0.01 0.03 0.01 0.00 0.00 0.00 0.00 0.00 0.00 0.00 0.00 0.04 0.06 0.12 0.14 0.38 0.47 0.14 0.22 0.61 0.74 0.14
0.09 0.08 0.07 0.10 0.09 0.04 0.02 0.00 0.01 0.10 0.22 0.21 0.18 0.19 0.38 0.40 0.20 0.02 0.03 0.04 0.03 0.00 0.00 0.00 0.01 0.01 0.04 0.02 0.00 0.00 0.00 0.00 0.00 0.00 0.00 0.05 0.09 0.10 0.13 0.16 0.39 0.39 0.19 0.17 0.46 0.24 0.33
0.08 0.06 0.06 0.10 0.07 0.02 0.01 0.01 0.01 0.18 0.28 0.23 0.21 0.35 0.07 0.02 0.02 0.01 0.01 0.04 0.01 0.00 0.00 0.00 0.00 0.01 0.02 0.04 0.00 0.00 0.00 0.00 0.00 0.00 0.02 0.08 0.12 0.12 0.09 0.15 0.33 0.37 0.13 0.17 0.13 0.06 0.07
0.06 0.05 0.05 0.09 0.04 0.01 0.01 0.01 0.01 0.12 0.24 0.30 0.36 0.37 0.11 0.04 0.02 0.02 0.01 0.00 0.00 0.00 0.00 0.00 0.00 0.04 0.03 0.02 0.01 0.00 0.00 0.00 0.00 0.00 0.02 0.10 0.15 0.29 0.21 0.25 0.27 0.32 0.18 0.11 0.05 0.03 0.03
0.06 0.05 0.05 0.06 0.03 0.01 0.01 0.01 0.01 0.06 0.22 0.38 0.36 0.35 0.14 0.05 0.02 0.00 0.00 0.00 0.00 0.01 0.01 0.00 0.01 0.03 0.03 0.01 0.01 0.00 0.00 0.00 0.00 0.00 0.01 0.04 0.15 0.35 0.31 0.34 0.48 0.38 0.14 0.04 0.04 0.00 0.01
0.05 0.04 0.07 0.05 0.02 0.01 0.01 0.01 0.01 0.03 0.08 0.14 0.25 0.36 0.22 0.03 0.01 0.00 0.00 0.00 0.01 0.03 0.02 0.01 0.00 0.01 0.01 0.03 0.05 0.01 0.01 0.01 0.00 0.00 0.01 0.01 0.07 0.27 0.24 0.26 0.19 0.08 0.15 0.09 0.07 0.06 0.03
0.04 0.05 0.05 0.04 0.03 0.02 0.01 0.01 0.00 0.02 0.04 0.03 0.21 0.39 0.42 0.14 0.01 0.00 0.00 0.00 0.01 0.05 0.06 0.03 0.01 0.00 0.02 0.11 0.10 0.06 0.02 0.01 0.01 0.00 0.00 0.01 0.03 0.16 0.13 0.23 0.11 0.04 0.02 0.01 0.02 0.04 0.01
0.03 0.05 0.04 0.03 0.01 0.02 0.02 0.01 0.01 0.02 0.03 0.03 0.12 0.29 0.31 0.12 0.01 0.00 0.00 0.00 0.00 0.01 0.05 0.12 0.08 0.02 0.03 0.12 0.11 0.06 0.01 0.00 0.01 0.01 0.01 0.03 0.06 0.14 0.13 0.21 0.01 0.00 0.00 0.00 0.00 0.00 0.00
0.02 0.04 0.03 0.04 0.02 0.02 0.02 0.01 0.01 0.02 0.03 0.04 0.06 0.12 0.30 0.20 0.00 0.00 0.00 0.00 0.00 0.01 0.05 0.09 0.07 0.02 0.09 0.15 0.09 0.04 0.02 0.01 0.00 0.00 0.00 0.01 0.02 0.03 0.05 0.08 0.01 0.00 0.00 0.00 0.00 0.00 0.00
0.02 0.03 0.03 0.03 0.02 0.02 0.01 0.01 0.01 0.03 0.03 0.06 0.09 0.11 0.23 0.16 0.03 0.00 0.00 0.00 0.00 0.00 0.06 0.12 0.08 0.04 0.08 0.12 0.12 0.08 0.03 0.01 0.00 0.00 0.00 0.00 0.00 0.00 0.00 0.00 0.00 0.00 0.00 0.00 0.00 0.00 0.00

GFSGBSN_prec_precacc24_042.txt.gz
Total_Precipitation_Accumulation
0.01 0.03 0.02 0.02 0.01 0.01 0.04 0.06 0.06 0.06 0.07 0.10 0.14 0.15 0.15 0.13 0.13 0.18 0.17 0.14 0.13 0.12 0.11 0.10 0.16 0.48 0.55 0.31 0.03 0.01 0.01 0.02 0.13 0.32 0.08 0.01 0.00 0.00 0.00 0.00 0.00 0.00 0.00 0.00 0.00 0.00 0.00
0.02 0.02 0.03 0.02 0.01 0.03 0.07 0.07 0.05 0.05 0.07 0.10 0.13 0.15 0.12 0.13 0.20 0.18 0.15 0.14 0.13 0.15 0.14 0.12 0.19 0.43 0.43 0.16 0.01 0.00 0.02 0.04 0.06 0.19 0.14 0.03 0.00 0.00 0.00 0.00 0.00 0.00 0.00 0.00 0.00 0.00 0.00
0.03 0.03 0.03 0.02 0.02 0.07 0.08 0.07 0.07 0.07 0.07 0.10 0.15 0.14 0.09 0.14 0.23 0.21 0.15 0.19 0.20 0.16 0.22 0.27 0.26 0.44 0.27 0.06 0.02 0.01 0.03 0.13 0.11 0.13 0.16 0.09 0.03 0.00 0.00 0.00 0.00 0.00 0.00 0.00 0.00 0.00 0.00
0.03 0.04 0.03 0.02 0.04 0.09 0.08 0.08 0.09 0.08 0.08 0.12 0.16 0.15 0.12 0.17 0.23 0.32 0.29 0.34 0.36 0.39 0.40 0.37 0.42 0.43 0.19 0.01 0.04 0.02 0.04 0.13 0.24 0.31 0.26 0.28 0.08 0.01 0.00 0.00 0.00 0.00 0.00 0.00 0.00 0.00 0.00
0.03 0.04 0.02 0.02 0.08 0.10 0.10 0.09 0.10 0.10 0.12 0.16 0.16 0.14 0.19 0.24 0.31 0.38 0.36 0.28 0.31 0.32 0.45 0.65 0.65 0.35 0.14 0.00 0.02 0.00 0.03 0.10 0.12 0.34 0.50 0.39 0.19 0.03 0.00 0.00 0.00 0.00 0.00 0.00 0.00 0.00 0.00
0.04 0.03 0.02 0.05 0.11 0.12 0.12 0.13 0.12 0.12 0.15 0.19 0.17 0.14 0.24 0.22 0.32 0.50 0.53 0.53 0.45 0.47 0.56 0.97 0.74 0.47 0.08 0.01 0.01 0.01 0.04 0.05 0.07 0.28 0.36 0.30 0.29 0.13 0.03 0.01 0.00 0.00 0.00 0.00 0.00 0.00 0.00
0.05 0.03 0.03 0.09 0.13 0.12 0.14 0.13 0.12 0.14 0.19 0.22 0.21 0.13 0.12 0.20 0.34 0.45 0.73 1.08 0.86 0.78 0.92 0.88 0.36 0.19 0.01 0.03 0.03 0.02 0.02 0.03 0.21 0.33 0.45 0.28 0.14 0.17 0.06 0.01 0.00 0.00 0.00 0.00 0.00 0.00 0.00
0.04 0.04 0.05 0.11 0.12 0.12 0.13 0.11 0.13 0.17 0.25 0.25 0.22 0.10 0.10 0.18 0.33 0.77 1.14 1.16 0.71 0.59 0.73 0.52 0.12 0.15 0.01 0.03 0.06 0.02 0.01 0.02 0.08 0.13 0.29 0.36 0.14 0.07 0.11 0.04 0.01 0.00 0.00 0.00 0.00 0.00 0.00
0.04 0.03 0.07 0.11 0.10 0.13 0.12 0.12 0.15 0.23 0.24 0.18 0.12 0.12 0.16 0.22 0.43 0.83 0.97 0.57 0.34 0.66 0.81 0.65 0.27 0.22 0.03 0.02 0.09 0.00 0.01 0.03 0.05 0.07 0.07 0.13 0.07 0.06 0.12 0.09 0.02 0.01 0.00 0.00 0.00 0.00 0.00
0.03 0.03 0.08 0.10 0.12 0.12 0.12 0.12 0.18 0.22 0.15 0.12 0.11 0.16 0.32 0.48 0.63 0.74 0.64 0.44 0.54 0.86 0.68 0.81 0.47 0.21 0.05 0.02 0.10 0.00 0.02 0.05 0.04 0.07 0.06 0.04 0.00 0.04 0.05 0.10 0.04 0.01 0.00 0.00 0.00 0.00 0.00
0.03 0.04 0.08 0.12 0.12 0.13 0.13 0.12 0.17 0.14 0.11 0.21 0.36 0.34 0.25 0.53 0.60 0.80 0.65 0.38 0.71 1.09 0.80 0.75 0.51 0.22 0.11 0.02 0.04 0.05 0.04 0.02 0.01 0.02 0.03 0.04 0.01 0.02 0.04 0.02 0.04 0.02 0.00 0.00 0.00 0.00 0.01
0.02 0.05 0.10 0.13 0.12 0.13 0.11 0.10 0.12 0.07 0.19 0.53 0.34 0.19 0.23 0.19 0.43 0.75 0.76 0.50 1.12 1.17 1.16 1.18 0.61 0.32 0.16 0.06 0.02 0.04 0.07 0.03 0.01 0.04 0.02 0.03 0.00 0.00 0.01 0.01 0.00 0.00 0.00 0.00 0.01 0.04 0.07
0.02 0.06 0.12 0.13 0.12 0.12 0.09 0.09 0.06 0.06 0.29 0.35 0.20 0.24 0.25 0.16 0.36 0.66 1.19 0.95 1.17 0.78 0.75 0.79 0.43 0.16 0.05 0.06 0.06 0.07 0.15 0.05 0.03 0.08 0.11 0.06 0.03 0.00 0.00 0.01 0.01 0.02 0.07 0.06 0.07 0.12 0.03
0.02 0.07 0.13 0.13 0.13 0.11 0.09 0.06 0.03 0.06 0.20 0.19 0.20 0.18 0.26 0.21 0.47 0.79 1.59 0.91 0.62 0.47 0.70 0.50 0.08 0.06 0.05 0.05 0.05 0.13 0.08 0.04 0.01 0.01 0.02 0.02 0.01 0.00 0.00 0.00 0.00 0.01 0.02 0.04 0.01 0.00 0.00
0.04 0.08 0.12 0.13 0.12 0.10 0.08 0.05 0.01 0.05 0.16 0.24 0.17 0.19 0.42 0.40 0.59 1.04 1.17 0.73 0.59 0.69 0.76 0.25 0.08 0.07 0.10 0.02 0.06 0.13 0.03 0.01 0.00 0.01 0.00 0.00 0.00 0.00 0.00 0.00 0.00 0.02 0.04 0.01 0.06 0.03 0.06
0.04 0.08 0.12 0.11 0.10 0.09 0.06 0.03 0.01 0.06 0.23 0.31 0.18 0.29 0.30 0.42 0.68 0.98 0.86 0.65 0.41 0.28 0.08 0.01 0.11 0.05 0.03 0.02 0.04 0.04 0.01 0.00 0.00 0.00 0.00 0.00 0.00 0.00 0.00 0.00 0.00 0.01 0.01 0.05 0.15 0.08 0.04
0.04 0.09 0.11 0.09 0.08 0.06 0.04 0.02 0.01 0.06 0.20 0.27 0.45 0.38 0.24 0.36 0.87 1.05 1.08 0.83 0.25 0.10 0.01 0.00 0.00 0.00 0.00 0.01 0.01 0.01 0.00 0.00 0.00 0.00 0.00 0.00 0.01 0.00 0.00 0.00 0.00 0.01 0.03 0.06 0.10 0.07 0.03
0.05 0.08 0.09 0.07 0.08 0.04 0.04 0.01 0.01 0.04 0.17 0.23 0.33 0.44 0.26 0.44 0.88 1.05 0.88 0.53 0.22 0.03 0.00 0.00 0.00 0.00 0.00 0.00 0.00 0.00 0.00 0.00 0.00 0.00 0.00 0.00 0.02 0.01 0.00 0.00 0.00 0.00 0.00 0.04 0.27 0.09 0.15
0.07 0.07 0.08 0.07 0.08 0.03 0.04 0.01 0.00 0.02 0.16 0.18 0.21 0.41 0.50 0.28 0.36 0.45 0.31 0.09 0.04 0.02 0.00 0.00 0.00 0.00 0.00 0.00 0.00 0.00 0.00 0.00 0.00 0.00 0.00 0.00 0.02 0.01 0.01 0.01 0.03 0.06 0.02 0.09 0.30 0.53 0.44
0.06 0.06 0.06 0.07 0.09 0.03 0.03 0.00 0.00 0.03 0.13 0.20 0.23 0.30 0.75 0.31 0.13 0.10 0.14 0.09 0.03 0.00 0.00 0.00 0.00 0.00 0.00 0.00 0.00 0.00 0.00 0.00 0.00 0.00 0.00 0.00 0.00 0.01 0.03 0.04 0.21 0.32 0.07 0.15 0.55 0.71 0.14
0.05 0.05 0.05 0.06 0.07 0.03 0.02 0.00 0.00 0.03 0.14 0.15 0.15 0.11 0.22 0.17 0.07 0.02 0.03 0.04 0.03 0.00 0.00 0.00 0.00 0.00 0.00 0.01 0.00 0.00 0.00 0.00 0.00 0.00 0.00 0.01 0.02 0.01 0.01 0.03 0.18 0.26 0.14 0.15 0.43 0.23 0.33
0.04 0.04 0.04 0.06 0.05 0.02 0.01 0.01 0.00 0.07 0.21 0.20 0.12 0.24 0.06 0.01 0.00 0.00 0.01 0.04 0.01 0.00 0.00 0.00 0.00 0.00 0.00 0.01 0.00 0.00 0.00 0.00 0.00 0.00 0.00 0.01 0.03 0.03 0.02 0.04 0.19 0.28 0.10 0.15 0.12 0.06 0.07
0.04 0.03 0.03 0.06 0.03 0.01 0.01 0.01 0.00 0.03 0.15 0.12 0.08 0.17 0.09 0.02 0.01 0.01 0.01 0.00 0.00 0.00 0.00 0.00 0.00 0.01 0.01 0.00 0.01 0.00 0.00 0.00 0.00 0.00 0.00 0.02 0.04 0.11 0.05 0.04 0.18 0.24 0.17 0.11 0.05 0.03 0.03
0.02 0.02 0.02 0.05 0.02 0.01 0.01 0.01 0.00 0.01 0.12 0.17 0.22 0.22 0.08 0.02 0.01 0.00 0.00 0.00 0.00 0.00 0.00 0.00 0.00 0.02 0.02 0.01 0.01 0.00 0.00 0.00 0.00 0.00 0.00 0.01 0.05 0.12 0.10 0.14 0.26 0.23 0.10 0.04 0.03 0.00 0.00
0.02 0.02 0.03 0.04 0.02 0.01 0.01 0.01 0.00 0.00 0.04 0.10 0.21 0.21 0.11 0.02 0.01 0.00 0.00 0.00 0.00 0.00 0.01 0.00 0.00 0.00 0.01 0.03 0.04 0.01 0.01 0.01 0.00 0.00 0.01 0.01 0.05 0.16 0.19 0.21 0.15 0.08 0.08 0.03 0.04 0.02 0.00
0.02 0.02 0.02 0.03 0.02 0.01 0.01 0.01 0.00 0.00 0.02 0.02 0.20 0.33 0.29 0.09 0.00 0.00 0.00 0.00 0.00 0.00 0.02 0.03 0.01 0.00 0.00 0.05 0.07 0.05 0.01 0.01 0.01 0.01 0.00 0.01 0.02 0.13 0.12 0.23 0.11 0.04 0.02 0.00 0.00 0.02 0.00
0.02 0.02 0.02 0.03 0.02 0.01 0.01 0.01 0.00 0.00 0.01 0.01 0.11 0.18 0.17 0.11 0.01 0.00 0.00 0.00 0.00 0.00 0.04 0.11 0.08 0.02 0.02 0.06 0.07 0.05 0.01 0.00 0.01 0.01 0.02 0.03 0.06 0.14 0.13 0.22 0.01 0.00 0.00 0.00 0.01 0.00 0.00
0.02 0.02 0.02 0.03 0.02 0.02 0.02 0.01 0.01 0.01 0.02 0.02 0.05 0.06 0.21 0.19 0.00 0.00 0.00 0.00 0.00 0.01 0.04 0.09 0.07 0.02 0.05 0.09 0.06 0.03 0.02 0.01 0.00 0.00 0.00 0.01 0.02 0.03 0.05 0.08 0.01 0.00 0.00 0.00 0.00 0.00 0.00
0.02 0.02 0.03 0.03 0.02 0.03 0.02 0.01 0.01 0.02 0.02 0.03 0.03 0.04 0.08 0.12 0.02 0.00 0.00 0.00 0.00 0.00 0.05 0.11 0.08 0.01 0.02 0.06 0.10 0.08 0.03 0.01 0.00 0.00 0.00 0.00 0.00 0.00 0.00 0.00 0.00 0.00 0.00 0.00 0.00 0.00 0.00

GFSGBSN_prec_precacc24_045.txt.gz
Total_Precipitation_Accumulation
0.01 0.03 0.03 0.03 0.02 0.01 0.05 0.08 0.07 0.05 0.06 0.07 0.11 0.14 0.11 0.08 0.11 0.18 0.18 0.15 0.16 0.14 0.14 0.11 0.16 0.48 0.58 0.40 0.09 0.05 0.03 0.02 0.13 0.29 0.08 0.02 0.00 0.00 0.00 0.00 0.00 0.00 0.00 0.00 0.00 0.00 0.00
0.02 0.02 0.04 0.03 0.02 0.04 0.10 0.09 0.06 0.06 0.08 0.08 0.11 0.13 0.10 0.09 0.16 0.18 0.16 0.17 0.17 0.16 0.16 0.13 0.20 0.44 0.48 0.22 0.03 0.05 0.02 0.05 0.06 0.18 0.14 0.04 0.00 0.00 0.00 0.00 0.00 0.00 0.00 0.00 0.00 0.00 0.00
0.03 0.04 0.04 0.02 0.03 0.08 0.11 0.09 0.07 0.08 0.08 0.10 0.14 0.13 0.08 0.13 0.18 0.20 0.17 0.22 0.25 0.18 0.23 0.27 0.31 0.48 0.32 0.08 0.02 0.04 0.04 0.13 0.11 0.13 0.16 0.08 0.02 0.00 0.00 0.00 0.00 0.00 0.00 0.00 0.00 0.00 0.00
0.03 0.05 0.03 0.02 0.05 0.10 0.10 0.09 0.10 0.10 0.09 0.12 0.17 0.15 0.11 0.13 0.17 0.26 0.30 0.35 0.40 0.44 0.50 0.41 0.49 0.49 0.20 0.02 0.05 0.04 0.06 0.16 0.25 0.37 0.29 0.31 0.07 0.01 0.00 0.00 0.00 0.00 0.00 0.00 0.00 0.00 0.00
0.03 0.04 0.02 0.03 0.09 0.11 0.11 0.10 0.12 0.09 0.11 0.17 0.21 0.16 0.15 0.18 0.26 0.31 0.37 0.28 0.34 0.36 0.50 0.68 0.69 0.37 0.16 0.02 0.03 0.02 0.06 0.21 0.17 0.44 0.63 0.53 0.24 0.05 0.00 0.00 0.00 0.00 0.00 0.00 0.00 0.00 0.00
0.04 0.03 0.02 0.06 0.12 0.13 0.13 0.15 0.12 0.11 0.16 0.23 0.22 0.17 0.20 0.16 0.23 0.44 0.54 0.52 0.44 0.45 0.54 0.94 0.76 0.48 0.09 0.02 0.02 0.02 0.05 0.21 0.15 0.38 0.51 0.41 0.33 0.14 0.03 0.01 0.00 0.00 0.00 0.00 0.00 0.00 0.00
0.04 0.03 0.03 0.09 0.13 0.13 0.15 0.15 0.10 0.13 0.19 0.26 0.26 0.19 0.17 0.16 0.20 0.33 0.66 1.06 0.85 0.78 0.92 0.88 0.37 0.22 0.06 0.05 0.04 0.04 0.06 0.19 0.38 0.45 0.52 0.31 0.16 0.17 0.06 0.01 0.00 0.00 0.00 0.00 0.00 0.00 0.00
0.03 0.03 0.04 0.10 0.12 0.12 0.14 0.11 0.12 0.15 0.22 0.27 0.23 0.16 0.20 0.25 0.21 0.46 0.98 1.16 0.71 0.59 0.73 0.52 0.12 0.17 0.03 0.05 0.13 0.04 0.07 0.22 0.28 0.33 0.61 0.49 0.15 0.07 0.11 0.04 0.01 0.00 0.00 0.00 0.00 0.00 0.00
0.03 0.03 0.06 0.10 0.10 0.13 0.13 0.12 0.12 0.17 0.21 0.19 0.15 0.17 0.21 0.27 0.24 0.33 0.73 0.55 0.34 0.66 0.81 0.65 0.28 0.27 0.05 0.04 0.20 0.01 0.10 0.13 0.16 0.30 0.44 0.53 0.17 0.07 0.13 0.09 0.03 0.01 0.00 0.00 0.00 0.00 0.00
0.03 0.03 0.07 0.09 0.12 0.12 0.12 0.10 0.13 0.18 0.14 0.13 0.13 0.19 0.33 0.47 0.26 0.23 0.37 0.39 0.54 0.86 0.68 0.81 0.51 0.25 0.10 0.06 0.25 0.01 0.04 0.07 0.07 0.25 0.22 0.34 0.23 0.12 0.10 0.12 0.05 0.02 0.00 0.00 0.00 0.00 0.00
0.02 0.03 0.07 0.10 0.12 0.12 0.12 0.09 0.14 0.13 0.10 0.14 0.29 0.32 0.23 0.44 0.20 0.17 0.41 0.33 0.71 1.09 0.83 0.78 0.64 0.35 0.20 0.05 0.12 0.06 0.05 0.04 0.03 0.03 0.05 0.06 0.08 0.09 0.09 0.06 0.05 0.02 0.00 0.00 0.00 0.00 0.01
0.01 0.04 0.08 0.11 0.11 0.11 0.10 0.09 0.12 0.07 0.09 0.23 0.27 0.17 0.20 0.15 0.15 0.20 0.54 0.46 1.12 1.17 1.20 1.24 0.67 0.45 0.17 0.07 0.05 0.05 0.10 0.03 0.03 0.04 0.03 0.03 0.01 0.04 0.10 0.03 0.03 0.02 0.00 0.00 0.01 0.02 0.04
0.02 0.06 0.11 0.10 0.10 0.10 0.08 0.08 0.06 0.05 0.09 0.15 0.13 0.14 0.20 0.14 0.16 0.24 0.80 0.82 1.17 0.78 0.78 0.81 0.53 0.22 0.05 0.08 0.08 0.09 0.25 0.05 0.04 0.10 0.14 0.11 0.05 0.00 0.04 0.03 0.02 0.01 0.03 0.01 0.03 0.06 0.01
0.02 0.06 0.11 0.10 0.10 0.09 0.08 0.06 0.03 0.03 0.05 0.13 0.13 0.05 0.18 0.17 0.25 0.36 1.11 0.80 0.62 0.48 0.74 0.60 0.18 0.10 0.08 0.07 0.06 0.14 0.17 0.04 0.01 0.01 0.03 0.04 0.06 0.01 0.00 0.00 0.01 0.01 0.01 0.01 0.00 0.00 0.00
0.03 0.07 0.09 0.10 0.08 0.08 0.07 0.05 0.01 0.02 0.08 0.16 0.09 0.12 0.34 0.36 0.24 0.48 0.84 0.64 0.61 0.71 0.80 0.32 0.10 0.09 0.10 0.03 0.06 0.18 0.14 0.02 0.00 0.00 0.00 0.00 0.00 0.00 0.00 0.00 0.00 0.01 0.02 0.00 0.03 0.01 0.02
0.04 0.07 0.08 0.08 0.06 0.07 0.06 0.03 0.01 0.03 0.13 0.19 0.11 0.26 0.27 0.33 0.16 0.46 0.62 0.62 0.42 0.29 0.08 0.01 0.11 0.05 0.04 0.02 0.05 0.05 0.04 0.01 0.00 0.00 0.00 0.00 0.00 0.00 0.00 0.00 0.00 0.00 0.00 0.03 0.08 0.03 0.01
0.04 0.06 0.07 0.06 0.05 0.05 0.03 0.02 0.00 0.02 0.10 0.15 0.33 0.31 0.22 0.28 0.28 0.44 0.87 0.82 0.25 0.10 0.01 0.00 0.00 0.00 0.00 0.01 0.01 0.01 0.00 0.00 0.00 0.00 0.00 0.00 0.00 0.00 0.00 0.00 0.00 0.00 0.02 0.04 0.07 0.04 0.01
0.04 0.05 0.06 0.04 0.05 0.02 0.03 0.01 0.00 0.02 0.08 0.10 0.17 0.39 0.24 0.33 0.36 0.62 0.82 0.53 0.22 0.03 0.00 0.00 0.00 0.00 0.00 0.00 0.00 0.00 0.00 0.00 0.00 0.00 0.00 0.00 0.01 0.01 0.00 0.00 0.00 0.00 0.00 0.03 0.20 0.07 0.14
0.05 0.05 0.04 0.04 0.05 0.02 0.03 0.01 0.00 0.01 0.07 0.11 0.14 0.35 0.32 0.23 0.23 0.31 0.29 0.09 0.04 0.02 0.00 0.00 0.00 0.00 0.00 0.00 0.00 0.00 0.00 0.00 0.00 0.00 0.00 0.00 0.01 0.00 0.00 0.01 0.02 0.01 0.00 0.03 0.17 0.37 0.33
0.04 0.04 0.04 0.04 0.05 0.01 0.02 0.00 0.00 0.00 0.06 0.08 0.09 0.23 0.20 0.09 0.05 0.09 0.14 0.09 0.03 0.00 0.00 0.00 0.00 0.00 0.00 0.00 0.00 0.00 0.00 0.00 0.00 0.00 0.00 0.00 0.00 0.00 0.00 0.00 0.05 0.12 0.03 0.08 0.39 0.53 0.11
0.04 0.04 0.03 0.03 0.04 0.01 0.01 0.00 0.00 0.00 0.06 0.08 0.09 0.09 0.09 0.04 0.03 0.02 0.03 0.04 0.03 0.00 0.00 0.00 0.00 0.00 0.00 0.00 0.00 0.00 0.00 0.00 0.00 0.00 0.00 0.00 0.01 0.00 0.00 0.00 0.00 0.04 0.04 0.09 0.34 0.20 0.32
0.03 0.03 0.02 0.03 0.03 0.01 0.01 0.01 0.00 0.00 0.07 0.08 0.06 0.10 0.03 0.01 0.00 0.00 0.01 0.04 0.01 0.00 0.00 0.00 0.00 0.00 0.00 0.00 0.00 0.00 0.00 0.00 0.00 0.00 0.00 0.01 0.01 0.01 0.00 0.00 0.02 0.08 0.03 0.11 0.10 0.05 0.07
0.02 0.02 0.01 0.02 0.02 0.01 0.01 0.01 0.00 0.00 0.04 0.05 0.05 0.05 0.03 0.01 0.00 0.01 0.01 0.00 0.00 0.00 0.00 0.00 0.00 0.00 0.00 0.00 0.00 0.00 0.00 0.00 0.00 0.00 0.00 0.01 0.01 0.03 0.01 0.00 0.02 0.11 0.12 0.09 0.04 0.03 0.03
0.01 0.02 0.01 0.02 0.02 0.00 0.01 0.01 0.00 0.00 0.04 0.05 0.05 0.08 0.03 0.01 0.00 0.00 0.00 0.00 0.00 0.00 0.00 0.00 0.00 0.01 0.01 0.00 0.00 0.00 0.00 0.00 0.00 0.00 0.00 0.01 0.02 0.04 0.04 0.04 0.13 0.15 0.06 0.04 0.03 0.00 0.00
0.01 0.01 0.02 0.02 0.02 0.00 0.01 0.01 0.00 0.00 0.01 0.02 0.07 0.12 0.07 0.01 0.00 0.00 0.00 0.00 0.00 0.00 0.00 0.00 0.00 0.00 0.00 0.01 0.01 0.00 0.01 0.01 0.00 0.00 0.01 0.01 0.03 0.07 0.09 0.11 0.09 0.06 0.03 0.03 0.03 0.01 0.00
0.01 0.02 0.01 0.01 0.02 0.01 0.01 0.01 0.00 0.00 0.00 0.01 0.12 0.15 0.10 0.04 0.00 0.00 0.00 0.00 0.00 0.00 0.00 0.00 0.00 0.00 0.00 0.03 0.02 0.02 0.01 0.01 0.01 0.01 0.00 0.01 0.02 0.10 0.10 0.18 0.07 0.03 0.02 0.00 0.00 0.02 0.00
0.02 0.02 0.01 0.01 0.02 0.02 0.01 0.01 0.00 0.00 0.00 0.00 0.05 0.10 0.09 0.05 0.01 0.00 0.00 0.00 0.00 0.00 0.01 0.03 0.03 0.01 0.01 0.04 0.03 0.03 0.01 0.00 0.01 0.01 0.02 0.03 0.07 0.13 0.11 0.20 0.01 0.00 0.00 0.00 0.02 0.01 0.00
0.02 0.02 0.01 0.01 0.01 0.02 0.02 0.01 0.01 0.01 0.01 0.01 0.02 0.02 0.08 0.08 0.00 0.00 0.00 0.00 0.00 0.01 0.02 0.02 0.03 0.01 0.04 0.06 0.03 0.02 0.02 0.01 0.00 0.00 0.00 0.01 0.03 0.04 0.05 0.08 0.01 0.00 0.00 0.01 0.00 0.00 0.00
0.02 0.02 0.02 0.02 0.01 0.02 0.03 0.04 0.03 0.01 0.01 0.01 0.01 0.02 0.06 0.10 0.02 0.00 0.00 0.00 0.00 0.00 0.02 0.04 0.04 0.01 0.01 0.03 0.04 0.06 0.03 0.01 0.00 0.00 0.00 0.00 0.00 0.00 0.00 0.00 0.00 0.00 0.00 0.00 0.00 0.00 0.00

GFSGBSN_prec_precacc24_048.txt.gz
Total_Precipitation_Accumulation
0.02 0.03 0.03 0.03 0.02 0.02 0.06 0.11 0.08 0.06 0.07 0.08 0.10 0.14 0.10 0.09 0.08 0.13 0.15 0.16 0.19 0.16 0.16 0.12 0.19 0.51 0.59 0.40 0.09 0.07 0.04 0.03 0.16 0.26 0.07 0.02 0.01 0.01 0.00 0.00 0.00 0.00 0.00 0.00 0.00 0.00 0.00
0.03 0.03 0.04 0.03 0.02 0.04 0.11 0.11 0.07 0.07 0.09 0.09 0.12 0.14 0.10 0.11 0.16 0.13 0.11 0.20 0.20 0.19 0.20 0.14 0.23 0.48 0.50 0.24 0.04 0.06 0.04 0.05 0.06 0.18 0.13 0.05 0.01 0.01 0.00 0.00 0.00 0.00 0.00 0.00 0.00 0.00 0.00
0.03 0.04 0.04 0.02 0.03 0.08 0.11 0.10 0.09 0.10 0.09 0.10 0.16 0.15 0.10 0.12 0.14 0.14 0.11 0.22 0.27 0.20 0.24 0.30 0.36 0.52 0.33 0.08 0.03 0.07 0.05 0.14 0.13 0.11 0.15 0.09 0.02 0.00 0.00 0.00 0.00 0.00 0.00 0.00 0.00 0.00 0.00
0.03 0.05 0.03 0.02 0.05 0.11 0.10 0.10 0.12 0.10 0.09 0.16 0.22 0.20 0.16 0.13 0.11 0.19 0.22 0.34 0.43 0.47 0.54 0.43 0.55 0.52 0.22 0.02 0.05 0.08 0.08 0.18 0.29 0.38 0.32 0.35 0.07 0.01 0.00 0.00 0.00 0.00 0.00 0.00 0.00 0.00 0.00
0.03 0.04 0.02 0.03 0.09 0.12 0.12 0.13 0.14 0.10 0.13 0.22 0.27 0.24 0.23 0.21 0.19 0.21 0.27 0.18 0.34 0.39 0.53 0.67 0.74 0.42 0.18 0.05 0.04 0.05 0.08 0.23 0.20 0.50 0.75 0.71 0.30 0.07 0.01 0.00 0.00 0.00 0.00 0.00 0.00 0.00 0.00
0.04 0.02 0.02 0.05 0.10 0.13 0.13 0.16 0.12 0.12 0.17 0.25 0.28 0.23 0.26 0.24 0.22 0.28 0.38 0.29 0.37 0.44 0.50 0.94 0.78 0.50 0.10 0.05 0.02 0.03 0.06 0.27 0.18 0.46 0.69 0.63 0.47 0.19 0.04 0.01 0.00 0.00 0.00 0.00 0.00 0.00 0.00
0.04 0.03 0.03 0.07 0.11 0.11 0.13 0.14 0.10 0.14 0.19 0.28 0.27 0.21 0.21 0.24 0.27 0.18 0.28 0.60 0.79 0.77 0.92 0.86 0.36 0.23 0.11 0.15 0.06 0.06 0.08 0.31 0.47 0.54 0.57 0.41 0.26 0.19 0.06 0.01 0.00 0.00 0.00 0.00 0.00 0.00 0.00
0.03 0.03 0.03 0.09 0.11 0.11 0.14 0.11 0.13 0.15 0.22 0.25 0.20 0.17 0.21 0.30 0.29 0.26 0.40 0.75 0.67 0.59 0.73 0.52 0.12 0.17 0.07 0.08 0.15 0.08 0.13 0.60 0.35 0.38 0.68 0.54 0.17 0.07 0.12 0.04 0.01 0.00 0.00 0.00 0.00 0.00 0.00
0.03 0.02 0.05 0.09 0.10 0.11 0.12 0.11 0.13 0.17 0.19 0.18 0.15 0.16 0.22 0.30 0.25 0.19 0.20 0.25 0.32 0.66 0.81 0.65 0.29 0.27 0.12 0.05 0.22 0.05 0.25 0.54 0.39 0.36 0.49 0.55 0.18 0.08 0.13 0.10 0.03 0.01 0.00 0.00 0.00 0.00 0.00
0.02 0.02 0.06 0.08 0.10 0.10 0.10 0.09 0.13 0.17 0.15 0.13 0.10 0.14 0.28 0.46 0.23 0.16 0.08 0.15 0.44 0.86 0.68 0.84 0.56 0.28 0.14 0.07 0.30 0.02 0.46 0.47 0.51 0.47 0.38 0.48 0.29 0.15 0.10 0.13 0.05 0.02 0.00 0.00 0.00 0.00 0.00
0.01 0.02 0.06 0.08 0.09 0.09 0.09 0.08 0.14 0.13 0.11 0.09 0.08 0.16 0.16 0.38 0.18 0.11 0.21 0.14 0.54 1.02 0.89 0.84 0.70 0.41 0.25 0.11 0.19 0.12 0.38 0.28 0.27 0.28 0.30 0.26 0.29 0.29 0.13 0.09 0.06 0.03 0.00 0.00 0.00 0.00 0.00
0.01 0.03 0.07 0.08 0.07 0.08 0.08 0.07 0.11 0.07 0.09 0.10 0.06 0.12 0.13 0.10 0.11 0.16 0.36 0.17 0.79 1.06 1.24 1.30 0.75 0.53 0.17 0.12 0.06 0.07 0.17 0.07 0.07 0.07 0.09 0.17 0.18 0.27 0.17 0.12 0.05 0.02 0.00 0.00 0.00 0.01 0.01
0.01 0.05 0.07 0.07 0.06 0.07 0.06 0.07 0.06 0.05 0.09 0.08 0.04 0.08 0.09 0.11 0.15 0.15 0.33 0.28 0.79 0.75 0.80 0.88 0.63 0.21 0.05 0.09 0.08 0.09 0.26 0.04 0.04 0.10 0.15 0.17 0.13 0.07 0.12 0.13 0.07 0.01 0.03 0.02 0.01 0.03 0.00
0.01 0.05 0.07 0.06 0.06 0.07 0.05 0.04 0.03 0.03 0.05 0.06 0.05 0.04 0.10 0.14 0.21 0.13 0.52 0.32 0.50 0.49 0.76 0.65 0.20 0.10 0.09 0.08 0.07 0.17 0.22 0.03 0.00 0.01 0.04 0.10 0.12 0.02 0.04 0.02 0.02 0.01 0.02 0.01 0.00 0.00 0.00
0.02 0.05 0.06 0.05 0.05 0.06 0.04 0.04 0.01 0.02 0.07 0.08 0.04 0.04 0.28 0.34 0.19 0.06 0.35 0.38 0.58 0.71 0.81 0.34 0.10 0.09 0.11 0.03 0.06 0.20 0.16 0.02 0.00 0.00 0.01 0.02 0.02 0.00 0.00 0.00 0.00 0.00 0.01 0.00 0.01 0.00 0.00
0.02 0.05 0.06 0.05 0.05 0.04 0.03 0.03 0.01 0.03 0.10 0.10 0.08 0.16 0.24 0.30 0.07 0.07 0.34 0.49 0.41 0.29 0.08 0.01 0.11 0.05 0.04 0.02 0.05 0.05 0.07 0.01 0.00 0.00 0.00 0.00 0.00 0.00 0.00 0.00 0.00 0.00 0.00 0.01 0.03 0.01 0.00
0.02 0.04 0.05 0.03 0.04 0.02 0.02 0.02 0.00 0.02 0.08 0.05 0.19 0.19 0.20 0.16 0.10 0.25 0.59 0.72 0.25 0.10 0.01 0.00 0.00 0.00 0.00 0.01 0.01 0.01 0.00 0.00 0.00 0.00 0.00 0.00 0.00 0.00 0.00 0.00 0.00 0.00 0.01 0.01 0.02 0.02 0.01
0.02 0.03 0.04 0.03 0.03 0.01 0.01 0.01 0.00 0.02 0.05 0.04 0.09 0.24 0.19 0.11 0.14 0.44 0.68 0.52 0.22 0.03 0.00 0.00 0.00 0.00 0.00 0.00 0.00 0.00 0.00 0.00 0.00 0.00 0.00 0.00 0.00 0.00 0.00 0.00 0.00 0.00 0.00 0.00 0.05 0.01 0.07
0.03 0.03 0.03 0.03 0.02 0.00 0.01 0.00 0.00 0.00 0.04 0.05 0.09 0.22 0.23 0.17 0.10 0.20 0.24 0.08 0.04 0.02 0.00 0.00 0.00 0.00 0.00 0.00 0.00 0.00 0.00 0.00 0.00 0.00 0.00 0.00 0.00 0.00 0.00 0.01 0.01 0.00 0.00 0.00 0.05 0.18 0.12
0.02 0.02 0.02 0.03 0.03 0.00 0.01 0.00 0.00 0.00 0.02 0.01 0.04 0.08 0.06 0.04 0.03 0.08 0.13 0.08 0.03 0.00 0.00 0.00 0.00 0.00 0.00 0.00 0.00 0.00 0.00 0.00 0.00 0.00 0.00 0.00 0.00 0.00 0.00 0.00 0.01 0.02 0.00 0.02 0.21 0.34 0.07
0.02 0.01 0.02 0.02 0.02 0.00 0.01 0.00 0.00 0.00 0.01 0.00 0.03 0.04 0.01 0.01 0.02 0.02 0.03 0.04 0.03 0.00 0.00 0.00 0.00 0.00 0.00 0.00 0.00 0.00 0.00 0.00 0.00 0.00 0.00 0.00 0.00 0.00 0.00 0.00 0.00 0.00 0.00 0.01 0.16 0.15 0.27
0.01 0.01 0.01 0.02 0.02 0.00 0.00 0.01 0.00 0.00 0.00 0.00 0.01 0.03 0.01 0.01 0.00 0.00 0.01 0.04 0.01 0.00 0.00 0.00 0.00 0.00 0.00 0.00 0.00 0.00 0.00 0.00 0.00 0.00 0.00 0.00 0.01 0.01 0.00 0.00 0.00 0.00 0.00 0.05 0.04 0.03 0.06
0.01 0.02 0.01 0.01 0.02 0.00 0.00 0.01 0.00 0.00 0.01 0.01 0.01 0.01 0.01 0.01 0.00 0.01 0.01 0.00 0.00 0.00 0.00 0.00 0.00 0.00 0.00 0.00 0.00 0.00 0.00 0.00 0.00 0.00 0.00 0.01 0.01 0.01 0.00 0.00 0.00 0.04 0.06 0.07 0.03 0.02 0.03
0.01 0.01 0.01 0.01 0.01 0.00 0.00 0.01 0.00 0.00 0.02 0.03 0.02 0.02 0.01 0.01 0.00 0.00 0.00 0.00 0.00 0.00 0.00 0.00 0.00 0.01 0.01 0.00 0.00 0.00 0.00 0.00 0.00 0.00 0.00 0.01 0.02 0.02 0.03 0.00 0.03 0.05 0.02 0.02 0.02 0.00 0.00
0.01 0.01 0.01 0.01 0.01 0.01 0.00 0.00 0.00 0.00 0.00 0.01 0.02 0.03 0.02 0.01 0.00 0.00 0.00 0.00 0.00 0.00 0.00 0.00 0.00 0.00 0.00 0.00 0.00 0.00 0.01 0.02 0.00 0.00 0.01 0.01 0.02 0.05 0.04 0.03 0.02 0.02 0.00 0.00 0.01 0.00 0.00
0.01 0.01 0.01 0.01 0.01 0.01 0.01 0.01 0.00 0.00 0.00 0.01 0.02 0.02 0.02 0.02 0.00 0.00 0.00 0.00 0.00 0.00 0.00 0.00 0.00 0.00 0.00 0.01 0.01 0.01 0.01 0.01 0.01 0.01 0.00 0.01 0.02 0.08 0.07 0.12 0.03 0.02 0.00 0.00 0.00 0.02 0.00
0.01 0.01 0.01 0.01 0.01 0.02 0.02 0.02 0.01 0.00 0.00 0.00 0.01 0.02 0.01 0.02 0.01 0.00 0.00 0.00 0.00 0.00 0.01 0.01 0.01 0.01 0.01 0.03 0.02 0.02 0.01 0.00 0.01 0.01 0.02 0.04 0.07 0.13 0.10 0.18 0.01 0.00 0.00 0.00 0.02 0.01 0.00
0.01 0.02 0.01 0.01 0.01 0.02 0.02 0.03 0.03 0.02 0.01 0.00 0.01 0.00 0.02 0.03 0.00 0.00 0.00 0.00 0.00 0.01 0.02 0.01 0.01 0.01 0.03 0.05 0.02 0.01 0.01 0.01 0.00 0.00 0.00 0.01 0.03 0.04 0.05 0.08 0.01 0.00 0.00 0.01 0.00 0.00 0.00
0.03 0.03 0.02 0.02 0.01 0.02 0.03 0.05 0.07 0.05 0.02 0.01 0.00 0.00 0.02 0.05 0.01 0.00 0.00 0.00 0.00 0.00 0.02 0.00 0.01 0.01 0.01 0.03 0.02 0.02 0.02 0.01 0.00 0.00 0.00 0.00 0.00 0.00 0.00 0.00 0.00 0.00 0.00 0.00 0.00 0.00 0.00

GFSGBSN_prec_precacc24_051.txt.gz
Total_Precipitation_Accumulation
0.02 0.03 0.03 0.04 0.03 0.02 0.07 0.11 0.08 0.07 0.08 0.10 0.11 0.16 0.11 0.09 0.10 0.15 0.11 0.10 0.20 0.18 0.16 0.12 0.22 0.60 0.64 0.41 0.09 0.10 0.06 0.07 0.26 0.23 0.06 0.03 0.02 0.02 0.01 0.00 0.00 0.00 0.00 0.00 0.00 0.00 0.00
0.03 0.03 0.04 0.03 0.03 0.05 0.12 0.11 0.08 0.09 0.09 0.10 0.15 0.19 0.13 0.15 0.19 0.14 0.09 0.14 0.21 0.24 0.29 0.16 0.30 0.55 0.54 0.25 0.04 0.07 0.07 0.06 0.13 0.22 0.09 0.05 0.01 0.01 0.01 0.00 0.00 0.00 0.00 0.00 0.00 0.00 0.00
0.03 0.04 0.04 0.02 0.03 0.09 0.12 0.10 0.11 0.10 0.09 0.13 0.22 0.22 0.18 0.23 0.19 0.14 0.10 0.15 0.24 0.23 0.28 0.31 0.45 0.56 0.35 0.09 0.06 0.10 0.07 0.14 0.14 0.15 0.12 0.07 0.02 0.02 0.01 0.00 0.00 0.00 0.00 0.00 0.00 0.00 0.00
0.03 0.04 0.03 0.02 0.05 0.11 0.10 0.11 0.14 0.10 0.10 0.19 0.27 0.25 0.22 0.25 0.14 0.17 0.18 0.27 0.35 0.47 0.58 0.45 0.60 0.58 0.23 0.02 0.06 0.11 0.11 0.19 0.32 0.44 0.28 0.35 0.08 0.03 0.01 0.00 0.00 0.00 0.00 0.00 0.00 0.00 0.00
0.03 0.03 0.02 0.03 0.07 0.10 0.11 0.13 0.13 0.10 0.15 0.25 0.31 0.27 0.25 0.25 0.24 0.21 0.21 0.09 0.15 0.28 0.54 0.67 0.75 0.47 0.21 0.06 0.05 0.07 0.10 0.23 0.27 0.55 0.76 0.79 0.40 0.11 0.02 0.00 0.01 0.00 0.00 0.00 0.00 0.00 0.00
0.03 0.02 0.02 0.04 0.08 0.11 0.11 0.14 0.10 0.11 0.17 0.28 0.31 0.23 0.24 0.23 0.27 0.30 0.31 0.10 0.05 0.22 0.42 0.90 0.79 0.54 0.11 0.07 0.06 0.10 0.09 0.29 0.25 0.49 0.79 0.78 0.64 0.26 0.06 0.01 0.00 0.00 0.00 0.00 0.00 0.00 0.00
0.04 0.02 0.02 0.06 0.09 0.10 0.11 0.12 0.10 0.13 0.19 0.29 0.25 0.16 0.18 0.23 0.30 0.18 0.18 0.03 0.10 0.42 0.81 0.86 0.37 0.25 0.15 0.21 0.16 0.17 0.14 0.37 0.50 0.57 0.62 0.53 0.40 0.23 0.06 0.01 0.00 0.00 0.00 0.00 0.00 0.00 0.00
0.02 0.02 0.03 0.08 0.09 0.08 0.10 0.09 0.11 0.14 0.20 0.23 0.18 0.15 0.19 0.29 0.29 0.25 0.28 0.14 0.21 0.49 0.68 0.52 0.12 0.17 0.10 0.14 0.32 0.18 0.25 0.68 0.37 0.40 0.71 0.63 0.32 0.08 0.12 0.04 0.01 0.00 0.00 0.00 0.00 0.00 0.00
0.02 0.01 0.04 0.08 0.08 0.07 0.09 0.09 0.11 0.15 0.18 0.17 0.15 0.13 0.20 0.27 0.21 0.17 0.16 0.04 0.16 0.49 0.77 0.65 0.29 0.32 0.26 0.10 0.27 0.08 0.40 0.68 0.41 0.38 0.52 0.57 0.23 0.09 0.14 0.10 0.03 0.01 0.00 0.00 0.00 0.00 0.00
0.02 0.01 0.05 0.07 0.08 0.07 0.08 0.06 0.09 0.14 0.13 0.13 0.10 0.10 0.17 0.27 0.15 0.16 0.07 0.09 0.18 0.55 0.66 0.87 0.62 0.55 0.27 0.20 0.38 0.08 0.65 0.61 0.55 0.48 0.43 0.56 0.36 0.16 0.11 0.13 0.05 0.02 0.00 0.00 0.00 0.00 0.00
0.01 0.02 0.05 0.07 0.06 0.07 0.07 0.05 0.11 0.10 0.10 0.10 0.06 0.07 0.10 0.31 0.13 0.07 0.19 0.07 0.17 0.68 0.83 0.88 0.77 0.51 0.41 0.17 0.28 0.26 0.65 0.43 0.31 0.30 0.39 0.39 0.34 0.31 0.14 0.10 0.06 0.03 0.00 0.00 0.00 0.00 0.00
0.01 0.02 0.05 0.05 0.05 0.05 0.05 0.04 0.08 0.05 0.09 0.10 0.04 0.07 0.10 0.07 0.06 0.13 0.24 0.05 0.27 0.64 1.18 1.32 0.79 0.56 0.19 0.21 0.12 0.33 0.55 0.24 0.22 0.16 0.25 0.26 0.27 0.35 0.18 0.12 0.06 0.02 0.00 0.00 0.00 0.00 0.00
0.00 0.02 0.05 0.05 0.04 0.04 0.03 0.04 0.05 0.05 0.09 0.08 0.04 0.06 0.08 0.06 0.12 0.13 0.14 0.04 0.31 0.50 0.80 0.93 0.65 0.21 0.13 0.15 0.15 0.29 0.51 0.25 0.23 0.24 0.26 0.34 0.35 0.23 0.18 0.17 0.09 0.01 0.03 0.03 0.02 0.01 0.00
0.00 0.03 0.05 0.04 0.04 0.04 0.02 0.03 0.03 0.03 0.04 0.05 0.03 0.03 0.05 0.09 0.16 0.08 0.15 0.09 0.28 0.45 0.78 0.65 0.20 0.09 0.09 0.08 0.07 0.17 0.22 0.06 0.02 0.01 0.06 0.29 0.35 0.25 0.16 0.12 0.08 0.01 0.02 0.02 0.00 0.00 0.00
0.01 0.03 0.04 0.03 0.03 0.03 0.01 0.03 0.01 0.02 0.06 0.05 0.03 0.02 0.18 0.23 0.13 0.02 0.16 0.13 0.48 0.71 0.81 0.34 0.09 0.07 0.10 0.03 0.06 0.24 0.16 0.02 0.00 0.00 0.01 0.03 0.07 0.05 0.08 0.07 0.05 0.02 0.02 0.00 0.00 0.00 0.00
0.01 0.03 0.03 0.03 0.02 0.02 0.01 0.02 0.00 0.03 0.09 0.07 0.03 0.08 0.15 0.21 0.03 0.01 0.20 0.32 0.41 0.29 0.08 0.01 0.11 0.05 0.03 0.02 0.05 0.05 0.07 0.01 0.00 0.00 0.00 0.00 0.01 0.00 0.00 0.00 0.00 0.00 0.00 0.01 0.01 0.00 0.00
0.01 0.02 0.02 0.01 0.02 0.01 0.01 0.01 0.00 0.02 0.06 0.03 0.04 0.07 0.14 0.08 0.03 0.13 0.48 0.63 0.25 0.10 0.01 0.00 0.00 0.00 0.00 0.01 0.01 0.01 0.00 0.00 0.00 0.00 0.00 0.00 0.00 0.00 0.00 0.00 0.00 0.00 0.00 0.00 0.00 0.00 0.00
0.01 0.01 0.02 0.01 0.01 0.00 0.00 0.01 0.00 0.01 0.04 0.01 0.02 0.11 0.08 0.05 0.09 0.31 0.61 0.49 0.22 0.03 0.00 0.00 0.00 0.00 0.00 0.00 0.00 0.00 0.00 0.00 0.00 0.00 0.00 0.00 0.00 0.00 0.00 0.00 0.00 0.00 0.00 0.00 0.00 0.00 0.00
0.02 0.01 0.01 0.01 0.01 0.00 0.00 0.00 0.00 0.00 0.02 0.01 0.02 0.13 0.08 0.03 0.05 0.15 0.20 0.06 0.04 0.02 0.00 0.00 0.00 0.00 0.00 0.00 0.00 0.00 0.00 0.00 0.00 0.00 0.00 0.00 0.00 0.00 0.00 0.00 0.00 0.00 0.00 0.00 0.01 0.07 0.05
0.01 0.01 0.01 0.02 0.02 0.00 0.00 0.00 0.00 0.00 0.00 0.00 0.00 0.03 0.02 0.01 0.02 0.07 0.11 0.06 0.02 0.00 0.00 0.00 0.00 0.00 0.00 0.00 0.00 0.00 0.00 0.00 0.00 0.00 0.00 0.00 0.00 0.00 0.00 0.00 0.00 0.00 0.00 0.00 0.07 0.17 0.04
0.01 0.01 0.01 0.01 0.01 0.00 0.00 0.00 0.00 0.00 0.00 0.00 0.00 0.00 0.00 0.01 0.01 0.01 0.02 0.03 0.01 0.00 0.00 0.00 0.00 0.00 0.00 0.00 0.00 0.00 0.00 0.00 0.00 0.00 0.00 0.00 0.00 0.00 0.00 0.00 0.00 0.00 0.00 0.00 0.06 0.06 0.19
0.01 0.01 0.00 0.01 0.01 0.00 0.00 0.00 0.00 0.00 0.00 0.00 0.00 0.01 0.00 0.00 0.00 0.00 0.01 0.03 0.00 0.00 0.00 0.00 0.00 0.00 0.00 0.00 0.00 0.00 0.00 0.00 0.00 0.00 0.00 0.00 0.00 0.00 0.00 0.00 0.00 0.00 0.00 0.02 0.01 0.02 0.04
0.01 0.01 0.00 0.01 0.01 0.00 0.00 0.00 0.00 0.00 0.00 0.01 0.00 0.00 0.01 0.00 0.00 0.01 0.01 0.00 0.00 0.00 0.00 0.00 0.00 0.00 0.00 0.00 0.00 0.00 0.00 0.00 0.00 0.00 0.00 0.00 0.00 0.00 0.00 0.00 0.00 0.01 0.00 0.01 0.01 0.02 0.03
0.00 0.01 0.00 0.01 0.01 0.01 0.00 0.00 0.00 0.00 0.01 0.01 0.01 0.01 0.01 0.00 0.00 0.00 0.00 0.00 0.00 0.00 0.00 0.00 0.00 0.00 0.00 0.00 0.00 0.00 0.00 0.00 0.00 0.00 0.00 0.00 0.01 0.01 0.00 0.00 0.01 0.01 0.00 0.00 0.00 0.00 0.00
0.01 0.01 0.01 0.01 0.01 0.01 0.01 0.00 0.00 0.00 0.00 0.00 0.01 0.01 0.02 0.01 0.00 0.00 0.00 0.00 0.00 0.00 0.00 0.00 0.00 0.00 0.00 0.00 0.00 0.00 0.01 0.01 0.00 0.00 0.00 0.00 0.01 0.02 0.02 0.01 0.01 0.01 0.00 0.00 0.00 0.00 0.00
0.01 0.01 0.01 0.01 0.01 0.01 0.01 0.01 0.00 0.00 0.00 0.00 0.01 0.00 0.01 0.01 0.00 0.00 0.00 0.00 0.00 0.00 0.00 0.00 0.00 0.00 0.00 0.01 0.01 0.01 0.01 0.01 0.01 0.01 0.00 0.01 0.01 0.05 0.05 0.07 0.02 0.01 0.00 0.00 0.00 0.01 0.00
0.01 0.01 0.01 0.01 0.01 0.02 0.02 0.02 0.02 0.00 0.00 0.00 0.01 0.00 0.00 0.01 0.00 0.00 0.00 0.00 0.00 0.00 0.01 0.01 0.00 0.00 0.00 0.02 0.01 0.01 0.00 0.00 0.01 0.01 0.03 0.04 0.07 0.11 0.08 0.14 0.01 0.00 0.00 0.00 0.03 0.02 0.00
0.01 0.02 0.02 0.01 0.01 0.02 0.02 0.03 0.05 0.03 0.02 0.00 0.00 0.00 0.01 0.01 0.00 0.00 0.00 0.00 0.00 0.01 0.02 0.01 0.01 0.01 0.01 0.04 0.02 0.01 0.00 0.00 0.00 0.00 0.00 0.02 0.03 0.04 0.05 0.08 0.01 0.00 0.00 0.01 0.01 0.00 0.00
0.03 0.04 0.04 0.03 0.01 0.02 0.03 0.05 0.08 0.06 0.04 0.02 0.00 0.00 0.01 0.03 0.01 0.00 0.00 0.00 0.00 0.00 0.01 0.00 0.01 0.00 0.01 0.03 0.01 0.01 0.00 0.01 0.00 0.00 0.00 0.00 0.00 0.00 0.00 0.00 0.00 0.00 0.00 0.00 0.00 0.00 0.00

GFSGBSN_prec_precacc24_054.txt.gz
Total_Precipitation_Accumulation
0.02 0.03 0.03 0.04 0.03 0.03 0.07 0.12 0.09 0.09 0.09 0.10 0.12 0.19 0.16 0.15 0.17 0.20 0.14 0.09 0.14 0.11 0.15 0.14 0.26 0.68 0.68 0.44 0.09 0.11 0.09 0.10 0.31 0.27 0.06 0.03 0.02 0.03 0.01 0.00 0.00 0.00 0.00 0.00 0.00 0.00 0.00
0.03 0.03 0.04 0.03 0.03 0.05 0.12 0.11 0.09 0.11 0.10 0.10 0.18 0.23 0.19 0.21 0.25 0.20 0.10 0.13 0.16 0.16 0.32 0.20 0.39 0.61 0.60 0.29 0.04 0.07 0.10 0.18 0.25 0.23 0.08 0.04 0.01 0.01 0.01 0.00 0.00 0.00 0.00 0.00 0.00 0.00 0.00
0.03 0.03 0.03 0.02 0.03 0.08 0.11 0.10 0.12 0.10 0.09 0.13 0.25 0.25 0.21 0.27 0.21 0.16 0.09 0.13 0.19 0.15 0.19 0.31 0.49 0.59 0.39 0.09 0.06 0.12 0.09 0.19 0.31 0.17 0.08 0.06 0.02 0.03 0.02 0.01 0.00 0.00 0.00 0.00 0.00 0.00 0.00
0.03 0.04 0.02 0.02 0.04 0.09 0.09 0.10 0.13 0.09 0.10 0.20 0.30 0.27 0.23 0.30 0.18 0.17 0.16 0.27 0.31 0.33 0.37 0.40 0.60 0.62 0.26 0.02 0.07 0.13 0.18 0.22 0.39 0.55 0.21 0.29 0.07 0.04 0.05 0.02 0.00 0.00 0.00 0.00 0.00 0.00 0.00
0.02 0.03 0.01 0.02 0.06 0.09 0.09 0.11 0.12 0.09 0.14 0.25 0.32 0.28 0.26 0.28 0.25 0.22 0.20 0.09 0.14 0.16 0.34 0.55 0.75 0.49 0.22 0.06 0.05 0.08 0.21 0.28 0.34 0.64 0.74 0.76 0.44 0.14 0.05 0.03 0.02 0.00 0.00 0.00 0.00 0.00 0.00
0.03 0.02 0.01 0.03 0.08 0.09 0.08 0.11 0.09 0.09 0.15 0.25 0.29 0.22 0.20 0.19 0.24 0.28 0.30 0.10 0.05 0.03 0.11 0.71 0.79 0.56 0.13 0.08 0.08 0.14 0.21 0.32 0.35 0.60 0.82 0.81 0.72 0.32 0.11 0.04 0.02 0.00 0.00 0.00 0.00 0.00 0.00
0.02 0.02 0.01 0.06 0.08 0.08 0.08 0.09 0.07 0.10 0.16 0.25 0.23 0.16 0.16 0.20 0.29 0.17 0.17 0.04 0.05 0.14 0.37 0.71 0.37 0.27 0.17 0.25 0.27 0.29 0.30 0.40 0.71 0.66 0.64 0.58 0.43 0.24 0.07 0.01 0.00 0.00 0.00 0.00 0.00 0.00 0.00
0.02 0.01 0.02 0.07 0.08 0.07 0.08 0.06 0.07 0.10 0.17 0.20 0.16 0.15 0.16 0.26 0.27 0.23 0.27 0.12 0.03 0.13 0.35 0.41 0.12 0.17 0.10 0.17 0.48 0.38 0.37 0.81 0.71 0.47 0.72 0.67 0.33 0.08 0.12 0.04 0.01 0.00 0.00 0.00 0.00 0.00 0.00
0.02 0.01 0.03 0.06 0.06 0.05 0.06 0.05 0.07 0.12 0.14 0.15 0.13 0.13 0.16 0.24 0.15 0.15 0.15 0.03 0.01 0.05 0.42 0.49 0.28 0.32 0.27 0.28 0.57 0.31 0.62 0.83 0.57 0.39 0.52 0.58 0.23 0.10 0.15 0.11 0.03 0.01 0.00 0.00 0.00 0.00 0.00
0.01 0.01 0.03 0.05 0.06 0.05 0.05 0.03 0.07 0.11 0.11 0.11 0.10 0.09 0.14 0.20 0.07 0.07 0.05 0.09 0.01 0.09 0.41 0.71 0.64 0.59 0.34 0.72 0.79 0.24 0.85 0.67 0.56 0.50 0.46 0.57 0.39 0.21 0.14 0.14 0.05 0.02 0.00 0.00 0.00 0.00 0.00
0.00 0.01 0.03 0.04 0.04 0.05 0.04 0.02 0.07 0.07 0.09 0.10 0.06 0.07 0.08 0.26 0.08 0.04 0.11 0.04 0.02 0.23 0.65 0.81 0.82 0.62 0.64 0.42 0.39 0.42 0.74 0.45 0.31 0.31 0.40 0.43 0.40 0.41 0.19 0.11 0.06 0.03 0.00 0.00 0.00 0.00 0.00
0.00 0.01 0.03 0.04 0.04 0.04 0.03 0.02 0.05 0.04 0.09 0.09 0.05 0.06 0.09 0.05 0.03 0.06 0.11 0.00 0.04 0.31 1.03 1.34 0.89 0.72 0.27 0.25 0.15 0.38 0.64 0.27 0.23 0.16 0.29 0.35 0.30 0.46 0.26 0.17 0.07 0.02 0.00 0.00 0.00 0.00 0.00
0.00 0.01 0.03 0.03 0.03 0.03 0.01 0.02 0.03 0.03 0.08 0.08 0.03 0.06 0.07 0.05 0.07 0.05 0.05 0.01 0.05 0.30 0.73 0.96 0.78 0.32 0.22 0.25 0.31 0.47 0.62 0.30 0.24 0.26 0.28 0.48 0.49 0.30 0.20 0.19 0.10 0.01 0.03 0.04 0.02 0.01 0.00
0.00 0.01 0.03 0.02 0.03 0.02 0.00 0.01 0.01 0.02 0.04 0.05 0.02 0.03 0.03 0.04 0.04 0.02 0.03 0.02 0.15 0.37 0.74 0.67 0.22 0.10 0.11 0.14 0.16 0.34 0.43 0.16 0.05 0.03 0.11 0.38 0.53 0.37 0.21 0.12 0.08 0.01 0.02 0.03 0.01 0.00 0.00
0.00 0.02 0.02 0.02 0.02 0.02 0.00 0.01 0.00 0.02 0.06 0.04 0.02 0.02 0.07 0.10 0.05 0.01 0.04 0.07 0.32 0.68 0.81 0.34 0.08 0.06 0.08 0.02 0.06 0.26 0.19 0.05 0.03 0.02 0.09 0.10 0.14 0.15 0.15 0.10 0.07 0.02 0.02 0.00 0.00 0.00 0.00
0.01 0.01 0.01 0.01 0.02 0.01 0.00 0.01 0.00 0.02 0.06 0.03 0.00 0.01 0.06 0.10 0.01 0.00 0.11 0.19 0.31 0.28 0.08 0.00 0.10 0.05 0.02 0.01 0.04 0.05 0.07 0.01 0.00 0.00 0.01 0.00 0.03 0.07 0.08 0.09 0.08 0.01 0.00 0.02 0.00 0.00 0.00
0.01 0.01 0.01 0.01 0.01 0.01 0.00 0.00 0.00 0.01 0.03 0.01 0.00 0.03 0.03 0.03 0.02 0.10 0.27 0.37 0.22 0.10 0.01 0.00 0.00 0.00 0.00 0.00 0.01 0.01 0.00 0.00 0.00 0.00 0.00 0.00 0.00 0.02 0.02 0.02 0.04 0.02 0.00 0.00 0.01 0.00 0.00
0.01 0.00 0.01 0.00 0.01 0.00 0.00 0.00 0.00 0.01 0.01 0.00 0.00 0.02 0.01 0.01 0.09 0.30 0.51 0.38 0.20 0.03 0.00 0.00 0.00 0.00 0.00 0.00 0.00 0.00 0.00 0.00 0.00 0.00 0.00 0.00 0.00 0.00 0.00 0.00 0.00 0.00 0.00 0.00 0.01 0.00 0.00
0.01 0.00 0.01 0.00 0.00 0.00 0.00 0.00 0.00 0.00 0.01 0.00 0.00 0.00 0.00 0.00 0.05 0.11 0.09 0.03 0.03 0.01 0.00 0.00 0.00 0.00 0.00 0.00 0.00 0.00 0.00 0.00 0.00 0.00 0.00 0.00 0.00 0.00 0.00 0.00 0.00 0.00 0.00 0.00 0.00 0.01 0.01
0.01 0.00 0.01 0.01 0.00 0.00 0.00 0.00 0.00 0.00 0.00 0.00 0.00 0.00 0.00 0.00 0.01 0.05 0.06 0.03 0.01 0.00 0.00 0.00 0.00 0.00 0.00 0.00 0.00 0.00 0.00 0.00 0.00 0.00 0.00 0.00 0.00 0.00 0.00 0.00 0.00 0.00 0.00 0.00 0.00 0.05 0.01
0.01 0.00 0.01 0.01 0.00 0.00 0.00 0.00 0.00 0.00 0.00 0.00 0.00 0.00 0.00 0.00 0.00 0.00 0.01 0.01 0.00 0.00 0.00 0.00 0.00 0.00 0.00 0.00 0.00 0.00 0.00 0.00 0.00 0.00 0.00 0.00 0.00 0.00 0.00 0.00 0.00 0.00 0.00 0.00 0.01 0.01 0.09
0.01 0.00 0.00 0.00 0.00 0.00 0.00 0.00 0.00 0.00 0.00 0.00 0.00 0.01 0.00 0.00 0.00 0.00 0.01 0.01 0.00 0.00 0.00 0.00 0.00 0.00 0.00 0.00 0.00 0.00 0.00 0.00 0.00 0.00 0.00 0.00 0.00 0.00 0.00 0.00 0.00 0.00 0.00 0.00 0.00 0.00 0.00
0.01 0.01 0.00 0.00 0.01 0.00 0.00 0.00 0.00 0.00 0.00 0.00 0.00 0.00 0.01 0.00 0.00 0.00 0.00 0.00 0.00 0.00 0.00 0.00 0.00 0.00 0.00 0.00 0.00 0.00 0.00 0.00 0.00 0.00 0.00 0.00 0.00 0.00 0.00 0.00 0.00 0.00 0.00 0.00 0.00 0.00 0.01
0.00 0.01 0.00 0.01 0.00 0.00 0.00 0.00 0.00 0.00 0.00 0.01 0.01 0.01 0.01 0.00 0.00 0.00 0.00 0.00 0.00 0.00 0.00 0.00 0.00 0.00 0.00 0.00 0.00 0.00 0.00 0.00 0.00 0.00 0.00 0.00 0.00 0.00 0.00 0.00 0.01 0.01 0.00 0.00 0.00 0.00 0.00
0.00 0.01 0.01 0.01 0.01 0.01 0.00 0.00 0.00 0.00 0.00 0.00 0.00 0.00 0.01 0.00 0.00 0.00 0.00 0.00 0.00 0.00 0.00 0.00 0.00 0.00 0.00 0.00 0.00 0.00 0.01 0.01 0.00 0.00 0.00 0.00 0.00 0.00 0.01 0.01 0.01 0.00 0.00 0.00 0.00 0.00 0.00
0.01 0.01 0.01 0.01 0.01 0.01 0.01 0.00 0.00 0.01 0.00 0.00 0.00 0.00 0.01 0.01 0.00 0.00 0.00 0.00 0.00 0.00 0.00 0.00 0.00 0.00 0.00 0.01 0.01 0.01 0.01 0.00 0.01 0.01 0.00 0.00 0.01 0.03 0.04 0.05 0.02 0.00 0.00 0.00 0.00 0.01 0.00
0.01 0.01 0.01 0.01 0.01 0.02 0.02 0.02 0.02 0.01 0.00 0.00 0.00 0.00 0.00 0.01 0.00 0.00 0.00 0.00 0.00 0.00 0.00 0.01 0.00 0.00 0.00 0.02 0.01 0.01 0.01 0.00 0.01 0.01 0.03 0.04 0.06 0.09 0.06 0.10 0.01 0.00 0.00 0.00 0.03 0.02 0.00
0.01 0.02 0.02 0.01 0.01 0.02 0.02 0.03 0.05 0.03 0.02 0.00 0.00 0.00 0.00 0.01 0.00 0.00 0.00 0.00 0.00 0.00 0.01 0.01 0.02 0.01 0.02 0.03 0.01 0.00 0.00 0.00 0.00 0.00 0.00 0.02 0.03 0.04 0.05 0.07 0.00 0.00 0.00 0.01 0.01 0.00 0.00
0.02 0.04 0.04 0.03 0.01 0.02 0.03 0.05 0.08 0.07 0.04 0.02 0.01 0.00 0.01 0.02 0.00 0.00 0.00 0.00 0.00 0.00 0.00 0.00 0.01 0.00 0.02 0.03 0.02 0.00 0.00 0.00 0.00 0.00 0.00 0.00 0.00 0.00 0.00 0.00 0.00 0.00 0.00 0.00 0.00 0.00 0.00

GFSGBSN_prec_precacc24_057.txt.gz
Total_Precipitation_Accumulation
0.02 0.03 0.03 0.03 0.03 0.03 0.07 0.12 0.09 0.10 0.09 0.10 0.12 0.22 0.18 0.17 0.18 0.26 0.24 0.13 0.14 0.09 0.08 0.10 0.26 0.76 0.72 0.47 0.10 0.11 0.09 0.08 0.28 0.37 0.08 0.04 0.02 0.03 0.01 0.00 0.00 0.00 0.00 0.00 0.00 0.00 0.00
0.02 0.02 0.04 0.02 0.03 0.04 0.10 0.10 0.09 0.10 0.08 0.09 0.19 0.25 0.19 0.22 0.28 0.28 0.12 0.13 0.15 0.14 0.24 0.12 0.38 0.63 0.63 0.30 0.04 0.08 0.11 0.20 0.29 0.40 0.12 0.03 0.01 0.01 0.01 0.00 0.00 0.00 0.00 0.00 0.00 0.00 0.00
0.02 0.03 0.03 0.01 0.02 0.06 0.10 0.08 0.10 0.08 0.07 0.12 0.26 0.26 0.20 0.28 0.24 0.18 0.07 0.11 0.17 0.13 0.12 0.08 0.42 0.59 0.40 0.09 0.08 0.16 0.10 0.23 0.38 0.33 0.12 0.03 0.00 0.03 0.03 0.02 0.00 0.00 0.01 0.00 0.00 0.00 0.00
0.02 0.03 0.02 0.01 0.03 0.08 0.08 0.08 0.11 0.07 0.07 0.19 0.28 0.27 0.23 0.31 0.19 0.15 0.12 0.23 0.31 0.30 0.31 0.18 0.48 0.63 0.26 0.02 0.09 0.14 0.19 0.25 0.44 0.67 0.25 0.20 0.06 0.04 0.08 0.03 0.00 0.00 0.00 0.00 0.00 0.00 0.00
0.02 0.02 0.01 0.01 0.05 0.08 0.07 0.09 0.10 0.06 0.12 0.23 0.28 0.25 0.24 0.25 0.20 0.14 0.15 0.08 0.14 0.14 0.27 0.14 0.55 0.51 0.22 0.07 0.05 0.08 0.22 0.36 0.41 0.73 0.78 0.67 0.40 0.14 0.07 0.05 0.04 0.02 0.00 0.00 0.00 0.00 0.00
0.02 0.01 0.01 0.03 0.06 0.07 0.06 0.09 0.06 0.06 0.13 0.22 0.26 0.20 0.17 0.16 0.23 0.23 0.27 0.10 0.05 0.02 0.03 0.18 0.62 0.56 0.15 0.12 0.09 0.14 0.27 0.47 0.46 0.70 0.97 0.88 0.71 0.29 0.10 0.04 0.02 0.00 0.00 0.00 0.00 0.00 0.00
0.02 0.01 0.01 0.04 0.06 0.06 0.06 0.07 0.05 0.08 0.14 0.23 0.21 0.15 0.15 0.18 0.27 0.13 0.16 0.04 0.05 0.12 0.13 0.31 0.27 0.29 0.19 0.26 0.31 0.33 0.44 0.50 0.88 0.99 0.79 0.59 0.41 0.22 0.06 0.01 0.00 0.00 0.00 0.00 0.00 0.00 0.00
0.02 0.01 0.01 0.04 0.06 0.05 0.06 0.05 0.05 0.08 0.15 0.18 0.14 0.15 0.16 0.21 0.21 0.15 0.16 0.10 0.03 0.05 0.08 0.17 0.10 0.17 0.10 0.17 0.56 0.58 0.70 0.96 0.84 0.90 0.80 0.65 0.30 0.07 0.12 0.04 0.01 0.00 0.00 0.00 0.00 0.00 0.00
0.01 0.00 0.01 0.04 0.05 0.04 0.05 0.04 0.05 0.09 0.12 0.14 0.13 0.13 0.15 0.20 0.10 0.03 0.04 0.02 0.01 0.01 0.18 0.22 0.20 0.31 0.27 0.28 0.63 0.56 0.90 1.00 0.76 0.54 0.53 0.58 0.23 0.09 0.15 0.11 0.03 0.01 0.00 0.00 0.00 0.00 0.00
0.01 0.00 0.01 0.03 0.04 0.04 0.04 0.02 0.05 0.09 0.10 0.11 0.09 0.09 0.11 0.17 0.05 0.01 0.02 0.06 0.00 0.01 0.29 0.51 0.49 0.58 0.37 0.76 0.87 0.34 1.07 0.97 0.78 0.55 0.47 0.58 0.39 0.21 0.14 0.14 0.05 0.02 0.00 0.00 0.00 0.00 0.00
0.00 0.00 0.01 0.03 0.02 0.04 0.03 0.01 0.05 0.06 0.09 0.09 0.06 0.07 0.08 0.21 0.06 0.03 0.05 0.03 0.00 0.07 0.49 0.63 0.71 0.65 0.78 0.68 0.47 0.48 0.87 0.65 0.41 0.33 0.41 0.44 0.40 0.41 0.20 0.12 0.06 0.04 0.00 0.00 0.00 0.00 0.00
0.00 0.01 0.01 0.02 0.02 0.03 0.02 0.01 0.04 0.04 0.09 0.09 0.05 0.06 0.09 0.04 0.02 0.03 0.03 0.00 0.01 0.16 0.83 1.19 1.16 1.12 0.56 0.38 0.23 0.57 0.70 0.30 0.23 0.16 0.29 0.35 0.30 0.47 0.32 0.19 0.08 0.03 0.00 0.00 0.00 0.00 0.00
0.00 0.01 0.01 0.01 0.02 0.02 0.01 0.01 0.02 0.03 0.08 0.07 0.02 0.04 0.05 0.02 0.04 0.01 0.01 0.00 0.02 0.19 0.53 0.92 0.91 0.40 0.23 0.26 0.33 0.49 0.62 0.30 0.24 0.27 0.29 0.51 0.52 0.31 0.29 0.27 0.12 0.01 0.03 0.04 0.02 0.01 0.00
0.00 0.01 0.01 0.01 0.01 0.02 0.00 0.00 0.01 0.02 0.04 0.04 0.00 0.00 0.02 0.02 0.01 0.01 0.02 0.01 0.10 0.25 0.61 0.63 0.22 0.11 0.13 0.18 0.28 0.41 0.45 0.16 0.05 0.03 0.11 0.40 0.66 0.42 0.28 0.20 0.13 0.01 0.02 0.03 0.01 0.00 0.00
0.00 0.01 0.01 0.01 0.01 0.01 0.00 0.00 0.00 0.02 0.03 0.01 0.00 0.00 0.02 0.03 0.00 0.01 0.04 0.06 0.22 0.53 0.78 0.32 0.06 0.05 0.06 0.02 0.12 0.34 0.22 0.06 0.04 0.02 0.09 0.12 0.16 0.20 0.19 0.12 0.09 0.03 0.02 0.00 0.00 0.00 0.00
0.00 0.01 0.00 0.00 0.01 0.01 0.00 0.00 0.00 0.01 0.02 0.00 0.00 0.00 0.01 0.02 0.00 0.00 0.07 0.15 0.17 0.21 0.07 0.00 0.08 0.04 0.02 0.01 0.04 0.05 0.07 0.02 0.00 0.00 0.01 0.01 0.04 0.08 0.13 0.13 0.09 0.01 0.00 0.02 0.00 0.00 0.00
0.00 0.00 0.00 0.00 0.00 0.00 0.00 0.00 0.00 0.01 0.01 0.00 0.00 0.00 0.00 0.00 0.01 0.04 0.15 0.20 0.14 0.08 0.01 0.00 0.00 0.00 0.00 0.00 0.00 0.00 0.00 0.00 0.00 0.00 0.00 0.00 0.01 0.05 0.06 0.11 0.06 0.02 0.00 0.00 0.01 0.00 0.00
0.00 0.00 0.00 0.00 0.00 0.00 0.00 0.00 0.00 0.01 0.00 0.00 0.00 0.00 0.00 0.00 0.08 0.19 0.23 0.15 0.10 0.02 0.00 0.00 0.00 0.00 0.00 0.00 0.00 0.00 0.00 0.00 0.00 0.00 0.00 0.00 0.00 0.01 0.01 0.00 0.00 0.00 0.00 0.00 0.01 0.01 0.00
0.00 0.00 0.00 0.00 0.00 0.00 0.00 0.00 0.00 0.00 0.00 0.00 0.00 0.00 0.00 0.00 0.03 0.02 0.02 0.01 0.01 0.00 0.00 0.00 0.00 0.00 0.00 0.00 0.00 0.00 0.00 0.00 0.00 0.00 0.00 0.00 0.00 0.00 0.00 0.00 0.00 0.00 0.00 0.00 0.00 0.00 0.00
0.01 0.00 0.00 0.00 0.00 0.00 0.00 0.00 0.00 0.00 0.00 0.00 0.00 0.00 0.00 0.00 0.00 0.00 0.00 0.00 0.00 0.00 0.00 0.00 0.00 0.00 0.00 0.00 0.00 0.00 0.00 0.00 0.00 0.00 0.00 0.00 0.00 0.00 0.00 0.00 0.00 0.00 0.00 0.00 0.00 0.00 0.00
0.00 0.00 0.00 0.00 0.00 0.00 0.00 0.00 0.00 0.00 0.00 0.00 0.00 0.00 0.00 0.00 0.00 0.00 0.00 0.00 0.00 0.00 0.00 0.00 0.00 0.00 0.00 0.00 0.00 0.00 0.00 0.00 0.00 0.00 0.00 0.00 0.00 0.00 0.00 0.00 0.00 0.00 0.00 0.00 0.00 0.00 0.01
0.00 0.00 0.00 0.00 0.00 0.00 0.00 0.00 0.00 0.00 0.00 0.00 0.00 0.01 0.00 0.00 0.00 0.00 0.00 0.00 0.00 0.00 0.00 0.00 0.00 0.00 0.00 0.00 0.00 0.00 0.00 0.00 0.00 0.00 0.00 0.00 0.00 0.00 0.00 0.00 0.00 0.00 0.00 0.00 0.00 0.00 0.00
0.00 0.01 0.00 0.00 0.00 0.00 0.00 0.00 0.00 0.00 0.00 0.00 0.00 0.00 0.01 0.00 0.00 0.00 0.00 0.00 0.00 0.00 0.00 0.00 0.00 0.00 0.00 0.00 0.00 0.00 0.00 0.00 0.00 0.00 0.00 0.00 0.00 0.00 0.00 0.00 0.00 0.00 0.00 0.00 0.00 0.00 0.00
0.00 0.00 0.00 0.00 0.00 0.00 0.00 0.00 0.00 0.00 0.00 0.00 0.01 0.01 0.01 0.00 0.00 0.00 0.00 0.00 0.00 0.00 0.00 0.00 0.00 0.00 0.00 0.00 0.00 0.00 0.00 0.00 0.00 0.00 0.00 0.00 0.00 0.00 0.00 0.00 0.00 0.00 0.00 0.00 0.00 0.00 0.00
0.00 0.00 0.00 0.01 0.01 0.01 0.00 0.00 0.00 0.00 0.00 0.00 0.00 0.00 0.01 0.00 0.00 0.00 0.00 0.00 0.00 0.00 0.00 0.00 0.00 0.00 0.00 0.00 0.00 0.00 0.01 0.01 0.00 0.00 0.00 0.00 0.00 0.00 0.00 0.01 0.01 0.00 0.00 0.00 0.00 0.00 0.00
0.00 0.01 0.01 0.00 0.01 0.01 0.01 0.00 0.00 0.01 0.00 0.00 0.00 0.00 0.01 0.01 0.00 0.00 0.00 0.00 0.00 0.00 0.00 0.01 0.00 0.00 0.00 0.01 0.01 0.01 0.01 0.00 0.01 0.01 0.00 0.00 0.00 0.01 0.03 0.05 0.02 0.00 0.00 0.00 0.00 0.01 0.00
0.00 0.00 0.01 0.00 0.01 0.02 0.02 0.02 0.02 0.01 0.00 0.00 0.00 0.00 0.00 0.01 0.00 0.00 0.00 0.00 0.00 0.00 0.00 0.02 0.01 0.00 0.00 0.02 0.01 0.01 0.01 0.00 0.01 0.01 0.03 0.03 0.04 0.05 0.03 0.06 0.01 0.00 0.00 0.00 0.03 0.02 0.00
0.00 0.01 0.01 0.01 0.01 0.02 0.02 0.03 0.05 0.03 0.02 0.00 0.00 0.00 0.00 0.01 0.00 0.00 0.00 0.00 0.00 0.00 0.01 0.01 0.03 0.01 0.02 0.02 0.01 0.00 0.00 0.00 0.00 0.00 0.00 0.02 0.02 0.04 0.04 0.06 0.00 0.00 0.00 0.01 0.01 0.00 0.00
0.02 0.03 0.04 0.03 0.01 0.02 0.02 0.05 0.08 0.07 0.04 0.02 0.01 0.00 0.01 0.02 0.00 0.00 0.00 0.00 0.00 0.00 0.00 0.00 0.01 0.00 0.03 0.03 0.01 0.01 0.00 0.00 0.00 0.00 0.00 0.00 0.00 0.00 0.00 0.00 0.00 0.00 0.00 0.00 0.00 0.00 0.00

GFSGBSN_prec_precacc24_060.txt.gz
Total_Precipitation_Accumulation
0.01 0.02 0.03 0.02 0.02 0.03 0.06 0.10 0.08 0.09 0.07 0.07 0.10 0.20 0.17 0.17 0.20 0.29 0.28 0.16 0.16 0.11 0.07 0.06 0.14 0.71 0.72 0.47 0.10 0.13 0.09 0.08 0.27 0.36 0.21 0.04 0.02 0.03 0.01 0.00 0.00 0.00 0.00 0.00 0.01 0.01 0.03
0.02 0.02 0.03 0.02 0.02 0.04 0.10 0.09 0.08 0.09 0.07 0.08 0.17 0.21 0.17 0.20 0.27 0.28 0.12 0.13 0.15 0.12 0.23 0.11 0.24 0.51 0.62 0.30 0.04 0.08 0.10 0.18 0.27 0.40 0.20 0.04 0.01 0.01 0.01 0.00 0.00 0.00 0.00 0.01 0.02 0.00 0.01
0.02 0.02 0.02 0.02 0.02 0.06 0.09 0.07 0.09 0.08 0.07 0.11 0.24 0.23 0.20 0.27 0.20 0.17 0.07 0.11 0.16 0.12 0.12 0.07 0.27 0.36 0.40 0.09 0.08 0.17 0.11 0.22 0.37 0.39 0.19 0.04 0.00 0.04 0.03 0.02 0.00 0.00 0.03 0.01 0.00 0.00 0.00
0.01 0.02 0.02 0.01 0.02 0.06 0.06 0.06 0.11 0.07 0.06 0.16 0.25 0.24 0.22 0.28 0.17 0.13 0.07 0.20 0.30 0.29 0.31 0.18 0.25 0.40 0.25 0.02 0.09 0.16 0.21 0.25 0.48 0.85 0.40 0.25 0.04 0.06 0.08 0.03 0.01 0.00 0.03 0.01 0.00 0.00 0.00
0.01 0.01 0.01 0.01 0.04 0.06 0.05 0.09 0.09 0.05 0.10 0.20 0.26 0.23 0.21 0.22 0.18 0.11 0.10 0.07 0.14 0.14 0.27 0.13 0.18 0.32 0.22 0.10 0.05 0.08 0.22 0.37 0.47 0.94 0.88 0.72 0.38 0.13 0.07 0.05 0.04 0.03 0.01 0.00 0.00 0.00 0.00
0.01 0.01 0.01 0.02 0.04 0.06 0.05 0.08 0.05 0.05 0.11 0.20 0.25 0.18 0.14 0.14 0.21 0.19 0.24 0.09 0.05 0.02 0.03 0.07 0.17 0.37 0.16 0.15 0.10 0.15 0.27 0.48 0.55 0.99 1.25 1.08 0.67 0.26 0.09 0.04 0.03 0.00 0.00 0.00 0.00 0.00 0.00
0.01 0.01 0.01 0.03 0.05 0.05 0.06 0.07 0.04 0.07 0.12 0.20 0.18 0.15 0.14 0.16 0.24 0.08 0.11 0.02 0.04 0.11 0.12 0.10 0.07 0.25 0.19 0.26 0.34 0.37 0.47 0.63 0.98 1.29 1.11 0.68 0.38 0.12 0.01 0.00 0.00 0.00 0.00 0.00 0.00 0.00 0.00
0.01 0.00 0.01 0.03 0.04 0.04 0.05 0.04 0.04 0.06 0.13 0.16 0.12 0.15 0.16 0.19 0.17 0.08 0.05 0.02 0.02 0.04 0.04 0.01 0.02 0.15 0.11 0.17 0.58 0.61 0.78 1.23 1.02 1.14 0.88 0.69 0.29 0.05 0.08 0.02 0.00 0.00 0.00 0.00 0.00 0.00 0.00
0.01 0.00 0.01 0.02 0.03 0.03 0.04 0.03 0.03 0.07 0.10 0.12 0.13 0.13 0.15 0.18 0.08 0.02 0.01 0.00 0.00 0.00 0.03 0.02 0.04 0.23 0.27 0.28 0.67 0.64 1.11 1.35 0.95 0.81 0.57 0.57 0.23 0.09 0.13 0.10 0.03 0.01 0.00 0.00 0.00 0.00 0.00
0.00 0.00 0.01 0.02 0.02 0.03 0.03 0.02 0.04 0.06 0.09 0.10 0.09 0.09 0.11 0.16 0.04 0.01 0.01 0.03 0.00 0.00 0.12 0.17 0.30 0.51 0.38 0.77 0.92 0.52 1.51 1.32 1.05 0.74 0.48 0.58 0.39 0.21 0.13 0.14 0.05 0.02 0.00 0.00 0.00 0.00 0.00
0.00 0.00 0.00 0.01 0.01 0.03 0.02 0.01 0.04 0.04 0.09 0.09 0.06 0.07 0.08 0.16 0.04 0.02 0.04 0.01 0.00 0.04 0.39 0.36 0.57 0.63 0.78 0.68 0.49 0.56 1.01 0.80 0.60 0.41 0.41 0.44 0.40 0.41 0.20 0.12 0.06 0.04 0.00 0.00 0.00 0.00 0.00
0.00 0.00 0.00 0.01 0.01 0.02 0.01 0.01 0.02 0.03 0.08 0.08 0.03 0.04 0.03 0.02 0.01 0.02 0.01 0.00 0.00 0.14 0.77 1.07 1.16 1.14 0.57 0.40 0.28 0.62 0.89 0.43 0.26 0.16 0.28 0.35 0.30 0.47 0.32 0.20 0.08 0.03 0.00 0.00 0.00 0.00 0.00
0.00 0.00 0.00 0.00 0.00 0.01 0.00 0.01 0.01 0.02 0.06 0.04 0.00 0.01 0.01 0.00 0.01 0.00 0.00 0.00 0.02 0.17 0.45 0.78 0.88 0.40 0.24 0.29 0.42 0.58 0.72 0.33 0.27 0.26 0.27 0.51 0.52 0.31 0.29 0.27 0.13 0.01 0.03 0.04 0.04 0.01 0.00
0.00 0.00 0.00 0.00 0.00 0.01 0.00 0.00 0.01 0.02 0.01 0.02 0.00 0.00 0.01 0.00 0.00 0.00 0.01 0.01 0.09 0.20 0.47 0.51 0.25 0.13 0.16 0.20 0.29 0.41 0.46 0.16 0.05 0.03 0.11 0.41 0.67 0.43 0.28 0.22 0.14 0.01 0.02 0.03 0.01 0.00 0.00
0.00 0.00 0.00 0.00 0.00 0.01 0.00 0.00 0.00 0.01 0.01 0.00 0.00 0.00 0.00 0.00 0.00 0.01 0.03 0.06 0.19 0.37 0.53 0.27 0.05 0.05 0.07 0.05 0.15 0.34 0.22 0.06 0.04 0.02 0.09 0.12 0.17 0.20 0.21 0.16 0.12 0.03 0.02 0.00 0.00 0.00 0.00
0.00 0.00 0.00 0.00 0.00 0.00 0.00 0.00 0.00 0.01 0.00 0.00 0.00 0.00 0.00 0.00 0.00 0.00 0.01 0.10 0.11 0.11 0.05 0.00 0.05 0.03 0.01 0.02 0.04 0.04 0.07 0.02 0.00 0.00 0.01 0.01 0.05 0.08 0.16 0.16 0.14 0.02 0.00 0.02 0.00 0.00 0.00
0.00 0.00 0.00 0.00 0.00 0.00 0.00 0.00 0.00 0.01 0.00 0.00 0.00 0.00 0.00 0.00 0.00 0.01 0.02 0.03 0.02 0.01 0.00 0.00 0.00 0.00 0.00 0.00 0.00 0.00 0.00 0.00 0.00 0.00 0.00 0.00 0.01 0.06 0.07 0.13 0.09 0.03 0.00 0.00 0.01 0.00 0.00
0.00 0.00 0.00 0.00 0.00 0.00 0.00 0.00 0.00 0.00 0.00 0.00 0.00 0.00 0.00 0.00 0.00 0.02 0.01 0.01 0.01 0.00 0.00 0.00 0.00 0.00 0.00 0.00 0.00 0.00 0.00 0.00 0.00 0.00 0.00 0.00 0.00 0.02 0.02 0.00 0.00 0.01 0.00 0.00 0.01 0.01 0.00
0.00 0.00 0.00 0.00 0.00 0.00 0.00 0.00 0.00 0.00 0.00 0.00 0.00 0.00 0.00 0.00 0.01 0.00 0.00 0.00 0.00 0.00 0.00 0.00 0.00 0.00 0.00 0.00 0.00 0.00 0.00 0.00 0.00 0.00 0.00 0.00 0.00 0.01 0.03 0.01 0.00 0.01 0.00 0.00 0.00 0.00 0.00
0.00 0.00 0.00 0.00 0.00 0.00 0.00 0.00 0.00 0.00 0.00 0.00 0.00 0.00 0.00 0.00 0.00 0.00 0.00 0.00 0.00 0.00 0.00 0.00 0.00 0.00 0.00 0.00 0.00 0.00 0.00 0.00 0.00 0.00 0.00 0.00 0.00 0.00 0.00 0.00 0.00 0.00 0.00 0.00 0.00 0.01 0.00
0.00 0.00 0.00 0.00 0.00 0.00 0.00 0.00 0.00 0.00 0.00 0.00 0.00 0.00 0.00 0.00 0.00 0.00 0.00 0.00 0.00 0.00 0.00 0.00 0.00 0.00 0.00 0.00 0.00 0.00 0.00 0.00 0.00 0.00 0.00 0.00 0.00 0.00 0.00 0.00 0.00 0.00 0.00 0.00 0.00 0.00 0.00
0.00 0.00 0.00 0.00 0.00 0.00 0.00 0.00 0.00 0.00 0.00 0.00 0.00 0.01 0.00 0.00 0.00 0.00 0.00 0.00 0.00 0.00 0.00 0.00 0.00 0.00 0.00 0.00 0.00 0.00 0.00 0.00 0.00 0.00 0.00 0.00 0.00 0.00 0.00 0.00 0.00 0.00 0.00 0.00 0.00 0.00 0.00
0.00 0.00 0.00 0.00 0.00 0.00 0.00 0.00 0.00 0.00 0.00 0.00 0.00 0.00 0.01 0.00 0.00 0.00 0.00 0.00 0.00 0.00 0.00 0.00 0.00 0.00 0.00 0.00 0.00 0.00 0.00 0.00 0.00 0.00 0.00 0.00 0.00 0.00 0.00 0.00 0.00 0.00 0.00 0.00 0.00 0.00 0.00
0.00 0.00 0.00 0.00 0.00 0.00 0.00 0.00 0.00 0.00 0.00 0.00 0.00 0.01 0.01 0.00 0.00 0.00 0.00 0.00 0.00 0.00 0.00 0.00 0.00 0.00 0.00 0.00 0.00 0.00 0.00 0.00 0.00 0.00 0.00 0.00 0.00 0.00 0.00 0.00 0.00 0.00 0.00 0.00 0.00 0.00 0.00
0.00 0.00 0.00 0.01 0.01 0.01 0.00 0.00 0.00 0.00 0.00 0.00 0.00 0.00 0.01 0.00 0.00 0.00 0.00 0.00 0.00 0.00 0.00 0.00 0.00 0.00 0.00 0.00 0.00 0.00 0.01 0.01 0.00 0.00 0.00 0.00 0.00 0.00 0.00 0.00 0.00 0.00 0.00 0.00 0.00 0.00 0.00
0.00 0.00 0.00 0.00 0.01 0.01 0.01 0.00 0.00 0.01 0.00 0.00 0.00 0.00 0.00 0.01 0.00 0.00 0.00 0.00 0.00 0.00 0.00 0.01 0.00 0.00 0.00 0.01 0.01 0.01 0.01 0.00 0.01 0.01 0.00 0.00 0.00 0.01 0.02 0.02 0.01 0.00 0.00 0.00 0.00 0.01 0.00
0.00 0.00 0.00 0.00 0.01 0.02 0.02 0.02 0.02 0.01 0.00 0.00 0.00 0.00 0.00 0.00 0.00 0.00 0.00 0.00 0.00 0.00 0.00 0.02 0.01 0.00 0.00 0.02 0.01 0.01 0.01 0.00 0.00 0.01 0.02 0.02 0.03 0.03 0.02 0.03 0.00 0.00 0.00 0.00 0.03 0.02 0.00
0.00 0.00 0.01 0.01 0.01 0.02 0.02 0.02 0.04 0.03 0.02 0.00 0.00 0.00 0.00 0.00 0.00 0.00 0.00 0.00 0.00 0.00 0.01 0.01 0.04 0.02 0.02 0.02 0.01 0.00 0.00 0.00 0.00 0.00 0.00 0.01 0.02 0.03 0.03 0.04 0.00 0.00 0.00 0.01 0.01 0.00 0.00
0.01 0.02 0.03 0.02 0.01 0.01 0.02 0.05 0.08 0.08 0.04 0.01 0.01 0.00 0.00 0.01 0.00 0.00 0.00 0.00 0.00 0.00 0.00 0.00 0.03 0.03 0.05 0.03 0.01 0.01 0.00 0.00 0.00 0.00 0.00 0.00 0.00 0.00 0.00 0.00 0.00 0.00 0.00 0.00 0.00 0.00 0.00

GFSGBSN_prec_precacc24_063.txt.gz
Total_Precipitation_Accumulation
0.01 0.02 0.01 0.02 0.02 0.03 0.05 0.09 0.07 0.08 0.07 0.07 0.11 0.18 0.14 0.16 0.19 0.25 0.26 0.14 0.16 0.11 0.07 0.06 0.12 0.31 0.45 0.47 0.10 0.15 0.09 0.10 0.30 0.36 0.25 0.07 0.02 0.03 0.01 0.00 0.00 0.00 0.00 0.01 0.06 0.04 0.04
0.01 0.01 0.02 0.02 0.02 0.03 0.08 0.07 0.07 0.09 0.06 0.08 0.17 0.19 0.15 0.19 0.21 0.24 0.11 0.11 0.14 0.12 0.22 0.10 0.23 0.25 0.34 0.28 0.04 0.09 0.09 0.16 0.26 0.38 0.33 0.12 0.01 0.02 0.02 0.00 0.01 0.00 0.00 0.02 0.06 0.02 0.02
0.01 0.02 0.02 0.02 0.02 0.04 0.07 0.06 0.09 0.07 0.06 0.10 0.23 0.21 0.19 0.24 0.16 0.13 0.05 0.09 0.16 0.10 0.10 0.07 0.26 0.20 0.20 0.07 0.08 0.17 0.09 0.14 0.31 0.36 0.37 0.15 0.00 0.05 0.03 0.03 0.01 0.01 0.05 0.03 0.01 0.00 0.00
0.01 0.01 0.01 0.01 0.01 0.05 0.05 0.06 0.10 0.06 0.06 0.15 0.24 0.23 0.19 0.25 0.14 0.07 0.05 0.12 0.21 0.25 0.29 0.20 0.25 0.24 0.11 0.02 0.09 0.16 0.20 0.20 0.38 0.75 0.56 0.39 0.04 0.08 0.08 0.04 0.02 0.01 0.06 0.02 0.00 0.00 0.00
0.00 0.01 0.01 0.01 0.02 0.04 0.04 0.08 0.09 0.05 0.09 0.18 0.25 0.22 0.18 0.20 0.14 0.07 0.08 0.05 0.12 0.14 0.27 0.14 0.18 0.22 0.13 0.13 0.08 0.09 0.23 0.36 0.48 0.94 1.01 0.98 0.42 0.14 0.09 0.05 0.05 0.03 0.01 0.00 0.00 0.00 0.00
0.01 0.00 0.01 0.01 0.03 0.04 0.03 0.07 0.05 0.05 0.09 0.18 0.24 0.18 0.13 0.13 0.18 0.14 0.17 0.08 0.04 0.01 0.02 0.07 0.15 0.20 0.12 0.19 0.14 0.19 0.29 0.49 0.57 1.00 1.40 1.42 0.66 0.26 0.10 0.05 0.03 0.00 0.00 0.00 0.00 0.00 0.00
0.00 0.01 0.00 0.02 0.02 0.03 0.04 0.05 0.04 0.05 0.10 0.18 0.17 0.15 0.14 0.16 0.20 0.04 0.03 0.01 0.04 0.10 0.10 0.10 0.06 0.18 0.20 0.29 0.40 0.40 0.47 0.64 1.02 1.33 1.40 1.01 0.35 0.10 0.01 0.00 0.00 0.00 0.00 0.00 0.00 0.00 0.00
0.00 0.00 0.01 0.02 0.02 0.02 0.04 0.03 0.03 0.05 0.09 0.15 0.12 0.15 0.16 0.18 0.14 0.05 0.01 0.00 0.01 0.04 0.04 0.01 0.01 0.13 0.11 0.20 0.61 0.62 0.78 1.29 1.24 1.38 1.15 0.91 0.25 0.02 0.01 0.00 0.00 0.00 0.00 0.00 0.00 0.00 0.00
0.00 0.00 0.01 0.01 0.01 0.01 0.03 0.02 0.03 0.05 0.08 0.12 0.12 0.13 0.15 0.17 0.07 0.02 0.01 0.00 0.00 0.00 0.03 0.02 0.03 0.18 0.26 0.28 0.68 0.64 1.11 1.43 1.23 1.02 0.72 0.65 0.22 0.06 0.07 0.03 0.02 0.01 0.00 0.00 0.00 0.00 0.00
0.00 0.00 0.00 0.01 0.01 0.01 0.02 0.01 0.03 0.03 0.07 0.08 0.07 0.08 0.10 0.13 0.03 0.00 0.01 0.01 0.00 0.00 0.10 0.11 0.21 0.45 0.36 0.77 0.94 0.53 1.56 1.43 1.32 0.89 0.58 0.58 0.39 0.21 0.13 0.11 0.04 0.02 0.00 0.00 0.00 0.00 0.00
0.00 0.00 0.00 0.00 0.00 0.01 0.01 0.00 0.03 0.02 0.06 0.05 0.03 0.04 0.03 0.07 0.01 0.02 0.02 0.00 0.00 0.02 0.31 0.23 0.38 0.54 0.78 0.69 0.53 0.65 1.15 0.94 0.75 0.63 0.44 0.43 0.40 0.41 0.19 0.11 0.06 0.04 0.00 0.00 0.00 0.00 0.00
0.00 0.00 0.00 0.00 0.00 0.01 0.01 0.00 0.01 0.02 0.05 0.04 0.01 0.03 0.00 0.00 0.00 0.00 0.00 0.00 0.00 0.07 0.58 0.73 0.92 1.09 0.56 0.40 0.33 0.76 1.04 0.55 0.36 0.23 0.29 0.34 0.30 0.47 0.32 0.20 0.08 0.03 0.00 0.00 0.00 0.00 0.00
0.00 0.00 0.00 0.00 0.00 0.00 0.00 0.00 0.01 0.02 0.02 0.02 0.00 0.00 0.00 0.00 0.00 0.00 0.00 0.00 0.01 0.08 0.26 0.50 0.75 0.39 0.24 0.33 0.47 0.66 0.83 0.40 0.34 0.31 0.26 0.51 0.52 0.31 0.29 0.28 0.13 0.01 0.03 0.05 0.05 0.03 0.00
0.00 0.00 0.00 0.00 0.00 0.00 0.00 0.00 0.00 0.01 0.01 0.00 0.00 0.00 0.00 0.00 0.00 0.00 0.01 0.01 0.06 0.11 0.23 0.37 0.24 0.14 0.16 0.21 0.34 0.45 0.48 0.17 0.05 0.03 0.11 0.41 0.67 0.43 0.28 0.22 0.15 0.02 0.02 0.03 0.01 0.00 0.00
0.00 0.00 0.00 0.00 0.00 0.00 0.00 0.00 0.00 0.01 0.01 0.00 0.00 0.00 0.00 0.00 0.00 0.01 0.03 0.03 0.10 0.18 0.27 0.21 0.04 0.04 0.07 0.05 0.13 0.31 0.21 0.06 0.04 0.02 0.09 0.12 0.17 0.20 0.21 0.16 0.12 0.04 0.02 0.00 0.00 0.00 0.00
0.00 0.00 0.00 0.00 0.00 0.00 0.00 0.00 0.00 0.01 0.00 0.00 0.00 0.00 0.00 0.00 0.00 0.00 0.00 0.06 0.04 0.03 0.02 0.00 0.03 0.01 0.01 0.02 0.04 0.03 0.07 0.02 0.00 0.00 0.01 0.01 0.05 0.08 0.16 0.16 0.15 0.02 0.00 0.02 0.00 0.00 0.00
0.00 0.00 0.00 0.00 0.00 0.00 0.00 0.00 0.00 0.00 0.00 0.00 0.00 0.00 0.00 0.00 0.00 0.00 0.00 0.00 0.00 0.00 0.00 0.00 0.00 0.00 0.00 0.00 0.00 0.00 0.00 0.00 0.00 0.00 0.00 0.00 0.01 0.06 0.08 0.15 0.11 0.03 0.00 0.00 0.01 0.00 0.00
0.00 0.00 0.00 0.00 0.00 0.00 0.00 0.00 0.00 0.00 0.00 0.00 0.00 0.00 0.00 0.00 0.00 0.00 0.00 0.00 0.00 0.00 0.00 0.00 0.00 0.00 0.00 0.00 0.00 0.00 0.00 0.00 0.00 0.00 0.00 0.00 0.00 0.02 0.02 0.00 0.00 0.01 0.00 0.00 0.01 0.01 0.00
0.00 0.00 0.00 0.00 0.00 0.00 0.00 0.00 0.00 0.00 0.00 0.00 0.00 0.00 0.00 0.00 0.01 0.00 0.00 0.00 0.00 0.00 0.00 0.00 0.00 0.00 0.00 0.00 0.00 0.00 0.00 0.00 0.00 0.00 0.00 0.00 0.00 0.01 0.04 0.02 0.00 0.03 0.01 0.00 0.00 0.00 0.00
0.00 0.00 0.00 0.00 0.00 0.00 0.00 0.00 0.00 0.00 0.00 0.00 0.00 0.00 0.00 0.00 0.00 0.00 0.00 0.00 0.00 0.00 0.00 0.00 0.00 0.00 0.00 0.00 0.00 0.00 0.00 0.00 0.00 0.00 0.00 0.00 0.00 0.00 0.00 0.00 0.00 0.00 0.00 0.00 0.00 0.01 0.00
0.00 0.00 0.00 0.00 0.00 0.00 0.00 0.00 0.00 0.00 0.00 0.00 0.00 0.00 0.00 0.00 0.00 0.00 0.00 0.00 0.00 0.00 0.00 0.00 0.00 0.00 0.00 0.00 0.00 0.00 0.00 0.00 0.00 0.00 0.00 0.00 0.00 0.00 0.00 0.00 0.00 0.00 0.00 0.00 0.00 0.00 0.00
0.00 0.00 0.00 0.00 0.00 0.00 0.00 0.00 0.00 0.00 0.00 0.00 0.00 0.01 0.00 0.00 0.00 0.00 0.00 0.00 0.00 0.00 0.00 0.00 0.00 0.00 0.00 0.00 0.00 0.00 0.00 0.00 0.00 0.00 0.00 0.00 0.00 0.00 0.00 0.00 0.00 0.00 0.00 0.00 0.00 0.00 0.00
0.00 0.00 0.00 0.00 0.00 0.00 0.00 0.00 0.00 0.00 0.00 0.00 0.00 0.00 0.01 0.00 0.00 0.00 0.00 0.00 0.00 0.00 0.00 0.00 0.00 0.00 0.00 0.00 0.00 0.00 0.00 0.00 0.00 0.00 0.00 0.00 0.00 0.00 0.00 0.00 0.00 0.00 0.00 0.00 0.00 0.00 0.00
0.00 0.00 0.00 0.00 0.00 0.00 0.00 0.00 0.00 0.00 0.00 0.00 0.00 0.01 0.01 0.00 0.00 0.00 0.00 0.00 0.00 0.00 0.00 0.00 0.00 0.00 0.00 0.00 0.00 0.00 0.00 0.00 0.00 0.00 0.00 0.00 0.00 0.00 0.00 0.00 0.00 0.00 0.00 0.00 0.00 0.00 0.00
0.00 0.00 0.00 0.01 0.01 0.01 0.00 0.00 0.00 0.00 0.00 0.00 0.00 0.00 0.00 0.00 0.00 0.00 0.00 0.00 0.00 0.00 0.00 0.00 0.00 0.00 0.00 0.00 0.00 0.00 0.01 0.01 0.00 0.00 0.00 0.00 0.00 0.00 0.00 0.00 0.00 0.00 0.00 0.00 0.00 0.00 0.00
0.00 0.00 0.00 0.00 0.01 0.01 0.01 0.00 0.00 0.01 0.00 0.00 0.00 0.00 0.00 0.00 0.00 0.00 0.00 0.00 0.00 0.00 0.00 0.01 0.00 0.00 0.00 0.01 0.01 0.01 0.01 0.00 0.00 0.01 0.00 0.00 0.00 0.00 0.01 0.01 0.00 0.00 0.00 0.00 0.00 0.01 0.00
0.00 0.00 0.00 0.00 0.01 0.01 0.02 0.02 0.02 0.01 0.00 0.00 0.00 0.00 0.00 0.00 0.00 0.00 0.00 0.00 0.00 0.00 0.01 0.03 0.02 0.00 0.00 0.02 0.02 0.01 0.01 0.00 0.00 0.01 0.02 0.02 0.02 0.02 0.01 0.01 0.00 0.00 0.00 0.00 0.03 0.02 0.00
0.00 0.00 0.01 0.01 0.01 0.02 0.01 0.02 0.04 0.03 0.02 0.00 0.00 0.00 0.00 0.00 0.00 0.00 0.00 0.00 0.00 0.00 0.01 0.02 0.08 0.03 0.03 0.02 0.02 0.00 0.00 0.00 0.00 0.00 0.00 0.01 0.01 0.02 0.02 0.02 0.00 0.00 0.00 0.01 0.01 0.00 0.00
0.01 0.02 0.03 0.02 0.01 0.01 0.02 0.04 0.08 0.07 0.04 0.01 0.01 0.00 0.00 0.01 0.00 0.00 0.00 0.00 0.00 0.00 0.00 0.00 0.07 0.08 0.12 0.04 0.02 0.01 0.00 0.00 0.00 0.00 0.00 0.00 0.00 0.00 0.00 0.00 0.00 0.00 0.00 0.00 0.00 0.00 0.00

GFSGBSN_prec_precacc24_066.txt.gz
Total_Precipitation_Accumulation
0.01 0.01 0.01 0.02 0.02 0.02 0.04 0.07 0.05 0.07 0.07 0.07 0.11 0.18 0.13 0.16 0.17 0.21 0.22 0.12 0.14 0.11 0.08 0.06 0.12 0.30 0.19 0.19 0.08 0.15 0.09 0.12 0.40 0.43 0.26 0.10 0.04 0.03 0.01 0.00 0.02 0.00 0.00 0.02 0.08 0.06 0.04
0.00 0.01 0.01 0.01 0.02 0.02 0.06 0.06 0.06 0.07 0.05 0.07 0.17 0.20 0.14 0.18 0.19 0.20 0.08 0.08 0.11 0.11 0.22 0.09 0.22 0.21 0.20 0.14 0.03 0.09 0.10 0.16 0.27 0.38 0.33 0.15 0.02 0.02 0.02 0.00 0.02 0.00 0.01 0.06 0.14 0.04 0.03
0.00 0.01 0.01 0.01 0.02 0.03 0.05 0.04 0.07 0.06 0.05 0.09 0.22 0.21 0.18 0.24 0.14 0.08 0.04 0.05 0.11 0.09 0.10 0.05 0.23 0.16 0.14 0.03 0.06 0.16 0.09 0.12 0.30 0.35 0.37 0.19 0.02 0.05 0.03 0.04 0.03 0.02 0.08 0.11 0.10 0.08 0.03
0.00 0.00 0.00 0.01 0.01 0.03 0.03 0.04 0.08 0.05 0.06 0.13 0.22 0.22 0.18 0.23 0.12 0.04 0.03 0.05 0.12 0.16 0.23 0.16 0.21 0.20 0.07 0.01 0.05 0.15 0.18 0.13 0.26 0.60 0.52 0.47 0.07 0.09 0.09 0.05 0.04 0.03 0.10 0.05 0.03 0.07 0.05
0.00 0.00 0.00 0.01 0.01 0.02 0.02 0.06 0.07 0.05 0.08 0.15 0.22 0.21 0.17 0.18 0.13 0.05 0.05 0.02 0.10 0.09 0.22 0.15 0.17 0.20 0.10 0.14 0.07 0.08 0.19 0.28 0.42 0.82 0.90 1.14 0.57 0.15 0.11 0.06 0.05 0.04 0.02 0.00 0.00 0.01 0.01
0.00 0.00 0.00 0.01 0.01 0.02 0.02 0.05 0.04 0.05 0.09 0.15 0.20 0.17 0.13 0.13 0.15 0.07 0.06 0.01 0.01 0.00 0.02 0.06 0.14 0.17 0.11 0.21 0.16 0.19 0.26 0.45 0.59 0.96 1.39 1.82 0.89 0.27 0.11 0.05 0.03 0.00 0.00 0.00 0.00 0.00 0.00
0.00 0.00 0.00 0.01 0.01 0.02 0.02 0.04 0.03 0.05 0.09 0.16 0.16 0.15 0.13 0.16 0.18 0.03 0.01 0.01 0.03 0.10 0.09 0.09 0.06 0.14 0.20 0.30 0.42 0.45 0.50 0.62 1.01 1.30 1.32 1.41 0.54 0.09 0.01 0.00 0.00 0.00 0.00 0.00 0.00 0.00 0.00
0.00 0.00 0.00 0.01 0.01 0.01 0.02 0.02 0.03 0.05 0.07 0.12 0.10 0.12 0.14 0.18 0.12 0.02 0.01 0.00 0.00 0.03 0.04 0.01 0.01 0.05 0.11 0.20 0.61 0.62 0.77 1.30 1.33 1.42 1.16 1.04 0.27 0.01 0.01 0.00 0.00 0.00 0.00 0.00 0.00 0.00 0.00
0.00 0.00 0.00 0.00 0.00 0.00 0.01 0.02 0.03 0.04 0.06 0.07 0.07 0.08 0.08 0.15 0.06 0.02 0.01 0.00 0.00 0.00 0.03 0.03 0.03 0.11 0.24 0.27 0.61 0.63 1.10 1.42 1.23 1.09 0.88 0.72 0.17 0.04 0.04 0.02 0.00 0.00 0.00 0.00 0.00 0.00 0.00
0.00 0.00 0.00 0.00 0.00 0.00 0.01 0.01 0.02 0.03 0.04 0.04 0.04 0.05 0.03 0.06 0.02 0.00 0.01 0.01 0.00 0.00 0.09 0.12 0.20 0.42 0.34 0.76 0.86 0.53 1.56 1.41 1.33 0.90 0.71 0.76 0.40 0.17 0.10 0.05 0.01 0.01 0.00 0.00 0.00 0.00 0.00
0.00 0.00 0.00 0.00 0.00 0.00 0.00 0.00 0.02 0.02 0.02 0.02 0.02 0.02 0.01 0.01 0.00 0.01 0.01 0.00 0.00 0.01 0.31 0.22 0.35 0.45 0.71 0.68 0.49 0.65 1.14 0.96 0.88 0.74 0.63 0.53 0.41 0.38 0.16 0.10 0.02 0.02 0.00 0.00 0.00 0.00 0.00
0.00 0.00 0.00 0.00 0.00 0.00 0.00 0.00 0.00 0.02 0.02 0.01 0.01 0.00 0.00 0.00 0.00 0.00 0.00 0.00 0.00 0.05 0.51 0.65 0.79 0.89 0.49 0.39 0.33 0.79 1.03 0.63 0.57 0.27 0.32 0.34 0.31 0.47 0.31 0.19 0.07 0.03 0.00 0.00 0.00 0.00 0.00
0.00 0.00 0.00 0.00 0.00 0.00 0.00 0.00 0.00 0.01 0.01 0.01 0.00 0.00 0.00 0.00 0.00 0.00 0.00 0.00 0.00 0.05 0.21 0.44 0.59 0.30 0.24 0.33 0.48 0.67 0.77 0.47 0.58 0.37 0.34 0.49 0.50 0.31 0.29 0.27 0.12 0.01 0.03 0.05 0.05 0.03 0.00
0.00 0.00 0.00 0.00 0.00 0.00 0.00 0.00 0.00 0.01 0.00 0.00 0.00 0.00 0.00 0.00 0.00 0.00 0.00 0.00 0.02 0.06 0.11 0.21 0.21 0.13 0.15 0.21 0.36 0.44 0.47 0.18 0.07 0.04 0.12 0.41 0.67 0.43 0.28 0.22 0.15 0.02 0.02 0.03 0.01 0.00 0.00
0.00 0.00 0.00 0.00 0.00 0.00 0.00 0.00 0.00 0.01 0.00 0.00 0.00 0.00 0.00 0.00 0.00 0.00 0.01 0.00 0.02 0.02 0.06 0.09 0.02 0.03 0.05 0.05 0.11 0.25 0.21 0.06 0.04 0.02 0.09 0.12 0.17 0.20 0.21 0.16 0.12 0.04 0.02 0.00 0.00 0.00 0.00
0.00 0.00 0.00 0.00 0.00 0.00 0.00 0.00 0.00 0.00 0.00 0.00 0.00 0.00 0.00 0.00 0.00 0.00 0.00 0.01 0.01 0.01 0.00 0.00 0.01 0.00 0.00 0.01 0.02 0.02 0.07 0.02 0.00 0.00 0.01 0.01 0.05 0.08 0.16 0.16 0.15 0.02 0.00 0.03 0.00 0.00 0.00
0.00 0.00 0.00 0.00 0.00 0.00 0.00 0.00 0.00 0.00 0.00 0.00 0.00 0.00 0.00 0.00 0.00 0.00 0.00 0.00 0.00 0.00 0.00 0.00 0.00 0.00 0.00 0.00 0.00 0.00 0.00 0.00 0.00 0.00 0.00 0.00 0.01 0.06 0.08 0.15 0.11 0.03 0.00 0.00 0.01 0.00 0.00
0.00 0.00 0.00 0.00 0.00 0.00 0.00 0.00 0.00 0.00 0.00 0.00 0.00 0.00 0.00 0.00 0.00 0.00 0.00 0.00 0.00 0.00 0.00 0.00 0.00 0.00 0.00 0.00 0.00 0.00 0.00 0.00 0.00 0.00 0.00 0.00 0.00 0.02 0.02 0.00 0.00 0.02 0.00 0.00 0.01 0.01 0.00
0.00 0.00 0.00 0.00 0.00 0.00 0.00 0.00 0.00 0.00 0.00 0.00 0.00 0.00 0.00 0.00 0.01 0.00 0.00 0.00 0.00 0.00 0.00 0.00 0.00 0.00 0.00 0.00 0.00 0.00 0.00 0.00 0.00 0.00 0.00 0.00 0.00 0.01 0.05 0.02 0.00 0.04 0.02 0.00 0.00 0.00 0.00
0.00 0.00 0.00 0.00 0.00 0.00 0.00 0.00 0.00 0.00 0.00 0.00 0.00 0.00 0.00 0.00 0.00 0.00 0.00 0.00 0.00 0.00 0.00 0.00 0.00 0.00 0.00 0.00 0.00 0.00 0.00 0.00 0.00 0.00 0.00 0.00 0.00 0.00 0.00 0.00 0.00 0.00 0.00 0.00 0.00 0.02 0.00
0.00 0.00 0.00 0.00 0.00 0.00 0.00 0.00 0.00 0.00 0.00 0.00 0.00 0.00 0.00 0.00 0.00 0.00 0.00 0.00 0.00 0.00 0.00 0.00 0.00 0.00 0.00 0.00 0.00 0.00 0.00 0.00 0.00 0.00 0.00 0.00 0.00 0.00 0.00 0.00 0.00 0.00 0.00 0.00 0.00 0.00 0.00
0.00 0.00 0.00 0.00 0.00 0.00 0.00 0.00 0.00 0.00 0.00 0.00 0.00 0.00 0.00 0.00 0.00 0.00 0.00 0.00 0.00 0.00 0.00 0.00 0.00 0.00 0.00 0.00 0.00 0.00 0.00 0.00 0.00 0.00 0.00 0.00 0.00 0.00 0.00 0.00 0.00 0.00 0.00 0.00 0.00 0.00 0.00
0.00 0.00 0.00 0.00 0.00 0.00 0.00 0.00 0.00 0.00 0.00 0.00 0.00 0.00 0.01 0.00 0.00 0.00 0.00 0.00 0.00 0.00 0.00 0.00 0.00 0.00 0.00 0.00 0.00 0.00 0.00 0.00 0.00 0.00 0.00 0.00 0.00 0.00 0.00 0.00 0.00 0.00 0.00 0.00 0.00 0.00 0.00
0.00 0.00 0.00 0.00 0.00 0.00 0.00 0.00 0.00 0.00 0.00 0.00 0.00 0.01 0.01 0.00 0.00 0.00 0.00 0.00 0.00 0.00 0.00 0.00 0.00 0.00 0.00 0.00 0.00 0.00 0.00 0.00 0.00 0.00 0.00 0.00 0.00 0.00 0.00 0.00 0.00 0.00 0.00 0.00 0.00 0.00 0.00
0.00 0.00 0.00 0.00 0.01 0.01 0.00 0.00 0.00 0.00 0.00 0.00 0.00 0.00 0.00 0.00 0.00 0.00 0.00 0.00 0.00 0.00 0.00 0.00 0.00 0.00 0.00 0.00 0.00 0.00 0.01 0.00 0.00 0.00 0.00 0.00 0.00 0.00 0.00 0.00 0.00 0.00 0.00 0.00 0.00 0.00 0.00
0.00 0.00 0.00 0.00 0.00 0.01 0.01 0.00 0.00 0.01 0.00 0.00 0.00 0.00 0.00 0.00 0.00 0.00 0.00 0.00 0.00 0.00 0.00 0.01 0.00 0.00 0.00 0.01 0.01 0.01 0.01 0.00 0.00 0.01 0.00 0.00 0.00 0.00 0.00 0.00 0.00 0.00 0.00 0.00 0.00 0.01 0.00
0.00 0.00 0.00 0.00 0.00 0.01 0.02 0.01 0.02 0.01 0.00 0.00 0.00 0.00 0.00 0.00 0.00 0.00 0.00 0.00 0.00 0.00 0.01 0.03 0.02 0.01 0.01 0.02 0.02 0.01 0.01 0.00 0.00 0.00 0.01 0.01 0.01 0.02 0.01 0.01 0.00 0.00 0.00 0.00 0.02 0.02 0.00
0.00 0.00 0.01 0.01 0.00 0.01 0.01 0.02 0.04 0.03 0.01 0.00 0.00 0.00 0.00 0.00 0.00 0.00 0.00 0.00 0.00 0.00 0.01 0.03 0.11 0.05 0.06 0.03 0.02 0.01 0.00 0.00 0.00 0.00 0.00 0.01 0.01 0.02 0.02 0.02 0.00 0.00 0.00 0.01 0.00 0.00 0.00
0.01 0.02 0.03 0.02 0.00 0.00 0.01 0.04 0.07 0.07 0.03 0.01 0.01 0.00 0.00 0.01 0.00 0.00 0.00 0.00 0.00 0.00 0.00 0.00 0.11 0.15 0.16 0.08 0.03 0.01 0.00 0.00 0.00 0.00 0.00 0.00 0.00 0.00 0.00 0.00 0.00 0.00 0.00 0.00 0.00 0.00 0.00

GFSGBSN_prec_precacc24_069.txt.gz
Total_Precipitation_Accumulation
0.00 0.00 0.01 0.01 0.01 0.02 0.02 0.05 0.04 0.07 0.06 0.06 0.10 0.17 0.13 0.15 0.17 0.20 0.21 0.11 0.10 0.09 0.05 0.05 0.11 0.33 0.17 0.10 0.02 0.11 0.07 0.11 0.41 0.55 0.31 0.14 0.07 0.03 0.01 0.01 0.02 0.01 0.02 0.04 0.11 0.07 0.04
0.00 0.01 0.01 0.01 0.02 0.02 0.04 0.03 0.05 0.07 0.05 0.06 0.15 0.18 0.14 0.17 0.18 0.18 0.07 0.05 0.06 0.09 0.20 0.08 0.21 0.22 0.15 0.08 0.01 0.05 0.09 0.16 0.28 0.51 0.34 0.18 0.08 0.02 0.02 0.01 0.03 0.01 0.02 0.08 0.17 0.08 0.04
0.00 0.01 0.00 0.00 0.01 0.02 0.02 0.03 0.07 0.05 0.04 0.08 0.18 0.18 0.16 0.22 0.13 0.07 0.01 0.02 0.06 0.07 0.08 0.05 0.20 0.11 0.09 0.01 0.06 0.13 0.09 0.12 0.30 0.42 0.37 0.19 0.09 0.07 0.03 0.04 0.04 0.03 0.10 0.17 0.14 0.15 0.10
0.00 0.00 0.00 0.01 0.00 0.01 0.02 0.03 0.07 0.04 0.05 0.13 0.18 0.18 0.16 0.23 0.11 0.03 0.00 0.03 0.08 0.09 0.12 0.12 0.16 0.15 0.06 0.00 0.04 0.12 0.16 0.09 0.25 0.56 0.49 0.45 0.17 0.12 0.10 0.05 0.05 0.07 0.13 0.07 0.06 0.12 0.24
0.00 0.00 0.00 0.00 0.01 0.01 0.01 0.04 0.05 0.04 0.08 0.14 0.17 0.16 0.16 0.19 0.13 0.05 0.00 0.01 0.05 0.05 0.12 0.10 0.12 0.17 0.08 0.12 0.06 0.07 0.16 0.16 0.39 0.80 0.81 1.09 0.78 0.19 0.12 0.08 0.06 0.06 0.02 0.00 0.01 0.04 0.09
0.00 0.00 0.00 0.00 0.00 0.01 0.01 0.03 0.03 0.04 0.08 0.11 0.15 0.13 0.11 0.13 0.16 0.06 0.01 0.00 0.00 0.00 0.02 0.05 0.12 0.16 0.10 0.20 0.16 0.17 0.25 0.29 0.58 0.98 1.31 1.88 1.32 0.32 0.11 0.06 0.03 0.00 0.00 0.00 0.00 0.00 0.01
0.01 0.00 0.00 0.00 0.00 0.01 0.01 0.02 0.03 0.04 0.06 0.10 0.10 0.08 0.06 0.11 0.18 0.02 0.01 0.01 0.03 0.10 0.09 0.09 0.05 0.12 0.16 0.31 0.42 0.44 0.47 0.46 0.92 1.30 1.31 1.59 0.90 0.15 0.01 0.00 0.00 0.00 0.00 0.00 0.00 0.00 0.00
0.00 0.00 0.00 0.00 0.00 0.00 0.01 0.01 0.03 0.03 0.05 0.07 0.06 0.05 0.03 0.06 0.10 0.00 0.01 0.00 0.00 0.03 0.04 0.01 0.01 0.03 0.10 0.25 0.61 0.62 0.73 1.11 1.32 1.34 0.86 1.07 0.39 0.02 0.01 0.00 0.00 0.00 0.00 0.00 0.00 0.00 0.00
0.00 0.00 0.00 0.00 0.00 0.00 0.00 0.01 0.02 0.03 0.04 0.04 0.03 0.03 0.02 0.04 0.02 0.01 0.01 0.00 0.00 0.00 0.04 0.04 0.02 0.07 0.23 0.28 0.52 0.63 1.02 1.37 1.41 0.91 0.53 0.39 0.09 0.03 0.05 0.02 0.00 0.00 0.00 0.00 0.00 0.00 0.00
0.00 0.00 0.00 0.00 0.00 0.00 0.00 0.01 0.01 0.02 0.03 0.02 0.02 0.02 0.02 0.01 0.00 0.00 0.01 0.01 0.00 0.00 0.10 0.14 0.18 0.44 0.31 0.72 0.72 0.53 1.54 1.42 1.41 0.79 0.63 0.53 0.17 0.10 0.08 0.04 0.00 0.00 0.00 0.00 0.00 0.00 0.00
0.00 0.00 0.00 0.00 0.00 0.00 0.00 0.00 0.01 0.01 0.02 0.01 0.01 0.02 0.01 0.00 0.00 0.00 0.00 0.00 0.00 0.01 0.28 0.18 0.23 0.33 0.61 0.66 0.42 0.64 1.14 0.94 0.88 0.75 0.70 0.60 0.34 0.32 0.14 0.07 0.01 0.01 0.00 0.00 0.00 0.00 0.00
0.00 0.00 0.00 0.00 0.00 0.00 0.00 0.00 0.00 0.01 0.01 0.00 0.01 0.01 0.00 0.00 0.00 0.00 0.00 0.00 0.00 0.05 0.47 0.59 0.72 0.75 0.47 0.37 0.30 0.78 0.99 0.62 0.57 0.29 0.44 0.35 0.30 0.46 0.24 0.17 0.05 0.02 0.00 0.00 0.00 0.00 0.00
0.00 0.00 0.00 0.00 0.00 0.00 0.00 0.00 0.00 0.00 0.01 0.00 0.00 0.00 0.00 0.00 0.00 0.00 0.00 0.00 0.00 0.04 0.18 0.42 0.49 0.24 0.24 0.32 0.47 0.65 0.66 0.47 0.60 0.39 0.49 0.55 0.51 0.32 0.25 0.26 0.11 0.01 0.03 0.05 0.05 0.03 0.00
0.00 0.00 0.00 0.00 0.00 0.00 0.00 0.00 0.00 0.00 0.00 0.00 0.00 0.00 0.00 0.00 0.00 0.00 0.00 0.00 0.01 0.04 0.07 0.12 0.11 0.09 0.12 0.19 0.37 0.43 0.38 0.21 0.10 0.04 0.16 0.47 0.68 0.42 0.28 0.22 0.15 0.02 0.02 0.03 0.01 0.00 0.00
0.00 0.00 0.00 0.00 0.00 0.00 0.00 0.00 0.00 0.00 0.00 0.00 0.00 0.00 0.00 0.00 0.00 0.00 0.01 0.00 0.00 0.00 0.01 0.02 0.01 0.01 0.04 0.04 0.12 0.20 0.10 0.05 0.04 0.02 0.09 0.12 0.18 0.20 0.21 0.16 0.12 0.04 0.02 0.00 0.00 0.00 0.00
0.00 0.00 0.00 0.00 0.00 0.00 0.00 0.00 0.00 0.00 0.00 0.00 0.00 0.00 0.00 0.00 0.00 0.00 0.00 0.01 0.00 0.00 0.00 0.00 0.00 0.00 0.00 0.01 0.01 0.01 0.05 0.01 0.00 0.00 0.01 0.01 0.05 0.08 0.16 0.16 0.15 0.02 0.00 0.03 0.00 0.00 0.00
0.00 0.00 0.00 0.00 0.00 0.00 0.00 0.00 0.00 0.00 0.00 0.00 0.00 0.00 0.00 0.00 0.00 0.00 0.00 0.00 0.00 0.00 0.00 0.00 0.00 0.00 0.00 0.00 0.00 0.00 0.00 0.00 0.00 0.00 0.00 0.00 0.01 0.06 0.08 0.15 0.11 0.03 0.00 0.00 0.01 0.00 0.00
0.00 0.00 0.00 0.00 0.00 0.00 0.00 0.00 0.00 0.00 0.00 0.00 0.00 0.00 0.00 0.00 0.00 0.00 0.00 0.00 0.00 0.00 0.00 0.00 0.00 0.00 0.00 0.00 0.00 0.00 0.00 0.00 0.00 0.00 0.00 0.00 0.00 0.02 0.02 0.00 0.00 0.02 0.00 0.00 0.01 0.01 0.00
0.00 0.00 0.00 0.00 0.00 0.00 0.00 0.00 0.00 0.00 0.00 0.00 0.00 0.00 0.00 0.00 0.01 0.00 0.00 0.00 0.00 0.00 0.00 0.00 0.00 0.00 0.00 0.00 0.00 0.00 0.00 0.00 0.00 0.00 0.00 0.00 0.00 0.01 0.05 0.02 0.00 0.04 0.02 0.00 0.00 0.00 0.00
0.00 0.00 0.00 0.00 0.00 0.00 0.00 0.00 0.00 0.00 0.00 0.00 0.00 0.00 0.00 0.00 0.00 0.00 0.00 0.00 0.00 0.00 0.00 0.00 0.00 0.00 0.00 0.00 0.00 0.00 0.00 0.00 0.00 0.00 0.00 0.00 0.00 0.00 0.00 0.00 0.00 0.00 0.00 0.00 0.00 0.02 0.00
0.00 0.00 0.00 0.00 0.00 0.00 0.00 0.00 0.00 0.00 0.00 0.00 0.00 0.00 0.00 0.00 0.00 0.00 0.00 0.00 0.00 0.00 0.00 0.00 0.00 0.00 0.00 0.00 0.00 0.00 0.00 0.00 0.00 0.00 0.00 0.00 0.00 0.00 0.00 0.00 0.00 0.00 0.00 0.00 0.01 0.00 0.00
0.00 0.00 0.00 0.00 0.00 0.00 0.00 0.00 0.00 0.00 0.00 0.00 0.00 0.00 0.00 0.00 0.00 0.00 0.00 0.00 0.00 0.00 0.00 0.00 0.00 0.00 0.00 0.00 0.00 0.00 0.00 0.00 0.00 0.00 0.00 0.00 0.00 0.00 0.00 0.00 0.00 0.00 0.00 0.00 0.00 0.00 0.00
0.00 0.00 0.00 0.00 0.00 0.00 0.00 0.00 0.00 0.00 0.00 0.00 0.00 0.00 0.01 0.00 0.00 0.00 0.00 0.00 0.00 0.00 0.00 0.00 0.00 0.00 0.00 0.00 0.00 0.00 0.00 0.00 0.00 0.00 0.00 0.00 0.00 0.00 0.00 0.00 0.00 0.00 0.00 0.00 0.00 0.00 0.00
0.00 0.00 0.00 0.00 0.00 0.00 0.00 0.00 0.00 0.00 0.00 0.00 0.00 0.01 0.01 0.00 0.00 0.00 0.00 0.00 0.00 0.00 0.00 0.00 0.00 0.00 0.00 0.00 0.00 0.00 0.00 0.00 0.00 0.00 0.00 0.00 0.00 0.00 0.00 0.00 0.00 0.00 0.00 0.00 0.00 0.00 0.00
0.00 0.00 0.00 0.00 0.00 0.00 0.00 0.00 0.00 0.00 0.00 0.00 0.00 0.00 0.00 0.00 0.00 0.00 0.00 0.00 0.00 0.00 0.00 0.00 0.00 0.00 0.00 0.00 0.00 0.00 0.01 0.00 0.00 0.00 0.00 0.00 0.00 0.00 0.00 0.00 0.00 0.00 0.00 0.00 0.00 0.00 0.00
0.00 0.00 0.00 0.00 0.00 0.00 0.01 0.00 0.00 0.01 0.00 0.00 0.00 0.00 0.00 0.00 0.00 0.00 0.00 0.00 0.00 0.00 0.00 0.01 0.00 0.01 0.01 0.01 0.01 0.01 0.01 0.00 0.00 0.01 0.00 0.00 0.00 0.00 0.00 0.00 0.00 0.00 0.00 0.00 0.00 0.00 0.00
0.00 0.00 0.00 0.00 0.00 0.00 0.01 0.01 0.02 0.01 0.00 0.00 0.00 0.00 0.00 0.00 0.00 0.00 0.00 0.00 0.00 0.00 0.01 0.03 0.02 0.01 0.01 0.03 0.03 0.01 0.01 0.00 0.00 0.00 0.01 0.01 0.01 0.02 0.01 0.01 0.00 0.00 0.00 0.00 0.01 0.01 0.00
0.00 0.00 0.01 0.00 0.00 0.01 0.00 0.01 0.04 0.03 0.01 0.00 0.00 0.00 0.00 0.00 0.00 0.00 0.00 0.00 0.00 0.00 0.01 0.03 0.11 0.05 0.10 0.08 0.03 0.01 0.00 0.00 0.00 0.00 0.00 0.01 0.01 0.02 0.02 0.03 0.00 0.00 0.00 0.00 0.00 0.00 0.00
0.01 0.02 0.03 0.01 0.00 0.00 0.00 0.01 0.06 0.07 0.03 0.01 0.01 0.00 0.00 0.01 0.00 0.00 0.00 0.00 0.00 0.00 0.00 0.00 0.11 0.16 0.18 0.16 0.06 0.01 0.00 0.00 0.00 0.00 0.00 0.00 0.00 0.00 0.00 0.00 0.00 0.00 0.00 0.00 0.00 0.00 0.00

GFSGBSN_prec_precacc24_072.txt.gz
Total_Precipitation_Accumulation
0.00 0.00 0.00 0.01 0.01 0.02 0.02 0.03 0.03 0.07 0.05 0.05 0.09 0.15 0.12 0.13 0.15 0.19 0.20 0.09 0.07 0.07 0.03 0.03 0.09 0.31 0.16 0.10 0.02 0.09 0.06 0.11 0.37 0.55 0.35 0.20 0.10 0.03 0.01 0.01 0.04 0.02 0.04 0.05 0.13 0.07 0.04
0.00 0.00 0.00 0.00 0.01 0.01 0.02 0.02 0.04 0.07 0.04 0.05 0.14 0.16 0.13 0.15 0.16 0.17 0.05 0.02 0.04 0.06 0.16 0.08 0.18 0.18 0.13 0.06 0.00 0.03 0.08 0.16 0.28 0.52 0.38 0.27 0.15 0.02 0.02 0.02 0.05 0.02 0.06 0.12 0.20 0.10 0.04
0.00 0.00 0.00 0.00 0.01 0.01 0.02 0.02 0.05 0.04 0.04 0.08 0.16 0.15 0.13 0.20 0.13 0.06 0.01 0.01 0.04 0.06 0.08 0.02 0.15 0.07 0.08 0.01 0.05 0.10 0.07 0.11 0.28 0.44 0.38 0.25 0.17 0.08 0.04 0.05 0.05 0.05 0.12 0.23 0.22 0.22 0.13
0.00 0.00 0.00 0.00 0.00 0.01 0.01 0.02 0.05 0.03 0.05 0.10 0.14 0.12 0.10 0.21 0.12 0.03 0.00 0.00 0.04 0.05 0.08 0.10 0.10 0.11 0.05 0.00 0.03 0.09 0.13 0.07 0.21 0.56 0.45 0.42 0.25 0.17 0.11 0.06 0.06 0.12 0.17 0.10 0.08 0.18 0.28
0.00 0.00 0.00 0.00 0.00 0.01 0.01 0.02 0.03 0.04 0.06 0.09 0.11 0.08 0.08 0.14 0.13 0.05 0.00 0.00 0.01 0.01 0.05 0.06 0.07 0.13 0.06 0.09 0.05 0.03 0.14 0.14 0.37 0.77 0.73 0.94 0.87 0.31 0.15 0.10 0.07 0.09 0.04 0.01 0.02 0.06 0.10
0.02 0.00 0.00 0.00 0.00 0.01 0.01 0.02 0.03 0.04 0.05 0.08 0.08 0.06 0.04 0.04 0.11 0.06 0.00 0.00 0.00 0.00 0.02 0.01 0.10 0.14 0.09 0.16 0.15 0.16 0.24 0.23 0.57 0.97 1.24 1.74 1.41 0.53 0.13 0.07 0.03 0.00 0.00 0.00 0.00 0.02 0.01
0.01 0.00 0.00 0.00 0.00 0.01 0.01 0.01 0.02 0.03 0.05 0.06 0.06 0.04 0.02 0.02 0.07 0.02 0.00 0.01 0.03 0.10 0.08 0.09 0.05 0.11 0.15 0.25 0.41 0.43 0.45 0.36 0.92 1.35 1.41 1.58 0.99 0.29 0.02 0.00 0.00 0.00 0.00 0.00 0.00 0.00 0.00
0.01 0.00 0.00 0.00 0.00 0.00 0.01 0.01 0.02 0.02 0.04 0.04 0.04 0.04 0.02 0.02 0.01 0.00 0.01 0.00 0.00 0.03 0.04 0.01 0.01 0.03 0.09 0.29 0.60 0.59 0.67 0.75 1.33 1.58 0.87 1.06 0.49 0.08 0.01 0.00 0.00 0.00 0.00 0.00 0.00 0.00 0.01
0.01 0.01 0.00 0.00 0.00 0.00 0.00 0.01 0.01 0.01 0.03 0.03 0.03 0.02 0.02 0.02 0.00 0.01 0.01 0.00 0.00 0.00 0.04 0.05 0.04 0.07 0.20 0.33 0.54 0.64 0.89 0.97 1.20 0.93 0.50 0.40 0.13 0.05 0.07 0.02 0.00 0.00 0.00 0.00 0.00 0.00 0.00
0.01 0.00 0.00 0.00 0.00 0.00 0.00 0.00 0.00 0.01 0.02 0.02 0.02 0.02 0.01 0.00 0.00 0.00 0.00 0.00 0.00 0.00 0.09 0.12 0.16 0.45 0.29 0.72 0.69 0.53 1.15 1.07 1.08 0.60 0.47 0.44 0.12 0.08 0.10 0.04 0.00 0.00 0.00 0.00 0.00 0.00 0.00
0.01 0.00 0.00 0.00 0.00 0.00 0.00 0.00 0.00 0.00 0.01 0.01 0.01 0.02 0.01 0.00 0.00 0.00 0.00 0.00 0.00 0.01 0.21 0.13 0.16 0.27 0.56 0.62 0.36 0.61 0.84 0.77 0.69 0.51 0.46 0.43 0.14 0.14 0.12 0.05 0.01 0.01 0.00 0.00 0.00 0.00 0.00
0.02 0.00 0.00 0.00 0.00 0.00 0.00 0.00 0.00 0.00 0.00 0.01 0.01 0.01 0.00 0.00 0.00 0.00 0.00 0.00 0.00 0.04 0.42 0.53 0.65 0.66 0.48 0.33 0.29 0.75 0.95 0.62 0.57 0.28 0.40 0.22 0.14 0.25 0.20 0.08 0.02 0.01 0.00 0.00 0.00 0.00 0.00
0.02 0.00 0.00 0.00 0.00 0.00 0.00 0.00 0.00 0.00 0.00 0.00 0.00 0.00 0.00 0.00 0.00 0.00 0.00 0.00 0.00 0.03 0.16 0.35 0.40 0.25 0.25 0.31 0.46 0.66 0.66 0.47 0.62 0.47 0.56 0.51 0.45 0.27 0.19 0.16 0.06 0.01 0.01 0.04 0.05 0.03 0.00
0.03 0.01 0.00 0.00 0.00 0.00 0.00 0.00 0.00 0.00 0.00 0.00 0.00 0.00 0.00 0.00 0.00 0.00 0.01 0.00 0.00 0.03 0.05 0.06 0.10 0.09 0.12 0.19 0.36 0.41 0.33 0.22 0.11 0.04 0.16 0.45 0.66 0.43 0.25 0.20 0.14 0.01 0.01 0.03 0.01 0.01 0.00
0.01 0.00 0.00 0.00 0.00 0.00 0.00 0.00 0.00 0.00 0.00 0.00 0.00 0.00 0.00 0.00 0.00 0.00 0.01 0.00 0.00 0.00 0.00 0.00 0.01 0.02 0.04 0.05 0.13 0.18 0.08 0.05 0.04 0.02 0.09 0.11 0.18 0.21 0.22 0.16 0.12 0.04 0.02 0.00 0.00 0.00 0.00
0.01 0.00 0.00 0.00 0.00 0.00 0.00 0.00 0.00 0.00 0.00 0.00 0.00 0.00 0.00 0.00 0.00 0.00 0.00 0.01 0.00 0.00 0.00 0.00 0.00 0.00 0.00 0.01 0.01 0.01 0.01 0.00 0.00 0.00 0.01 0.01 0.06 0.08 0.16 0.16 0.15 0.02 0.00 0.03 0.00 0.00 0.00
0.02 0.00 0.00 0.00 0.00 0.00 0.00 0.00 0.00 0.00 0.00 0.00 0.00 0.00 0.00 0.00 0.00 0.00 0.00 0.00 0.00 0.00 0.00 0.00 0.00 0.00 0.00 0.00 0.00 0.00 0.00 0.00 0.00 0.00 0.00 0.00 0.01 0.06 0.09 0.15 0.11 0.04 0.00 0.00 0.01 0.00 0.00
0.03 0.00 0.00 0.00 0.00 0.00 0.00 0.00 0.00 0.00 0.00 0.00 0.00 0.00 0.00 0.00 0.00 0.00 0.00 0.00 0.00 0.00 0.00 0.00 0.00 0.00 0.00 0.00 0.00 0.00 0.00 0.00 0.00 0.00 0.00 0.00 0.00 0.03 0.03 0.00 0.00 0.02 0.00 0.00 0.01 0.01 0.00
0.02 0.00 0.00 0.00 0.00 0.00 0.00 0.00 0.00 0.00 0.00 0.00 0.00 0.00 0.00 0.00 0.01 0.00 0.00 0.00 0.00 0.00 0.00 0.00 0.00 0.00 0.00 0.00 0.00 0.00 0.00 0.00 0.00 0.00 0.00 0.00 0.00 0.02 0.06 0.02 0.00 0.04 0.02 0.00 0.00 0.00 0.00
0.01 0.00 0.00 0.00 0.00 0.00 0.00 0.00 0.00 0.00 0.00 0.00 0.00 0.00 0.00 0.00 0.00 0.00 0.00 0.00 0.00 0.00 0.00 0.00 0.00 0.00 0.00 0.00 0.00 0.00 0.00 0.00 0.00 0.00 0.00 0.00 0.00 0.00 0.00 0.00 0.00 0.00 0.00 0.00 0.00 0.02 0.00
0.05 0.00 0.00 0.00 0.00 0.00 0.00 0.00 0.00 0.00 0.00 0.00 0.00 0.00 0.00 0.00 0.00 0.00 0.00 0.00 0.00 0.00 0.00 0.00 0.00 0.00 0.00 0.00 0.00 0.00 0.00 0.00 0.00 0.00 0.00 0.00 0.00 0.00 0.00 0.00 0.00 0.00 0.00 0.00 0.01 0.00 0.00
0.10 0.00 0.00 0.00 0.00 0.00 0.00 0.00 0.00 0.00 0.00 0.00 0.00 0.00 0.00 0.00 0.00 0.00 0.00 0.00 0.00 0.00 0.00 0.00 0.00 0.00 0.00 0.00 0.00 0.00 0.00 0.00 0.00 0.00 0.00 0.00 0.00 0.00 0.00 0.00 0.00 0.00 0.00 0.00 0.00 0.00 0.00
0.12 0.02 0.00 0.00 0.00 0.00 0.00 0.00 0.00 0.00 0.00 0.00 0.00 0.00 0.01 0.00 0.00 0.00 0.00 0.00 0.00 0.00 0.00 0.00 0.00 0.00 0.00 0.00 0.00 0.00 0.00 0.00 0.00 0.00 0.00 0.00 0.00 0.00 0.00 0.00 0.00 0.00 0.00 0.00 0.00 0.00 0.00
0.08 0.01 0.00 0.00 0.00 0.00 0.00 0.00 0.00 0.00 0.00 0.00 0.00 0.00 0.01 0.00 0.00 0.00 0.00 0.00 0.00 0.00 0.00 0.00 0.00 0.00 0.00 0.00 0.00 0.00 0.00 0.00 0.00 0.00 0.00 0.00 0.00 0.00 0.00 0.00 0.00 0.00 0.00 0.00 0.00 0.00 0.00
0.11 0.02 0.00 0.00 0.00 0.00 0.00 0.00 0.00 0.00 0.00 0.00 0.00 0.00 0.00 0.00 0.00 0.00 0.00 0.00 0.00 0.00 0.00 0.00 0.00 0.00 0.00 0.00 0.00 0.00 0.00 0.00 0.00 0.00 0.00 0.00 0.00 0.00 0.00 0.00 0.00 0.00 0.00 0.00 0.00 0.00 0.00
0.10 0.03 0.00 0.00 0.00 0.00 0.00 0.00 0.00 0.00 0.00 0.00 0.00 0.00 0.00 0.00 0.00 0.00 0.00 0.00 0.00 0.00 0.00 0.01 0.00 0.01 0.01 0.01 0.02 0.02 0.00 0.00 0.00 0.00 0.00 0.00 0.00 0.00 0.00 0.00 0.00 0.00 0.00 0.00 0.00 0.00 0.00
0.16 0.03 0.00 0.00 0.00 0.00 0.00 0.00 0.02 0.01 0.00 0.00 0.00 0.00 0.00 0.00 0.00 0.00 0.00 0.00 0.00 0.00 0.01 0.03 0.02 0.02 0.03 0.03 0.06 0.02 0.01 0.00 0.00 0.00 0.00 0.00 0.00 0.01 0.01 0.01 0.00 0.00 0.00 0.00 0.01 0.01 0.00
0.11 0.02 0.00 0.00 0.00 0.00 0.00 0.00 0.01 0.01 0.01 0.00 0.00 0.00 0.00 0.00 0.00 0.00 0.00 0.00 0.00 0.00 0.01 0.03 0.10 0.05 0.10 0.10 0.06 0.01 0.00 0.00 0.00 0.00 0.00 0.00 0.01 0.02 0.02 0.03 0.00 0.00 0.00 0.00 0.00 0.00 0.00
0.06 0.02 0.02 0.01 0.00 0.00 0.00 0.00 0.02 0.03 0.02 0.01 0.01 0.00 0.00 0.01 0.00 0.00 0.00 0.00 0.00 0.00 0.00 0.00 0.11 0.16 0.18 0.19 0.11 0.01 0.00 0.00 0.00 0.00 0.00 0.00 0.00 0.00 0.00 0.00 0.00 0.00 0.00 0.00 0.00 0.00 0.00

GFSGBSN_prec_precacc24_075.txt.gz
Total_Precipitation_Accumulation
0.00 0.00 0.00 0.00 0.01 0.01 0.01 0.02 0.03 0.05 0.05 0.05 0.09 0.14 0.11 0.12 0.13 0.16 0.18 0.09 0.05 0.05 0.03 0.03 0.05 0.22 0.11 0.09 0.02 0.06 0.04 0.06 0.27 0.49 0.36 0.25 0.14 0.06 0.01 0.01 0.04 0.04 0.07 0.07 0.23 0.08 0.04
0.00 0.01 0.00 0.00 0.01 0.01 0.02 0.01 0.03 0.05 0.03 0.06 0.12 0.11 0.09 0.11 0.13 0.17 0.05 0.01 0.02 0.02 0.07 0.05 0.12 0.11 0.09 0.04 0.00 0.02 0.05 0.15 0.22 0.46 0.39 0.34 0.22 0.03 0.02 0.02 0.05 0.02 0.07 0.14 0.26 0.18 0.05
0.02 0.02 0.00 0.00 0.01 0.00 0.01 0.02 0.03 0.03 0.04 0.06 0.11 0.09 0.05 0.09 0.08 0.07 0.01 0.01 0.01 0.02 0.04 0.01 0.06 0.03 0.05 0.00 0.03 0.07 0.05 0.11 0.27 0.41 0.42 0.31 0.32 0.16 0.03 0.04 0.05 0.06 0.15 0.26 0.26 0.37 0.17
0.05 0.03 0.01 0.00 0.00 0.00 0.01 0.01 0.03 0.03 0.04 0.07 0.09 0.07 0.05 0.09 0.09 0.03 0.00 0.01 0.01 0.00 0.02 0.08 0.05 0.06 0.03 0.00 0.02 0.05 0.11 0.07 0.18 0.49 0.47 0.42 0.31 0.28 0.12 0.06 0.07 0.15 0.21 0.15 0.10 0.24 0.34
0.06 0.04 0.01 0.00 0.00 0.01 0.00 0.01 0.03 0.03 0.04 0.06 0.06 0.05 0.04 0.07 0.07 0.04 0.00 0.00 0.00 0.00 0.01 0.06 0.06 0.08 0.03 0.09 0.04 0.02 0.12 0.14 0.30 0.72 0.69 0.87 0.81 0.34 0.22 0.12 0.10 0.13 0.05 0.02 0.04 0.09 0.15
0.11 0.09 0.02 0.00 0.00 0.01 0.01 0.01 0.02 0.02 0.04 0.04 0.05 0.04 0.02 0.02 0.06 0.04 0.00 0.00 0.00 0.00 0.00 0.01 0.09 0.11 0.09 0.15 0.12 0.10 0.21 0.21 0.51 0.94 1.15 1.73 1.29 0.50 0.15 0.12 0.04 0.01 0.00 0.00 0.01 0.04 0.05
0.07 0.02 0.01 0.00 0.00 0.01 0.01 0.01 0.01 0.02 0.03 0.04 0.04 0.04 0.02 0.02 0.03 0.01 0.00 0.01 0.03 0.07 0.05 0.08 0.05 0.09 0.11 0.18 0.30 0.33 0.38 0.30 0.91 1.33 1.44 1.63 0.89 0.33 0.03 0.00 0.00 0.00 0.01 0.01 0.00 0.01 0.02
0.02 0.01 0.00 0.01 0.01 0.00 0.01 0.00 0.01 0.01 0.02 0.03 0.03 0.03 0.02 0.02 0.01 0.00 0.01 0.00 0.00 0.02 0.03 0.01 0.01 0.03 0.07 0.24 0.43 0.49 0.55 0.67 1.33 1.60 0.97 1.08 0.39 0.11 0.02 0.01 0.01 0.00 0.01 0.02 0.02 0.02 0.02
0.02 0.02 0.01 0.01 0.00 0.00 0.00 0.00 0.01 0.00 0.01 0.02 0.02 0.02 0.02 0.01 0.00 0.01 0.00 0.00 0.00 0.00 0.03 0.05 0.04 0.03 0.08 0.33 0.52 0.62 0.74 0.85 1.20 1.10 0.56 0.41 0.10 0.10 0.10 0.03 0.01 0.00 0.00 0.01 0.01 0.02 0.02
0.03 0.04 0.02 0.00 0.00 0.00 0.00 0.00 0.00 0.00 0.01 0.01 0.01 0.02 0.02 0.00 0.00 0.00 0.00 0.00 0.00 0.00 0.06 0.09 0.09 0.18 0.17 0.64 0.72 0.48 0.98 0.96 1.09 0.82 0.51 0.39 0.08 0.15 0.11 0.04 0.01 0.01 0.00 0.00 0.00 0.01 0.00
0.10 0.10 0.06 0.00 0.00 0.00 0.00 0.00 0.00 0.00 0.00 0.00 0.01 0.02 0.01 0.00 0.00 0.00 0.00 0.00 0.00 0.01 0.13 0.08 0.09 0.17 0.40 0.57 0.31 0.52 0.62 0.63 0.68 0.60 0.39 0.31 0.09 0.16 0.14 0.05 0.01 0.01 0.00 0.00 0.00 0.00 0.00
0.06 0.05 0.05 0.01 0.00 0.00 0.00 0.00 0.00 0.00 0.00 0.00 0.00 0.01 0.00 0.00 0.00 0.00 0.00 0.00 0.00 0.03 0.38 0.51 0.60 0.62 0.45 0.25 0.24 0.52 0.66 0.54 0.46 0.20 0.25 0.13 0.04 0.21 0.22 0.09 0.01 0.01 0.00 0.00 0.00 0.00 0.00
0.06 0.07 0.08 0.02 0.00 0.00 0.00 0.00 0.00 0.00 0.00 0.00 0.00 0.00 0.00 0.00 0.00 0.00 0.00 0.00 0.00 0.02 0.14 0.29 0.38 0.24 0.16 0.25 0.39 0.49 0.48 0.33 0.45 0.34 0.47 0.36 0.23 0.14 0.16 0.13 0.05 0.01 0.01 0.03 0.05 0.03 0.00
0.07 0.06 0.06 0.02 0.00 0.00 0.00 0.00 0.00 0.00 0.00 0.00 0.00 0.00 0.00 0.00 0.00 0.00 0.00 0.00 0.00 0.01 0.03 0.06 0.10 0.09 0.12 0.20 0.37 0.43 0.34 0.22 0.10 0.04 0.15 0.29 0.48 0.25 0.15 0.12 0.09 0.03 0.01 0.02 0.01 0.01 0.00
0.07 0.09 0.09 0.04 0.00 0.00 0.00 0.00 0.00 0.00 0.00 0.00 0.00 0.00 0.00 0.00 0.00 0.00 0.00 0.00 0.00 0.00 0.00 0.00 0.02 0.02 0.04 0.05 0.13 0.15 0.08 0.06 0.04 0.02 0.10 0.11 0.14 0.17 0.15 0.10 0.07 0.04 0.01 0.00 0.00 0.00 0.00
0.09 0.09 0.07 0.04 0.00 0.00 0.00 0.00 0.00 0.00 0.00 0.00 0.00 0.00 0.00 0.00 0.00 0.00 0.00 0.00 0.00 0.00 0.00 0.00 0.01 0.00 0.00 0.01 0.02 0.01 0.02 0.00 0.00 0.00 0.01 0.01 0.06 0.09 0.16 0.18 0.16 0.02 0.00 0.01 0.00 0.00 0.00
0.12 0.17 0.14 0.04 0.00 0.00 0.00 0.00 0.00 0.00 0.00 0.00 0.00 0.00 0.00 0.00 0.00 0.00 0.00 0.00 0.00 0.00 0.00 0.00 0.00 0.00 0.00 0.00 0.00 0.01 0.02 0.00 0.00 0.00 0.00 0.00 0.01 0.07 0.11 0.17 0.14 0.04 0.00 0.00 0.01 0.00 0.00
0.14 0.15 0.21 0.09 0.01 0.00 0.00 0.00 0.00 0.00 0.00 0.00 0.00 0.00 0.00 0.00 0.01 0.00 0.00 0.00 0.00 0.00 0.00 0.00 0.00 0.00 0.00 0.00 0.00 0.00 0.01 0.00 0.00 0.00 0.00 0.00 0.00 0.03 0.03 0.01 0.01 0.02 0.00 0.00 0.02 0.01 0.00
0.18 0.20 0.16 0.10 0.01 0.00 0.00 0.00 0.00 0.00 0.00 0.00 0.00 0.00 0.00 0.00 0.01 0.00 0.00 0.00 0.00 0.00 0.00 0.00 0.00 0.00 0.00 0.00 0.00 0.00 0.00 0.00 0.00 0.00 0.00 0.00 0.00 0.02 0.06 0.03 0.00 0.04 0.02 0.00 0.00 0.01 0.00
0.22 0.16 0.15 0.10 0.01 0.00 0.00 0.00 0.00 0.00 0.00 0.00 0.00 0.00 0.00 0.00 0.00 0.00 0.00 0.00 0.00 0.00 0.00 0.00 0.00 0.00 0.00 0.00 0.00 0.00 0.00 0.00 0.00 0.00 0.00 0.00 0.00 0.00 0.01 0.00 0.00 0.00 0.00 0.00 0.01 0.03 0.00
0.29 0.24 0.14 0.08 0.01 0.00 0.00 0.00 0.00 0.00 0.00 0.00 0.00 0.00 0.00 0.00 0.00 0.00 0.00 0.00 0.00 0.00 0.00 0.00 0.00 0.00 0.00 0.00 0.00 0.00 0.00 0.00 0.00 0.00 0.00 0.00 0.00 0.00 0.00 0.00 0.00 0.00 0.00 0.00 0.01 0.00 0.01
0.32 0.28 0.22 0.08 0.01 0.00 0.00 0.00 0.00 0.00 0.00 0.00 0.00 0.00 0.00 0.00 0.00 0.00 0.00 0.00 0.00 0.00 0.00 0.00 0.00 0.00 0.00 0.00 0.00 0.00 0.00 0.00 0.00 0.00 0.00 0.00 0.00 0.00 0.00 0.00 0.00 0.00 0.00 0.00 0.00 0.00 0.00
0.29 0.33 0.20 0.10 0.01 0.00 0.00 0.00 0.00 0.00 0.00 0.00 0.00 0.00 0.00 0.00 0.00 0.00 0.00 0.00 0.00 0.00 0.00 0.00 0.00 0.00 0.00 0.00 0.00 0.00 0.00 0.00 0.00 0.00 0.00 0.01 0.00 0.00 0.00 0.00 0.00 0.00 0.00 0.00 0.00 0.00 0.00
0.27 0.28 0.24 0.10 0.00 0.00 0.00 0.00 0.00 0.00 0.00 0.00 0.00 0.00 0.00 0.00 0.00 0.00 0.00 0.00 0.00 0.00 0.00 0.00 0.00 0.00 0.00 0.00 0.00 0.00 0.00 0.00 0.00 0.00 0.00 0.01 0.01 0.02 0.01 0.00 0.00 0.00 0.00 0.00 0.00 0.00 0.00
0.29 0.30 0.22 0.10 0.00 0.00 0.00 0.00 0.00 0.00 0.00 0.00 0.00 0.00 0.00 0.00 0.00 0.00 0.00 0.00 0.00 0.00 0.00 0.00 0.00 0.00 0.00 0.00 0.00 0.00 0.00 0.00 0.00 0.00 0.00 0.00 0.01 0.01 0.00 0.00 0.00 0.00 0.00 0.00 0.00 0.00 0.00
0.22 0.32 0.23 0.08 0.00 0.00 0.00 0.00 0.00 0.00 0.00 0.00 0.00 0.00 0.00 0.00 0.00 0.00 0.00 0.00 0.00 0.00 0.00 0.01 0.00 0.01 0.01 0.01 0.02 0.02 0.01 0.00 0.00 0.00 0.00 0.00 0.00 0.00 0.00 0.00 0.00 0.00 0.00 0.00 0.00 0.00 0.00
0.26 0.22 0.18 0.06 0.00 0.00 0.00 0.00 0.00 0.00 0.00 0.00 0.00 0.00 0.00 0.00 0.00 0.00 0.00 0.00 0.00 0.00 0.00 0.03 0.02 0.02 0.04 0.03 0.08 0.04 0.01 0.00 0.00 0.00 0.00 0.00 0.00 0.02 0.01 0.01 0.00 0.00 0.00 0.00 0.00 0.00 0.00
0.23 0.16 0.11 0.02 0.00 0.00 0.00 0.00 0.00 0.00 0.00 0.00 0.00 0.00 0.00 0.00 0.00 0.00 0.00 0.00 0.00 0.00 0.01 0.02 0.10 0.05 0.10 0.10 0.06 0.03 0.00 0.00 0.00 0.00 0.00 0.00 0.01 0.02 0.03 0.05 0.00 0.00 0.00 0.00 0.00 0.00 0.00
0.18 0.12 0.08 0.01 0.00 0.00 0.00 0.00 0.01 0.02 0.00 0.00 0.00 0.00 0.00 0.00 0.00 0.00 0.00 0.00 0.00 0.00 0.00 0.00 0.11 0.16 0.18 0.18 0.11 0.01 0.00 0.00 0.00 0.00 0.00 0.00 0.00 0.00 0.00 0.00 0.00 0.00 0.00 0.00 0.00 0.00 0.00

GFSGBSN_prec_precacc24_078.txt.gz
Total_Precipitation_Accumulation
0.01 0.01 0.01 0.01 0.00 0.01 0.01 0.01 0.02 0.03 0.04 0.05 0.09 0.11 0.06 0.06 0.06 0.12 0.16 0.08 0.05 0.06 0.02 0.01 0.02 0.14 0.07 0.06 0.02 0.05 0.01 0.07 0.22 0.40 0.35 0.28 0.20 0.08 0.01 0.01 0.07 0.11 0.10 0.09 0.28 0.17 0.06
0.04 0.03 0.02 0.01 0.01 0.01 0.01 0.01 0.02 0.03 0.03 0.05 0.09 0.07 0.04 0.04 0.06 0.11 0.04 0.01 0.02 0.02 0.01 0.01 0.02 0.05 0.03 0.01 0.00 0.02 0.02 0.03 0.10 0.41 0.38 0.38 0.26 0.05 0.03 0.02 0.06 0.03 0.09 0.19 0.30 0.29 0.18
0.04 0.06 0.05 0.03 0.02 0.01 0.00 0.01 0.02 0.03 0.04 0.06 0.08 0.06 0.03 0.05 0.05 0.04 0.01 0.01 0.01 0.01 0.01 0.00 0.01 0.01 0.01 0.00 0.02 0.05 0.03 0.05 0.13 0.39 0.45 0.41 0.38 0.19 0.05 0.04 0.05 0.06 0.16 0.42 0.31 0.41 0.26
0.07 0.08 0.07 0.04 0.03 0.01 0.00 0.01 0.02 0.03 0.04 0.05 0.06 0.05 0.03 0.03 0.03 0.02 0.01 0.01 0.01 0.00 0.01 0.08 0.04 0.01 0.01 0.00 0.02 0.03 0.04 0.04 0.12 0.39 0.51 0.52 0.35 0.31 0.10 0.05 0.08 0.16 0.23 0.21 0.24 0.36 0.57
0.07 0.08 0.09 0.10 0.05 0.01 0.00 0.01 0.02 0.02 0.04 0.04 0.04 0.04 0.03 0.03 0.03 0.01 0.01 0.00 0.00 0.00 0.01 0.05 0.05 0.06 0.03 0.09 0.04 0.01 0.01 0.10 0.23 0.57 0.63 0.90 0.81 0.45 0.23 0.13 0.13 0.16 0.07 0.02 0.06 0.11 0.35
0.12 0.13 0.12 0.04 0.01 0.01 0.01 0.01 0.01 0.02 0.03 0.03 0.04 0.03 0.02 0.02 0.03 0.01 0.00 0.00 0.00 0.00 0.00 0.01 0.06 0.11 0.08 0.14 0.10 0.06 0.09 0.18 0.42 0.82 1.08 1.68 1.26 0.56 0.24 0.15 0.05 0.01 0.00 0.00 0.01 0.06 0.09
0.08 0.04 0.02 0.02 0.02 0.01 0.01 0.01 0.00 0.01 0.02 0.03 0.03 0.02 0.02 0.02 0.02 0.01 0.00 0.00 0.00 0.01 0.01 0.04 0.02 0.06 0.09 0.15 0.20 0.21 0.22 0.27 0.69 1.24 1.43 1.61 0.89 0.36 0.13 0.04 0.00 0.00 0.01 0.01 0.00 0.02 0.03
0.03 0.04 0.05 0.06 0.06 0.04 0.01 0.00 0.00 0.01 0.02 0.02 0.02 0.02 0.02 0.02 0.01 0.00 0.00 0.00 0.00 0.00 0.00 0.01 0.01 0.03 0.07 0.21 0.27 0.30 0.43 0.54 0.99 1.54 0.96 1.09 0.39 0.11 0.06 0.05 0.06 0.04 0.01 0.03 0.03 0.04 0.06
0.04 0.04 0.06 0.07 0.07 0.04 0.00 0.00 0.00 0.00 0.01 0.01 0.02 0.02 0.02 0.02 0.00 0.00 0.00 0.00 0.00 0.00 0.00 0.05 0.04 0.03 0.07 0.16 0.23 0.39 0.51 0.70 1.04 1.09 0.55 0.46 0.11 0.09 0.09 0.04 0.08 0.01 0.00 0.01 0.04 0.04 0.05
0.05 0.05 0.08 0.10 0.08 0.06 0.01 0.00 0.00 0.00 0.01 0.01 0.01 0.02 0.02 0.00 0.00 0.00 0.00 0.00 0.00 0.00 0.02 0.07 0.06 0.15 0.11 0.15 0.31 0.32 0.78 0.90 1.08 0.81 0.49 0.42 0.07 0.10 0.09 0.04 0.02 0.02 0.00 0.00 0.02 0.04 0.01
0.13 0.12 0.12 0.10 0.09 0.09 0.05 0.00 0.00 0.00 0.00 0.00 0.00 0.02 0.01 0.00 0.00 0.00 0.00 0.00 0.00 0.00 0.07 0.05 0.04 0.06 0.17 0.35 0.21 0.36 0.56 0.65 0.68 0.68 0.45 0.29 0.04 0.10 0.11 0.04 0.01 0.02 0.00 0.01 0.02 0.02 0.01
0.10 0.08 0.08 0.09 0.10 0.09 0.05 0.00 0.00 0.00 0.00 0.00 0.00 0.01 0.00 0.00 0.00 0.00 0.00 0.00 0.00 0.01 0.27 0.39 0.48 0.46 0.36 0.21 0.22 0.50 0.60 0.59 0.49 0.36 0.29 0.05 0.02 0.14 0.18 0.06 0.02 0.02 0.02 0.01 0.01 0.01 0.01
0.09 0.09 0.12 0.14 0.15 0.14 0.07 0.00 0.00 0.00 0.00 0.00 0.00 0.00 0.00 0.00 0.00 0.00 0.00 0.00 0.00 0.01 0.11 0.25 0.25 0.12 0.07 0.15 0.22 0.46 0.41 0.31 0.46 0.45 0.47 0.23 0.13 0.15 0.16 0.14 0.05 0.02 0.03 0.02 0.04 0.03 0.00
0.12 0.11 0.09 0.10 0.12 0.16 0.13 0.01 0.00 0.00 0.00 0.00 0.00 0.00 0.00 0.00 0.00 0.00 0.00 0.00 0.00 0.00 0.03 0.04 0.08 0.07 0.10 0.14 0.27 0.28 0.18 0.15 0.08 0.04 0.10 0.20 0.33 0.23 0.13 0.13 0.10 0.03 0.00 0.00 0.01 0.00 0.00
0.12 0.16 0.15 0.19 0.19 0.21 0.14 0.01 0.00 0.00 0.00 0.00 0.00 0.00 0.00 0.00 0.00 0.00 0.00 0.00 0.00 0.00 0.00 0.00 0.02 0.03 0.04 0.05 0.13 0.14 0.06 0.05 0.01 0.00 0.04 0.03 0.08 0.07 0.10 0.08 0.08 0.05 0.01 0.00 0.00 0.00 0.00
0.17 0.17 0.15 0.23 0.24 0.24 0.12 0.01 0.00 0.00 0.00 0.00 0.00 0.00 0.00 0.00 0.00 0.00 0.00 0.00 0.00 0.00 0.00 0.00 0.01 0.01 0.00 0.01 0.02 0.02 0.02 0.01 0.00 0.00 0.00 0.01 0.04 0.03 0.09 0.11 0.09 0.02 0.01 0.01 0.01 0.00 0.00
0.26 0.29 0.25 0.25 0.25 0.27 0.12 0.02 0.00 0.00 0.00 0.00 0.00 0.00 0.00 0.00 0.00 0.00 0.00 0.00 0.00 0.00 0.00 0.00 0.00 0.00 0.00 0.00 0.01 0.01 0.02 0.00 0.00 0.00 0.00 0.01 0.01 0.05 0.10 0.17 0.11 0.02 0.01 0.01 0.00 0.00 0.00
0.27 0.26 0.35 0.39 0.32 0.31 0.15 0.03 0.00 0.00 0.00 0.00 0.00 0.00 0.00 0.00 0.01 0.00 0.00 0.00 0.00 0.00 0.00 0.00 0.00 0.00 0.00 0.01 0.00 0.01 0.01 0.00 0.00 0.00 0.00 0.00 0.02 0.04 0.04 0.02 0.02 0.03 0.01 0.00 0.01 0.00 0.00
0.33 0.35 0.30 0.42 0.38 0.32 0.17 0.03 0.00 0.00 0.00 0.00 0.00 0.00 0.00 0.00 0.00 0.00 0.00 0.00 0.00 0.00 0.00 0.00 0.00 0.00 0.00 0.01 0.01 0.00 0.00 0.00 0.00 0.00 0.00 0.00 0.00 0.02 0.07 0.03 0.00 0.04 0.02 0.00 0.00 0.01 0.01
0.37 0.29 0.30 0.39 0.42 0.31 0.14 0.01 0.00 0.00 0.00 0.00 0.00 0.00 0.00 0.00 0.00 0.00 0.00 0.00 0.00 0.00 0.00 0.00 0.00 0.00 0.00 0.00 0.00 0.00 0.00 0.00 0.00 0.00 0.00 0.00 0.00 0.00 0.01 0.00 0.00 0.00 0.00 0.00 0.01 0.03 0.01
0.54 0.39 0.30 0.33 0.42 0.31 0.09 0.00 0.00 0.00 0.00 0.00 0.00 0.00 0.00 0.00 0.00 0.00 0.00 0.00 0.00 0.00 0.00 0.00 0.00 0.00 0.00 0.00 0.00 0.00 0.00 0.00 0.00 0.00 0.00 0.00 0.00 0.00 0.00 0.00 0.00 0.00 0.00 0.00 0.01 0.00 0.01
0.63 0.56 0.43 0.33 0.38 0.29 0.09 0.00 0.00 0.00 0.00 0.00 0.00 0.00 0.00 0.00 0.00 0.00 0.00 0.00 0.00 0.00 0.00 0.00 0.00 0.00 0.00 0.00 0.00 0.00 0.00 0.00 0.00 0.00 0.00 0.00 0.00 0.00 0.00 0.00 0.00 0.00 0.00 0.00 0.00 0.00 0.00
0.52 0.62 0.51 0.33 0.32 0.24 0.03 0.00 0.00 0.00 0.00 0.00 0.00 0.00 0.00 0.00 0.00 0.00 0.00 0.00 0.00 0.00 0.00 0.00 0.00 0.00 0.00 0.00 0.00 0.00 0.00 0.00 0.00 0.00 0.00 0.02 0.00 0.00 0.01 0.00 0.00 0.00 0.00 0.00 0.00 0.00 0.00
0.61 0.54 0.57 0.40 0.30 0.19 0.02 0.00 0.00 0.00 0.00 0.00 0.00 0.00 0.00 0.00 0.00 0.00 0.00 0.00 0.00 0.00 0.00 0.00 0.00 0.00 0.00 0.00 0.00 0.00 0.00 0.00 0.00 0.00 0.00 0.03 0.01 0.03 0.02 0.00 0.00 0.00 0.00 0.00 0.00 0.00 0.00
0.77 0.73 0.57 0.44 0.35 0.11 0.01 0.00 0.00 0.00 0.00 0.00 0.00 0.00 0.00 0.00 0.00 0.00 0.00 0.00 0.00 0.00 0.00 0.00 0.00 0.00 0.00 0.00 0.00 0.00 0.00 0.00 0.00 0.00 0.00 0.01 0.01 0.01 0.01 0.01 0.00 0.00 0.00 0.00 0.00 0.00 0.00
0.50 0.67 0.62 0.46 0.26 0.07 0.00 0.00 0.00 0.00 0.00 0.00 0.00 0.00 0.00 0.00 0.00 0.00 0.00 0.00 0.00 0.00 0.00 0.01 0.00 0.01 0.01 0.01 0.02 0.02 0.01 0.00 0.00 0.00 0.00 0.00 0.00 0.01 0.01 0.00 0.00 0.00 0.00 0.00 0.00 0.00 0.00
0.58 0.58 0.70 0.51 0.15 0.02 0.00 0.00 0.00 0.00 0.00 0.00 0.00 0.00 0.00 0.00 0.00 0.00 0.00 0.00 0.00 0.00 0.00 0.02 0.01 0.02 0.04 0.02 0.08 0.05 0.02 0.00 0.00 0.00 0.00 0.00 0.00 0.02 0.02 0.02 0.00 0.00 0.00 0.00 0.00 0.00 0.00
0.50 0.46 0.62 0.46 0.08 0.00 0.00 0.00 0.00 0.00 0.00 0.00 0.00 0.00 0.00 0.00 0.00 0.00 0.00 0.00 0.00 0.00 0.00 0.02 0.09 0.04 0.08 0.09 0.06 0.03 0.01 0.00 0.00 0.00 0.00 0.00 0.01 0.02 0.03 0.06 0.01 0.00 0.00 0.00 0.00 0.00 0.00
0.66 0.55 0.52 0.35 0.05 0.00 0.00 0.00 0.00 0.01 0.00 0.00 0.00 0.00 0.00 0.00 0.00 0.00 0.00 0.00 0.00 0.00 0.00 0.00 0.10 0.16 0.16 0.17 0.10 0.01 0.00 0.00 0.00 0.00 0.00 0.00 0.00 0.00 0.00 0.00 0.00 0.00 0.00 0.00 0.00 0.00 0.00

GFSGBSN_prec_precacc24_081.txt.gz
Total_Precipitation_Accumulation
0.04 0.05 0.03 0.02 0.01 0.02 0.02 0.01 0.01 0.02 0.03 0.04 0.08 0.08 0.04 0.04 0.05 0.05 0.05 0.05 0.04 0.05 0.02 0.00 0.01 0.06 0.03 0.02 0.01 0.05 0.01 0.09 0.21 0.28 0.34 0.30 0.24 0.12 0.02 0.01 0.09 0.13 0.14 0.14 0.34 0.27 0.10
0.07 0.07 0.06 0.04 0.04 0.03 0.04 0.02 0.01 0.02 0.02 0.05 0.08 0.05 0.03 0.03 0.03 0.03 0.02 0.01 0.02 0.02 0.00 0.00 0.01 0.03 0.00 0.00 0.00 0.02 0.01 0.11 0.21 0.22 0.34 0.40 0.28 0.10 0.05 0.02 0.08 0.04 0.12 0.23 0.36 0.35 0.37
0.06 0.07 0.08 0.07 0.06 0.06 0.06 0.02 0.01 0.02 0.03 0.05 0.07 0.04 0.03 0.03 0.02 0.01 0.01 0.01 0.02 0.02 0.00 0.00 0.01 0.00 0.00 0.00 0.00 0.01 0.02 0.07 0.25 0.24 0.40 0.43 0.43 0.27 0.08 0.05 0.05 0.08 0.20 0.51 0.43 0.53 0.41
0.09 0.09 0.08 0.07 0.09 0.10 0.03 0.01 0.01 0.02 0.03 0.04 0.05 0.04 0.04 0.02 0.01 0.01 0.01 0.01 0.01 0.01 0.00 0.05 0.04 0.00 0.00 0.00 0.00 0.02 0.02 0.01 0.13 0.31 0.50 0.58 0.42 0.35 0.10 0.05 0.08 0.19 0.30 0.31 0.35 0.51 0.68
0.10 0.10 0.10 0.12 0.10 0.04 0.01 0.01 0.01 0.02 0.03 0.03 0.04 0.03 0.03 0.02 0.02 0.01 0.01 0.00 0.00 0.00 0.00 0.04 0.03 0.02 0.02 0.07 0.04 0.01 0.00 0.01 0.17 0.49 0.57 0.98 0.86 0.49 0.21 0.13 0.14 0.17 0.14 0.12 0.14 0.21 0.46
0.15 0.15 0.14 0.06 0.03 0.02 0.02 0.02 0.02 0.02 0.02 0.02 0.03 0.03 0.02 0.02 0.02 0.01 0.01 0.00 0.00 0.00 0.00 0.00 0.02 0.09 0.06 0.10 0.09 0.06 0.03 0.03 0.31 0.68 0.89 1.59 1.37 0.55 0.24 0.16 0.07 0.02 0.01 0.01 0.03 0.10 0.11
0.10 0.07 0.04 0.04 0.05 0.03 0.04 0.05 0.01 0.01 0.02 0.02 0.02 0.02 0.02 0.02 0.02 0.02 0.00 0.00 0.00 0.00 0.00 0.00 0.01 0.04 0.08 0.14 0.16 0.16 0.08 0.16 0.52 0.87 1.25 1.57 1.08 0.39 0.13 0.04 0.02 0.01 0.01 0.01 0.01 0.04 0.04
0.05 0.06 0.08 0.08 0.09 0.07 0.04 0.04 0.02 0.01 0.01 0.01 0.01 0.02 0.02 0.02 0.02 0.01 0.00 0.00 0.00 0.00 0.00 0.00 0.01 0.03 0.06 0.20 0.19 0.10 0.10 0.40 0.85 1.11 0.88 1.08 0.47 0.16 0.14 0.07 0.10 0.05 0.01 0.03 0.05 0.08 0.10
0.05 0.07 0.09 0.10 0.10 0.08 0.05 0.06 0.04 0.01 0.01 0.01 0.01 0.01 0.02 0.02 0.00 0.00 0.00 0.00 0.00 0.00 0.00 0.04 0.04 0.03 0.07 0.16 0.17 0.14 0.24 0.53 0.85 0.94 0.54 0.46 0.13 0.11 0.18 0.11 0.10 0.03 0.00 0.01 0.05 0.09 0.10
0.06 0.08 0.12 0.14 0.12 0.11 0.07 0.05 0.04 0.01 0.01 0.01 0.01 0.01 0.02 0.00 0.00 0.00 0.00 0.00 0.00 0.00 0.02 0.07 0.05 0.13 0.07 0.11 0.24 0.22 0.57 0.60 0.86 0.76 0.48 0.44 0.08 0.10 0.10 0.07 0.03 0.03 0.00 0.00 0.02 0.06 0.02
0.14 0.14 0.15 0.14 0.14 0.14 0.14 0.12 0.10 0.04 0.01 0.00 0.00 0.02 0.01 0.00 0.00 0.00 0.00 0.00 0.00 0.00 0.07 0.05 0.03 0.02 0.03 0.08 0.13 0.30 0.42 0.45 0.60 0.67 0.45 0.29 0.04 0.10 0.10 0.04 0.02 0.04 0.01 0.02 0.04 0.04 0.02
0.10 0.10 0.12 0.14 0.15 0.15 0.20 0.17 0.15 0.08 0.01 0.00 0.00 0.01 0.00 0.00 0.00 0.00 0.00 0.00 0.00 0.01 0.20 0.27 0.14 0.05 0.07 0.07 0.15 0.31 0.55 0.57 0.49 0.36 0.31 0.08 0.02 0.14 0.14 0.05 0.03 0.03 0.04 0.04 0.04 0.04 0.01
0.09 0.11 0.15 0.19 0.22 0.23 0.23 0.16 0.14 0.09 0.01 0.00 0.00 0.00 0.00 0.00 0.00 0.00 0.00 0.00 0.00 0.01 0.07 0.14 0.09 0.04 0.05 0.13 0.26 0.50 0.41 0.31 0.54 0.58 0.49 0.23 0.14 0.16 0.08 0.07 0.04 0.03 0.04 0.13 0.12 0.04 0.00
0.12 0.13 0.13 0.15 0.20 0.27 0.36 0.27 0.18 0.12 0.02 0.00 0.00 0.00 0.00 0.00 0.00 0.00 0.00 0.00 0.00 0.00 0.02 0.04 0.07 0.06 0.07 0.09 0.16 0.22 0.17 0.14 0.13 0.08 0.10 0.19 0.36 0.24 0.07 0.05 0.05 0.04 0.01 0.01 0.02 0.00 0.00
0.14 0.18 0.21 0.27 0.30 0.36 0.40 0.32 0.22 0.12 0.02 0.00 0.00 0.00 0.00 0.00 0.00 0.00 0.00 0.00 0.00 0.00 0.00 0.00 0.02 0.03 0.04 0.05 0.06 0.06 0.04 0.04 0.03 0.01 0.04 0.02 0.16 0.07 0.05 0.06 0.05 0.05 0.02 0.00 0.00 0.00 0.00
0.22 0.23 0.26 0.38 0.45 0.46 0.45 0.31 0.20 0.10 0.01 0.00 0.00 0.00 0.00 0.00 0.00 0.00 0.00 0.00 0.00 0.00 0.00 0.00 0.02 0.02 0.01 0.01 0.02 0.02 0.03 0.01 0.01 0.00 0.00 0.00 0.03 0.02 0.04 0.07 0.08 0.02 0.01 0.01 0.00 0.00 0.00
0.31 0.37 0.38 0.40 0.50 0.50 0.45 0.32 0.19 0.10 0.00 0.00 0.00 0.01 0.01 0.00 0.00 0.01 0.00 0.00 0.00 0.00 0.00 0.00 0.01 0.01 0.00 0.00 0.01 0.01 0.02 0.00 0.00 0.00 0.00 0.01 0.01 0.03 0.06 0.09 0.09 0.02 0.01 0.01 0.00 0.00 0.00
0.41 0.40 0.51 0.59 0.65 0.66 0.52 0.38 0.21 0.08 0.00 0.00 0.00 0.00 0.00 0.00 0.02 0.01 0.00 0.00 0.00 0.00 0.00 0.00 0.00 0.00 0.00 0.01 0.01 0.01 0.01 0.00 0.00 0.00 0.00 0.00 0.02 0.03 0.04 0.01 0.02 0.03 0.01 0.00 0.01 0.00 0.00
0.56 0.50 0.47 0.64 0.71 0.77 0.64 0.37 0.21 0.06 0.00 0.00 0.00 0.00 0.00 0.01 0.00 0.00 0.00 0.00 0.00 0.00 0.00 0.00 0.00 0.00 0.00 0.01 0.01 0.00 0.00 0.00 0.00 0.00 0.00 0.00 0.00 0.02 0.07 0.03 0.00 0.04 0.02 0.01 0.00 0.01 0.01
0.50 0.40 0.42 0.65 0.73 0.76 0.63 0.35 0.17 0.02 0.00 0.00 0.00 0.00 0.00 0.00 0.00 0.00 0.00 0.00 0.00 0.00 0.00 0.00 0.00 0.00 0.00 0.01 0.00 0.00 0.00 0.00 0.00 0.00 0.00 0.00 0.00 0.00 0.01 0.00 0.00 0.00 0.00 0.00 0.02 0.03 0.01
0.57 0.42 0.40 0.61 0.74 0.70 0.54 0.27 0.11 0.01 0.00 0.00 0.00 0.00 0.00 0.00 0.00 0.00 0.00 0.00 0.00 0.00 0.00 0.00 0.00 0.00 0.00 0.00 0.01 0.01 0.00 0.00 0.00 0.00 0.00 0.00 0.00 0.00 0.00 0.00 0.00 0.00 0.00 0.00 0.01 0.00 0.01
0.65 0.59 0.52 0.63 0.92 0.76 0.54 0.24 0.05 0.00 0.00 0.00 0.00 0.00 0.00 0.00 0.00 0.00 0.00 0.00 0.00 0.00 0.00 0.00 0.00 0.00 0.00 0.00 0.00 0.01 0.00 0.00 0.00 0.00 0.00 0.00 0.00 0.00 0.00 0.00 0.00 0.00 0.00 0.00 0.00 0.00 0.00
0.54 0.68 0.59 0.51 0.75 0.77 0.48 0.18 0.02 0.00 0.00 0.00 0.00 0.00 0.00 0.00 0.00 0.00 0.00 0.00 0.00 0.00 0.00 0.00 0.00 0.00 0.00 0.00 0.00 0.00 0.00 0.00 0.00 0.00 0.00 0.02 0.00 0.00 0.01 0.00 0.00 0.00 0.00 0.00 0.00 0.00 0.00
0.65 0.65 0.72 0.57 0.56 0.62 0.41 0.11 0.00 0.00 0.00 0.00 0.00 0.00 0.00 0.00 0.00 0.00 0.00 0.00 0.00 0.00 0.00 0.00 0.00 0.00 0.00 0.00 0.00 0.00 0.00 0.00 0.00 0.00 0.00 0.03 0.01 0.03 0.02 0.00 0.00 0.00 0.00 0.00 0.00 0.00 0.00
0.79 0.80 0.77 0.72 0.72 0.45 0.32 0.05 0.00 0.00 0.00 0.00 0.00 0.00 0.00 0.00 0.00 0.00 0.00 0.00 0.00 0.00 0.00 0.00 0.00 0.00 0.00 0.00 0.00 0.00 0.00 0.00 0.00 0.00 0.00 0.03 0.02 0.01 0.02 0.01 0.00 0.00 0.00 0.00 0.00 0.00 0.00
0.56 0.88 1.01 0.95 0.77 0.48 0.25 0.03 0.00 0.00 0.00 0.00 0.00 0.00 0.00 0.00 0.00 0.00 0.00 0.00 0.00 0.00 0.00 0.00 0.00 0.01 0.01 0.01 0.02 0.02 0.01 0.00 0.00 0.00 0.00 0.00 0.01 0.01 0.01 0.01 0.00 0.00 0.00 0.00 0.00 0.00 0.00
0.62 0.72 1.11 1.03 0.78 0.38 0.17 0.01 0.00 0.00 0.00 0.00 0.00 0.00 0.00 0.00 0.00 0.00 0.00 0.00 0.00 0.00 0.00 0.01 0.01 0.02 0.04 0.02 0.08 0.05 0.02 0.00 0.00 0.00 0.00 0.00 0.00 0.02 0.02 0.02 0.00 0.00 0.00 0.00 0.00 0.00 0.00
0.51 0.50 0.85 0.96 0.71 0.37 0.10 0.00 0.00 0.00 0.00 0.00 0.00 0.00 0.00 0.00 0.00 0.00 0.00 0.00 0.00 0.00 0.00 0.02 0.07 0.04 0.08 0.09 0.06 0.03 0.01 0.00 0.00 0.00 0.00 0.00 0.01 0.02 0.03 0.06 0.01 0.00 0.00 0.00 0.00 0.00 0.00
0.70 0.64 0.80 0.78 0.54 0.27 0.05 0.00 0.00 0.01 0.00 0.00 0.00 0.00 0.00 0.00 0.00 0.00 0.00 0.00 0.00 0.00 0.00 0.00 0.10 0.16 0.16 0.17 0.09 0.01 0.00 0.00 0.00 0.00 0.00 0.00 0.00 0.00 0.00 0.00 0.00 0.00 0.00 0.00 0.00 0.00 0.00

GFSGBSN_prec_precacc24_084.txt.gz
Total_Precipitation_Accumulation
0.08 0.10 0.09 0.07 0.06 0.05 0.06 0.07 0.04 0.02 0.02 0.03 0.06 0.06 0.03 0.03 0.03 0.03 0.02 0.02 0.02 0.04 0.02 0.00 0.01 0.05 0.02 0.02 0.01 0.03 0.02 0.09 0.21 0.27 0.23 0.36 0.32 0.18 0.03 0.01 0.10 0.24 0.18 0.27 0.44 0.35 0.13
0.09 0.09 0.10 0.09 0.08 0.06 0.08 0.08 0.04 0.02 0.02 0.03 0.06 0.04 0.03 0.03 0.03 0.02 0.01 0.02 0.02 0.02 0.01 0.00 0.01 0.03 0.00 0.00 0.00 0.02 0.01 0.18 0.27 0.19 0.26 0.44 0.34 0.17 0.07 0.02 0.08 0.09 0.24 0.30 0.53 0.41 0.42
0.08 0.09 0.10 0.10 0.10 0.09 0.09 0.05 0.05 0.04 0.02 0.03 0.05 0.04 0.03 0.03 0.02 0.01 0.01 0.01 0.02 0.02 0.01 0.00 0.01 0.00 0.00 0.00 0.00 0.00 0.01 0.18 0.44 0.16 0.33 0.44 0.49 0.33 0.13 0.06 0.06 0.13 0.27 0.61 0.59 0.64 0.61
0.10 0.10 0.10 0.10 0.12 0.14 0.06 0.03 0.05 0.06 0.04 0.03 0.03 0.03 0.03 0.02 0.02 0.01 0.01 0.01 0.01 0.01 0.00 0.05 0.03 0.00 0.00 0.00 0.00 0.00 0.00 0.08 0.20 0.15 0.40 0.57 0.52 0.42 0.13 0.07 0.08 0.23 0.35 0.42 0.46 0.65 0.91
0.10 0.10 0.11 0.14 0.13 0.08 0.04 0.03 0.05 0.06 0.06 0.03 0.02 0.03 0.03 0.02 0.02 0.01 0.01 0.01 0.00 0.00 0.00 0.04 0.02 0.01 0.02 0.05 0.04 0.00 0.00 0.02 0.16 0.36 0.55 0.92 0.90 0.52 0.24 0.15 0.16 0.21 0.18 0.16 0.17 0.27 0.73
0.15 0.16 0.15 0.08 0.06 0.07 0.06 0.06 0.06 0.07 0.08 0.03 0.02 0.02 0.02 0.02 0.02 0.01 0.01 0.00 0.00 0.00 0.00 0.00 0.00 0.05 0.04 0.07 0.08 0.05 0.03 0.02 0.21 0.39 0.59 1.36 1.34 0.60 0.25 0.19 0.09 0.03 0.04 0.05 0.09 0.14 0.31
0.10 0.07 0.04 0.05 0.08 0.08 0.09 0.09 0.06 0.07 0.11 0.06 0.02 0.01 0.01 0.02 0.02 0.02 0.00 0.00 0.00 0.00 0.00 0.00 0.00 0.01 0.07 0.14 0.13 0.13 0.06 0.04 0.37 0.50 0.90 1.49 1.10 0.44 0.15 0.08 0.03 0.02 0.02 0.03 0.03 0.05 0.09
0.05 0.06 0.08 0.09 0.11 0.11 0.10 0.10 0.08 0.09 0.13 0.08 0.02 0.01 0.01 0.02 0.02 0.01 0.00 0.00 0.00 0.00 0.00 0.00 0.01 0.02 0.06 0.20 0.17 0.07 0.02 0.12 0.66 0.83 0.76 1.05 0.57 0.18 0.15 0.11 0.12 0.05 0.03 0.06 0.10 0.13 0.11
0.06 0.07 0.09 0.10 0.12 0.12 0.12 0.14 0.11 0.12 0.12 0.09 0.03 0.01 0.02 0.02 0.00 0.00 0.00 0.00 0.00 0.00 0.00 0.04 0.04 0.02 0.07 0.15 0.13 0.06 0.02 0.18 0.66 0.67 0.48 0.48 0.31 0.13 0.18 0.14 0.13 0.04 0.01 0.01 0.07 0.14 0.15
0.06 0.08 0.12 0.14 0.13 0.13 0.13 0.14 0.13 0.15 0.12 0.09 0.03 0.01 0.02 0.00 0.00 0.00 0.00 0.00 0.00 0.00 0.01 0.06 0.05 0.12 0.07 0.10 0.18 0.04 0.12 0.25 0.58 0.58 0.47 0.46 0.21 0.12 0.10 0.08 0.04 0.04 0.00 0.01 0.06 0.08 0.06
0.14 0.14 0.15 0.14 0.14 0.16 0.19 0.21 0.20 0.22 0.16 0.10 0.03 0.02 0.01 0.00 0.00 0.00 0.00 0.00 0.00 0.00 0.03 0.02 0.01 0.01 0.03 0.08 0.10 0.18 0.27 0.30 0.41 0.59 0.44 0.29 0.07 0.11 0.11 0.04 0.02 0.05 0.01 0.02 0.07 0.09 0.03
0.10 0.10 0.12 0.14 0.15 0.17 0.23 0.28 0.27 0.26 0.18 0.10 0.03 0.01 0.00 0.00 0.00 0.00 0.00 0.00 0.00 0.00 0.03 0.02 0.02 0.01 0.04 0.05 0.12 0.25 0.36 0.44 0.46 0.35 0.31 0.09 0.02 0.15 0.16 0.06 0.03 0.04 0.04 0.05 0.06 0.10 0.04
0.10 0.11 0.15 0.20 0.22 0.24 0.25 0.25 0.28 0.30 0.20 0.10 0.03 0.00 0.00 0.00 0.00 0.00 0.00 0.00 0.00 0.00 0.00 0.01 0.04 0.03 0.04 0.10 0.23 0.42 0.31 0.28 0.52 0.58 0.52 0.26 0.14 0.17 0.11 0.11 0.08 0.05 0.06 0.18 0.19 0.16 0.01
0.14 0.14 0.14 0.16 0.21 0.29 0.40 0.39 0.36 0.37 0.25 0.12 0.03 0.00 0.00 0.00 0.00 0.00 0.00 0.00 0.00 0.00 0.00 0.01 0.03 0.03 0.04 0.06 0.15 0.21 0.17 0.14 0.14 0.08 0.12 0.20 0.36 0.25 0.08 0.07 0.06 0.05 0.02 0.03 0.04 0.02 0.00
0.15 0.20 0.24 0.31 0.33 0.39 0.46 0.48 0.45 0.40 0.27 0.10 0.02 0.00 0.00 0.00 0.00 0.00 0.00 0.00 0.00 0.00 0.00 0.00 0.02 0.03 0.02 0.01 0.03 0.06 0.04 0.04 0.04 0.01 0.05 0.03 0.19 0.07 0.03 0.03 0.03 0.05 0.02 0.00 0.00 0.00 0.00
0.26 0.28 0.31 0.42 0.47 0.49 0.54 0.51 0.49 0.40 0.23 0.08 0.01 0.01 0.01 0.00 0.00 0.00 0.00 0.00 0.00 0.00 0.00 0.00 0.02 0.02 0.01 0.00 0.01 0.02 0.03 0.01 0.01 0.00 0.01 0.01 0.06 0.03 0.01 0.04 0.03 0.02 0.01 0.01 0.00 0.00 0.00
0.35 0.41 0.45 0.51 0.62 0.63 0.64 0.61 0.59 0.46 0.17 0.05 0.01 0.02 0.01 0.00 0.00 0.01 0.00 0.00 0.00 0.00 0.00 0.00 0.01 0.02 0.01 0.00 0.01 0.01 0.02 0.00 0.00 0.00 0.00 0.01 0.01 0.02 0.05 0.07 0.06 0.02 0.01 0.01 0.00 0.00 0.00
0.45 0.49 0.70 0.82 0.98 1.00 0.88 0.73 0.59 0.40 0.14 0.03 0.00 0.02 0.01 0.00 0.02 0.01 0.00 0.00 0.00 0.00 0.00 0.00 0.00 0.00 0.00 0.01 0.01 0.01 0.01 0.00 0.00 0.00 0.00 0.00 0.02 0.02 0.03 0.01 0.02 0.03 0.01 0.00 0.01 0.00 0.00
0.60 0.58 0.58 0.83 0.93 1.08 1.18 0.78 0.48 0.28 0.06 0.01 0.02 0.02 0.00 0.01 0.00 0.00 0.00 0.00 0.00 0.00 0.00 0.00 0.00 0.00 0.00 0.01 0.01 0.01 0.00 0.00 0.00 0.00 0.00 0.00 0.00 0.02 0.05 0.03 0.00 0.04 0.02 0.01 0.00 0.01 0.01
0.52 0.44 0.48 0.74 0.86 0.97 1.00 0.87 0.51 0.20 0.03 0.00 0.03 0.01 0.01 0.01 0.00 0.00 0.00 0.00 0.00 0.00 0.00 0.00 0.00 0.00 0.00 0.01 0.00 0.00 0.00 0.00 0.00 0.00 0.00 0.00 0.00 0.00 0.01 0.00 0.00 0.00 0.00 0.00 0.01 0.02 0.01
0.58 0.44 0.43 0.69 0.90 0.91 0.79 0.66 0.47 0.25 0.03 0.00 0.02 0.00 0.00 0.00 0.00 0.00 0.00 0.00 0.00 0.00 0.00 0.00 0.00 0.00 0.00 0.00 0.01 0.01 0.00 0.00 0.00 0.00 0.00 0.00 0.00 0.00 0.00 0.00 0.00 0.00 0.00 0.00 0.01 0.00 0.00
0.66 0.60 0.54 0.71 1.15 1.17 0.90 0.60 0.39 0.24 0.05 0.01 0.01 0.00 0.00 0.00 0.00 0.00 0.00 0.00 0.00 0.00 0.00 0.00 0.00 0.00 0.00 0.00 0.00 0.01 0.00 0.00 0.00 0.00 0.00 0.00 0.00 0.00 0.00 0.00 0.00 0.00 0.00 0.00 0.00 0.00 0.00
0.55 0.68 0.61 0.59 0.92 1.18 0.97 0.70 0.38 0.15 0.02 0.01 0.00 0.00 0.00 0.00 0.00 0.00 0.00 0.00 0.00 0.00 0.00 0.00 0.00 0.00 0.00 0.00 0.00 0.00 0.00 0.00 0.00 0.00 0.00 0.02 0.00 0.00 0.01 0.00 0.00 0.00 0.00 0.00 0.00 0.00 0.00
0.65 0.66 0.76 0.65 0.66 0.82 0.81 0.56 0.28 0.10 0.01 0.00 0.00 0.00 0.00 0.00 0.00 0.00 0.00 0.00 0.00 0.00 0.00 0.00 0.00 0.00 0.00 0.00 0.00 0.00 0.00 0.00 0.00 0.00 0.00 0.03 0.02 0.03 0.02 0.00 0.00 0.00 0.00 0.00 0.00 0.00 0.00
0.79 0.81 0.81 0.87 0.87 0.63 0.56 0.39 0.20 0.11 0.02 0.00 0.00 0.00 0.00 0.00 0.00 0.00 0.00 0.00 0.00 0.00 0.00 0.00 0.00 0.00 0.00 0.00 0.00 0.00 0.00 0.00 0.00 0.00 0.00 0.03 0.02 0.01 0.02 0.01 0.00 0.00 0.00 0.00 0.00 0.00 0.00
0.56 0.88 1.03 1.06 1.04 0.75 0.53 0.25 0.15 0.06 0.00 0.00 0.00 0.00 0.00 0.00 0.00 0.00 0.00 0.00 0.00 0.00 0.00 0.00 0.00 0.01 0.01 0.01 0.02 0.02 0.01 0.00 0.00 0.00 0.00 0.00 0.01 0.01 0.02 0.01 0.00 0.00 0.00 0.00 0.00 0.00 0.00
0.62 0.73 1.14 1.16 1.12 0.90 0.59 0.21 0.14 0.02 0.00 0.00 0.00 0.00 0.00 0.00 0.00 0.00 0.00 0.00 0.00 0.00 0.00 0.01 0.01 0.02 0.04 0.02 0.08 0.05 0.02 0.00 0.00 0.00 0.00 0.00 0.00 0.02 0.02 0.02 0.00 0.00 0.00 0.00 0.00 0.00 0.00
0.51 0.52 0.91 1.16 1.02 0.76 0.51 0.23 0.11 0.00 0.00 0.00 0.00 0.00 0.00 0.00 0.00 0.00 0.00 0.00 0.00 0.00 0.00 0.01 0.06 0.03 0.08 0.09 0.06 0.03 0.01 0.00 0.00 0.00 0.00 0.00 0.01 0.02 0.03 0.06 0.01 0.00 0.00 0.00 0.00 0.00 0.00
0.70 0.65 0.87 1.02 0.79 0.57 0.32 0.12 0.04 0.00 0.00 0.00 0.00 0.00 0.00 0.00 0.00 0.00 0.00 0.00 0.00 0.00 0.00 0.00 0.07 0.14 0.13 0.16 0.09 0.01 0.00 0.00 0.00 0.00 0.00 0.00 0.00 0.00 0.00 0.00 0.00 0.00 0.00 0.00 0.00 0.00 0.00

GFSGBSN_prec_precacc24_087.txt.gz
Total_Precipitation_Accumulation
0.09 0.11 0.09 0.09 0.08 0.09 0.10 0.11 0.10 0.05 0.05 0.05 0.05 0.05 0.02 0.02 0.02 0.03 0.02 0.02 0.02 0.04 0.03 0.01 0.01 0.05 0.02 0.02 0.01 0.01 0.02 0.06 0.17 0.26 0.20 0.35 0.36 0.25 0.05 0.02 0.11 0.28 0.44 0.52 0.50 0.37 0.18
0.09 0.10 0.10 0.10 0.09 0.08 0.11 0.11 0.09 0.07 0.07 0.07 0.06 0.04 0.02 0.02 0.03 0.02 0.01 0.02 0.02 0.03 0.01 0.01 0.01 0.03 0.00 0.00 0.00 0.00 0.01 0.19 0.30 0.20 0.13 0.36 0.42 0.23 0.09 0.03 0.08 0.11 0.41 0.55 0.61 0.48 0.47
0.08 0.09 0.10 0.11 0.11 0.10 0.11 0.08 0.08 0.09 0.09 0.10 0.08 0.04 0.02 0.03 0.02 0.01 0.01 0.01 0.02 0.02 0.01 0.00 0.02 0.00 0.00 0.00 0.00 0.00 0.00 0.30 0.56 0.18 0.15 0.33 0.61 0.45 0.18 0.07 0.05 0.13 0.44 0.82 0.67 0.78 0.66
0.10 0.10 0.10 0.10 0.12 0.15 0.07 0.05 0.08 0.08 0.10 0.11 0.10 0.04 0.03 0.02 0.02 0.01 0.01 0.01 0.01 0.00 0.00 0.03 0.03 0.00 0.00 0.00 0.00 0.00 0.00 0.11 0.27 0.13 0.20 0.42 0.58 0.56 0.17 0.07 0.07 0.24 0.50 0.69 0.62 0.87 1.12
0.10 0.10 0.11 0.14 0.13 0.09 0.06 0.05 0.07 0.08 0.13 0.13 0.11 0.06 0.04 0.02 0.02 0.01 0.01 0.01 0.00 0.00 0.00 0.03 0.02 0.01 0.02 0.01 0.02 0.00 0.00 0.01 0.17 0.39 0.45 0.67 1.04 0.82 0.26 0.17 0.17 0.24 0.30 0.39 0.38 0.46 1.12
0.15 0.16 0.15 0.08 0.06 0.07 0.08 0.08 0.09 0.11 0.16 0.17 0.10 0.08 0.03 0.02 0.02 0.01 0.01 0.00 0.00 0.00 0.00 0.00 0.00 0.04 0.03 0.03 0.04 0.01 0.01 0.01 0.18 0.44 0.72 1.06 1.48 0.88 0.27 0.21 0.10 0.03 0.10 0.16 0.30 0.30 0.59
0.10 0.07 0.04 0.05 0.08 0.08 0.09 0.11 0.09 0.13 0.20 0.20 0.12 0.09 0.04 0.02 0.02 0.02 0.00 0.00 0.00 0.00 0.00 0.00 0.00 0.01 0.06 0.11 0.06 0.09 0.06 0.03 0.27 0.40 0.63 1.11 1.11 0.53 0.16 0.09 0.05 0.02 0.03 0.06 0.11 0.14 0.20
0.05 0.06 0.08 0.09 0.11 0.11 0.10 0.11 0.11 0.16 0.24 0.23 0.13 0.09 0.05 0.03 0.02 0.01 0.00 0.00 0.00 0.00 0.00 0.00 0.01 0.00 0.05 0.18 0.14 0.06 0.02 0.05 0.40 0.55 0.47 0.81 0.56 0.22 0.20 0.13 0.13 0.07 0.03 0.07 0.13 0.17 0.14
0.06 0.07 0.09 0.10 0.12 0.12 0.12 0.14 0.13 0.18 0.24 0.24 0.16 0.10 0.07 0.03 0.00 0.00 0.00 0.00 0.00 0.00 0.00 0.04 0.03 0.02 0.07 0.15 0.12 0.06 0.02 0.10 0.35 0.42 0.31 0.41 0.32 0.15 0.24 0.18 0.15 0.06 0.01 0.01 0.08 0.16 0.17
0.06 0.08 0.12 0.14 0.13 0.13 0.13 0.14 0.14 0.18 0.24 0.24 0.18 0.14 0.08 0.02 0.00 0.00 0.00 0.00 0.00 0.00 0.01 0.05 0.05 0.11 0.07 0.10 0.16 0.03 0.06 0.13 0.31 0.39 0.33 0.43 0.27 0.13 0.11 0.16 0.09 0.06 0.01 0.02 0.09 0.09 0.11
0.14 0.14 0.15 0.14 0.14 0.16 0.19 0.21 0.20 0.23 0.27 0.25 0.20 0.17 0.10 0.02 0.00 0.00 0.00 0.00 0.00 0.00 0.02 0.01 0.01 0.01 0.03 0.07 0.06 0.09 0.11 0.17 0.25 0.35 0.39 0.28 0.12 0.13 0.11 0.10 0.05 0.06 0.02 0.04 0.11 0.12 0.04
0.11 0.10 0.12 0.14 0.15 0.17 0.23 0.28 0.27 0.27 0.25 0.22 0.19 0.16 0.08 0.02 0.00 0.00 0.00 0.00 0.00 0.00 0.00 0.00 0.01 0.01 0.04 0.05 0.11 0.10 0.20 0.32 0.37 0.29 0.31 0.10 0.03 0.16 0.17 0.07 0.04 0.08 0.05 0.07 0.13 0.16 0.06
0.11 0.12 0.16 0.20 0.23 0.24 0.25 0.26 0.28 0.31 0.28 0.26 0.22 0.15 0.05 0.03 0.00 0.00 0.00 0.00 0.00 0.00 0.00 0.00 0.03 0.03 0.04 0.08 0.23 0.31 0.19 0.21 0.44 0.52 0.53 0.28 0.16 0.20 0.14 0.12 0.11 0.11 0.06 0.23 0.27 0.28 0.02
0.16 0.16 0.17 0.21 0.23 0.29 0.40 0.40 0.37 0.39 0.35 0.31 0.25 0.15 0.08 0.05 0.00 0.00 0.00 0.00 0.00 0.00 0.00 0.01 0.02 0.02 0.04 0.06 0.09 0.16 0.15 0.14 0.13 0.08 0.13 0.20 0.38 0.32 0.11 0.09 0.11 0.07 0.02 0.03 0.07 0.05 0.00
0.18 0.30 0.40 0.42 0.37 0.46 0.56 0.54 0.47 0.43 0.41 0.35 0.29 0.13 0.07 0.03 0.00 0.00 0.00 0.00 0.00 0.00 0.00 0.00 0.02 0.03 0.02 0.01 0.03 0.06 0.04 0.04 0.04 0.01 0.05 0.03 0.20 0.08 0.12 0.04 0.07 0.06 0.02 0.00 0.00 0.00 0.00
0.34 0.35 0.34 0.46 0.51 0.55 0.59 0.53 0.50 0.45 0.38 0.36 0.25 0.13 0.07 0.02 0.00 0.00 0.00 0.00 0.00 0.00 0.00 0.00 0.02 0.02 0.01 0.00 0.01 0.02 0.03 0.01 0.01 0.01 0.01 0.01 0.07 0.04 0.04 0.04 0.03 0.02 0.01 0.00 0.00 0.00 0.00
0.41 0.46 0.49 0.56 0.68 0.71 0.70 0.65 0.63 0.57 0.36 0.34 0.27 0.17 0.07 0.01 0.00 0.01 0.00 0.00 0.00 0.00 0.00 0.00 0.01 0.02 0.01 0.00 0.01 0.01 0.02 0.00 0.00 0.00 0.00 0.01 0.02 0.02 0.04 0.05 0.05 0.01 0.01 0.01 0.00 0.00 0.00
0.51 0.53 0.74 0.86 1.04 1.14 1.07 0.95 0.80 0.67 0.42 0.38 0.23 0.16 0.06 0.00 0.02 0.01 0.00 0.00 0.00 0.00 0.00 0.00 0.00 0.00 0.00 0.01 0.01 0.01 0.01 0.00 0.00 0.00 0.00 0.00 0.02 0.02 0.03 0.01 0.01 0.02 0.01 0.00 0.01 0.00 0.00
0.64 0.61 0.60 0.86 0.98 1.38 1.62 1.20 0.64 0.54 0.34 0.22 0.17 0.16 0.06 0.01 0.00 0.00 0.00 0.00 0.00 0.00 0.00 0.00 0.00 0.00 0.00 0.01 0.02 0.01 0.00 0.00 0.00 0.00 0.00 0.00 0.00 0.01 0.03 0.02 0.00 0.02 0.01 0.01 0.00 0.01 0.01
0.55 0.46 0.49 0.76 0.92 1.14 1.30 1.24 0.63 0.42 0.22 0.09 0.12 0.13 0.10 0.03 0.00 0.00 0.00 0.00 0.00 0.00 0.00 0.00 0.00 0.00 0.00 0.01 0.00 0.00 0.00 0.00 0.00 0.00 0.00 0.00 0.00 0.00 0.01 0.00 0.00 0.00 0.00 0.00 0.01 0.02 0.01
0.61 0.45 0.43 0.71 0.96 1.00 0.88 0.90 0.75 0.45 0.20 0.09 0.10 0.04 0.01 0.02 0.00 0.00 0.00 0.00 0.00 0.00 0.00 0.00 0.00 0.00 0.00 0.00 0.01 0.01 0.00 0.00 0.00 0.00 0.00 0.00 0.00 0.00 0.00 0.00 0.00 0.00 0.00 0.00 0.01 0.00 0.00
0.68 0.60 0.55 0.72 1.25 1.29 0.99 0.73 0.79 0.59 0.32 0.11 0.08 0.01 0.00 0.00 0.00 0.00 0.00 0.00 0.00 0.00 0.00 0.00 0.00 0.00 0.00 0.00 0.00 0.01 0.00 0.00 0.00 0.00 0.00 0.00 0.00 0.00 0.00 0.00 0.00 0.00 0.00 0.00 0.00 0.00 0.00
0.56 0.68 0.61 0.60 1.01 1.32 1.06 0.89 0.61 0.46 0.30 0.12 0.04 0.01 0.00 0.00 0.00 0.00 0.00 0.00 0.00 0.00 0.00 0.00 0.00 0.00 0.00 0.00 0.00 0.00 0.00 0.00 0.00 0.00 0.00 0.02 0.00 0.00 0.01 0.00 0.00 0.00 0.00 0.00 0.00 0.00 0.00
0.66 0.66 0.77 0.67 0.83 0.98 0.96 0.79 0.52 0.35 0.20 0.13 0.03 0.00 0.00 0.00 0.00 0.00 0.00 0.00 0.00 0.00 0.00 0.00 0.00 0.00 0.00 0.00 0.00 0.00 0.00 0.00 0.00 0.00 0.00 0.03 0.02 0.03 0.02 0.00 0.00 0.00 0.00 0.00 0.00 0.00 0.00
0.80 0.81 0.81 0.92 1.05 0.74 0.66 0.56 0.43 0.40 0.17 0.08 0.02 0.00 0.00 0.00 0.00 0.00 0.00 0.00 0.00 0.00 0.00 0.00 0.00 0.00 0.00 0.00 0.00 0.00 0.00 0.00 0.00 0.00 0.00 0.03 0.02 0.01 0.02 0.01 0.00 0.00 0.00 0.00 0.00 0.00 0.00
0.56 0.88 1.03 1.12 1.17 0.93 0.62 0.37 0.32 0.31 0.14 0.01 0.00 0.00 0.00 0.00 0.00 0.00 0.00 0.00 0.00 0.00 0.00 0.00 0.00 0.01 0.01 0.01 0.02 0.02 0.01 0.00 0.00 0.00 0.00 0.00 0.01 0.01 0.02 0.01 0.00 0.00 0.00 0.00 0.00 0.00 0.00
0.62 0.73 1.15 1.20 1.21 1.10 0.81 0.39 0.30 0.22 0.04 0.00 0.00 0.00 0.00 0.00 0.00 0.00 0.00 0.00 0.00 0.00 0.00 0.00 0.00 0.01 0.04 0.02 0.07 0.05 0.02 0.00 0.00 0.00 0.00 0.00 0.00 0.02 0.02 0.02 0.00 0.00 0.00 0.00 0.00 0.00 0.00
0.51 0.52 0.91 1.20 1.11 0.93 0.82 0.47 0.25 0.10 0.00 0.00 0.00 0.00 0.00 0.00 0.00 0.00 0.00 0.00 0.00 0.00 0.00 0.00 0.03 0.02 0.08 0.09 0.06 0.03 0.01 0.00 0.00 0.00 0.00 0.00 0.01 0.02 0.03 0.06 0.01 0.00 0.00 0.00 0.00 0.00 0.00
0.70 0.66 0.91 1.03 0.85 0.69 0.44 0.29 0.17 0.04 0.00 0.00 0.00 0.00 0.00 0.00 0.00 0.00 0.00 0.00 0.00 0.00 0.00 0.00 0.04 0.09 0.07 0.15 0.09 0.01 0.00 0.00 0.00 0.00 0.00 0.00 0.00 0.00 0.00 0.00 0.00 0.00 0.00 0.00 0.00 0.00 0.00

GFSGBSN_prec_precacc24_090.txt.gz
Total_Precipitation_Accumulation
0.09 0.11 0.09 0.09 0.08 0.09 0.10 0.12 0.12 0.08 0.08 0.10 0.10 0.08 0.05 0.04 0.03 0.03 0.03 0.02 0.02 0.04 0.04 0.02 0.01 0.04 0.01 0.02 0.01 0.00 0.02 0.05 0.07 0.17 0.18 0.32 0.35 0.26 0.08 0.07 0.15 0.31 0.44 0.52 0.62 0.57 0.38
0.09 0.10 0.10 0.10 0.09 0.08 0.11 0.11 0.10 0.09 0.10 0.13 0.12 0.07 0.06 0.05 0.03 0.02 0.02 0.02 0.03 0.03 0.02 0.01 0.02 0.03 0.00 0.00 0.00 0.00 0.00 0.19 0.29 0.21 0.13 0.32 0.42 0.27 0.14 0.07 0.13 0.12 0.40 0.60 0.80 0.73 0.78
0.08 0.09 0.10 0.11 0.10 0.10 0.11 0.08 0.09 0.10 0.10 0.14 0.15 0.09 0.06 0.06 0.04 0.02 0.02 0.02 0.02 0.03 0.01 0.00 0.03 0.01 0.00 0.00 0.00 0.00 0.00 0.30 0.56 0.20 0.16 0.29 0.61 0.48 0.26 0.10 0.06 0.14 0.45 0.80 0.96 1.13 1.07
0.10 0.10 0.11 0.10 0.12 0.14 0.06 0.05 0.07 0.08 0.10 0.16 0.16 0.12 0.07 0.06 0.05 0.03 0.01 0.01 0.01 0.01 0.00 0.01 0.01 0.00 0.00 0.00 0.00 0.00 0.00 0.11 0.29 0.13 0.20 0.33 0.60 0.69 0.34 0.17 0.13 0.26 0.51 0.75 0.86 1.20 1.65
0.10 0.10 0.11 0.14 0.13 0.09 0.05 0.05 0.07 0.08 0.12 0.17 0.18 0.15 0.09 0.08 0.05 0.02 0.01 0.01 0.00 0.00 0.00 0.00 0.00 0.01 0.01 0.00 0.00 0.00 0.00 0.01 0.17 0.32 0.44 0.47 0.90 0.94 0.39 0.25 0.24 0.26 0.31 0.45 0.55 0.74 1.57
0.15 0.16 0.15 0.08 0.06 0.07 0.07 0.08 0.09 0.10 0.16 0.18 0.17 0.17 0.12 0.10 0.07 0.03 0.01 0.00 0.00 0.00 0.00 0.00 0.00 0.04 0.02 0.00 0.01 0.00 0.00 0.00 0.14 0.36 0.60 0.62 1.38 1.04 0.33 0.25 0.12 0.03 0.11 0.20 0.42 0.48 0.88
0.11 0.07 0.05 0.05 0.08 0.08 0.09 0.11 0.09 0.13 0.20 0.21 0.18 0.16 0.14 0.11 0.05 0.03 0.01 0.00 0.00 0.00 0.00 0.00 0.00 0.01 0.05 0.08 0.02 0.03 0.01 0.01 0.20 0.31 0.47 0.65 1.17 0.87 0.21 0.11 0.06 0.02 0.03 0.07 0.26 0.41 0.40
0.06 0.07 0.08 0.09 0.11 0.11 0.10 0.11 0.11 0.16 0.24 0.23 0.17 0.16 0.16 0.11 0.06 0.03 0.01 0.00 0.00 0.00 0.00 0.00 0.00 0.00 0.05 0.15 0.08 0.04 0.02 0.03 0.29 0.47 0.24 0.39 0.54 0.39 0.26 0.19 0.16 0.07 0.03 0.08 0.24 0.43 0.34
0.06 0.07 0.09 0.11 0.12 0.12 0.12 0.14 0.13 0.18 0.24 0.24 0.17 0.17 0.20 0.13 0.03 0.02 0.01 0.00 0.00 0.00 0.00 0.03 0.03 0.02 0.07 0.15 0.11 0.06 0.02 0.09 0.33 0.32 0.13 0.23 0.32 0.15 0.27 0.22 0.20 0.07 0.02 0.02 0.11 0.22 0.26
0.06 0.08 0.12 0.14 0.13 0.13 0.13 0.14 0.14 0.18 0.24 0.24 0.19 0.21 0.22 0.11 0.02 0.01 0.02 0.00 0.00 0.00 0.01 0.04 0.05 0.11 0.05 0.10 0.15 0.02 0.06 0.12 0.26 0.35 0.18 0.24 0.26 0.13 0.12 0.18 0.11 0.08 0.03 0.05 0.11 0.10 0.12
0.15 0.16 0.16 0.15 0.14 0.16 0.19 0.21 0.20 0.23 0.27 0.25 0.20 0.25 0.24 0.09 0.06 0.04 0.02 0.00 0.00 0.00 0.01 0.01 0.01 0.01 0.02 0.06 0.06 0.08 0.11 0.13 0.11 0.24 0.19 0.17 0.12 0.13 0.13 0.16 0.07 0.07 0.03 0.07 0.13 0.12 0.05
0.12 0.12 0.13 0.16 0.16 0.17 0.24 0.28 0.27 0.28 0.25 0.22 0.20 0.23 0.23 0.11 0.05 0.03 0.01 0.00 0.00 0.00 0.00 0.00 0.01 0.01 0.04 0.05 0.12 0.07 0.18 0.23 0.15 0.23 0.28 0.10 0.03 0.16 0.19 0.14 0.07 0.09 0.07 0.10 0.13 0.17 0.06
0.13 0.14 0.18 0.23 0.26 0.26 0.26 0.26 0.29 0.31 0.28 0.26 0.23 0.21 0.17 0.07 0.05 0.03 0.01 0.00 0.00 0.00 0.00 0.00 0.02 0.03 0.03 0.07 0.22 0.28 0.15 0.12 0.18 0.43 0.43 0.26 0.16 0.20 0.17 0.13 0.12 0.13 0.10 0.32 0.36 0.36 0.03
0.18 0.18 0.20 0.27 0.34 0.35 0.42 0.41 0.38 0.40 0.35 0.31 0.27 0.24 0.18 0.09 0.05 0.03 0.01 0.00 0.00 0.00 0.00 0.01 0.02 0.02 0.03 0.03 0.06 0.10 0.11 0.12 0.11 0.08 0.12 0.19 0.37 0.36 0.12 0.10 0.13 0.10 0.02 0.05 0.09 0.07 0.00
0.21 0.33 0.45 0.50 0.50 0.53 0.60 0.56 0.50 0.46 0.42 0.35 0.35 0.26 0.15 0.09 0.09 0.06 0.01 0.00 0.00 0.00 0.00 0.00 0.02 0.03 0.01 0.01 0.03 0.05 0.03 0.04 0.04 0.01 0.05 0.03 0.21 0.10 0.18 0.05 0.10 0.07 0.02 0.00 0.00 0.00 0.00
0.38 0.40 0.43 0.64 0.61 0.59 0.62 0.57 0.55 0.49 0.39 0.41 0.42 0.32 0.16 0.10 0.10 0.07 0.01 0.00 0.00 0.00 0.00 0.00 0.02 0.02 0.01 0.00 0.01 0.02 0.03 0.01 0.01 0.01 0.01 0.01 0.08 0.15 0.13 0.07 0.05 0.02 0.01 0.00 0.00 0.00 0.00
0.46 0.54 0.66 0.72 0.71 0.73 0.72 0.69 0.68 0.63 0.41 0.40 0.44 0.38 0.16 0.14 0.10 0.07 0.01 0.00 0.00 0.00 0.00 0.00 0.01 0.02 0.01 0.00 0.01 0.01 0.02 0.00 0.00 0.00 0.00 0.01 0.02 0.04 0.04 0.06 0.05 0.01 0.01 0.01 0.00 0.00 0.00
0.58 0.66 0.88 0.96 1.06 1.15 1.09 0.97 0.86 0.85 0.55 0.51 0.45 0.32 0.11 0.14 0.12 0.03 0.00 0.00 0.00 0.00 0.00 0.00 0.00 0.00 0.00 0.01 0.01 0.01 0.01 0.00 0.00 0.00 0.00 0.00 0.02 0.01 0.03 0.01 0.01 0.02 0.01 0.00 0.00 0.00 0.00
0.74 0.69 0.68 0.89 0.99 1.38 1.64 1.27 0.80 0.81 0.57 0.43 0.35 0.29 0.24 0.13 0.05 0.01 0.00 0.00 0.00 0.00 0.00 0.00 0.00 0.00 0.00 0.01 0.02 0.01 0.00 0.00 0.00 0.00 0.00 0.00 0.00 0.01 0.03 0.01 0.00 0.00 0.00 0.00 0.00 0.00 0.01
0.65 0.57 0.56 0.78 0.93 1.15 1.36 1.47 0.92 0.63 0.41 0.27 0.20 0.29 0.34 0.16 0.02 0.00 0.00 0.00 0.00 0.00 0.00 0.00 0.00 0.00 0.00 0.01 0.00 0.00 0.00 0.00 0.00 0.00 0.00 0.00 0.00 0.00 0.01 0.00 0.00 0.00 0.00 0.00 0.01 0.01 0.00
0.73 0.51 0.46 0.71 0.97 1.02 1.01 1.19 1.06 0.55 0.28 0.14 0.15 0.08 0.06 0.06 0.01 0.00 0.00 0.00 0.00 0.00 0.00 0.00 0.00 0.00 0.00 0.00 0.01 0.01 0.00 0.00 0.00 0.00 0.00 0.00 0.00 0.00 0.00 0.00 0.00 0.00 0.00 0.00 0.01 0.00 0.00
0.72 0.62 0.55 0.72 1.26 1.35 1.08 0.83 0.95 0.65 0.37 0.14 0.09 0.02 0.00 0.00 0.00 0.00 0.00 0.00 0.00 0.00 0.00 0.00 0.00 0.00 0.00 0.00 0.00 0.01 0.00 0.00 0.00 0.00 0.00 0.00 0.00 0.00 0.00 0.00 0.00 0.00 0.00 0.00 0.00 0.00 0.00
0.58 0.69 0.62 0.61 1.04 1.38 1.12 0.96 0.95 0.57 0.37 0.17 0.07 0.01 0.01 0.01 0.00 0.00 0.00 0.00 0.00 0.00 0.00 0.00 0.00 0.00 0.00 0.00 0.00 0.00 0.00 0.00 0.00 0.00 0.00 0.02 0.00 0.00 0.01 0.00 0.00 0.00 0.00 0.00 0.00 0.00 0.00
0.66 0.66 0.77 0.68 0.85 1.04 1.00 0.81 0.73 0.46 0.25 0.17 0.08 0.01 0.00 0.00 0.00 0.00 0.00 0.00 0.00 0.00 0.00 0.00 0.00 0.00 0.00 0.00 0.00 0.00 0.00 0.00 0.00 0.00 0.00 0.03 0.02 0.03 0.02 0.00 0.00 0.00 0.00 0.00 0.00 0.00 0.00
0.80 0.82 0.81 0.93 1.11 0.81 0.70 0.57 0.53 0.53 0.21 0.16 0.12 0.00 0.00 0.00 0.00 0.00 0.00 0.00 0.00 0.00 0.00 0.00 0.00 0.00 0.00 0.00 0.00 0.00 0.00 0.00 0.00 0.00 0.00 0.03 0.02 0.01 0.02 0.01 0.00 0.00 0.00 0.00 0.00 0.00 0.00
0.56 0.89 1.04 1.13 1.23 1.01 0.70 0.45 0.50 0.38 0.16 0.05 0.03 0.00 0.00 0.00 0.00 0.00 0.00 0.00 0.00 0.00 0.00 0.00 0.00 0.01 0.01 0.01 0.02 0.02 0.01 0.00 0.00 0.00 0.00 0.00 0.01 0.01 0.02 0.01 0.00 0.00 0.00 0.00 0.00 0.00 0.00
0.62 0.73 1.15 1.20 1.22 1.17 0.97 0.51 0.38 0.26 0.05 0.00 0.00 0.00 0.00 0.00 0.00 0.00 0.00 0.00 0.00 0.00 0.00 0.00 0.00 0.00 0.04 0.02 0.07 0.05 0.02 0.00 0.00 0.00 0.00 0.00 0.00 0.02 0.02 0.02 0.00 0.00 0.00 0.00 0.00 0.00 0.00
0.51 0.52 0.91 1.21 1.12 0.97 0.96 0.58 0.32 0.12 0.01 0.00 0.00 0.00 0.00 0.00 0.00 0.00 0.00 0.00 0.00 0.00 0.00 0.00 0.00 0.00 0.04 0.08 0.05 0.03 0.01 0.00 0.00 0.00 0.00 0.00 0.01 0.01 0.03 0.06 0.01 0.00 0.00 0.00 0.00 0.00 0.00
0.70 0.67 0.92 1.03 0.85 0.71 0.50 0.38 0.21 0.05 0.00 0.00 0.00 0.00 0.00 0.00 0.00 0.00 0.00 0.00 0.00 0.00 0.00 0.00 0.00 0.01 0.02 0.12 0.08 0.01 0.00 0.00 0.00 0.00 0.00 0.00 0.00 0.00 0.00 0.00 0.00 0.00 0.00 0.00 0.00 0.00 0.00

GFSGBSN_prec_precacc24_093.txt.gz
Total_Precipitation_Accumulation
0.09 0.11 0.09 0.09 0.08 0.09 0.10 0.12 0.12 0.08 0.08 0.12 0.14 0.12 0.11 0.05 0.05 0.03 0.03 0.03 0.02 0.04 0.04 0.04 0.04 0.02 0.00 0.01 0.01 0.00 0.02 0.05 0.06 0.05 0.11 0.28 0.34 0.28 0.08 0.07 0.17 0.35 0.44 0.52 0.60 0.55 0.42
0.10 0.10 0.11 0.10 0.09 0.08 0.10 0.11 0.09 0.09 0.10 0.14 0.14 0.10 0.11 0.09 0.06 0.04 0.02 0.02 0.03 0.04 0.03 0.03 0.03 0.02 0.00 0.00 0.00 0.00 0.00 0.19 0.28 0.07 0.12 0.31 0.37 0.30 0.15 0.08 0.18 0.15 0.40 0.60 0.78 0.70 0.81
0.08 0.10 0.11 0.11 0.11 0.10 0.11 0.08 0.08 0.09 0.10 0.14 0.15 0.13 0.11 0.09 0.07 0.04 0.03 0.02 0.02 0.02 0.02 0.01 0.04 0.02 0.00 0.00 0.00 0.00 0.00 0.30 0.57 0.15 0.18 0.31 0.56 0.50 0.28 0.12 0.08 0.17 0.50 0.78 0.93 1.06 1.08
0.11 0.11 0.11 0.11 0.13 0.15 0.07 0.05 0.07 0.08 0.10 0.15 0.16 0.13 0.11 0.10 0.09 0.05 0.02 0.02 0.01 0.01 0.00 0.01 0.03 0.00 0.00 0.00 0.00 0.00 0.00 0.11 0.29 0.12 0.21 0.33 0.50 0.69 0.37 0.27 0.19 0.27 0.54 0.78 0.85 1.16 1.65
0.11 0.11 0.12 0.15 0.14 0.09 0.06 0.05 0.07 0.08 0.12 0.16 0.18 0.16 0.17 0.19 0.11 0.05 0.03 0.01 0.01 0.01 0.01 0.02 0.02 0.01 0.01 0.00 0.00 0.00 0.00 0.01 0.15 0.25 0.39 0.43 0.66 0.91 0.42 0.42 0.34 0.29 0.35 0.49 0.56 0.71 1.73
0.16 0.17 0.17 0.09 0.07 0.08 0.08 0.09 0.09 0.11 0.15 0.17 0.17 0.18 0.17 0.17 0.11 0.06 0.02 0.01 0.01 0.00 0.00 0.01 0.00 0.04 0.02 0.00 0.00 0.00 0.00 0.00 0.06 0.24 0.53 0.47 0.92 0.98 0.38 0.41 0.24 0.04 0.12 0.21 0.43 0.50 1.02
0.11 0.09 0.06 0.07 0.10 0.09 0.10 0.12 0.10 0.13 0.20 0.21 0.18 0.16 0.17 0.19 0.10 0.05 0.02 0.01 0.02 0.01 0.00 0.00 0.00 0.01 0.05 0.04 0.00 0.02 0.00 0.01 0.11 0.20 0.40 0.46 0.87 0.88 0.23 0.14 0.08 0.02 0.05 0.09 0.28 0.43 0.48
0.07 0.08 0.09 0.11 0.13 0.13 0.12 0.12 0.11 0.17 0.24 0.23 0.17 0.16 0.17 0.17 0.10 0.05 0.03 0.03 0.01 0.00 0.00 0.00 0.00 0.00 0.04 0.08 0.01 0.02 0.00 0.03 0.10 0.35 0.22 0.23 0.45 0.57 0.35 0.21 0.19 0.09 0.05 0.09 0.26 0.50 0.51
0.06 0.07 0.10 0.11 0.13 0.14 0.14 0.16 0.14 0.19 0.24 0.24 0.17 0.17 0.21 0.20 0.07 0.03 0.03 0.03 0.01 0.00 0.00 0.02 0.02 0.02 0.06 0.12 0.08 0.06 0.02 0.03 0.04 0.28 0.10 0.16 0.30 0.20 0.28 0.26 0.25 0.09 0.03 0.02 0.15 0.28 0.30
0.07 0.09 0.12 0.15 0.14 0.14 0.13 0.15 0.15 0.19 0.25 0.24 0.19 0.21 0.25 0.17 0.04 0.02 0.04 0.03 0.02 0.00 0.01 0.02 0.03 0.04 0.04 0.09 0.14 0.02 0.06 0.07 0.15 0.29 0.10 0.17 0.26 0.14 0.11 0.19 0.14 0.10 0.03 0.05 0.11 0.10 0.13
0.17 0.18 0.18 0.17 0.16 0.16 0.20 0.22 0.22 0.24 0.28 0.25 0.20 0.24 0.27 0.14 0.08 0.06 0.05 0.05 0.03 0.00 0.02 0.01 0.01 0.00 0.02 0.05 0.05 0.07 0.11 0.13 0.10 0.22 0.10 0.08 0.12 0.13 0.12 0.16 0.09 0.09 0.03 0.08 0.13 0.12 0.05
0.15 0.14 0.16 0.18 0.18 0.19 0.26 0.31 0.30 0.30 0.27 0.23 0.20 0.23 0.25 0.17 0.06 0.06 0.05 0.03 0.01 0.02 0.01 0.00 0.01 0.01 0.03 0.04 0.12 0.07 0.17 0.23 0.13 0.20 0.17 0.10 0.03 0.15 0.19 0.16 0.08 0.10 0.10 0.12 0.13 0.17 0.06
0.14 0.15 0.20 0.25 0.28 0.30 0.37 0.42 0.42 0.34 0.29 0.27 0.23 0.22 0.18 0.09 0.06 0.07 0.06 0.02 0.05 0.01 0.00 0.00 0.02 0.02 0.02 0.06 0.21 0.28 0.15 0.12 0.16 0.40 0.26 0.16 0.13 0.20 0.19 0.21 0.16 0.15 0.19 0.36 0.39 0.37 0.03
0.20 0.20 0.22 0.30 0.39 0.51 0.66 0.56 0.43 0.44 0.37 0.33 0.27 0.24 0.18 0.10 0.07 0.09 0.08 0.04 0.03 0.01 0.00 0.01 0.02 0.02 0.02 0.02 0.04 0.09 0.10 0.08 0.08 0.08 0.07 0.11 0.32 0.37 0.13 0.11 0.16 0.16 0.06 0.06 0.09 0.07 0.00
0.23 0.35 0.48 0.54 0.64 0.78 0.69 0.61 0.52 0.49 0.49 0.40 0.36 0.26 0.16 0.10 0.13 0.14 0.10 0.05 0.01 0.01 0.00 0.00 0.02 0.03 0.01 0.01 0.02 0.05 0.03 0.03 0.04 0.01 0.05 0.03 0.22 0.12 0.18 0.06 0.10 0.07 0.02 0.00 0.00 0.00 0.00
0.40 0.43 0.47 0.72 0.81 0.73 0.67 0.59 0.57 0.56 0.50 0.49 0.44 0.37 0.25 0.15 0.18 0.21 0.12 0.02 0.01 0.00 0.00 0.00 0.02 0.02 0.01 0.00 0.01 0.02 0.03 0.01 0.01 0.01 0.01 0.01 0.10 0.27 0.14 0.08 0.05 0.02 0.01 0.00 0.00 0.00 0.00
0.49 0.57 0.69 0.82 0.92 0.88 0.75 0.69 0.70 0.69 0.50 0.52 0.46 0.41 0.26 0.31 0.21 0.23 0.08 0.02 0.01 0.00 0.00 0.00 0.01 0.02 0.01 0.00 0.01 0.01 0.02 0.00 0.01 0.00 0.00 0.01 0.03 0.07 0.04 0.06 0.05 0.01 0.01 0.01 0.00 0.00 0.00
0.63 0.73 0.95 1.06 1.20 1.21 1.10 0.98 0.87 0.88 0.59 0.61 0.52 0.36 0.17 0.31 0.24 0.10 0.01 0.01 0.00 0.00 0.00 0.00 0.00 0.00 0.00 0.01 0.01 0.01 0.01 0.00 0.00 0.00 0.00 0.00 0.02 0.01 0.03 0.01 0.01 0.02 0.01 0.00 0.00 0.00 0.00
0.85 0.80 0.75 0.97 1.06 1.41 1.64 1.28 0.83 0.88 0.70 0.59 0.45 0.31 0.36 0.20 0.09 0.01 0.01 0.02 0.00 0.00 0.00 0.00 0.00 0.00 0.00 0.01 0.02 0.01 0.00 0.00 0.00 0.00 0.00 0.00 0.00 0.01 0.03 0.01 0.00 0.00 0.00 0.00 0.00 0.00 0.00
0.80 0.63 0.60 0.83 0.96 1.16 1.38 1.49 0.95 0.71 0.55 0.55 0.32 0.36 0.56 0.33 0.04 0.01 0.04 0.02 0.00 0.00 0.00 0.00 0.00 0.00 0.00 0.01 0.00 0.00 0.00 0.00 0.00 0.00 0.00 0.00 0.00 0.00 0.01 0.00 0.00 0.00 0.00 0.00 0.01 0.01 0.00
0.78 0.55 0.48 0.74 0.97 1.03 1.02 1.24 1.30 0.70 0.38 0.46 0.25 0.11 0.10 0.11 0.04 0.01 0.02 0.00 0.00 0.00 0.00 0.00 0.00 0.00 0.00 0.00 0.01 0.01 0.00 0.00 0.00 0.00 0.00 0.00 0.00 0.00 0.00 0.00 0.00 0.00 0.00 0.00 0.00 0.00 0.00
0.77 0.64 0.57 0.73 1.26 1.36 1.09 0.93 1.20 0.68 0.40 0.23 0.11 0.02 0.00 0.01 0.02 0.04 0.01 0.00 0.00 0.00 0.00 0.00 0.00 0.00 0.00 0.00 0.00 0.01 0.00 0.00 0.00 0.00 0.00 0.00 0.00 0.00 0.00 0.00 0.00 0.00 0.00 0.00 0.00 0.00 0.00
0.59 0.70 0.62 0.62 1.06 1.40 1.17 1.04 1.27 0.58 0.37 0.18 0.07 0.01 0.01 0.02 0.02 0.02 0.01 0.00 0.00 0.00 0.00 0.00 0.00 0.00 0.00 0.00 0.00 0.00 0.00 0.00 0.00 0.00 0.00 0.01 0.00 0.00 0.01 0.00 0.00 0.00 0.00 0.00 0.00 0.00 0.00
0.67 0.67 0.77 0.70 0.94 1.14 1.04 0.84 0.88 0.47 0.25 0.17 0.08 0.01 0.00 0.00 0.01 0.00 0.00 0.00 0.00 0.00 0.00 0.00 0.00 0.00 0.00 0.00 0.00 0.00 0.00 0.00 0.00 0.00 0.00 0.03 0.02 0.03 0.02 0.00 0.00 0.00 0.00 0.00 0.00 0.00 0.00
0.80 0.82 0.81 0.94 1.15 0.87 0.73 0.58 0.55 0.54 0.21 0.17 0.12 0.00 0.00 0.00 0.00 0.00 0.00 0.00 0.00 0.00 0.00 0.00 0.00 0.00 0.00 0.00 0.00 0.00 0.00 0.00 0.00 0.00 0.00 0.03 0.02 0.01 0.02 0.01 0.00 0.00 0.00 0.00 0.00 0.00 0.00
0.56 0.89 1.04 1.13 1.25 1.03 0.71 0.47 0.51 0.39 0.16 0.05 0.03 0.00 0.00 0.00 0.00 0.00 0.00 0.00 0.00 0.00 0.00 0.00 0.00 0.01 0.00 0.01 0.02 0.02 0.01 0.00 0.00 0.00 0.00 0.00 0.01 0.01 0.02 0.01 0.00 0.00 0.00 0.00 0.00 0.00 0.00
0.62 0.73 1.15 1.21 1.24 1.20 1.01 0.53 0.39 0.26 0.05 0.00 0.00 0.00 0.00 0.00 0.00 0.00 0.00 0.00 0.00 0.00 0.00 0.00 0.00 0.00 0.03 0.02 0.06 0.05 0.02 0.00 0.00 0.00 0.00 0.00 0.00 0.02 0.01 0.02 0.00 0.00 0.00 0.00 0.00 0.00 0.00
0.51 0.52 0.91 1.21 1.13 0.99 0.99 0.59 0.33 0.12 0.01 0.00 0.00 0.00 0.00 0.00 0.00 0.00 0.00 0.00 0.00 0.00 0.00 0.00 0.00 0.00 0.00 0.03 0.04 0.03 0.01 0.00 0.00 0.00 0.00 0.00 0.01 0.01 0.02 0.05 0.01 0.00 0.00 0.00 0.00 0.00 0.00
0.70 0.67 0.92 1.03 0.87 0.72 0.51 0.38 0.21 0.05 0.00 0.00 0.00 0.00 0.00 0.00 0.00 0.00 0.00 0.00 0.00 0.00 0.00 0.00 0.00 0.00 0.00 0.03 0.05 0.01 0.00 0.00 0.00 0.00 0.00 0.00 0.00 0.00 0.00 0.00 0.00 0.00 0.00 0.00 0.00 0.00 0.00

GFSGBSN_prec_precacc24_096.txt.gz
Total_Precipitation_Accumulation
0.09 0.11 0.10 0.09 0.09 0.09 0.10 0.12 0.11 0.07 0.08 0.11 0.14 0.12 0.11 0.10 0.10 0.05 0.05 0.03 0.02 0.04 0.04 0.04 0.04 0.02 0.00 0.00 0.00 0.00 0.02 0.05 0.06 0.04 0.08 0.22 0.31 0.28 0.09 0.07 0.16 0.34 0.42 0.51 0.58 0.55 0.43
0.10 0.10 0.11 0.10 0.10 0.09 0.11 0.11 0.09 0.08 0.09 0.13 0.13 0.10 0.10 0.10 0.09 0.06 0.04 0.03 0.03 0.03 0.03 0.04 0.04 0.02 0.00 0.00 0.00 0.00 0.00 0.19 0.28 0.05 0.07 0.21 0.31 0.32 0.19 0.09 0.17 0.15 0.38 0.57 0.77 0.70 0.81
0.09 0.10 0.11 0.12 0.12 0.11 0.12 0.08 0.08 0.09 0.09 0.13 0.14 0.13 0.11 0.09 0.09 0.08 0.06 0.04 0.02 0.02 0.02 0.01 0.04 0.02 0.00 0.00 0.00 0.00 0.00 0.30 0.57 0.12 0.16 0.25 0.50 0.56 0.35 0.13 0.08 0.16 0.49 0.75 0.86 1.01 1.08
0.11 0.12 0.12 0.13 0.15 0.16 0.08 0.06 0.07 0.08 0.09 0.14 0.15 0.13 0.11 0.11 0.13 0.13 0.07 0.04 0.01 0.01 0.00 0.01 0.03 0.00 0.00 0.00 0.00 0.00 0.00 0.11 0.29 0.11 0.20 0.31 0.44 0.68 0.38 0.27 0.20 0.30 0.65 0.86 0.84 1.11 1.63
0.11 0.12 0.14 0.18 0.17 0.12 0.07 0.07 0.08 0.09 0.12 0.16 0.17 0.16 0.17 0.20 0.19 0.14 0.09 0.04 0.01 0.01 0.01 0.03 0.02 0.01 0.01 0.00 0.00 0.00 0.00 0.01 0.15 0.21 0.37 0.40 0.52 0.78 0.40 0.41 0.37 0.31 0.45 0.63 0.62 0.71 1.74
0.14 0.18 0.19 0.12 0.09 0.10 0.10 0.12 0.11 0.13 0.17 0.17 0.16 0.17 0.17 0.18 0.20 0.15 0.05 0.02 0.02 0.01 0.00 0.01 0.01 0.04 0.02 0.00 0.00 0.00 0.00 0.00 0.04 0.17 0.42 0.40 0.69 0.72 0.35 0.42 0.29 0.09 0.13 0.25 0.48 0.50 1.02
0.11 0.11 0.10 0.10 0.13 0.12 0.13 0.15 0.13 0.16 0.21 0.21 0.17 0.16 0.17 0.19 0.17 0.08 0.03 0.02 0.03 0.02 0.00 0.00 0.00 0.01 0.01 0.00 0.00 0.01 0.00 0.00 0.04 0.06 0.25 0.36 0.68 0.73 0.22 0.14 0.15 0.08 0.11 0.12 0.35 0.47 0.48
0.07 0.10 0.13 0.14 0.16 0.16 0.15 0.15 0.14 0.19 0.25 0.24 0.17 0.15 0.17 0.17 0.16 0.07 0.04 0.05 0.04 0.01 0.00 0.00 0.00 0.00 0.01 0.00 0.00 0.01 0.00 0.01 0.02 0.06 0.14 0.19 0.33 0.56 0.41 0.21 0.19 0.13 0.09 0.14 0.29 0.52 0.51
0.06 0.08 0.12 0.14 0.15 0.16 0.16 0.17 0.16 0.21 0.29 0.28 0.17 0.17 0.21 0.24 0.15 0.07 0.05 0.05 0.01 0.00 0.00 0.00 0.00 0.01 0.03 0.05 0.04 0.01 0.00 0.02 0.02 0.19 0.08 0.13 0.26 0.22 0.29 0.27 0.27 0.12 0.05 0.04 0.18 0.29 0.30
0.06 0.09 0.13 0.16 0.16 0.16 0.15 0.16 0.17 0.22 0.31 0.29 0.20 0.21 0.25 0.21 0.07 0.04 0.05 0.03 0.02 0.00 0.02 0.01 0.01 0.00 0.02 0.08 0.11 0.01 0.02 0.03 0.05 0.25 0.09 0.13 0.25 0.14 0.09 0.20 0.17 0.13 0.05 0.06 0.13 0.11 0.13
0.16 0.18 0.20 0.20 0.19 0.19 0.23 0.26 0.27 0.30 0.34 0.31 0.24 0.24 0.27 0.16 0.09 0.07 0.06 0.05 0.04 0.01 0.06 0.01 0.00 0.00 0.01 0.03 0.04 0.05 0.07 0.06 0.04 0.21 0.10 0.06 0.12 0.15 0.11 0.16 0.14 0.14 0.06 0.09 0.13 0.13 0.05
0.13 0.14 0.18 0.22 0.22 0.23 0.30 0.39 0.53 0.44 0.36 0.33 0.24 0.24 0.25 0.19 0.08 0.07 0.05 0.04 0.01 0.05 0.04 0.01 0.01 0.00 0.01 0.03 0.12 0.06 0.15 0.19 0.09 0.18 0.16 0.10 0.03 0.15 0.18 0.18 0.18 0.14 0.15 0.14 0.15 0.17 0.06
0.13 0.16 0.23 0.29 0.31 0.33 0.44 0.62 0.57 0.40 0.34 0.35 0.27 0.23 0.19 0.10 0.09 0.08 0.06 0.03 0.06 0.04 0.01 0.01 0.01 0.00 0.01 0.05 0.21 0.26 0.13 0.11 0.14 0.32 0.19 0.13 0.12 0.21 0.20 0.24 0.26 0.18 0.21 0.37 0.38 0.37 0.03
0.18 0.20 0.25 0.34 0.44 0.59 0.77 0.75 0.55 0.49 0.43 0.38 0.30 0.25 0.19 0.10 0.09 0.11 0.09 0.07 0.06 0.03 0.01 0.01 0.01 0.00 0.01 0.02 0.03 0.07 0.10 0.07 0.07 0.07 0.06 0.07 0.29 0.42 0.19 0.16 0.29 0.24 0.07 0.07 0.09 0.07 0.01
0.23 0.37 0.53 0.59 0.72 0.86 0.94 0.73 0.55 0.51 0.55 0.45 0.39 0.28 0.17 0.11 0.14 0.15 0.12 0.08 0.03 0.03 0.00 0.00 0.02 0.02 0.02 0.01 0.01 0.04 0.03 0.03 0.04 0.01 0.05 0.02 0.22 0.13 0.21 0.11 0.18 0.08 0.02 0.00 0.00 0.00 0.00
0.40 0.48 0.53 0.78 0.89 0.87 0.93 0.65 0.61 0.60 0.54 0.52 0.45 0.38 0.25 0.17 0.19 0.23 0.16 0.04 0.03 0.01 0.00 0.00 0.02 0.02 0.01 0.00 0.01 0.01 0.03 0.01 0.01 0.01 0.01 0.01 0.13 0.29 0.16 0.08 0.05 0.02 0.01 0.00 0.00 0.00 0.00
0.51 0.64 0.78 0.87 1.00 1.10 0.95 0.75 0.74 0.72 0.53 0.53 0.46 0.42 0.36 0.49 0.30 0.32 0.12 0.04 0.06 0.00 0.00 0.00 0.01 0.02 0.01 0.00 0.01 0.01 0.01 0.00 0.01 0.00 0.00 0.01 0.04 0.09 0.06 0.06 0.04 0.01 0.01 0.01 0.00 0.00 0.00
0.65 0.80 1.00 1.09 1.26 1.32 1.14 1.02 0.90 0.92 0.61 0.61 0.53 0.37 0.41 0.66 0.41 0.18 0.03 0.08 0.05 0.00 0.00 0.00 0.00 0.00 0.00 0.01 0.01 0.01 0.01 0.01 0.00 0.00 0.00 0.00 0.02 0.01 0.02 0.01 0.01 0.02 0.01 0.00 0.00 0.00 0.00
0.85 0.84 0.77 0.98 1.10 1.43 1.65 1.29 0.84 0.93 0.72 0.60 0.47 0.33 0.52 0.37 0.16 0.04 0.05 0.10 0.03 0.00 0.00 0.00 0.00 0.00 0.00 0.01 0.02 0.01 0.00 0.00 0.00 0.00 0.00 0.00 0.00 0.01 0.02 0.01 0.00 0.00 0.00 0.00 0.00 0.00 0.00
0.80 0.64 0.61 0.84 0.98 1.17 1.40 1.54 1.00 0.80 0.60 0.57 0.34 0.36 0.77 0.49 0.07 0.01 0.09 0.08 0.02 0.00 0.00 0.00 0.00 0.00 0.00 0.01 0.00 0.00 0.00 0.00 0.00 0.00 0.00 0.00 0.00 0.00 0.01 0.00 0.00 0.00 0.00 0.00 0.01 0.01 0.00
0.74 0.56 0.49 0.75 0.99 1.04 1.05 1.39 1.55 0.90 0.50 0.50 0.27 0.11 0.14 0.15 0.06 0.03 0.06 0.03 0.00 0.00 0.00 0.00 0.00 0.00 0.00 0.00 0.01 0.01 0.00 0.00 0.00 0.00 0.00 0.00 0.00 0.00 0.00 0.00 0.00 0.00 0.00 0.00 0.00 0.00 0.00
0.67 0.64 0.57 0.74 1.28 1.37 1.11 1.01 1.29 0.78 0.53 0.29 0.12 0.02 0.00 0.02 0.03 0.10 0.04 0.01 0.00 0.00 0.00 0.00 0.00 0.00 0.00 0.00 0.00 0.01 0.00 0.00 0.00 0.00 0.00 0.00 0.00 0.00 0.00 0.00 0.00 0.00 0.00 0.00 0.00 0.00 0.00
0.48 0.68 0.63 0.62 1.09 1.41 1.18 1.09 1.34 0.59 0.40 0.19 0.07 0.01 0.01 0.05 0.07 0.04 0.01 0.00 0.00 0.00 0.00 0.00 0.00 0.00 0.00 0.00 0.00 0.00 0.00 0.00 0.00 0.00 0.00 0.01 0.00 0.00 0.01 0.00 0.00 0.00 0.00 0.00 0.00 0.00 0.00
0.59 0.65 0.77 0.70 0.95 1.14 1.05 0.87 0.91 0.48 0.25 0.17 0.08 0.01 0.00 0.01 0.01 0.00 0.00 0.00 0.00 0.00 0.00 0.00 0.00 0.00 0.00 0.00 0.00 0.00 0.00 0.00 0.00 0.00 0.00 0.03 0.01 0.02 0.02 0.00 0.00 0.00 0.00 0.00 0.00 0.00 0.00
0.70 0.80 0.81 0.94 1.15 0.87 0.73 0.58 0.56 0.54 0.21 0.17 0.12 0.00 0.00 0.00 0.00 0.00 0.00 0.00 0.00 0.00 0.00 0.00 0.00 0.00 0.00 0.00 0.00 0.00 0.00 0.00 0.00 0.00 0.00 0.03 0.02 0.01 0.02 0.01 0.00 0.00 0.00 0.00 0.00 0.00 0.00
0.46 0.85 1.04 1.13 1.25 1.03 0.71 0.47 0.51 0.39 0.16 0.05 0.03 0.00 0.00 0.00 0.00 0.00 0.00 0.00 0.00 0.00 0.00 0.00 0.00 0.00 0.00 0.01 0.01 0.02 0.01 0.00 0.00 0.00 0.00 0.00 0.01 0.01 0.02 0.01 0.00 0.00 0.00 0.00 0.00 0.00 0.00
0.46 0.70 1.16 1.24 1.25 1.20 1.01 0.53 0.39 0.26 0.05 0.00 0.00 0.00 0.00 0.00 0.00 0.00 0.00 0.00 0.00 0.00 0.00 0.00 0.00 0.00 0.02 0.01 0.02 0.04 0.02 0.00 0.00 0.00 0.00 0.00 0.00 0.01 0.01 0.02 0.00 0.00 0.00 0.00 0.00 0.00 0.00
0.40 0.49 0.92 1.29 1.13 1.00 1.00 0.59 0.33 0.12 0.01 0.00 0.00 0.00 0.00 0.00 0.00 0.00 0.00 0.00 0.00 0.00 0.00 0.00 0.00 0.00 0.00 0.01 0.01 0.02 0.01 0.00 0.00 0.00 0.00 0.00 0.01 0.01 0.02 0.04 0.01 0.00 0.00 0.00 0.00 0.00 0.00
0.64 0.66 0.92 1.09 0.88 0.72 0.51 0.38 0.21 0.05 0.00 0.00 0.00 0.00 0.00 0.00 0.00 0.00 0.00 0.00 0.00 0.00 0.00 0.00 0.00 0.00 0.00 0.00 0.00 0.00 0.00 0.00 0.00 0.00 0.00 0.00 0.00 0.00 0.00 0.00 0.00 0.00 0.00 0.00 0.00 0.00 0.00

GFSGBSN_prec_precacc24_102.txt.gz
Total_Precipitation_Accumulation
0.08 0.10 0.10 0.10 0.10 0.10 0.12 0.14 0.13 0.08 0.08 0.11 0.13 0.11 0.11 0.10 0.09 0.07 0.09 0.13 0.16 0.06 0.04 0.04 0.04 0.02 0.00 0.00 0.00 0.00 0.01 0.02 0.03 0.03 0.05 0.14 0.20 0.23 0.09 0.07 0.13 0.25 0.36 0.47 0.43 0.46 0.40
0.07 0.08 0.10 0.10 0.11 0.11 0.14 0.14 0.12 0.10 0.11 0.13 0.12 0.09 0.10 0.09 0.09 0.06 0.09 0.14 0.14 0.08 0.03 0.04 0.05 0.02 0.00 0.00 0.00 0.00 0.00 0.18 0.26 0.05 0.04 0.10 0.20 0.29 0.18 0.10 0.18 0.15 0.35 0.49 0.67 0.51 0.67
0.05 0.05 0.07 0.10 0.12 0.14 0.15 0.11 0.10 0.11 0.13 0.14 0.13 0.12 0.11 0.08 0.08 0.09 0.14 0.17 0.20 0.12 0.03 0.02 0.06 0.03 0.00 0.00 0.00 0.00 0.00 0.30 0.54 0.09 0.07 0.09 0.30 0.44 0.33 0.15 0.09 0.16 0.46 0.56 0.76 0.82 0.95
0.04 0.04 0.05 0.09 0.13 0.18 0.11 0.09 0.10 0.14 0.14 0.17 0.16 0.13 0.10 0.11 0.13 0.14 0.15 0.13 0.08 0.06 0.04 0.04 0.05 0.01 0.00 0.00 0.00 0.00 0.00 0.11 0.29 0.08 0.13 0.18 0.35 0.52 0.35 0.27 0.18 0.26 0.60 0.76 0.68 0.94 1.35
0.04 0.04 0.05 0.10 0.14 0.13 0.10 0.10 0.14 0.14 0.17 0.23 0.19 0.16 0.17 0.19 0.18 0.25 0.36 0.17 0.10 0.07 0.07 0.05 0.04 0.02 0.01 0.00 0.00 0.00 0.00 0.01 0.15 0.21 0.35 0.32 0.44 0.58 0.29 0.37 0.32 0.25 0.45 0.69 0.66 0.66 1.52
0.05 0.07 0.09 0.11 0.12 0.13 0.14 0.17 0.18 0.23 0.34 0.31 0.23 0.21 0.18 0.17 0.20 0.22 0.26 0.32 0.24 0.09 0.08 0.05 0.04 0.03 0.00 0.00 0.00 0.00 0.00 0.00 0.03 0.17 0.42 0.28 0.62 0.60 0.19 0.33 0.27 0.11 0.17 0.31 0.59 0.54 1.00
0.09 0.12 0.14 0.19 0.16 0.16 0.18 0.24 0.25 0.36 0.42 0.38 0.36 0.25 0.20 0.19 0.16 0.15 0.15 0.15 0.22 0.23 0.08 0.02 0.01 0.00 0.00 0.00 0.00 0.00 0.00 0.00 0.01 0.08 0.17 0.18 0.63 0.61 0.11 0.10 0.15 0.08 0.12 0.18 0.48 0.66 0.48
0.15 0.21 0.35 0.26 0.18 0.18 0.23 0.25 0.29 0.41 0.41 0.36 0.32 0.23 0.20 0.17 0.18 0.16 0.07 0.10 0.08 0.09 0.05 0.03 0.01 0.00 0.00 0.00 0.00 0.00 0.00 0.00 0.00 0.01 0.03 0.06 0.28 0.52 0.39 0.19 0.15 0.10 0.10 0.16 0.34 0.61 0.50
0.30 0.39 0.30 0.17 0.14 0.20 0.26 0.30 0.38 0.37 0.40 0.44 0.38 0.28 0.26 0.27 0.23 0.29 0.16 0.08 0.02 0.00 0.01 0.00 0.00 0.00 0.00 0.00 0.00 0.00 0.00 0.00 0.00 0.00 0.02 0.07 0.23 0.17 0.27 0.27 0.20 0.13 0.06 0.09 0.29 0.34 0.32
0.45 0.31 0.16 0.10 0.13 0.19 0.25 0.27 0.27 0.34 0.43 0.44 0.44 0.44 0.33 0.23 0.12 0.13 0.38 0.27 0.05 0.01 0.05 0.02 0.01 0.00 0.00 0.00 0.00 0.00 0.00 0.00 0.00 0.00 0.01 0.07 0.21 0.07 0.10 0.23 0.19 0.14 0.07 0.12 0.29 0.30 0.40
0.45 0.21 0.12 0.12 0.16 0.20 0.28 0.35 0.41 0.49 0.65 0.59 0.46 0.35 0.31 0.17 0.16 0.13 0.09 0.10 0.05 0.02 0.14 0.05 0.01 0.01 0.01 0.00 0.00 0.00 0.00 0.01 0.00 0.00 0.01 0.06 0.14 0.10 0.07 0.23 0.21 0.20 0.10 0.12 0.14 0.16 0.46
0.30 0.12 0.11 0.15 0.18 0.21 0.32 0.48 0.71 0.80 0.62 0.40 0.32 0.28 0.25 0.20 0.10 0.12 0.07 0.05 0.02 0.11 0.14 0.04 0.01 0.01 0.02 0.02 0.10 0.01 0.02 0.01 0.00 0.02 0.09 0.09 0.05 0.08 0.15 0.18 0.27 0.19 0.16 0.14 0.16 0.24 0.36
0.18 0.08 0.13 0.19 0.22 0.25 0.43 0.77 0.88 0.59 0.39 0.37 0.34 0.31 0.19 0.11 0.15 0.12 0.07 0.06 0.10 0.15 0.07 0.05 0.01 0.01 0.02 0.06 0.21 0.08 0.01 0.00 0.09 0.24 0.18 0.12 0.09 0.10 0.18 0.34 0.33 0.22 0.25 0.48 0.47 0.50 0.23
0.11 0.11 0.19 0.28 0.36 0.48 0.74 1.03 0.77 0.55 0.47 0.40 0.33 0.27 0.19 0.10 0.13 0.13 0.10 0.17 0.20 0.09 0.07 0.02 0.00 0.01 0.02 0.02 0.03 0.03 0.03 0.00 0.05 0.07 0.10 0.07 0.26 0.32 0.19 0.29 0.34 0.32 0.25 0.23 0.19 0.20 0.21
0.12 0.24 0.42 0.44 0.57 0.75 0.89 0.80 0.61 0.54 0.55 0.45 0.42 0.33 0.20 0.13 0.16 0.18 0.15 0.20 0.21 0.09 0.02 0.01 0.01 0.02 0.02 0.01 0.01 0.02 0.01 0.02 0.06 0.03 0.07 0.05 0.28 0.15 0.33 0.30 0.24 0.08 0.02 0.00 0.06 0.03 0.08
0.24 0.33 0.42 0.58 0.68 0.67 0.81 0.65 0.64 0.61 0.54 0.53 0.55 0.42 0.29 0.23 0.20 0.26 0.22 0.15 0.14 0.03 0.00 0.00 0.03 0.02 0.01 0.00 0.00 0.01 0.03 0.03 0.06 0.01 0.02 0.06 0.23 0.40 0.31 0.25 0.07 0.01 0.00 0.00 0.01 0.03 0.05
0.28 0.37 0.55 0.63 0.76 0.84 0.84 0.75 0.76 0.73 0.53 0.53 0.49 0.43 0.38 0.57 0.33 0.38 0.19 0.13 0.15 0.01 0.00 0.01 0.02 0.02 0.01 0.00 0.00 0.02 0.02 0.01 0.02 0.02 0.03 0.07 0.30 0.25 0.09 0.06 0.02 0.00 0.00 0.00 0.00 0.00 0.00
0.43 0.55 0.66 0.71 0.96 1.02 1.00 1.00 0.92 0.93 0.61 0.61 0.54 0.42 0.50 0.73 0.48 0.24 0.08 0.11 0.13 0.00 0.00 0.00 0.01 0.01 0.00 0.00 0.01 0.02 0.02 0.02 0.01 0.03 0.10 0.04 0.08 0.07 0.02 0.00 0.00 0.00 0.00 0.00 0.00 0.00 0.00
0.57 0.50 0.48 0.57 0.73 1.12 1.50 1.27 0.86 0.94 0.72 0.60 0.49 0.47 0.73 0.46 0.20 0.07 0.10 0.15 0.05 0.00 0.02 0.04 0.04 0.00 0.00 0.02 0.02 0.01 0.01 0.00 0.00 0.00 0.00 0.00 0.01 0.03 0.02 0.01 0.00 0.00 0.00 0.00 0.00 0.00 0.00
0.46 0.36 0.32 0.45 0.58 0.91 1.31 1.58 1.02 0.81 0.60 0.57 0.35 0.45 0.89 0.55 0.08 0.02 0.13 0.13 0.03 0.00 0.00 0.01 0.01 0.00 0.01 0.01 0.00 0.00 0.00 0.00 0.00 0.00 0.00 0.00 0.00 0.01 0.01 0.00 0.00 0.00 0.00 0.00 0.01 0.00 0.00
0.26 0.17 0.19 0.42 0.59 0.78 1.04 1.59 1.68 0.91 0.50 0.50 0.27 0.12 0.15 0.16 0.07 0.04 0.09 0.05 0.00 0.00 0.01 0.00 0.01 0.00 0.01 0.00 0.00 0.00 0.00 0.00 0.00 0.00 0.00 0.00 0.00 0.00 0.00 0.00 0.00 0.00 0.00 0.00 0.00 0.00 0.00
0.14 0.09 0.15 0.42 0.92 1.12 1.05 1.05 1.36 0.82 0.54 0.29 0.12 0.03 0.01 0.03 0.03 0.14 0.06 0.01 0.00 0.00 0.01 0.01 0.01 0.00 0.00 0.00 0.00 0.00 0.00 0.00 0.00 0.00 0.00 0.00 0.00 0.00 0.00 0.00 0.00 0.00 0.00 0.00 0.00 0.00 0.00
0.07 0.08 0.12 0.29 0.78 1.19 1.16 1.11 1.35 0.59 0.40 0.19 0.07 0.01 0.01 0.06 0.09 0.06 0.01 0.00 0.00 0.00 0.00 0.00 0.00 0.00 0.00 0.00 0.00 0.00 0.00 0.00 0.00 0.00 0.00 0.00 0.00 0.00 0.00 0.00 0.00 0.00 0.00 0.00 0.00 0.00 0.00
0.06 0.13 0.20 0.30 0.66 0.96 1.03 0.88 0.92 0.48 0.25 0.17 0.08 0.01 0.00 0.01 0.01 0.00 0.00 0.00 0.00 0.00 0.00 0.00 0.00 0.00 0.00 0.00 0.00 0.00 0.00 0.00 0.00 0.00 0.00 0.00 0.00 0.00 0.00 0.00 0.00 0.00 0.00 0.00 0.00 0.00 0.00
0.04 0.09 0.24 0.50 0.81 0.76 0.73 0.59 0.56 0.54 0.21 0.17 0.12 0.00 0.00 0.00 0.00 0.00 0.00 0.00 0.00 0.00 0.00 0.00 0.00 0.00 0.00 0.00 0.00 0.00 0.00 0.00 0.00 0.00 0.00 0.02 0.01 0.00 0.00 0.00 0.00 0.00 0.00 0.00 0.00 0.00 0.00
0.06 0.21 0.41 0.68 0.99 0.96 0.71 0.47 0.51 0.39 0.16 0.05 0.03 0.00 0.00 0.00 0.00 0.00 0.00 0.00 0.00 0.00 0.00 0.00 0.00 0.00 0.00 0.00 0.00 0.00 0.00 0.00 0.00 0.00 0.00 0.00 0.01 0.00 0.01 0.00 0.00 0.00 0.00 0.00 0.00 0.00 0.00
0.03 0.16 0.46 0.74 1.10 1.18 1.01 0.53 0.39 0.26 0.05 0.00 0.00 0.00 0.00 0.00 0.00 0.00 0.00 0.00 0.00 0.00 0.00 0.00 0.00 0.00 0.00 0.00 0.00 0.00 0.00 0.00 0.00 0.00 0.00 0.00 0.00 0.00 0.00 0.01 0.00 0.00 0.00 0.00 0.00 0.00 0.00
0.01 0.06 0.30 0.83 1.05 0.99 1.00 0.59 0.33 0.12 0.01 0.00 0.00 0.00 0.00 0.00 0.00 0.00 0.00 0.00 0.00 0.00 0.00 0.00 0.00 0.00 0.00 0.00 0.00 0.00 0.00 0.00 0.00 0.00 0.00 0.00 0.00 0.00 0.00 0.01 0.00 0.00 0.00 0.00 0.00 0.00 0.00
0.04 0.12 0.40 0.75 0.83 0.72 0.51 0.38 0.21 0.05 0.00 0.00 0.00 0.00 0.00 0.00 0.00 0.00 0.00 0.00 0.00 0.00 0.00 0.00 0.00 0.00 0.00 0.00 0.00 0.00 0.00 0.00 0.00 0.00 0.00 0.00 0.00 0.00 0.00 0.00 0.00 0.00 0.00 0.00 0.00 0.00 0.00

GFSGBSN_prec_precacc24_105.txt.gz
Total_Precipitation_Accumulation
0.06 0.07 0.09 0.09 0.10 0.09 0.12 0.15 0.16 0.10 0.10 0.13 0.14 0.12 0.11 0.10 0.09 0.07 0.08 0.12 0.17 0.22 0.18 0.08 0.05 0.02 0.00 0.00 0.00 0.00 0.00 0.00 0.00 0.00 0.03 0.10 0.16 0.19 0.09 0.07 0.12 0.24 0.32 0.42 0.36 0.36 0.36
0.05 0.05 0.07 0.08 0.09 0.09 0.11 0.14 0.13 0.10 0.12 0.15 0.14 0.10 0.11 0.10 0.08 0.06 0.09 0.13 0.14 0.13 0.11 0.11 0.06 0.02 0.00 0.00 0.00 0.00 0.00 0.08 0.11 0.02 0.02 0.07 0.18 0.24 0.17 0.10 0.16 0.14 0.32 0.45 0.62 0.44 0.49
0.04 0.05 0.06 0.08 0.09 0.09 0.10 0.10 0.11 0.12 0.14 0.16 0.17 0.16 0.14 0.09 0.08 0.09 0.14 0.17 0.21 0.21 0.12 0.08 0.10 0.05 0.02 0.00 0.00 0.00 0.00 0.24 0.34 0.06 0.05 0.07 0.25 0.36 0.30 0.13 0.08 0.14 0.41 0.47 0.64 0.70 0.80
0.05 0.06 0.07 0.10 0.11 0.12 0.09 0.09 0.10 0.15 0.16 0.21 0.22 0.18 0.12 0.12 0.14 0.14 0.15 0.13 0.12 0.12 0.18 0.27 0.18 0.04 0.05 0.02 0.00 0.00 0.00 0.11 0.22 0.03 0.08 0.11 0.28 0.48 0.33 0.25 0.18 0.23 0.53 0.66 0.58 0.78 1.23
0.06 0.06 0.11 0.16 0.26 0.20 0.12 0.11 0.15 0.17 0.24 0.30 0.29 0.23 0.21 0.23 0.21 0.25 0.40 0.40 0.15 0.17 0.11 0.18 0.14 0.05 0.01 0.00 0.00 0.00 0.00 0.01 0.14 0.17 0.31 0.24 0.38 0.54 0.28 0.35 0.28 0.21 0.37 0.59 0.58 0.56 1.41
0.07 0.16 0.24 0.29 0.30 0.15 0.16 0.16 0.21 0.28 0.45 0.49 0.47 0.45 0.32 0.22 0.24 0.22 0.27 0.63 0.48 0.19 0.13 0.10 0.06 0.06 0.02 0.00 0.00 0.00 0.00 0.00 0.02 0.16 0.40 0.24 0.46 0.59 0.19 0.31 0.24 0.10 0.19 0.30 0.58 0.49 0.98
0.19 0.32 0.28 0.40 0.17 0.17 0.17 0.22 0.27 0.41 0.54 0.51 0.50 0.48 0.31 0.25 0.17 0.16 0.17 0.19 0.38 0.56 0.17 0.07 0.02 0.01 0.01 0.00 0.00 0.00 0.00 0.00 0.01 0.08 0.17 0.18 0.44 0.58 0.11 0.10 0.14 0.07 0.12 0.17 0.47 0.65 0.47
0.33 0.39 0.37 0.27 0.16 0.16 0.21 0.22 0.31 0.45 0.45 0.41 0.40 0.36 0.26 0.20 0.18 0.19 0.08 0.11 0.13 0.26 0.19 0.13 0.09 0.02 0.00 0.00 0.00 0.00 0.00 0.00 0.00 0.01 0.04 0.07 0.20 0.47 0.31 0.16 0.12 0.10 0.12 0.17 0.32 0.60 0.47
0.42 0.39 0.28 0.14 0.11 0.16 0.22 0.25 0.37 0.39 0.44 0.47 0.41 0.31 0.27 0.27 0.24 0.33 0.18 0.10 0.13 0.02 0.02 0.04 0.03 0.03 0.01 0.00 0.00 0.00 0.00 0.00 0.00 0.00 0.02 0.07 0.21 0.15 0.19 0.20 0.20 0.12 0.07 0.09 0.29 0.31 0.27
0.47 0.29 0.13 0.07 0.10 0.15 0.20 0.23 0.25 0.36 0.47 0.45 0.44 0.45 0.35 0.24 0.13 0.16 0.47 0.30 0.07 0.02 0.10 0.03 0.01 0.01 0.00 0.00 0.00 0.00 0.00 0.00 0.00 0.00 0.01 0.04 0.19 0.07 0.10 0.21 0.20 0.13 0.07 0.13 0.29 0.34 0.46
0.45 0.19 0.09 0.08 0.12 0.15 0.19 0.24 0.32 0.45 0.66 0.60 0.46 0.36 0.32 0.18 0.19 0.20 0.16 0.22 0.06 0.03 0.17 0.09 0.02 0.01 0.01 0.00 0.00 0.00 0.00 0.00 0.00 0.00 0.01 0.05 0.15 0.10 0.07 0.23 0.21 0.18 0.09 0.11 0.12 0.19 0.57
0.30 0.12 0.08 0.10 0.12 0.15 0.19 0.32 0.57 0.72 0.61 0.40 0.32 0.28 0.26 0.20 0.10 0.14 0.07 0.06 0.02 0.12 0.22 0.10 0.02 0.02 0.02 0.02 0.09 0.00 0.01 0.00 0.00 0.01 0.07 0.07 0.04 0.07 0.13 0.17 0.26 0.17 0.15 0.12 0.14 0.26 0.56
0.18 0.07 0.10 0.14 0.15 0.16 0.28 0.62 0.74 0.49 0.38 0.38 0.34 0.31 0.19 0.11 0.17 0.12 0.07 0.06 0.11 0.21 0.14 0.06 0.01 0.01 0.02 0.06 0.16 0.01 0.00 0.00 0.01 0.10 0.15 0.10 0.05 0.08 0.17 0.33 0.32 0.20 0.25 0.43 0.49 0.63 0.36
0.11 0.10 0.16 0.23 0.28 0.37 0.50 0.77 0.59 0.43 0.45 0.40 0.33 0.27 0.19 0.11 0.15 0.13 0.10 0.18 0.30 0.19 0.11 0.02 0.00 0.01 0.03 0.02 0.03 0.02 0.01 0.00 0.00 0.03 0.10 0.07 0.12 0.25 0.19 0.28 0.34 0.32 0.28 0.38 0.33 0.34 0.37
0.11 0.22 0.37 0.36 0.46 0.59 0.63 0.49 0.39 0.41 0.53 0.45 0.42 0.33 0.20 0.13 0.17 0.18 0.15 0.25 0.29 0.14 0.03 0.01 0.01 0.02 0.02 0.01 0.01 0.00 0.00 0.02 0.04 0.02 0.11 0.05 0.18 0.10 0.33 0.30 0.24 0.08 0.06 0.14 0.27 0.18 0.15
0.20 0.27 0.31 0.43 0.47 0.46 0.49 0.34 0.44 0.50 0.53 0.53 0.55 0.42 0.29 0.23 0.20 0.26 0.22 0.21 0.17 0.03 0.00 0.01 0.03 0.01 0.00 0.00 0.00 0.00 0.02 0.03 0.06 0.02 0.01 0.06 0.25 0.40 0.31 0.25 0.07 0.01 0.01 0.03 0.06 0.08 0.19
0.23 0.30 0.43 0.48 0.52 0.62 0.50 0.44 0.57 0.63 0.53 0.53 0.49 0.43 0.38 0.58 0.33 0.38 0.20 0.17 0.15 0.01 0.00 0.01 0.03 0.01 0.00 0.00 0.00 0.03 0.03 0.01 0.02 0.06 0.05 0.16 0.40 0.29 0.09 0.06 0.01 0.00 0.00 0.00 0.00 0.00 0.03
0.29 0.41 0.50 0.51 0.63 0.67 0.63 0.65 0.70 0.85 0.61 0.61 0.54 0.42 0.51 0.73 0.48 0.23 0.09 0.11 0.13 0.00 0.00 0.00 0.01 0.00 0.00 0.00 0.01 0.03 0.04 0.03 0.03 0.08 0.15 0.08 0.11 0.07 0.02 0.00 0.00 0.00 0.00 0.00 0.00 0.00 0.00
0.34 0.36 0.31 0.35 0.41 0.67 1.04 0.94 0.65 0.88 0.72 0.60 0.49 0.47 0.73 0.46 0.20 0.07 0.10 0.15 0.05 0.00 0.02 0.04 0.04 0.00 0.00 0.02 0.02 0.02 0.01 0.01 0.00 0.00 0.00 0.00 0.01 0.03 0.02 0.01 0.00 0.00 0.00 0.00 0.00 0.00 0.00
0.32 0.25 0.19 0.19 0.27 0.46 0.82 1.26 0.86 0.79 0.60 0.57 0.35 0.45 0.89 0.55 0.08 0.02 0.13 0.13 0.03 0.00 0.00 0.01 0.01 0.00 0.01 0.01 0.00 0.00 0.00 0.00 0.00 0.00 0.00 0.00 0.00 0.01 0.01 0.00 0.00 0.00 0.00 0.00 0.00 0.00 0.00
0.23 0.14 0.10 0.15 0.28 0.40 0.60 1.33 1.57 0.90 0.50 0.50 0.27 0.12 0.15 0.16 0.07 0.04 0.09 0.05 0.00 0.00 0.01 0.00 0.01 0.00 0.01 0.00 0.00 0.00 0.00 0.00 0.00 0.00 0.00 0.00 0.00 0.00 0.00 0.00 0.00 0.00 0.00 0.00 0.00 0.00 0.00
0.12 0.06 0.05 0.12 0.39 0.65 0.60 0.81 1.31 0.82 0.54 0.29 0.12 0.03 0.01 0.03 0.03 0.14 0.06 0.01 0.00 0.00 0.01 0.01 0.01 0.00 0.00 0.00 0.00 0.00 0.00 0.00 0.00 0.00 0.00 0.00 0.00 0.00 0.00 0.00 0.00 0.00 0.00 0.00 0.00 0.00 0.00
0.05 0.02 0.04 0.12 0.36 0.66 0.71 0.93 1.33 0.59 0.40 0.19 0.07 0.01 0.01 0.06 0.09 0.06 0.01 0.00 0.00 0.00 0.00 0.00 0.00 0.00 0.00 0.00 0.00 0.00 0.00 0.00 0.00 0.00 0.00 0.00 0.00 0.00 0.00 0.00 0.00 0.00 0.00 0.00 0.00 0.00 0.00
0.02 0.02 0.05 0.14 0.41 0.53 0.64 0.78 0.91 0.48 0.25 0.17 0.08 0.01 0.00 0.01 0.01 0.00 0.00 0.00 0.00 0.00 0.00 0.00 0.00 0.00 0.00 0.00 0.00 0.00 0.00 0.00 0.00 0.00 0.00 0.00 0.00 0.00 0.00 0.00 0.00 0.00 0.00 0.00 0.00 0.00 0.00
0.01 0.01 0.05 0.22 0.44 0.42 0.42 0.54 0.56 0.54 0.21 0.17 0.12 0.00 0.00 0.00 0.00 0.00 0.00 0.00 0.00 0.00 0.00 0.00 0.00 0.00 0.00 0.00 0.00 0.00 0.00 0.00 0.00 0.00 0.00 0.00 0.00 0.00 0.00 0.00 0.00 0.00 0.00 0.00 0.00 0.00 0.00
0.00 0.01 0.02 0.19 0.49 0.55 0.46 0.45 0.51 0.39 0.16 0.05 0.03 0.00 0.00 0.00 0.00 0.00 0.00 0.00 0.00 0.00 0.00 0.00 0.00 0.00 0.00 0.00 0.00 0.00 0.00 0.00 0.00 0.00 0.00 0.00 0.00 0.00 0.00 0.00 0.00 0.00 0.00 0.00 0.00 0.00 0.00
0.00 0.01 0.05 0.22 0.47 0.82 0.84 0.52 0.39 0.26 0.05 0.00 0.00 0.00 0.00 0.00 0.00 0.00 0.00 0.00 0.00 0.00 0.00 0.00 0.00 0.00 0.00 0.00 0.00 0.00 0.00 0.00 0.00 0.00 0.00 0.00 0.00 0.00 0.00 0.00 0.00 0.00 0.00 0.00 0.00 0.00 0.00
0.00 0.02 0.07 0.33 0.42 0.63 0.90 0.59 0.33 0.12 0.01 0.00 0.00 0.00 0.00 0.00 0.00 0.00 0.00 0.00 0.00 0.00 0.00 0.00 0.00 0.00 0.00 0.00 0.00 0.00 0.00 0.00 0.00 0.00 0.00 0.00 0.00 0.00 0.00 0.01 0.00 0.00 0.00 0.00 0.00 0.00 0.00
0.00 0.03 0.12 0.31 0.34 0.46 0.46 0.38 0.21 0.05 0.00 0.00 0.00 0.00 0.00 0.00 0.00 0.00 0.00 0.00 0.00 0.00 0.00 0.00 0.00 0.00 0.00 0.00 0.00 0.00 0.00 0.00 0.00 0.00 0.00 0.00 0.00 0.00 0.00 0.00 0.00 0.00 0.00 0.00 0.00 0.00 0.00

GFSGBSN_prec_precacc24_108.txt.gz
Total_Precipitation_Accumulation
0.05 0.05 0.06 0.07 0.08 0.09 0.11 0.11 0.14 0.11 0.12 0.17 0.19 0.18 0.15 0.13 0.11 0.07 0.08 0.11 0.16 0.21 0.25 0.19 0.09 0.05 0.03 0.00 0.00 0.00 0.00 0.00 0.00 0.00 0.02 0.04 0.09 0.13 0.08 0.07 0.10 0.12 0.27 0.29 0.26 0.26 0.30
0.07 0.07 0.08 0.08 0.10 0.12 0.16 0.14 0.13 0.11 0.13 0.17 0.18 0.17 0.17 0.18 0.14 0.08 0.09 0.13 0.13 0.14 0.19 0.34 0.27 0.11 0.01 0.01 0.00 0.00 0.00 0.01 0.04 0.02 0.02 0.04 0.12 0.16 0.15 0.10 0.16 0.09 0.20 0.37 0.42 0.38 0.43
0.08 0.09 0.10 0.10 0.12 0.19 0.22 0.18 0.12 0.10 0.14 0.19 0.22 0.23 0.24 0.19 0.15 0.12 0.14 0.17 0.21 0.22 0.22 0.29 0.27 0.23 0.08 0.01 0.00 0.00 0.00 0.12 0.13 0.05 0.04 0.04 0.19 0.29 0.25 0.12 0.08 0.09 0.32 0.35 0.48 0.59 0.60
0.09 0.10 0.10 0.13 0.17 0.19 0.15 0.10 0.07 0.10 0.17 0.26 0.27 0.23 0.21 0.24 0.19 0.16 0.15 0.13 0.12 0.13 0.31 0.39 0.35 0.25 0.16 0.02 0.00 0.00 0.00 0.03 0.11 0.01 0.01 0.02 0.17 0.39 0.29 0.24 0.18 0.19 0.46 0.54 0.47 0.64 1.01
0.12 0.12 0.16 0.18 0.27 0.18 0.10 0.10 0.12 0.14 0.22 0.33 0.31 0.31 0.34 0.34 0.26 0.25 0.40 0.57 0.28 0.23 0.29 0.36 0.35 0.26 0.14 0.00 0.00 0.00 0.00 0.00 0.09 0.08 0.14 0.20 0.31 0.50 0.26 0.32 0.26 0.16 0.33 0.55 0.55 0.50 1.14
0.14 0.19 0.24 0.28 0.28 0.12 0.13 0.15 0.18 0.23 0.41 0.51 0.50 0.64 0.52 0.28 0.29 0.23 0.29 1.09 0.93 0.30 0.36 0.21 0.21 0.16 0.06 0.00 0.00 0.00 0.00 0.00 0.02 0.14 0.40 0.22 0.44 0.54 0.18 0.28 0.22 0.09 0.16 0.26 0.52 0.46 0.78
0.21 0.33 0.28 0.39 0.16 0.15 0.14 0.19 0.25 0.39 0.47 0.52 0.57 0.66 0.44 0.28 0.20 0.18 0.21 0.36 0.72 0.77 0.45 0.13 0.07 0.02 0.01 0.00 0.00 0.00 0.00 0.00 0.01 0.09 0.18 0.16 0.40 0.53 0.09 0.06 0.12 0.06 0.12 0.16 0.45 0.63 0.42
0.33 0.39 0.38 0.27 0.16 0.13 0.18 0.17 0.27 0.40 0.37 0.38 0.42 0.42 0.32 0.23 0.24 0.23 0.09 0.15 0.29 0.51 0.42 0.22 0.11 0.02 0.00 0.00 0.00 0.00 0.00 0.00 0.00 0.01 0.04 0.05 0.09 0.45 0.30 0.13 0.10 0.09 0.11 0.15 0.27 0.55 0.46
0.42 0.40 0.29 0.16 0.11 0.14 0.16 0.17 0.30 0.29 0.36 0.42 0.39 0.33 0.29 0.27 0.25 0.34 0.18 0.11 0.19 0.08 0.17 0.17 0.12 0.06 0.01 0.00 0.00 0.00 0.00 0.00 0.00 0.00 0.02 0.05 0.02 0.14 0.18 0.18 0.18 0.11 0.06 0.09 0.27 0.27 0.22
0.47 0.30 0.14 0.09 0.10 0.13 0.15 0.15 0.17 0.23 0.36 0.38 0.42 0.46 0.35 0.24 0.13 0.16 0.47 0.31 0.09 0.03 0.11 0.10 0.07 0.05 0.01 0.00 0.00 0.00 0.00 0.00 0.00 0.00 0.01 0.01 0.07 0.05 0.09 0.20 0.20 0.13 0.07 0.13 0.27 0.34 0.42
0.45 0.20 0.10 0.09 0.12 0.13 0.14 0.15 0.24 0.30 0.51 0.50 0.44 0.36 0.32 0.18 0.19 0.21 0.17 0.22 0.06 0.03 0.20 0.14 0.04 0.02 0.01 0.00 0.00 0.00 0.00 0.00 0.00 0.00 0.01 0.05 0.12 0.08 0.07 0.23 0.21 0.17 0.09 0.11 0.09 0.16 0.59
0.30 0.12 0.09 0.11 0.13 0.14 0.16 0.22 0.45 0.55 0.45 0.32 0.31 0.29 0.26 0.20 0.10 0.14 0.07 0.06 0.02 0.13 0.27 0.14 0.06 0.06 0.02 0.02 0.07 0.00 0.00 0.00 0.00 0.01 0.07 0.05 0.04 0.06 0.11 0.17 0.25 0.16 0.15 0.11 0.12 0.23 0.60
0.18 0.07 0.11 0.14 0.15 0.15 0.26 0.52 0.60 0.29 0.19 0.28 0.31 0.31 0.19 0.11 0.17 0.12 0.07 0.06 0.12 0.25 0.18 0.09 0.03 0.01 0.03 0.05 0.10 0.00 0.00 0.00 0.01 0.10 0.12 0.06 0.04 0.07 0.14 0.29 0.28 0.18 0.25 0.39 0.46 0.62 0.41
0.10 0.09 0.16 0.23 0.27 0.36 0.47 0.65 0.41 0.17 0.22 0.29 0.31 0.27 0.19 0.11 0.15 0.13 0.10 0.18 0.35 0.25 0.12 0.02 0.00 0.01 0.03 0.02 0.02 0.01 0.00 0.00 0.00 0.03 0.08 0.05 0.11 0.24 0.17 0.24 0.32 0.31 0.30 0.44 0.39 0.42 0.44
0.09 0.20 0.34 0.32 0.43 0.56 0.57 0.33 0.16 0.14 0.28 0.35 0.40 0.33 0.20 0.13 0.17 0.18 0.15 0.26 0.34 0.16 0.03 0.01 0.01 0.02 0.02 0.01 0.01 0.00 0.00 0.02 0.04 0.02 0.10 0.06 0.14 0.10 0.32 0.30 0.24 0.08 0.13 0.29 0.44 0.33 0.21
0.16 0.23 0.27 0.39 0.45 0.42 0.40 0.14 0.16 0.21 0.31 0.45 0.54 0.41 0.29 0.23 0.20 0.26 0.22 0.23 0.17 0.03 0.00 0.01 0.03 0.01 0.00 0.00 0.00 0.00 0.01 0.03 0.07 0.02 0.01 0.06 0.22 0.39 0.31 0.25 0.07 0.01 0.06 0.11 0.13 0.18 0.26
0.19 0.26 0.35 0.37 0.40 0.48 0.32 0.16 0.16 0.28 0.36 0.48 0.48 0.42 0.38 0.58 0.33 0.38 0.20 0.18 0.15 0.01 0.00 0.01 0.02 0.00 0.00 0.00 0.00 0.04 0.06 0.03 0.04 0.10 0.06 0.18 0.41 0.29 0.09 0.06 0.01 0.01 0.05 0.01 0.00 0.01 0.07
0.25 0.33 0.31 0.27 0.30 0.33 0.27 0.31 0.33 0.53 0.47 0.58 0.54 0.40 0.50 0.73 0.48 0.23 0.09 0.11 0.13 0.00 0.00 0.00 0.01 0.00 0.00 0.00 0.01 0.06 0.08 0.05 0.03 0.09 0.16 0.09 0.11 0.07 0.02 0.00 0.00 0.00 0.00 0.00 0.00 0.00 0.00
0.31 0.28 0.20 0.16 0.19 0.37 0.49 0.54 0.38 0.66 0.66 0.59 0.47 0.46 0.72 0.46 0.20 0.07 0.10 0.15 0.05 0.00 0.02 0.04 0.04 0.00 0.00 0.02 0.02 0.02 0.01 0.01 0.00 0.00 0.00 0.00 0.01 0.03 0.01 0.00 0.00 0.00 0.00 0.00 0.00 0.00 0.00
0.31 0.21 0.14 0.11 0.15 0.25 0.46 0.75 0.52 0.61 0.57 0.57 0.32 0.44 0.88 0.54 0.08 0.02 0.13 0.13 0.03 0.00 0.00 0.01 0.01 0.00 0.01 0.00 0.00 0.00 0.00 0.00 0.00 0.00 0.00 0.00 0.00 0.01 0.01 0.00 0.00 0.00 0.00 0.00 0.00 0.00 0.00
0.22 0.13 0.07 0.07 0.13 0.19 0.35 0.94 1.22 0.66 0.47 0.49 0.26 0.12 0.15 0.15 0.07 0.04 0.09 0.05 0.00 0.00 0.01 0.00 0.01 0.00 0.01 0.00 0.00 0.00 0.00 0.00 0.00 0.00 0.00 0.00 0.00 0.00 0.00 0.00 0.00 0.00 0.00 0.00 0.00 0.00 0.00
0.11 0.05 0.03 0.04 0.16 0.25 0.25 0.45 0.97 0.58 0.49 0.28 0.11 0.03 0.01 0.03 0.03 0.14 0.06 0.01 0.00 0.00 0.01 0.01 0.01 0.00 0.00 0.00 0.00 0.00 0.00 0.00 0.00 0.00 0.00 0.00 0.00 0.00 0.00 0.00 0.00 0.00 0.00 0.00 0.00 0.00 0.00
0.05 0.02 0.02 0.04 0.20 0.26 0.22 0.40 0.97 0.44 0.38 0.19 0.07 0.01 0.01 0.06 0.09 0.06 0.01 0.00 0.00 0.00 0.00 0.00 0.00 0.00 0.00 0.00 0.00 0.00 0.00 0.00 0.00 0.00 0.00 0.00 0.00 0.00 0.00 0.00 0.00 0.00 0.00 0.00 0.00 0.00 0.00
0.01 0.01 0.01 0.06 0.31 0.33 0.24 0.33 0.63 0.38 0.24 0.17 0.08 0.01 0.00 0.01 0.01 0.00 0.00 0.00 0.00 0.00 0.00 0.00 0.00 0.00 0.00 0.00 0.00 0.00 0.00 0.00 0.00 0.00 0.00 0.00 0.00 0.00 0.00 0.00 0.00 0.00 0.00 0.00 0.00 0.00 0.00
0.01 0.00 0.00 0.08 0.29 0.24 0.17 0.20 0.36 0.43 0.20 0.17 0.12 0.00 0.00 0.00 0.00 0.00 0.00 0.00 0.00 0.00 0.00 0.00 0.00 0.00 0.00 0.00 0.00 0.00 0.00 0.00 0.00 0.00 0.00 0.00 0.00 0.00 0.00 0.00 0.00 0.00 0.00 0.00 0.00 0.00 0.00
0.00 0.00 0.00 0.08 0.22 0.28 0.18 0.23 0.37 0.33 0.16 0.05 0.03 0.00 0.00 0.00 0.00 0.00 0.00 0.00 0.00 0.00 0.00 0.00 0.00 0.00 0.00 0.00 0.00 0.00 0.00 0.00 0.00 0.00 0.00 0.00 0.00 0.00 0.00 0.00 0.00 0.00 0.00 0.00 0.00 0.00 0.00
0.00 0.00 0.02 0.09 0.13 0.30 0.42 0.32 0.25 0.24 0.05 0.00 0.00 0.00 0.00 0.00 0.00 0.00 0.00 0.00 0.00 0.00 0.00 0.00 0.00 0.00 0.00 0.00 0.00 0.00 0.00 0.00 0.00 0.00 0.00 0.00 0.00 0.00 0.00 0.00 0.00 0.00 0.00 0.00 0.00 0.00 0.00
0.00 0.00 0.01 0.13 0.11 0.24 0.48 0.36 0.22 0.12 0.01 0.00 0.00 0.00 0.00 0.00 0.00 0.00 0.00 0.00 0.00 0.00 0.00 0.00 0.00 0.00 0.00 0.00 0.00 0.00 0.00 0.00 0.00 0.00 0.00 0.00 0.00 0.00 0.00 0.00 0.00 0.00 0.00 0.00 0.00 0.00 0.00
0.00 0.02 0.05 0.08 0.09 0.15 0.19 0.26 0.17 0.05 0.00 0.00 0.00 0.00 0.00 0.00 0.00 0.00 0.00 0.00 0.00 0.00 0.00 0.00 0.00 0.00 0.00 0.00 0.00 0.00 0.00 0.00 0.00 0.00 0.00 0.00 0.00 0.00 0.00 0.00 0.00 0.00 0.00 0.00 0.00 0.00 0.00

GFSGBSN_prec_precacc24_111.txt.gz
Total_Precipitation_Accumulation
0.10 0.11 0.13 0.13 0.13 0.13 0.19 0.26 0.28 0.34 0.32 0.24 0.23 0.20 0.20 0.17 0.16 0.11 0.09 0.12 0.16 0.20 0.24 0.21 0.27 0.19 0.05 0.00 0.00 0.00 0.00 0.00 0.00 0.00 0.00 0.02 0.04 0.06 0.06 0.07 0.09 0.08 0.01 0.03 0.16 0.22 0.25
0.11 0.13 0.14 0.13 0.12 0.15 0.24 0.29 0.36 0.42 0.22 0.19 0.22 0.20 0.21 0.22 0.24 0.15 0.11 0.14 0.14 0.13 0.19 0.36 0.48 0.16 0.02 0.03 0.00 0.00 0.00 0.00 0.00 0.01 0.02 0.03 0.04 0.10 0.12 0.08 0.15 0.07 0.03 0.11 0.31 0.30 0.37
0.12 0.14 0.13 0.11 0.13 0.20 0.22 0.20 0.12 0.07 0.09 0.15 0.19 0.23 0.26 0.27 0.24 0.17 0.16 0.17 0.20 0.21 0.22 0.45 0.47 0.39 0.15 0.04 0.00 0.00 0.00 0.00 0.01 0.03 0.04 0.04 0.07 0.16 0.20 0.11 0.08 0.07 0.13 0.13 0.39 0.45 0.54
0.14 0.14 0.12 0.13 0.19 0.21 0.19 0.13 0.07 0.10 0.12 0.20 0.22 0.22 0.21 0.28 0.31 0.25 0.16 0.13 0.12 0.13 0.33 0.81 0.96 0.34 0.32 0.07 0.01 0.00 0.00 0.00 0.03 0.00 0.00 0.01 0.09 0.23 0.25 0.22 0.17 0.16 0.28 0.26 0.30 0.43 0.79
0.14 0.14 0.16 0.19 0.29 0.21 0.15 0.12 0.12 0.15 0.19 0.26 0.24 0.32 0.37 0.39 0.33 0.39 0.41 0.57 0.32 0.25 0.39 0.78 0.66 0.36 0.28 0.05 0.04 0.01 0.00 0.00 0.03 0.01 0.02 0.11 0.10 0.19 0.21 0.30 0.24 0.14 0.20 0.31 0.34 0.31 0.75
0.16 0.20 0.24 0.29 0.30 0.15 0.17 0.15 0.18 0.24 0.37 0.40 0.43 0.76 0.68 0.35 0.35 0.30 0.30 1.22 1.37 0.40 0.69 0.50 0.36 0.27 0.19 0.04 0.02 0.03 0.00 0.00 0.01 0.04 0.06 0.11 0.26 0.24 0.16 0.25 0.20 0.09 0.10 0.16 0.30 0.29 0.50
0.22 0.34 0.28 0.41 0.18 0.17 0.17 0.19 0.24 0.35 0.41 0.39 0.48 0.63 0.44 0.33 0.24 0.21 0.22 0.58 0.98 0.95 0.72 0.33 0.15 0.07 0.03 0.01 0.00 0.01 0.00 0.00 0.01 0.08 0.13 0.15 0.38 0.43 0.08 0.05 0.10 0.06 0.11 0.13 0.37 0.54 0.31
0.34 0.40 0.39 0.28 0.17 0.15 0.19 0.20 0.27 0.34 0.27 0.23 0.31 0.35 0.31 0.26 0.31 0.26 0.11 0.25 0.47 0.78 0.79 0.39 0.13 0.02 0.01 0.02 0.00 0.00 0.00 0.00 0.00 0.01 0.04 0.05 0.09 0.41 0.25 0.11 0.08 0.08 0.10 0.14 0.24 0.51 0.43
0.43 0.41 0.30 0.16 0.12 0.14 0.17 0.19 0.29 0.24 0.24 0.26 0.27 0.24 0.23 0.26 0.26 0.34 0.21 0.16 0.26 0.22 0.38 0.32 0.17 0.08 0.02 0.00 0.00 0.00 0.00 0.00 0.00 0.00 0.02 0.03 0.01 0.12 0.13 0.13 0.16 0.09 0.06 0.08 0.26 0.25 0.20
0.47 0.31 0.15 0.09 0.11 0.14 0.15 0.16 0.18 0.21 0.24 0.23 0.27 0.33 0.29 0.23 0.13 0.16 0.47 0.31 0.09 0.03 0.16 0.30 0.16 0.12 0.02 0.00 0.00 0.00 0.00 0.00 0.00 0.00 0.01 0.01 0.01 0.04 0.08 0.12 0.16 0.11 0.06 0.11 0.24 0.34 0.38
0.45 0.20 0.10 0.09 0.13 0.13 0.15 0.15 0.24 0.30 0.41 0.35 0.27 0.21 0.23 0.16 0.19 0.21 0.17 0.22 0.06 0.03 0.22 0.19 0.07 0.03 0.02 0.00 0.00 0.00 0.00 0.00 0.00 0.00 0.01 0.04 0.07 0.07 0.07 0.17 0.18 0.16 0.08 0.09 0.06 0.13 0.59
0.30 0.12 0.10 0.11 0.13 0.14 0.16 0.22 0.45 0.54 0.37 0.20 0.15 0.14 0.19 0.18 0.10 0.14 0.07 0.06 0.02 0.13 0.30 0.16 0.07 0.07 0.02 0.01 0.03 0.00 0.00 0.00 0.00 0.01 0.06 0.04 0.03 0.05 0.09 0.15 0.25 0.12 0.14 0.09 0.06 0.17 0.61
0.18 0.07 0.11 0.14 0.15 0.15 0.26 0.52 0.60 0.28 0.11 0.12 0.13 0.16 0.14 0.08 0.16 0.12 0.07 0.06 0.12 0.26 0.20 0.11 0.05 0.01 0.03 0.03 0.03 0.00 0.00 0.00 0.01 0.09 0.09 0.03 0.03 0.04 0.11 0.28 0.25 0.12 0.25 0.34 0.38 0.53 0.41
0.08 0.07 0.13 0.18 0.26 0.36 0.46 0.64 0.40 0.16 0.12 0.10 0.08 0.12 0.12 0.05 0.15 0.13 0.10 0.18 0.36 0.28 0.13 0.02 0.00 0.01 0.03 0.02 0.02 0.01 0.00 0.00 0.00 0.03 0.07 0.05 0.09 0.16 0.14 0.23 0.27 0.29 0.30 0.47 0.39 0.41 0.45
0.06 0.11 0.18 0.22 0.39 0.50 0.47 0.27 0.14 0.11 0.14 0.10 0.13 0.20 0.13 0.09 0.17 0.18 0.15 0.26 0.35 0.16 0.03 0.01 0.01 0.02 0.02 0.01 0.00 0.00 0.00 0.02 0.04 0.02 0.10 0.06 0.13 0.09 0.24 0.28 0.20 0.07 0.15 0.34 0.50 0.37 0.28
0.08 0.16 0.23 0.36 0.41 0.36 0.35 0.13 0.15 0.16 0.16 0.17 0.30 0.29 0.23 0.21 0.20 0.26 0.22 0.23 0.17 0.03 0.00 0.01 0.03 0.01 0.00 0.00 0.00 0.00 0.01 0.03 0.09 0.02 0.02 0.07 0.22 0.38 0.28 0.25 0.06 0.01 0.11 0.17 0.17 0.23 0.31
0.13 0.21 0.32 0.33 0.33 0.41 0.26 0.12 0.12 0.16 0.17 0.19 0.22 0.27 0.32 0.57 0.33 0.38 0.20 0.19 0.15 0.01 0.00 0.01 0.02 0.00 0.00 0.00 0.01 0.08 0.11 0.07 0.06 0.12 0.08 0.19 0.41 0.29 0.09 0.06 0.02 0.05 0.10 0.02 0.01 0.02 0.09
0.19 0.29 0.28 0.24 0.24 0.19 0.08 0.09 0.12 0.26 0.19 0.23 0.31 0.27 0.45 0.73 0.48 0.23 0.09 0.11 0.13 0.00 0.00 0.00 0.01 0.00 0.00 0.00 0.02 0.09 0.10 0.07 0.03 0.09 0.16 0.09 0.11 0.07 0.02 0.00 0.00 0.01 0.01 0.00 0.00 0.01 0.00
0.26 0.25 0.18 0.14 0.14 0.08 0.05 0.11 0.22 0.41 0.38 0.37 0.31 0.32 0.67 0.46 0.20 0.07 0.10 0.15 0.05 0.00 0.02 0.04 0.04 0.00 0.00 0.02 0.02 0.02 0.01 0.01 0.00 0.00 0.00 0.00 0.01 0.03 0.01 0.00 0.00 0.00 0.00 0.00 0.01 0.00 0.00
0.28 0.19 0.12 0.08 0.09 0.09 0.16 0.37 0.40 0.40 0.38 0.48 0.23 0.32 0.79 0.53 0.08 0.02 0.13 0.13 0.03 0.00 0.00 0.01 0.01 0.00 0.01 0.00 0.00 0.00 0.00 0.00 0.00 0.00 0.00 0.00 0.00 0.01 0.01 0.00 0.00 0.00 0.00 0.00 0.00 0.00 0.00
0.19 0.11 0.06 0.05 0.06 0.11 0.26 0.71 0.93 0.46 0.30 0.41 0.17 0.08 0.14 0.14 0.06 0.04 0.09 0.05 0.00 0.00 0.01 0.00 0.01 0.00 0.01 0.00 0.00 0.00 0.00 0.00 0.00 0.00 0.00 0.00 0.00 0.00 0.00 0.00 0.00 0.00 0.00 0.00 0.00 0.00 0.00
0.09 0.04 0.03 0.03 0.07 0.13 0.16 0.32 0.57 0.23 0.22 0.18 0.04 0.02 0.01 0.03 0.03 0.14 0.06 0.01 0.00 0.00 0.01 0.01 0.01 0.00 0.00 0.00 0.00 0.00 0.00 0.00 0.00 0.00 0.00 0.00 0.00 0.00 0.00 0.00 0.00 0.00 0.00 0.00 0.00 0.00 0.00
0.04 0.01 0.01 0.03 0.11 0.12 0.14 0.21 0.74 0.14 0.10 0.07 0.02 0.00 0.01 0.06 0.09 0.06 0.01 0.00 0.00 0.00 0.00 0.00 0.00 0.00 0.00 0.00 0.00 0.00 0.00 0.00 0.00 0.00 0.00 0.00 0.00 0.00 0.00 0.00 0.00 0.00 0.00 0.00 0.00 0.00 0.00
0.01 0.01 0.00 0.03 0.13 0.17 0.09 0.09 0.40 0.13 0.05 0.04 0.05 0.01 0.00 0.01 0.01 0.00 0.00 0.00 0.00 0.00 0.00 0.00 0.00 0.00 0.00 0.00 0.00 0.00 0.00 0.00 0.00 0.00 0.00 0.00 0.00 0.00 0.00 0.00 0.00 0.00 0.00 0.00 0.00 0.00 0.00
0.01 0.00 0.00 0.02 0.11 0.13 0.07 0.03 0.13 0.14 0.04 0.09 0.10 0.00 0.00 0.00 0.00 0.00 0.00 0.00 0.00 0.00 0.00 0.00 0.00 0.00 0.00 0.00 0.00 0.00 0.00 0.00 0.00 0.00 0.00 0.00 0.00 0.00 0.00 0.00 0.00 0.00 0.00 0.00 0.00 0.00 0.00
0.00 0.00 0.00 0.02 0.09 0.10 0.09 0.10 0.19 0.07 0.02 0.04 0.03 0.00 0.00 0.00 0.00 0.00 0.00 0.00 0.00 0.00 0.00 0.00 0.00 0.00 0.00 0.00 0.00 0.00 0.00 0.00 0.00 0.00 0.00 0.00 0.00 0.00 0.00 0.00 0.00 0.00 0.00 0.00 0.00 0.00 0.00
0.00 0.00 0.01 0.04 0.04 0.10 0.19 0.14 0.10 0.04 0.01 0.00 0.00 0.00 0.00 0.00 0.00 0.00 0.00 0.00 0.00 0.00 0.00 0.00 0.00 0.00 0.00 0.00 0.00 0.00 0.00 0.00 0.00 0.00 0.00 0.00 0.00 0.00 0.00 0.00 0.00 0.00 0.00 0.00 0.00 0.00 0.00
0.00 0.00 0.01 0.09 0.02 0.07 0.18 0.12 0.08 0.02 0.01 0.00 0.00 0.00 0.00 0.00 0.00 0.00 0.00 0.00 0.00 0.00 0.00 0.00 0.00 0.00 0.00 0.00 0.00 0.00 0.00 0.00 0.00 0.00 0.00 0.00 0.00 0.00 0.00 0.00 0.00 0.00 0.00 0.00 0.00 0.00 0.00
0.00 0.01 0.01 0.07 0.03 0.04 0.07 0.09 0.04 0.01 0.00 0.00 0.00 0.00 0.00 0.00 0.00 0.00 0.00 0.00 0.00 0.00 0.00 0.00 0.00 0.00 0.00 0.00 0.00 0.00 0.00 0.00 0.00 0.00 0.00 0.00 0.00 0.00 0.00 0.00 0.00 0.00 0.00 0.00 0.00 0.00 0.00

GFSGBSN_prec_precacc24_114.txt.gz
Total_Precipitation_Accumulation
0.14 0.13 0.14 0.14 0.13 0.14 0.20 0.28 0.31 0.40 0.49 0.34 0.29 0.25 0.18 0.16 0.16 0.14 0.13 0.18 0.19 0.21 0.23 0.20 0.54 0.57 0.13 0.11 0.03 0.00 0.00 0.00 0.00 0.00 0.00 0.01 0.03 0.05 0.02 0.01 0.04 0.04 0.01 0.02 0.00 0.00 0.04
0.14 0.14 0.15 0.13 0.12 0.15 0.26 0.32 0.38 0.47 0.29 0.21 0.24 0.23 0.19 0.19 0.23 0.16 0.12 0.18 0.17 0.13 0.18 0.35 0.67 0.69 0.19 0.16 0.03 0.00 0.00 0.00 0.00 0.00 0.01 0.03 0.02 0.06 0.06 0.04 0.09 0.05 0.03 0.02 0.03 0.02 0.04
0.14 0.15 0.14 0.11 0.13 0.20 0.25 0.22 0.13 0.07 0.11 0.13 0.15 0.18 0.22 0.24 0.22 0.18 0.21 0.21 0.21 0.21 0.21 0.45 0.57 0.70 0.31 0.11 0.01 0.01 0.00 0.00 0.00 0.01 0.03 0.04 0.06 0.12 0.12 0.06 0.05 0.06 0.10 0.07 0.02 0.02 0.12
0.14 0.14 0.13 0.14 0.19 0.22 0.22 0.15 0.09 0.11 0.14 0.17 0.16 0.14 0.17 0.24 0.27 0.27 0.21 0.13 0.12 0.13 0.33 0.91 1.12 0.50 0.54 0.13 0.03 0.03 0.00 0.00 0.01 0.00 0.00 0.01 0.04 0.09 0.07 0.12 0.10 0.13 0.23 0.17 0.03 0.03 0.21
0.14 0.15 0.16 0.19 0.29 0.22 0.17 0.13 0.15 0.17 0.22 0.24 0.18 0.25 0.36 0.37 0.30 0.41 0.45 0.58 0.36 0.27 0.45 1.01 0.95 0.54 0.45 0.15 0.15 0.05 0.00 0.00 0.01 0.00 0.01 0.05 0.05 0.05 0.07 0.21 0.17 0.10 0.18 0.26 0.17 0.03 0.29
0.16 0.21 0.25 0.29 0.30 0.16 0.18 0.16 0.19 0.26 0.38 0.39 0.36 0.67 0.63 0.34 0.34 0.35 0.31 1.23 1.41 0.43 0.85 0.73 0.61 0.42 0.33 0.17 0.09 0.03 0.00 0.00 0.01 0.03 0.05 0.07 0.06 0.06 0.08 0.21 0.19 0.09 0.09 0.11 0.19 0.12 0.21
0.22 0.34 0.29 0.40 0.17 0.17 0.18 0.21 0.25 0.38 0.42 0.38 0.42 0.55 0.35 0.27 0.22 0.24 0.22 0.64 1.02 1.00 0.94 0.62 0.27 0.10 0.10 0.11 0.01 0.02 0.00 0.00 0.01 0.06 0.04 0.05 0.11 0.09 0.03 0.03 0.10 0.06 0.10 0.11 0.22 0.28 0.11
0.34 0.41 0.39 0.28 0.16 0.15 0.19 0.20 0.27 0.36 0.28 0.23 0.27 0.28 0.20 0.20 0.29 0.25 0.11 0.35 0.51 0.92 1.17 0.70 0.24 0.08 0.11 0.06 0.01 0.00 0.00 0.00 0.00 0.01 0.04 0.05 0.07 0.24 0.19 0.05 0.05 0.08 0.10 0.12 0.13 0.25 0.23
0.43 0.41 0.30 0.16 0.12 0.14 0.17 0.19 0.30 0.26 0.26 0.27 0.26 0.16 0.10 0.16 0.24 0.34 0.26 0.29 0.46 0.32 0.55 0.61 0.37 0.19 0.09 0.02 0.00 0.00 0.00 0.00 0.00 0.00 0.02 0.03 0.01 0.11 0.09 0.09 0.11 0.08 0.05 0.08 0.23 0.18 0.11
0.47 0.32 0.15 0.09 0.11 0.14 0.15 0.16 0.18 0.21 0.25 0.23 0.26 0.26 0.14 0.14 0.11 0.16 0.51 0.41 0.18 0.05 0.21 0.51 0.25 0.17 0.03 0.00 0.00 0.00 0.00 0.00 0.00 0.00 0.01 0.01 0.01 0.03 0.06 0.09 0.14 0.09 0.04 0.09 0.22 0.33 0.37
0.44 0.20 0.11 0.09 0.12 0.13 0.15 0.15 0.24 0.30 0.41 0.35 0.27 0.13 0.08 0.09 0.13 0.17 0.15 0.22 0.06 0.03 0.24 0.23 0.09 0.04 0.02 0.00 0.00 0.00 0.00 0.00 0.00 0.00 0.01 0.04 0.06 0.07 0.05 0.10 0.17 0.15 0.07 0.06 0.04 0.13 0.61
0.29 0.11 0.09 0.10 0.11 0.13 0.16 0.21 0.45 0.54 0.37 0.20 0.14 0.06 0.03 0.09 0.05 0.11 0.06 0.06 0.02 0.13 0.33 0.16 0.08 0.07 0.02 0.01 0.01 0.00 0.00 0.00 0.00 0.01 0.05 0.03 0.03 0.04 0.08 0.09 0.21 0.12 0.12 0.05 0.05 0.18 0.64
0.16 0.05 0.09 0.12 0.13 0.13 0.25 0.51 0.59 0.27 0.11 0.12 0.12 0.10 0.02 0.05 0.12 0.09 0.06 0.06 0.12 0.27 0.21 0.12 0.05 0.01 0.03 0.02 0.01 0.00 0.00 0.00 0.01 0.09 0.07 0.02 0.03 0.03 0.07 0.26 0.24 0.11 0.22 0.25 0.29 0.46 0.40
0.05 0.05 0.11 0.12 0.15 0.30 0.45 0.63 0.39 0.14 0.11 0.09 0.07 0.02 0.01 0.01 0.10 0.10 0.09 0.18 0.37 0.29 0.13 0.02 0.00 0.01 0.03 0.02 0.01 0.00 0.00 0.00 0.00 0.02 0.06 0.05 0.08 0.12 0.13 0.22 0.25 0.27 0.30 0.47 0.38 0.39 0.45
0.03 0.08 0.13 0.14 0.26 0.43 0.43 0.25 0.11 0.08 0.13 0.09 0.06 0.07 0.05 0.03 0.08 0.12 0.13 0.26 0.36 0.16 0.04 0.01 0.01 0.02 0.02 0.01 0.00 0.00 0.00 0.02 0.04 0.02 0.10 0.06 0.12 0.07 0.18 0.28 0.17 0.06 0.16 0.38 0.54 0.38 0.32
0.04 0.11 0.15 0.17 0.31 0.33 0.32 0.08 0.09 0.12 0.15 0.12 0.13 0.10 0.14 0.14 0.10 0.18 0.21 0.23 0.18 0.03 0.00 0.01 0.03 0.01 0.00 0.00 0.00 0.00 0.01 0.03 0.09 0.02 0.02 0.07 0.22 0.27 0.19 0.22 0.04 0.02 0.13 0.19 0.20 0.26 0.36
0.08 0.13 0.15 0.16 0.30 0.39 0.24 0.08 0.08 0.10 0.12 0.13 0.05 0.06 0.23 0.44 0.24 0.31 0.19 0.19 0.15 0.01 0.00 0.01 0.02 0.00 0.00 0.00 0.02 0.10 0.11 0.07 0.06 0.13 0.09 0.20 0.41 0.27 0.09 0.05 0.02 0.06 0.13 0.04 0.02 0.03 0.14
0.12 0.16 0.13 0.14 0.23 0.18 0.07 0.06 0.05 0.08 0.06 0.10 0.09 0.10 0.40 0.60 0.38 0.21 0.09 0.11 0.13 0.00 0.00 0.00 0.01 0.00 0.00 0.01 0.03 0.11 0.11 0.07 0.03 0.09 0.16 0.09 0.11 0.07 0.02 0.00 0.00 0.01 0.01 0.00 0.01 0.01 0.00
0.17 0.16 0.10 0.10 0.13 0.08 0.04 0.05 0.06 0.13 0.15 0.17 0.14 0.19 0.49 0.34 0.15 0.06 0.10 0.15 0.05 0.00 0.02 0.04 0.04 0.00 0.00 0.02 0.02 0.02 0.01 0.01 0.00 0.00 0.00 0.00 0.01 0.03 0.01 0.00 0.00 0.00 0.00 0.00 0.01 0.00 0.00
0.17 0.09 0.06 0.06 0.08 0.08 0.10 0.14 0.11 0.18 0.19 0.30 0.15 0.16 0.55 0.39 0.06 0.01 0.13 0.13 0.03 0.00 0.00 0.01 0.01 0.00 0.01 0.00 0.00 0.00 0.00 0.00 0.00 0.00 0.00 0.00 0.00 0.01 0.01 0.00 0.00 0.00 0.00 0.00 0.00 0.00 0.00
0.07 0.05 0.04 0.04 0.06 0.09 0.14 0.42 0.62 0.36 0.22 0.36 0.13 0.04 0.09 0.10 0.06 0.04 0.09 0.05 0.00 0.00 0.01 0.00 0.01 0.00 0.01 0.00 0.00 0.00 0.00 0.00 0.00 0.00 0.00 0.00 0.00 0.00 0.00 0.00 0.00 0.00 0.00 0.00 0.00 0.00 0.00
0.05 0.03 0.02 0.03 0.06 0.07 0.07 0.22 0.41 0.18 0.17 0.15 0.03 0.01 0.00 0.02 0.03 0.13 0.06 0.01 0.00 0.00 0.01 0.01 0.01 0.00 0.00 0.00 0.00 0.00 0.00 0.00 0.00 0.00 0.00 0.00 0.00 0.00 0.00 0.00 0.00 0.00 0.00 0.00 0.00 0.00 0.00
0.02 0.01 0.01 0.03 0.08 0.06 0.07 0.14 0.40 0.03 0.03 0.02 0.00 0.00 0.00 0.05 0.09 0.06 0.01 0.00 0.00 0.00 0.00 0.00 0.00 0.00 0.00 0.00 0.00 0.00 0.00 0.00 0.00 0.00 0.00 0.00 0.00 0.00 0.00 0.00 0.00 0.00 0.00 0.00 0.00 0.00 0.00
0.00 0.00 0.00 0.03 0.12 0.12 0.06 0.07 0.19 0.01 0.00 0.00 0.00 0.00 0.00 0.01 0.01 0.00 0.00 0.00 0.00 0.00 0.00 0.00 0.00 0.00 0.00 0.00 0.00 0.00 0.00 0.00 0.00 0.00 0.00 0.00 0.00 0.00 0.00 0.00 0.00 0.00 0.00 0.00 0.00 0.00 0.00
0.00 0.00 0.00 0.02 0.05 0.06 0.03 0.01 0.02 0.01 0.00 0.01 0.01 0.00 0.00 0.00 0.00 0.00 0.00 0.00 0.00 0.00 0.00 0.00 0.00 0.00 0.00 0.00 0.00 0.00 0.00 0.00 0.00 0.00 0.00 0.00 0.00 0.00 0.00 0.00 0.00 0.00 0.00 0.00 0.00 0.00 0.00
0.00 0.00 0.00 0.01 0.03 0.02 0.01 0.02 0.01 0.00 0.00 0.00 0.00 0.00 0.00 0.00 0.00 0.00 0.00 0.00 0.00 0.00 0.00 0.00 0.00 0.00 0.00 0.00 0.00 0.00 0.00 0.00 0.00 0.00 0.00 0.00 0.00 0.00 0.00 0.00 0.00 0.00 0.00 0.00 0.00 0.00 0.00
0.00 0.00 0.01 0.04 0.03 0.03 0.04 0.02 0.01 0.00 0.00 0.00 0.00 0.00 0.00 0.00 0.00 0.00 0.00 0.00 0.00 0.00 0.00 0.00 0.00 0.00 0.00 0.00 0.00 0.00 0.00 0.00 0.00 0.00 0.00 0.00 0.00 0.00 0.00 0.00 0.00 0.00 0.00 0.00 0.00 0.00 0.00
0.00 0.00 0.01 0.08 0.01 0.03 0.03 0.01 0.00 0.00 0.00 0.00 0.00 0.00 0.00 0.00 0.00 0.00 0.00 0.00 0.00 0.00 0.00 0.00 0.00 0.00 0.00 0.00 0.00 0.00 0.00 0.00 0.00 0.00 0.00 0.00 0.00 0.00 0.00 0.00 0.00 0.00 0.00 0.00 0.00 0.00 0.00
0.00 0.00 0.00 0.07 0.03 0.01 0.01 0.00 0.00 0.00 0.00 0.00 0.00 0.00 0.00 0.00 0.00 0.00 0.00 0.00 0.00 0.00 0.00 0.00 0.00 0.00 0.00 0.00 0.00 0.00 0.00 0.00 0.00 0.00 0.00 0.00 0.00 0.00 0.00 0.00 0.00 0.00 0.00 0.00 0.00 0.00 0.00

GFSGBSN_prec_precacc24_117.txt.gz
Total_Precipitation_Accumulation
0.14 0.13 0.14 0.14 0.14 0.14 0.21 0.31 0.35 0.43 0.53 0.37 0.33 0.32 0.18 0.23 0.18 0.13 0.15 0.25 0.28 0.28 0.23 0.18 0.52 0.67 0.23 0.28 0.12 0.00 0.05 0.01 0.00 0.00 0.00 0.00 0.01 0.02 0.02 0.00 0.00 0.00 0.00 0.00 0.00 0.00 0.01
0.14 0.15 0.15 0.13 0.12 0.16 0.28 0.33 0.39 0.49 0.33 0.24 0.26 0.20 0.14 0.15 0.21 0.15 0.11 0.18 0.24 0.18 0.17 0.34 0.72 0.79 0.24 0.23 0.12 0.05 0.03 0.00 0.00 0.00 0.00 0.00 0.00 0.03 0.05 0.02 0.03 0.01 0.01 0.00 0.02 0.01 0.01
0.14 0.15 0.14 0.11 0.13 0.21 0.26 0.23 0.14 0.09 0.14 0.15 0.15 0.14 0.16 0.20 0.19 0.17 0.20 0.21 0.22 0.21 0.20 0.44 0.67 0.92 0.51 0.23 0.10 0.10 0.01 0.00 0.00 0.00 0.00 0.01 0.04 0.09 0.10 0.04 0.01 0.01 0.02 0.03 0.01 0.01 0.03
0.14 0.14 0.12 0.13 0.19 0.22 0.24 0.16 0.10 0.11 0.16 0.18 0.16 0.14 0.14 0.20 0.24 0.25 0.22 0.13 0.12 0.12 0.32 0.91 1.18 0.68 0.79 0.26 0.18 0.15 0.00 0.00 0.00 0.00 0.00 0.00 0.03 0.07 0.03 0.01 0.03 0.09 0.17 0.12 0.01 0.02 0.03
0.15 0.14 0.16 0.19 0.29 0.22 0.18 0.14 0.16 0.18 0.23 0.26 0.18 0.26 0.32 0.26 0.24 0.38 0.46 0.65 0.42 0.29 0.48 1.02 0.97 0.63 0.64 0.31 0.25 0.08 0.00 0.00 0.00 0.00 0.01 0.01 0.02 0.03 0.03 0.03 0.06 0.05 0.14 0.21 0.15 0.02 0.05
0.16 0.20 0.23 0.28 0.30 0.15 0.18 0.16 0.20 0.27 0.38 0.40 0.38 0.69 0.62 0.28 0.31 0.36 0.35 1.26 1.43 0.43 0.86 0.74 0.67 0.61 0.52 0.39 0.16 0.05 0.00 0.00 0.00 0.03 0.05 0.05 0.05 0.05 0.03 0.04 0.07 0.08 0.08 0.10 0.18 0.09 0.06
0.22 0.33 0.27 0.39 0.16 0.16 0.17 0.21 0.25 0.38 0.42 0.38 0.42 0.56 0.36 0.23 0.19 0.22 0.21 0.64 1.00 1.06 1.17 0.76 0.40 0.22 0.20 0.25 0.03 0.02 0.00 0.00 0.01 0.06 0.04 0.04 0.04 0.02 0.01 0.00 0.08 0.06 0.08 0.10 0.20 0.25 0.03
0.33 0.40 0.38 0.27 0.16 0.13 0.18 0.19 0.27 0.36 0.28 0.23 0.27 0.28 0.20 0.16 0.27 0.23 0.09 0.33 0.53 1.05 1.56 1.02 0.42 0.24 0.25 0.12 0.02 0.00 0.00 0.00 0.00 0.01 0.04 0.04 0.01 0.05 0.10 0.03 0.03 0.05 0.09 0.11 0.11 0.18 0.06
0.42 0.41 0.30 0.16 0.12 0.12 0.15 0.18 0.29 0.25 0.26 0.27 0.26 0.16 0.09 0.09 0.20 0.32 0.25 0.32 0.57 0.37 0.74 0.93 0.60 0.40 0.28 0.06 0.01 0.00 0.00 0.00 0.00 0.00 0.02 0.03 0.01 0.06 0.06 0.05 0.06 0.06 0.05 0.08 0.19 0.13 0.07
0.47 0.31 0.15 0.09 0.10 0.13 0.15 0.15 0.17 0.20 0.24 0.23 0.26 0.25 0.11 0.08 0.09 0.16 0.50 0.44 0.20 0.06 0.25 0.68 0.34 0.23 0.05 0.01 0.00 0.00 0.00 0.00 0.00 0.00 0.01 0.01 0.00 0.03 0.04 0.08 0.10 0.07 0.04 0.09 0.22 0.34 0.37
0.42 0.17 0.09 0.07 0.11 0.13 0.14 0.14 0.22 0.29 0.40 0.35 0.27 0.13 0.05 0.04 0.11 0.15 0.12 0.18 0.03 0.03 0.24 0.27 0.12 0.05 0.02 0.00 0.00 0.00 0.00 0.00 0.00 0.00 0.01 0.03 0.05 0.06 0.03 0.09 0.15 0.14 0.07 0.05 0.03 0.14 0.62
0.27 0.09 0.07 0.08 0.10 0.11 0.14 0.19 0.42 0.51 0.36 0.19 0.14 0.06 0.01 0.02 0.04 0.08 0.02 0.03 0.01 0.11 0.35 0.17 0.08 0.07 0.02 0.01 0.01 0.00 0.00 0.00 0.00 0.01 0.03 0.01 0.03 0.04 0.06 0.06 0.20 0.10 0.09 0.04 0.05 0.18 0.65
0.14 0.03 0.08 0.09 0.10 0.11 0.15 0.36 0.46 0.24 0.10 0.11 0.11 0.10 0.01 0.02 0.10 0.05 0.01 0.04 0.08 0.27 0.21 0.12 0.05 0.01 0.03 0.02 0.01 0.00 0.00 0.00 0.01 0.08 0.05 0.02 0.02 0.03 0.05 0.17 0.19 0.09 0.13 0.21 0.26 0.45 0.40
0.03 0.04 0.08 0.09 0.10 0.15 0.21 0.49 0.35 0.11 0.09 0.07 0.06 0.02 0.01 0.01 0.08 0.04 0.02 0.15 0.35 0.30 0.13 0.02 0.00 0.01 0.03 0.02 0.01 0.00 0.00 0.00 0.00 0.02 0.06 0.04 0.08 0.11 0.12 0.21 0.21 0.21 0.26 0.47 0.38 0.39 0.45
0.02 0.05 0.10 0.10 0.13 0.19 0.34 0.21 0.08 0.05 0.05 0.05 0.06 0.07 0.04 0.02 0.04 0.04 0.04 0.22 0.35 0.15 0.04 0.01 0.01 0.02 0.02 0.01 0.00 0.00 0.00 0.02 0.04 0.02 0.10 0.06 0.09 0.05 0.17 0.27 0.17 0.06 0.18 0.39 0.57 0.38 0.33
0.02 0.08 0.11 0.10 0.11 0.18 0.27 0.06 0.07 0.05 0.04 0.04 0.11 0.05 0.05 0.08 0.02 0.05 0.11 0.21 0.17 0.03 0.00 0.01 0.03 0.01 0.00 0.00 0.00 0.00 0.01 0.03 0.09 0.02 0.02 0.07 0.20 0.15 0.18 0.21 0.04 0.02 0.13 0.22 0.23 0.28 0.37
0.05 0.09 0.12 0.07 0.09 0.24 0.22 0.08 0.06 0.04 0.03 0.01 0.03 0.02 0.13 0.26 0.12 0.16 0.13 0.17 0.14 0.01 0.00 0.01 0.02 0.00 0.00 0.00 0.02 0.10 0.11 0.07 0.05 0.13 0.09 0.20 0.40 0.24 0.09 0.05 0.03 0.09 0.16 0.06 0.04 0.06 0.17
0.07 0.08 0.07 0.04 0.09 0.13 0.05 0.06 0.04 0.05 0.02 0.00 0.01 0.06 0.33 0.42 0.25 0.15 0.07 0.10 0.13 0.00 0.00 0.00 0.01 0.00 0.00 0.01 0.03 0.11 0.11 0.07 0.03 0.09 0.16 0.09 0.11 0.07 0.02 0.00 0.00 0.01 0.02 0.01 0.03 0.06 0.02
0.05 0.05 0.03 0.02 0.06 0.04 0.04 0.04 0.04 0.06 0.02 0.00 0.04 0.16 0.37 0.26 0.12 0.05 0.09 0.13 0.05 0.00 0.02 0.04 0.04 0.00 0.00 0.02 0.02 0.02 0.01 0.01 0.00 0.00 0.00 0.00 0.01 0.03 0.01 0.00 0.00 0.00 0.00 0.00 0.01 0.01 0.00
0.03 0.02 0.01 0.02 0.04 0.07 0.09 0.12 0.08 0.10 0.05 0.02 0.03 0.09 0.33 0.22 0.04 0.01 0.09 0.10 0.03 0.00 0.00 0.01 0.01 0.00 0.01 0.00 0.00 0.00 0.00 0.00 0.00 0.00 0.00 0.00 0.00 0.01 0.01 0.00 0.00 0.00 0.00 0.00 0.00 0.00 0.00
0.02 0.01 0.01 0.02 0.05 0.08 0.13 0.36 0.38 0.21 0.13 0.04 0.02 0.01 0.05 0.05 0.02 0.03 0.07 0.04 0.00 0.00 0.01 0.00 0.01 0.00 0.01 0.00 0.00 0.00 0.00 0.00 0.00 0.00 0.00 0.00 0.00 0.00 0.00 0.00 0.00 0.00 0.00 0.00 0.00 0.00 0.00
0.01 0.01 0.01 0.02 0.06 0.06 0.06 0.12 0.16 0.14 0.15 0.06 0.01 0.01 0.00 0.01 0.01 0.09 0.05 0.01 0.00 0.00 0.01 0.01 0.01 0.00 0.00 0.00 0.00 0.00 0.00 0.00 0.00 0.00 0.00 0.00 0.00 0.00 0.00 0.00 0.00 0.00 0.00 0.00 0.00 0.00 0.00
0.01 0.00 0.00 0.01 0.06 0.04 0.02 0.07 0.08 0.01 0.03 0.02 0.00 0.00 0.00 0.03 0.06 0.04 0.01 0.00 0.00 0.00 0.00 0.00 0.00 0.00 0.00 0.00 0.00 0.00 0.00 0.00 0.00 0.00 0.00 0.00 0.00 0.00 0.00 0.00 0.00 0.00 0.00 0.00 0.00 0.00 0.00
0.00 0.00 0.00 0.01 0.03 0.01 0.01 0.04 0.03 0.00 0.00 0.00 0.00 0.00 0.00 0.01 0.01 0.00 0.00 0.00 0.00 0.00 0.00 0.00 0.00 0.00 0.00 0.00 0.00 0.00 0.00 0.00 0.00 0.00 0.00 0.00 0.00 0.00 0.00 0.00 0.00 0.00 0.00 0.00 0.00 0.00 0.00
0.00 0.00 0.00 0.01 0.01 0.00 0.00 0.01 0.00 0.00 0.00 0.00 0.00 0.00 0.00 0.00 0.00 0.00 0.00 0.00 0.00 0.00 0.00 0.00 0.00 0.00 0.00 0.00 0.00 0.00 0.00 0.00 0.00 0.00 0.00 0.00 0.00 0.00 0.00 0.00 0.00 0.00 0.00 0.00 0.00 0.00 0.00
0.00 0.00 0.00 0.01 0.01 0.00 0.00 0.00 0.00 0.00 0.00 0.00 0.00 0.00 0.00 0.00 0.00 0.00 0.00 0.00 0.00 0.00 0.00 0.00 0.00 0.00 0.00 0.00 0.00 0.00 0.00 0.00 0.00 0.00 0.00 0.00 0.00 0.00 0.00 0.00 0.00 0.00 0.00 0.00 0.00 0.00 0.00
0.00 0.00 0.01 0.04 0.01 0.00 0.00 0.00 0.00 0.00 0.00 0.00 0.00 0.00 0.00 0.00 0.00 0.00 0.00 0.00 0.00 0.00 0.00 0.00 0.00 0.00 0.00 0.00 0.00 0.00 0.00 0.00 0.00 0.00 0.00 0.00 0.00 0.00 0.00 0.00 0.00 0.00 0.00 0.00 0.00 0.00 0.00
0.00 0.00 0.01 0.08 0.00 0.00 0.00 0.00 0.00 0.00 0.00 0.00 0.00 0.00 0.00 0.00 0.00 0.00 0.00 0.00 0.00 0.00 0.00 0.00 0.00 0.00 0.00 0.00 0.00 0.00 0.00 0.00 0.00 0.00 0.00 0.00 0.00 0.00 0.00 0.00 0.00 0.00 0.00 0.00 0.00 0.00 0.00
0.00 0.00 0.00 0.07 0.01 0.00 0.00 0.00 0.00 0.00 0.00 0.00 0.00 0.00 0.00 0.00 0.00 0.00 0.00 0.00 0.00 0.00 0.00 0.00 0.00 0.00 0.00 0.00 0.00 0.00 0.00 0.00 0.00 0.00 0.00 0.00 0.00 0.00 0.00 0.00 0.00 0.00 0.00 0.00 0.00 0.00 0.00

GFSGBSN_prec_precacc24_120.txt.gz
Total_Precipitation_Accumulation
0.14 0.13 0.14 0.14 0.14 0.15 0.23 0.33 0.37 0.45 0.57 0.40 0.37 0.37 0.23 0.32 0.33 0.19 0.21 0.46 0.42 0.35 0.23 0.18 0.52 0.73 0.34 0.40 0.22 0.01 0.07 0.02 0.00 0.00 0.00 0.00 0.00 0.01 0.01 0.00 0.00 0.00 0.00 0.00 0.00 0.00 0.00
0.14 0.14 0.15 0.14 0.13 0.16 0.29 0.34 0.39 0.51 0.35 0.26 0.27 0.21 0.14 0.14 0.18 0.13 0.10 0.25 0.31 0.21 0.17 0.33 0.72 0.82 0.35 0.43 0.19 0.06 0.07 0.00 0.00 0.00 0.00 0.00 0.00 0.01 0.01 0.01 0.02 0.01 0.00 0.00 0.00 0.00 0.00
0.14 0.15 0.14 0.11 0.14 0.21 0.26 0.23 0.14 0.10 0.15 0.16 0.16 0.15 0.17 0.20 0.18 0.14 0.17 0.22 0.23 0.22 0.20 0.47 0.69 0.94 0.58 0.38 0.20 0.20 0.05 0.00 0.00 0.00 0.00 0.00 0.01 0.01 0.02 0.03 0.01 0.01 0.01 0.00 0.00 0.00 0.00
0.14 0.13 0.12 0.12 0.19 0.22 0.23 0.15 0.10 0.12 0.17 0.20 0.19 0.16 0.15 0.21 0.21 0.17 0.17 0.10 0.11 0.12 0.32 0.91 1.21 0.73 0.91 0.37 0.23 0.22 0.00 0.00 0.00 0.00 0.00 0.00 0.01 0.02 0.01 0.01 0.01 0.01 0.02 0.01 0.00 0.00 0.00
0.15 0.14 0.15 0.17 0.28 0.21 0.17 0.12 0.15 0.17 0.23 0.27 0.20 0.28 0.33 0.26 0.16 0.33 0.44 0.65 0.43 0.29 0.48 1.02 0.97 0.71 0.87 0.58 0.36 0.13 0.00 0.00 0.00 0.00 0.01 0.00 0.01 0.02 0.02 0.02 0.01 0.00 0.02 0.06 0.09 0.00 0.03
0.17 0.19 0.21 0.26 0.28 0.14 0.16 0.14 0.18 0.25 0.37 0.40 0.38 0.71 0.63 0.28 0.22 0.31 0.37 1.26 1.42 0.42 0.85 0.74 0.67 0.67 0.77 0.60 0.24 0.06 0.00 0.00 0.00 0.03 0.05 0.03 0.04 0.04 0.03 0.03 0.02 0.03 0.06 0.06 0.12 0.08 0.06
0.22 0.31 0.24 0.36 0.14 0.14 0.15 0.19 0.22 0.35 0.41 0.39 0.43 0.57 0.37 0.22 0.12 0.18 0.20 0.62 0.99 1.07 1.19 0.77 0.41 0.28 0.33 0.34 0.05 0.02 0.00 0.00 0.01 0.05 0.03 0.04 0.03 0.01 0.00 0.00 0.00 0.00 0.03 0.06 0.13 0.21 0.03
0.32 0.38 0.35 0.24 0.12 0.10 0.15 0.16 0.24 0.33 0.27 0.21 0.27 0.29 0.20 0.16 0.21 0.22 0.08 0.32 0.53 1.07 1.71 1.15 0.48 0.31 0.35 0.15 0.04 0.00 0.00 0.00 0.00 0.01 0.04 0.04 0.01 0.00 0.03 0.03 0.02 0.02 0.04 0.06 0.08 0.16 0.05
0.42 0.41 0.28 0.14 0.10 0.11 0.13 0.16 0.27 0.22 0.21 0.23 0.25 0.16 0.09 0.05 0.13 0.29 0.23 0.36 0.63 0.37 0.84 1.20 0.77 0.54 0.40 0.10 0.02 0.00 0.00 0.00 0.00 0.00 0.02 0.03 0.01 0.01 0.03 0.03 0.04 0.03 0.03 0.06 0.16 0.12 0.07
0.47 0.31 0.14 0.07 0.08 0.11 0.13 0.14 0.15 0.17 0.18 0.18 0.25 0.25 0.11 0.03 0.06 0.14 0.49 0.44 0.20 0.05 0.26 0.84 0.44 0.32 0.12 0.02 0.00 0.00 0.00 0.00 0.00 0.00 0.01 0.01 0.00 0.02 0.04 0.05 0.07 0.04 0.02 0.07 0.19 0.33 0.36
0.42 0.17 0.07 0.04 0.07 0.10 0.11 0.11 0.17 0.23 0.33 0.29 0.23 0.12 0.05 0.02 0.10 0.14 0.12 0.17 0.02 0.02 0.23 0.36 0.16 0.05 0.02 0.00 0.00 0.00 0.00 0.00 0.00 0.00 0.01 0.03 0.04 0.03 0.02 0.08 0.10 0.08 0.04 0.04 0.03 0.14 0.62
0.27 0.08 0.05 0.04 0.07 0.08 0.10 0.11 0.20 0.37 0.26 0.10 0.10 0.05 0.01 0.01 0.02 0.07 0.02 0.02 0.00 0.08 0.35 0.17 0.08 0.07 0.01 0.00 0.00 0.00 0.00 0.00 0.00 0.01 0.01 0.01 0.02 0.02 0.04 0.04 0.11 0.06 0.04 0.01 0.04 0.19 0.66
0.14 0.02 0.04 0.06 0.07 0.07 0.08 0.16 0.31 0.18 0.05 0.03 0.08 0.08 0.00 0.02 0.08 0.04 0.01 0.03 0.06 0.25 0.21 0.11 0.05 0.01 0.02 0.01 0.01 0.00 0.00 0.00 0.01 0.07 0.04 0.02 0.02 0.01 0.02 0.14 0.09 0.06 0.12 0.19 0.26 0.45 0.40
0.02 0.02 0.05 0.06 0.06 0.08 0.11 0.30 0.23 0.05 0.03 0.02 0.03 0.01 0.01 0.01 0.06 0.03 0.00 0.11 0.32 0.29 0.12 0.02 0.00 0.01 0.02 0.02 0.01 0.00 0.00 0.00 0.00 0.02 0.06 0.04 0.07 0.03 0.05 0.15 0.08 0.12 0.26 0.47 0.38 0.39 0.45
0.01 0.03 0.05 0.05 0.05 0.10 0.09 0.09 0.06 0.02 0.00 0.00 0.02 0.06 0.02 0.01 0.03 0.02 0.03 0.19 0.34 0.14 0.03 0.01 0.01 0.02 0.01 0.00 0.00 0.00 0.00 0.02 0.04 0.02 0.09 0.06 0.08 0.03 0.15 0.22 0.08 0.05 0.18 0.40 0.59 0.39 0.33
0.01 0.03 0.05 0.04 0.03 0.05 0.02 0.01 0.04 0.01 0.00 0.00 0.10 0.04 0.04 0.06 0.01 0.03 0.07 0.19 0.15 0.02 0.00 0.01 0.03 0.01 0.00 0.00 0.00 0.00 0.01 0.03 0.09 0.02 0.02 0.07 0.16 0.13 0.16 0.21 0.04 0.03 0.14 0.25 0.26 0.30 0.38
0.02 0.02 0.03 0.02 0.02 0.02 0.01 0.02 0.02 0.01 0.00 0.00 0.03 0.02 0.03 0.08 0.03 0.06 0.08 0.15 0.09 0.01 0.00 0.01 0.02 0.00 0.00 0.00 0.02 0.10 0.11 0.07 0.05 0.13 0.09 0.20 0.39 0.22 0.07 0.04 0.03 0.10 0.17 0.08 0.06 0.07 0.17
0.02 0.02 0.02 0.01 0.02 0.01 0.01 0.02 0.02 0.01 0.00 0.00 0.01 0.05 0.10 0.07 0.08 0.06 0.06 0.03 0.08 0.00 0.00 0.00 0.01 0.00 0.00 0.01 0.03 0.11 0.11 0.07 0.02 0.09 0.16 0.09 0.11 0.07 0.02 0.00 0.00 0.01 0.02 0.01 0.03 0.07 0.03
0.02 0.02 0.01 0.01 0.02 0.03 0.03 0.02 0.02 0.01 0.00 0.00 0.02 0.15 0.21 0.10 0.05 0.03 0.04 0.05 0.03 0.00 0.01 0.04 0.04 0.00 0.00 0.02 0.02 0.02 0.01 0.01 0.00 0.00 0.00 0.00 0.01 0.03 0.01 0.00 0.00 0.00 0.00 0.00 0.01 0.01 0.01
0.02 0.01 0.01 0.01 0.03 0.07 0.07 0.08 0.02 0.01 0.00 0.00 0.01 0.09 0.12 0.06 0.01 0.01 0.04 0.04 0.01 0.00 0.00 0.01 0.01 0.00 0.01 0.00 0.00 0.00 0.00 0.00 0.00 0.00 0.00 0.00 0.00 0.01 0.01 0.00 0.00 0.00 0.00 0.00 0.00 0.00 0.00
0.01 0.00 0.00 0.01 0.04 0.07 0.11 0.22 0.13 0.01 0.00 0.00 0.00 0.01 0.02 0.01 0.01 0.01 0.03 0.02 0.00 0.00 0.01 0.00 0.01 0.00 0.01 0.00 0.00 0.00 0.00 0.00 0.00 0.00 0.00 0.00 0.00 0.00 0.00 0.00 0.00 0.00 0.00 0.00 0.00 0.00 0.00
0.01 0.00 0.00 0.01 0.04 0.05 0.04 0.04 0.07 0.04 0.01 0.00 0.00 0.00 0.00 0.01 0.00 0.03 0.02 0.00 0.00 0.00 0.01 0.01 0.01 0.00 0.00 0.00 0.00 0.00 0.00 0.00 0.00 0.00 0.00 0.00 0.00 0.00 0.00 0.00 0.00 0.00 0.00 0.00 0.00 0.00 0.00
0.00 0.00 0.00 0.01 0.03 0.03 0.01 0.01 0.01 0.00 0.00 0.00 0.00 0.00 0.00 0.01 0.02 0.02 0.00 0.00 0.00 0.00 0.00 0.00 0.00 0.00 0.00 0.00 0.00 0.00 0.00 0.00 0.00 0.00 0.00 0.00 0.00 0.00 0.00 0.00 0.00 0.00 0.00 0.00 0.00 0.00 0.00
0.00 0.00 0.00 0.01 0.02 0.01 0.01 0.01 0.00 0.00 0.00 0.00 0.00 0.00 0.00 0.00 0.00 0.00 0.00 0.00 0.00 0.00 0.00 0.00 0.00 0.00 0.00 0.00 0.00 0.00 0.00 0.00 0.00 0.00 0.00 0.00 0.00 0.00 0.00 0.00 0.00 0.00 0.00 0.00 0.00 0.00 0.00
0.00 0.00 0.00 0.01 0.01 0.00 0.00 0.01 0.00 0.00 0.00 0.00 0.00 0.00 0.00 0.00 0.00 0.00 0.00 0.00 0.00 0.00 0.00 0.00 0.00 0.00 0.00 0.00 0.00 0.00 0.00 0.00 0.00 0.00 0.00 0.00 0.00 0.00 0.00 0.00 0.00 0.00 0.00 0.00 0.00 0.00 0.00
0.00 0.00 0.00 0.01 0.00 0.00 0.00 0.00 0.00 0.00 0.00 0.00 0.00 0.00 0.00 0.00 0.00 0.00 0.00 0.00 0.00 0.00 0.00 0.00 0.00 0.00 0.00 0.00 0.00 0.00 0.00 0.00 0.00 0.00 0.00 0.00 0.00 0.00 0.00 0.00 0.00 0.00 0.00 0.00 0.00 0.00 0.00
0.00 0.00 0.00 0.01 0.00 0.00 0.00 0.00 0.00 0.00 0.00 0.00 0.00 0.00 0.00 0.00 0.00 0.00 0.00 0.00 0.00 0.00 0.00 0.00 0.00 0.00 0.00 0.00 0.00 0.00 0.00 0.00 0.00 0.00 0.00 0.00 0.00 0.00 0.00 0.00 0.00 0.00 0.00 0.00 0.00 0.00 0.00
0.00 0.00 0.00 0.00 0.00 0.00 0.00 0.00 0.00 0.00 0.00 0.00 0.00 0.00 0.00 0.00 0.00 0.00 0.00 0.00 0.00 0.00 0.00 0.00 0.00 0.00 0.00 0.00 0.00 0.00 0.00 0.00 0.00 0.00 0.00 0.00 0.00 0.00 0.00 0.00 0.00 0.00 0.00 0.00 0.00 0.00 0.00
0.00 0.00 0.01 0.01 0.00 0.00 0.00 0.00 0.00 0.00 0.00 0.00 0.00 0.00 0.00 0.00 0.00 0.00 0.00 0.00 0.00 0.00 0.00 0.00 0.00 0.00 0.00 0.00 0.00 0.00 0.00 0.00 0.00 0.00 0.00 0.00 0.00 0.00 0.00 0.00 0.00 0.00 0.00 0.00 0.00 0.00 0.00

GFSGBSN_prec_precacc24_123.txt.gz
Total_Precipitation_Accumulation
0.14 0.13 0.14 0.16 0.15 0.16 0.25 0.33 0.37 0.46 0.57 0.41 0.40 0.39 0.24 0.35 0.36 0.36 0.31 0.45 0.45 0.38 0.23 0.18 0.55 0.88 0.56 0.56 0.32 0.02 0.07 0.03 0.00 0.00 0.00 0.00 0.00 0.00 0.00 0.00 0.00 0.00 0.00 0.00 0.00 0.00 0.00
0.13 0.14 0.15 0.15 0.15 0.16 0.29 0.35 0.40 0.52 0.37 0.29 0.29 0.22 0.15 0.15 0.19 0.14 0.08 0.26 0.34 0.22 0.17 0.34 0.75 0.85 0.50 0.58 0.27 0.09 0.08 0.00 0.00 0.00 0.00 0.00 0.00 0.00 0.00 0.00 0.00 0.00 0.00 0.00 0.00 0.00 0.00
0.13 0.14 0.13 0.11 0.15 0.21 0.26 0.23 0.14 0.10 0.17 0.20 0.18 0.16 0.18 0.22 0.21 0.15 0.15 0.25 0.24 0.21 0.20 0.49 0.72 0.98 0.71 0.59 0.27 0.28 0.06 0.00 0.00 0.00 0.00 0.00 0.00 0.00 0.01 0.00 0.00 0.00 0.00 0.00 0.00 0.00 0.00
0.14 0.13 0.12 0.12 0.19 0.23 0.23 0.15 0.10 0.10 0.18 0.24 0.22 0.16 0.16 0.23 0.22 0.18 0.15 0.13 0.09 0.12 0.34 0.92 1.22 0.76 1.09 0.62 0.31 0.27 0.00 0.00 0.00 0.00 0.00 0.00 0.00 0.01 0.01 0.00 0.00 0.00 0.00 0.00 0.00 0.00 0.00
0.15 0.14 0.15 0.16 0.27 0.20 0.16 0.13 0.12 0.17 0.23 0.28 0.22 0.28 0.34 0.30 0.23 0.25 0.34 0.62 0.39 0.27 0.47 1.01 0.97 0.74 1.11 0.85 0.43 0.14 0.00 0.00 0.00 0.00 0.00 0.00 0.00 0.01 0.01 0.01 0.01 0.00 0.00 0.00 0.00 0.00 0.00
0.17 0.19 0.20 0.24 0.26 0.12 0.14 0.11 0.17 0.22 0.32 0.37 0.40 0.72 0.63 0.31 0.29 0.28 0.28 1.17 1.38 0.41 0.83 0.73 0.70 0.71 0.93 0.76 0.29 0.07 0.00 0.00 0.00 0.02 0.03 0.01 0.01 0.02 0.02 0.02 0.01 0.01 0.04 0.00 0.03 0.06 0.03
0.22 0.31 0.24 0.35 0.12 0.11 0.10 0.14 0.18 0.30 0.39 0.34 0.39 0.57 0.37 0.22 0.11 0.13 0.15 0.57 0.94 1.05 1.19 0.79 0.45 0.30 0.40 0.43 0.10 0.03 0.00 0.00 0.00 0.03 0.02 0.02 0.02 0.01 0.00 0.00 0.00 0.00 0.00 0.00 0.01 0.08 0.02
0.32 0.38 0.35 0.23 0.11 0.07 0.10 0.13 0.20 0.29 0.23 0.16 0.21 0.28 0.20 0.16 0.19 0.17 0.06 0.30 0.52 1.06 1.71 1.18 0.53 0.34 0.39 0.17 0.06 0.00 0.00 0.00 0.00 0.00 0.02 0.03 0.01 0.00 0.00 0.01 0.02 0.02 0.03 0.01 0.03 0.11 0.03
0.39 0.39 0.27 0.13 0.07 0.05 0.07 0.10 0.21 0.18 0.18 0.16 0.14 0.15 0.09 0.02 0.06 0.18 0.17 0.34 0.63 0.37 0.86 1.24 0.82 0.63 0.47 0.11 0.03 0.00 0.00 0.00 0.00 0.00 0.01 0.03 0.01 0.01 0.01 0.03 0.03 0.02 0.01 0.00 0.09 0.08 0.04
0.37 0.24 0.11 0.05 0.04 0.04 0.04 0.06 0.09 0.11 0.12 0.09 0.14 0.21 0.11 0.02 0.04 0.10 0.32 0.43 0.20 0.05 0.26 0.88 0.47 0.37 0.14 0.03 0.00 0.00 0.00 0.00 0.00 0.00 0.00 0.00 0.00 0.02 0.03 0.04 0.04 0.02 0.02 0.04 0.12 0.26 0.31
0.22 0.10 0.05 0.02 0.03 0.03 0.05 0.06 0.11 0.13 0.18 0.12 0.08 0.07 0.05 0.01 0.07 0.14 0.10 0.17 0.02 0.01 0.20 0.40 0.17 0.05 0.02 0.00 0.00 0.00 0.00 0.00 0.00 0.00 0.00 0.01 0.03 0.02 0.01 0.02 0.02 0.02 0.02 0.01 0.02 0.13 0.58
0.11 0.03 0.04 0.03 0.03 0.04 0.05 0.05 0.08 0.12 0.13 0.06 0.04 0.02 0.01 0.00 0.00 0.05 0.01 0.01 0.00 0.05 0.33 0.17 0.08 0.06 0.01 0.00 0.00 0.00 0.00 0.00 0.00 0.00 0.00 0.00 0.01 0.01 0.02 0.01 0.01 0.01 0.01 0.00 0.02 0.16 0.61
0.04 0.01 0.03 0.03 0.03 0.02 0.03 0.04 0.02 0.01 0.01 0.01 0.02 0.03 0.00 0.01 0.05 0.02 0.00 0.00 0.04 0.21 0.20 0.10 0.05 0.01 0.01 0.00 0.00 0.00 0.00 0.00 0.00 0.03 0.02 0.01 0.01 0.01 0.01 0.03 0.01 0.02 0.08 0.15 0.22 0.42 0.33
0.01 0.02 0.03 0.02 0.03 0.03 0.02 0.01 0.01 0.00 0.00 0.00 0.00 0.00 0.00 0.00 0.05 0.02 0.00 0.04 0.26 0.28 0.12 0.02 0.00 0.01 0.02 0.01 0.01 0.00 0.00 0.00 0.00 0.01 0.04 0.03 0.05 0.00 0.01 0.04 0.01 0.10 0.22 0.44 0.38 0.37 0.42
0.01 0.02 0.02 0.02 0.02 0.02 0.01 0.01 0.00 0.00 0.00 0.00 0.00 0.00 0.01 0.01 0.02 0.01 0.01 0.15 0.29 0.12 0.03 0.01 0.01 0.01 0.01 0.00 0.00 0.00 0.00 0.01 0.03 0.01 0.08 0.04 0.02 0.00 0.03 0.03 0.01 0.04 0.19 0.40 0.60 0.39 0.34
0.01 0.01 0.02 0.02 0.01 0.01 0.01 0.00 0.00 0.00 0.00 0.00 0.03 0.02 0.03 0.03 0.00 0.00 0.02 0.17 0.11 0.01 0.00 0.00 0.02 0.00 0.00 0.00 0.00 0.00 0.01 0.03 0.08 0.02 0.02 0.04 0.09 0.06 0.09 0.06 0.00 0.03 0.14 0.26 0.30 0.32 0.39
0.01 0.01 0.02 0.01 0.01 0.01 0.00 0.00 0.00 0.00 0.00 0.00 0.01 0.01 0.02 0.03 0.00 0.00 0.04 0.13 0.04 0.00 0.00 0.01 0.02 0.00 0.00 0.00 0.02 0.10 0.11 0.07 0.05 0.13 0.08 0.17 0.32 0.16 0.04 0.02 0.03 0.10 0.18 0.09 0.08 0.08 0.18
0.01 0.01 0.01 0.00 0.00 0.00 0.01 0.01 0.00 0.00 0.00 0.00 0.00 0.01 0.02 0.01 0.00 0.01 0.03 0.02 0.01 0.00 0.00 0.00 0.01 0.00 0.00 0.01 0.03 0.11 0.11 0.07 0.02 0.09 0.15 0.08 0.10 0.03 0.00 0.00 0.00 0.02 0.02 0.02 0.05 0.08 0.03
0.01 0.00 0.00 0.00 0.01 0.01 0.02 0.02 0.01 0.00 0.00 0.00 0.01 0.02 0.01 0.01 0.01 0.01 0.02 0.01 0.00 0.00 0.00 0.01 0.02 0.00 0.00 0.01 0.01 0.02 0.01 0.01 0.00 0.00 0.00 0.00 0.01 0.01 0.01 0.00 0.00 0.00 0.00 0.00 0.01 0.01 0.01
0.00 0.00 0.00 0.00 0.01 0.03 0.04 0.05 0.01 0.00 0.00 0.00 0.01 0.01 0.00 0.00 0.00 0.00 0.01 0.00 0.00 0.00 0.00 0.00 0.00 0.00 0.00 0.00 0.00 0.00 0.00 0.00 0.00 0.00 0.00 0.00 0.00 0.01 0.01 0.00 0.00 0.00 0.00 0.00 0.00 0.00 0.00
0.00 0.00 0.00 0.00 0.02 0.04 0.04 0.08 0.01 0.00 0.00 0.00 0.00 0.00 0.00 0.00 0.00 0.00 0.00 0.00 0.00 0.00 0.00 0.00 0.00 0.00 0.01 0.00 0.00 0.00 0.00 0.00 0.00 0.00 0.00 0.00 0.00 0.00 0.00 0.00 0.00 0.00 0.00 0.00 0.00 0.00 0.00
0.00 0.00 0.00 0.01 0.03 0.03 0.01 0.01 0.00 0.00 0.00 0.00 0.00 0.00 0.00 0.00 0.00 0.00 0.00 0.00 0.00 0.00 0.00 0.00 0.01 0.00 0.00 0.00 0.00 0.00 0.00 0.00 0.00 0.00 0.00 0.00 0.00 0.00 0.00 0.00 0.00 0.00 0.00 0.00 0.00 0.00 0.00
0.00 0.00 0.00 0.01 0.02 0.02 0.00 0.00 0.01 0.00 0.00 0.00 0.00 0.00 0.00 0.00 0.00 0.00 0.00 0.00 0.00 0.00 0.00 0.00 0.00 0.00 0.00 0.00 0.00 0.00 0.00 0.00 0.00 0.00 0.00 0.00 0.00 0.00 0.00 0.00 0.00 0.00 0.00 0.00 0.00 0.00 0.00
0.00 0.00 0.00 0.01 0.02 0.00 0.01 0.00 0.00 0.00 0.00 0.00 0.00 0.00 0.00 0.00 0.00 0.00 0.00 0.00 0.00 0.00 0.00 0.00 0.00 0.00 0.00 0.00 0.00 0.00 0.00 0.00 0.00 0.00 0.00 0.00 0.00 0.00 0.00 0.00 0.00 0.00 0.00 0.00 0.00 0.00 0.00
0.00 0.00 0.00 0.01 0.01 0.00 0.00 0.00 0.00 0.00 0.00 0.00 0.00 0.00 0.00 0.00 0.00 0.00 0.00 0.00 0.00 0.00 0.00 0.00 0.00 0.00 0.00 0.00 0.00 0.00 0.00 0.00 0.00 0.00 0.00 0.00 0.00 0.00 0.00 0.00 0.00 0.00 0.00 0.00 0.00 0.00 0.00
0.00 0.00 0.00 0.01 0.00 0.00 0.00 0.00 0.00 0.00 0.00 0.00 0.00 0.00 0.00 0.00 0.00 0.00 0.00 0.00 0.00 0.00 0.00 0.00 0.00 0.00 0.00 0.00 0.00 0.00 0.00 0.00 0.00 0.00 0.00 0.00 0.00 0.00 0.00 0.00 0.00 0.00 0.00 0.00 0.00 0.00 0.00
0.00 0.00 0.00 0.01 0.00 0.00 0.00 0.00 0.00 0.00 0.00 0.00 0.00 0.00 0.00 0.00 0.00 0.00 0.00 0.00 0.00 0.00 0.00 0.00 0.00 0.00 0.00 0.00 0.00 0.00 0.00 0.00 0.00 0.00 0.00 0.00 0.00 0.00 0.00 0.00 0.00 0.00 0.00 0.00 0.00 0.00 0.00
0.00 0.00 0.00 0.00 0.00 0.00 0.00 0.00 0.00 0.00 0.00 0.00 0.00 0.00 0.00 0.00 0.00 0.00 0.00 0.00 0.00 0.00 0.00 0.00 0.00 0.00 0.00 0.00 0.00 0.00 0.00 0.00 0.00 0.00 0.00 0.00 0.00 0.00 0.00 0.00 0.00 0.00 0.00 0.00 0.00 0.00 0.00
0.00 0.00 0.01 0.01 0.01 0.00 0.00 0.00 0.00 0.00 0.00 0.00 0.00 0.00 0.00 0.00 0.00 0.00 0.00 0.00 0.00 0.00 0.00 0.00 0.00 0.00 0.00 0.00 0.00 0.00 0.00 0.00 0.00 0.00 0.00 0.00 0.00 0.00 0.00 0.00 0.00 0.00 0.00 0.00 0.00 0.00 0.00

GFSGBSN_prec_precacc24_126.txt.gz
Total_Precipitation_Accumulation
0.13 0.13 0.14 0.16 0.15 0.16 0.24 0.33 0.37 0.47 0.63 0.46 0.41 0.42 0.29 0.43 0.49 0.72 0.50 0.41 0.32 0.34 0.23 0.20 0.67 1.28 0.95 0.85 0.39 0.02 0.07 0.03 0.00 0.00 0.00 0.00 0.00 0.00 0.00 0.00 0.00 0.00 0.00 0.00 0.00 0.00 0.00
0.13 0.14 0.15 0.15 0.15 0.16 0.29 0.34 0.40 0.54 0.41 0.33 0.32 0.25 0.18 0.19 0.34 0.26 0.11 0.22 0.25 0.18 0.17 0.39 0.92 1.22 0.66 0.78 0.39 0.09 0.08 0.00 0.00 0.00 0.00 0.00 0.00 0.00 0.00 0.00 0.00 0.00 0.00 0.00 0.00 0.00 0.00
0.13 0.14 0.14 0.11 0.15 0.21 0.25 0.23 0.15 0.12 0.18 0.22 0.21 0.19 0.20 0.25 0.27 0.20 0.18 0.19 0.11 0.13 0.21 0.53 0.77 1.04 0.89 0.83 0.41 0.35 0.06 0.00 0.00 0.00 0.00 0.00 0.00 0.00 0.00 0.00 0.00 0.00 0.00 0.00 0.00 0.00 0.00
0.14 0.13 0.12 0.12 0.19 0.22 0.22 0.14 0.10 0.10 0.17 0.23 0.21 0.16 0.18 0.25 0.28 0.27 0.19 0.09 0.05 0.09 0.32 0.92 1.21 0.78 1.25 0.82 0.44 0.34 0.01 0.00 0.00 0.00 0.00 0.00 0.00 0.00 0.00 0.00 0.00 0.00 0.00 0.00 0.00 0.00 0.00
0.15 0.14 0.15 0.16 0.27 0.21 0.16 0.11 0.11 0.17 0.21 0.22 0.19 0.27 0.33 0.31 0.23 0.25 0.18 0.52 0.35 0.24 0.45 1.01 0.97 0.78 1.27 0.97 0.48 0.15 0.00 0.00 0.00 0.00 0.00 0.00 0.00 0.00 0.00 0.00 0.00 0.00 0.00 0.00 0.00 0.00 0.00
0.16 0.19 0.19 0.24 0.25 0.12 0.14 0.10 0.13 0.17 0.24 0.27 0.32 0.68 0.62 0.30 0.30 0.29 0.20 0.98 1.20 0.34 0.78 0.70 0.68 0.74 1.08 0.83 0.31 0.07 0.00 0.00 0.00 0.02 0.02 0.01 0.01 0.00 0.00 0.00 0.00 0.00 0.02 0.00 0.00 0.00 0.00
0.18 0.27 0.18 0.25 0.09 0.10 0.10 0.10 0.12 0.16 0.22 0.23 0.24 0.47 0.34 0.22 0.11 0.12 0.08 0.50 0.80 0.87 1.13 0.81 0.47 0.32 0.51 0.49 0.11 0.03 0.00 0.00 0.00 0.02 0.01 0.01 0.00 0.00 0.00 0.00 0.00 0.00 0.00 0.00 0.00 0.00 0.00
0.23 0.24 0.07 0.06 0.05 0.06 0.07 0.07 0.10 0.12 0.11 0.10 0.12 0.20 0.16 0.16 0.18 0.13 0.05 0.27 0.49 1.01 1.71 1.19 0.55 0.37 0.45 0.19 0.07 0.00 0.00 0.00 0.00 0.00 0.01 0.02 0.00 0.00 0.00 0.00 0.00 0.01 0.03 0.01 0.00 0.04 0.01
0.16 0.06 0.04 0.04 0.05 0.03 0.04 0.05 0.05 0.07 0.11 0.06 0.04 0.05 0.03 0.01 0.04 0.07 0.12 0.33 0.62 0.37 0.86 1.31 0.88 0.66 0.48 0.11 0.03 0.00 0.00 0.00 0.00 0.00 0.00 0.00 0.00 0.00 0.00 0.01 0.03 0.01 0.01 0.00 0.01 0.02 0.00
0.04 0.04 0.04 0.04 0.04 0.02 0.02 0.03 0.05 0.05 0.05 0.03 0.01 0.03 0.02 0.01 0.01 0.06 0.16 0.20 0.18 0.05 0.23 0.88 0.47 0.37 0.14 0.03 0.00 0.00 0.00 0.00 0.00 0.00 0.00 0.00 0.00 0.00 0.00 0.01 0.03 0.01 0.00 0.01 0.02 0.10 0.08
0.02 0.03 0.04 0.03 0.02 0.01 0.02 0.02 0.04 0.04 0.02 0.00 0.01 0.01 0.01 0.01 0.03 0.09 0.08 0.12 0.01 0.01 0.15 0.37 0.16 0.05 0.02 0.00 0.00 0.00 0.00 0.00 0.00 0.00 0.00 0.00 0.01 0.00 0.00 0.00 0.01 0.00 0.00 0.00 0.01 0.09 0.21
0.02 0.02 0.04 0.03 0.02 0.01 0.02 0.02 0.01 0.01 0.01 0.02 0.02 0.01 0.01 0.00 0.00 0.02 0.00 0.01 0.00 0.02 0.28 0.15 0.07 0.06 0.00 0.00 0.00 0.00 0.00 0.00 0.00 0.00 0.00 0.00 0.00 0.00 0.00 0.00 0.01 0.00 0.00 0.00 0.01 0.11 0.36
0.01 0.02 0.03 0.03 0.02 0.01 0.02 0.01 0.00 0.00 0.00 0.01 0.00 0.00 0.00 0.01 0.02 0.00 0.00 0.00 0.02 0.14 0.15 0.07 0.04 0.00 0.00 0.00 0.00 0.00 0.00 0.00 0.00 0.00 0.00 0.00 0.00 0.00 0.00 0.00 0.00 0.01 0.05 0.08 0.17 0.32 0.21
0.01 0.02 0.03 0.02 0.02 0.02 0.02 0.01 0.00 0.00 0.00 0.00 0.00 0.00 0.00 0.00 0.02 0.00 0.00 0.01 0.18 0.23 0.06 0.00 0.00 0.00 0.01 0.01 0.00 0.00 0.00 0.00 0.00 0.00 0.01 0.01 0.02 0.00 0.00 0.00 0.01 0.02 0.08 0.31 0.29 0.26 0.25
0.01 0.02 0.02 0.02 0.02 0.02 0.01 0.01 0.00 0.00 0.00 0.00 0.00 0.00 0.00 0.00 0.00 0.00 0.00 0.06 0.16 0.07 0.02 0.00 0.00 0.00 0.00 0.00 0.00 0.00 0.00 0.00 0.00 0.00 0.04 0.02 0.00 0.00 0.00 0.00 0.00 0.02 0.18 0.40 0.54 0.36 0.27
0.01 0.01 0.01 0.01 0.01 0.01 0.01 0.00 0.00 0.00 0.00 0.00 0.00 0.00 0.00 0.00 0.00 0.00 0.01 0.09 0.04 0.00 0.00 0.00 0.01 0.00 0.00 0.00 0.00 0.00 0.00 0.01 0.04 0.01 0.01 0.02 0.04 0.01 0.00 0.00 0.00 0.03 0.15 0.26 0.29 0.30 0.35
0.00 0.01 0.01 0.01 0.00 0.01 0.00 0.00 0.00 0.00 0.00 0.00 0.00 0.00 0.00 0.00 0.00 0.00 0.01 0.05 0.00 0.00 0.00 0.01 0.01 0.00 0.00 0.00 0.02 0.08 0.09 0.06 0.04 0.11 0.07 0.14 0.13 0.04 0.00 0.00 0.02 0.10 0.18 0.09 0.09 0.08 0.19
0.00 0.00 0.01 0.00 0.00 0.00 0.01 0.01 0.00 0.00 0.00 0.00 0.00 0.00 0.00 0.00 0.00 0.00 0.00 0.00 0.00 0.00 0.00 0.00 0.00 0.00 0.00 0.01 0.03 0.10 0.09 0.06 0.02 0.06 0.07 0.05 0.04 0.00 0.00 0.00 0.00 0.02 0.02 0.02 0.06 0.10 0.04
0.00 0.00 0.00 0.00 0.00 0.01 0.01 0.02 0.00 0.00 0.00 0.00 0.00 0.00 0.00 0.00 0.00 0.00 0.00 0.00 0.00 0.00 0.00 0.00 0.00 0.00 0.00 0.00 0.00 0.01 0.01 0.01 0.00 0.00 0.00 0.00 0.01 0.00 0.00 0.00 0.00 0.00 0.00 0.00 0.01 0.02 0.01
0.00 0.00 0.00 0.00 0.01 0.02 0.02 0.02 0.01 0.00 0.00 0.00 0.00 0.00 0.00 0.00 0.00 0.00 0.00 0.00 0.00 0.00 0.00 0.00 0.00 0.00 0.00 0.00 0.00 0.00 0.00 0.00 0.00 0.00 0.00 0.00 0.00 0.00 0.00 0.00 0.00 0.00 0.00 0.00 0.00 0.00 0.00
0.00 0.00 0.00 0.00 0.01 0.02 0.02 0.01 0.00 0.00 0.00 0.00 0.00 0.00 0.00 0.00 0.00 0.00 0.00 0.00 0.00 0.00 0.00 0.00 0.00 0.00 0.00 0.00 0.00 0.00 0.00 0.00 0.00 0.00 0.00 0.00 0.00 0.00 0.00 0.00 0.00 0.00 0.00 0.00 0.00 0.00 0.00
0.00 0.00 0.00 0.01 0.02 0.02 0.01 0.00 0.00 0.00 0.00 0.00 0.00 0.00 0.00 0.00 0.00 0.00 0.00 0.00 0.00 0.00 0.00 0.00 0.00 0.00 0.00 0.00 0.00 0.00 0.00 0.00 0.00 0.00 0.00 0.00 0.00 0.00 0.00 0.00 0.00 0.00 0.00 0.00 0.00 0.00 0.00
0.00 0.00 0.00 0.01 0.01 0.01 0.00 0.00 0.00 0.00 0.00 0.00 0.00 0.00 0.00 0.00 0.00 0.00 0.00 0.00 0.00 0.00 0.00 0.00 0.00 0.00 0.00 0.00 0.00 0.00 0.00 0.00 0.00 0.00 0.00 0.00 0.00 0.00 0.00 0.00 0.00 0.00 0.00 0.00 0.00 0.00 0.00
0.00 0.00 0.00 0.00 0.01 0.00 0.00 0.00 0.00 0.00 0.00 0.00 0.00 0.00 0.00 0.00 0.00 0.00 0.00 0.00 0.00 0.00 0.00 0.00 0.00 0.00 0.00 0.00 0.00 0.00 0.00 0.00 0.00 0.00 0.00 0.00 0.00 0.00 0.00 0.00 0.00 0.00 0.00 0.00 0.00 0.00 0.00
0.00 0.00 0.00 0.00 0.01 0.00 0.00 0.00 0.00 0.00 0.00 0.00 0.00 0.00 0.00 0.00 0.00 0.00 0.00 0.00 0.00 0.00 0.00 0.00 0.00 0.00 0.00 0.00 0.00 0.00 0.00 0.00 0.00 0.00 0.00 0.00 0.00 0.00 0.00 0.00 0.00 0.00 0.00 0.00 0.00 0.00 0.00
0.00 0.00 0.00 0.00 0.00 0.00 0.00 0.00 0.00 0.00 0.00 0.00 0.00 0.00 0.00 0.00 0.00 0.00 0.00 0.00 0.00 0.00 0.00 0.00 0.00 0.00 0.00 0.00 0.00 0.00 0.00 0.00 0.00 0.00 0.00 0.00 0.00 0.00 0.00 0.00 0.00 0.00 0.00 0.00 0.00 0.00 0.00
0.00 0.00 0.00 0.00 0.00 0.00 0.00 0.00 0.00 0.00 0.00 0.00 0.00 0.00 0.00 0.00 0.00 0.00 0.00 0.00 0.00 0.00 0.00 0.00 0.00 0.00 0.00 0.00 0.00 0.00 0.00 0.00 0.00 0.00 0.00 0.00 0.00 0.00 0.00 0.00 0.00 0.00 0.00 0.00 0.00 0.00 0.00
0.00 0.00 0.00 0.00 0.00 0.00 0.00 0.00 0.00 0.00 0.00 0.00 0.00 0.00 0.00 0.00 0.00 0.00 0.00 0.00 0.00 0.00 0.00 0.00 0.00 0.00 0.00 0.00 0.00 0.00 0.00 0.00 0.00 0.00 0.00 0.00 0.00 0.00 0.00 0.00 0.00 0.00 0.00 0.00 0.00 0.00 0.00
0.00 0.00 0.01 0.01 0.01 0.01 0.01 0.00 0.00 0.00 0.00 0.00 0.00 0.00 0.00 0.00 0.00 0.00 0.00 0.00 0.00 0.00 0.00 0.00 0.00 0.00 0.00 0.00 0.00 0.00 0.00 0.00 0.00 0.00 0.00 0.00 0.00 0.00 0.00 0.00 0.00 0.00 0.00 0.00 0.00 0.00 0.00

GFSGBSN_prec_precacc24_129.txt.gz
Total_Precipitation_Accumulation
0.13 0.12 0.14 0.16 0.15 0.16 0.25 0.33 0.37 0.49 0.66 0.49 0.45 0.51 0.43 0.71 0.88 1.01 0.56 0.41 0.31 0.19 0.12 0.26 0.73 1.55 1.15 0.88 0.41 0.02 0.07 0.03 0.00 0.00 0.00 0.00 0.00 0.00 0.00 0.00 0.00 0.00 0.00 0.00 0.00 0.00 0.00
0.13 0.13 0.14 0.14 0.14 0.17 0.29 0.34 0.41 0.55 0.43 0.33 0.33 0.29 0.27 0.28 0.40 0.30 0.13 0.23 0.26 0.16 0.14 0.33 0.95 1.52 0.84 0.86 0.46 0.10 0.08 0.00 0.00 0.00 0.00 0.00 0.00 0.00 0.00 0.00 0.00 0.00 0.00 0.00 0.00 0.00 0.00
0.12 0.12 0.12 0.10 0.14 0.21 0.26 0.24 0.16 0.12 0.18 0.20 0.19 0.19 0.16 0.24 0.27 0.21 0.20 0.20 0.12 0.08 0.18 0.53 0.85 1.13 1.05 1.04 0.67 0.40 0.06 0.00 0.00 0.00 0.00 0.00 0.00 0.00 0.00 0.00 0.00 0.00 0.00 0.00 0.00 0.00 0.00
0.11 0.10 0.10 0.09 0.17 0.19 0.22 0.15 0.11 0.10 0.15 0.19 0.16 0.12 0.15 0.23 0.27 0.27 0.20 0.10 0.03 0.06 0.21 0.76 1.19 0.84 1.44 1.05 0.62 0.36 0.01 0.00 0.00 0.00 0.00 0.00 0.00 0.00 0.00 0.00 0.00 0.00 0.00 0.00 0.00 0.00 0.00
0.12 0.10 0.09 0.08 0.10 0.11 0.14 0.11 0.11 0.14 0.15 0.16 0.09 0.20 0.29 0.27 0.20 0.26 0.15 0.30 0.30 0.16 0.41 0.89 0.92 0.80 1.43 1.17 0.58 0.16 0.00 0.00 0.00 0.00 0.00 0.00 0.00 0.00 0.00 0.00 0.00 0.00 0.00 0.00 0.00 0.00 0.00
0.12 0.08 0.03 0.04 0.05 0.09 0.11 0.08 0.10 0.12 0.14 0.10 0.08 0.43 0.48 0.26 0.27 0.29 0.18 0.66 0.97 0.25 0.73 0.65 0.67 0.74 1.16 0.92 0.35 0.07 0.00 0.00 0.00 0.01 0.01 0.00 0.00 0.00 0.00 0.00 0.00 0.00 0.00 0.00 0.00 0.00 0.00
0.06 0.04 0.02 0.03 0.05 0.07 0.08 0.08 0.08 0.11 0.11 0.10 0.10 0.24 0.24 0.16 0.11 0.10 0.06 0.45 0.64 0.56 1.05 0.78 0.47 0.34 0.53 0.50 0.11 0.03 0.00 0.00 0.00 0.01 0.01 0.00 0.00 0.00 0.00 0.00 0.00 0.00 0.00 0.00 0.00 0.00 0.00
0.03 0.04 0.03 0.04 0.05 0.06 0.06 0.06 0.07 0.08 0.07 0.05 0.04 0.07 0.10 0.13 0.17 0.09 0.04 0.25 0.44 0.84 1.60 1.13 0.52 0.38 0.45 0.19 0.07 0.00 0.00 0.00 0.00 0.00 0.00 0.01 0.00 0.00 0.00 0.00 0.00 0.00 0.00 0.00 0.00 0.00 0.00
0.02 0.04 0.04 0.04 0.05 0.03 0.04 0.04 0.03 0.04 0.06 0.03 0.00 0.01 0.02 0.01 0.03 0.03 0.10 0.31 0.52 0.35 0.86 1.31 0.87 0.65 0.47 0.11 0.03 0.00 0.00 0.00 0.00 0.00 0.00 0.00 0.00 0.00 0.00 0.00 0.00 0.00 0.00 0.00 0.00 0.00 0.00
0.02 0.03 0.03 0.04 0.03 0.03 0.02 0.02 0.03 0.02 0.02 0.01 0.01 0.01 0.00 0.00 0.00 0.02 0.07 0.17 0.16 0.03 0.18 0.87 0.47 0.37 0.14 0.03 0.00 0.00 0.00 0.00 0.00 0.00 0.00 0.00 0.00 0.00 0.00 0.00 0.00 0.00 0.00 0.00 0.01 0.04 0.01
0.02 0.03 0.03 0.03 0.02 0.02 0.02 0.01 0.03 0.03 0.01 0.00 0.01 0.01 0.00 0.00 0.00 0.02 0.01 0.00 0.00 0.00 0.13 0.33 0.16 0.04 0.01 0.00 0.00 0.00 0.00 0.00 0.00 0.00 0.00 0.00 0.00 0.00 0.00 0.00 0.01 0.00 0.00 0.00 0.00 0.03 0.08
0.02 0.01 0.03 0.03 0.02 0.02 0.02 0.01 0.01 0.01 0.01 0.02 0.02 0.01 0.00 0.00 0.00 0.00 0.00 0.00 0.00 0.00 0.19 0.09 0.06 0.05 0.00 0.00 0.00 0.00 0.00 0.00 0.00 0.00 0.00 0.00 0.00 0.00 0.00 0.00 0.00 0.00 0.00 0.00 0.00 0.06 0.15
0.01 0.01 0.02 0.03 0.02 0.01 0.02 0.01 0.00 0.00 0.00 0.00 0.00 0.00 0.00 0.00 0.00 0.00 0.00 0.00 0.01 0.07 0.08 0.05 0.04 0.00 0.00 0.00 0.00 0.00 0.00 0.00 0.00 0.00 0.00 0.00 0.00 0.00 0.00 0.00 0.00 0.00 0.03 0.02 0.07 0.18 0.07
0.01 0.01 0.02 0.02 0.02 0.02 0.02 0.01 0.00 0.00 0.00 0.00 0.00 0.00 0.00 0.00 0.00 0.00 0.00 0.00 0.08 0.13 0.02 0.00 0.00 0.00 0.00 0.00 0.00 0.00 0.00 0.00 0.00 0.00 0.00 0.00 0.00 0.00 0.00 0.00 0.00 0.00 0.04 0.15 0.13 0.12 0.09
0.01 0.01 0.01 0.02 0.02 0.02 0.01 0.01 0.00 0.00 0.00 0.00 0.00 0.00 0.00 0.00 0.00 0.00 0.00 0.01 0.07 0.02 0.01 0.00 0.00 0.00 0.00 0.00 0.00 0.00 0.00 0.00 0.00 0.00 0.00 0.01 0.00 0.00 0.00 0.00 0.00 0.01 0.14 0.27 0.33 0.22 0.20
0.01 0.01 0.01 0.01 0.01 0.01 0.01 0.00 0.00 0.00 0.00 0.00 0.00 0.00 0.00 0.00 0.00 0.00 0.00 0.02 0.01 0.00 0.00 0.00 0.00 0.00 0.00 0.00 0.00 0.00 0.00 0.00 0.03 0.01 0.01 0.01 0.02 0.00 0.00 0.00 0.00 0.03 0.14 0.23 0.24 0.25 0.21
0.01 0.00 0.01 0.01 0.00 0.00 0.00 0.00 0.00 0.00 0.00 0.00 0.00 0.00 0.00 0.00 0.00 0.00 0.00 0.02 0.00 0.00 0.00 0.00 0.00 0.00 0.00 0.00 0.02 0.07 0.08 0.06 0.04 0.07 0.04 0.05 0.03 0.00 0.00 0.00 0.02 0.10 0.18 0.09 0.09 0.08 0.17
0.00 0.00 0.01 0.00 0.00 0.00 0.00 0.01 0.00 0.00 0.00 0.00 0.00 0.00 0.00 0.00 0.00 0.00 0.00 0.00 0.00 0.00 0.00 0.00 0.00 0.00 0.00 0.01 0.03 0.08 0.07 0.04 0.00 0.01 0.01 0.01 0.01 0.00 0.00 0.00 0.00 0.02 0.02 0.02 0.06 0.11 0.04
0.00 0.00 0.00 0.00 0.00 0.01 0.01 0.01 0.00 0.00 0.00 0.00 0.00 0.00 0.00 0.00 0.00 0.00 0.00 0.00 0.00 0.00 0.00 0.00 0.00 0.00 0.00 0.00 0.00 0.00 0.00 0.00 0.00 0.00 0.00 0.00 0.01 0.00 0.00 0.00 0.00 0.00 0.00 0.00 0.01 0.02 0.01
0.00 0.00 0.00 0.00 0.01 0.01 0.01 0.00 0.00 0.00 0.00 0.00 0.00 0.00 0.00 0.00 0.00 0.00 0.00 0.00 0.00 0.00 0.00 0.00 0.00 0.00 0.00 0.00 0.00 0.00 0.00 0.00 0.00 0.00 0.00 0.00 0.00 0.00 0.00 0.00 0.00 0.00 0.00 0.00 0.00 0.00 0.00
0.00 0.00 0.00 0.00 0.01 0.01 0.02 0.00 0.00 0.00 0.00 0.00 0.00 0.00 0.00 0.00 0.00 0.00 0.00 0.00 0.00 0.00 0.00 0.00 0.00 0.00 0.00 0.00 0.00 0.00 0.00 0.00 0.00 0.00 0.00 0.00 0.00 0.00 0.00 0.00 0.00 0.00 0.00 0.00 0.00 0.00 0.00
0.00 0.00 0.00 0.00 0.01 0.01 0.00 0.00 0.00 0.00 0.00 0.00 0.00 0.00 0.00 0.00 0.00 0.00 0.00 0.00 0.00 0.00 0.00 0.00 0.00 0.00 0.00 0.00 0.00 0.00 0.00 0.00 0.00 0.00 0.00 0.00 0.00 0.00 0.00 0.00 0.00 0.00 0.00 0.00 0.00 0.00 0.00
0.00 0.00 0.00 0.00 0.01 0.00 0.00 0.00 0.00 0.00 0.00 0.00 0.00 0.00 0.00 0.00 0.00 0.00 0.00 0.00 0.00 0.00 0.00 0.00 0.00 0.00 0.00 0.00 0.00 0.00 0.00 0.00 0.00 0.00 0.00 0.00 0.00 0.00 0.00 0.00 0.00 0.00 0.00 0.00 0.00 0.00 0.00
0.00 0.00 0.00 0.00 0.00 0.00 0.00 0.00 0.00 0.00 0.00 0.00 0.00 0.00 0.00 0.00 0.00 0.00 0.00 0.00 0.00 0.00 0.00 0.00 0.00 0.00 0.00 0.00 0.00 0.00 0.00 0.00 0.00 0.00 0.00 0.00 0.00 0.00 0.00 0.00 0.00 0.00 0.00 0.00 0.00 0.00 0.00
0.00 0.00 0.01 0.00 0.00 0.00 0.00 0.00 0.00 0.00 0.00 0.00 0.00 0.00 0.00 0.00 0.00 0.00 0.00 0.00 0.00 0.00 0.00 0.00 0.00 0.00 0.00 0.00 0.00 0.00 0.00 0.00 0.00 0.00 0.00 0.00 0.00 0.00 0.00 0.00 0.00 0.00 0.00 0.00 0.00 0.00 0.00
0.01 0.00 0.00 0.00 0.00 0.00 0.00 0.00 0.00 0.00 0.00 0.00 0.00 0.00 0.00 0.00 0.00 0.00 0.00 0.00 0.00 0.00 0.00 0.00 0.00 0.00 0.00 0.00 0.00 0.00 0.00 0.00 0.00 0.00 0.00 0.00 0.00 0.00 0.00 0.00 0.00 0.00 0.00 0.00 0.00 0.00 0.00
0.01 0.00 0.00 0.00 0.00 0.00 0.00 0.00 0.00 0.00 0.00 0.00 0.00 0.00 0.00 0.00 0.00 0.00 0.00 0.00 0.00 0.00 0.00 0.00 0.00 0.00 0.00 0.00 0.00 0.00 0.00 0.00 0.00 0.00 0.00 0.00 0.00 0.00 0.00 0.00 0.00 0.00 0.00 0.00 0.00 0.00 0.00
0.00 0.00 0.01 0.00 0.00 0.00 0.00 0.01 0.01 0.00 0.00 0.00 0.00 0.00 0.00 0.00 0.00 0.00 0.00 0.00 0.00 0.00 0.00 0.00 0.00 0.00 0.00 0.00 0.00 0.00 0.00 0.00 0.00 0.00 0.00 0.00 0.00 0.00 0.00 0.00 0.00 0.00 0.00 0.00 0.00 0.00 0.00
0.01 0.01 0.01 0.01 0.01 0.01 0.01 0.01 0.01 0.00 0.00 0.00 0.00 0.00 0.00 0.00 0.00 0.00 0.00 0.00 0.00 0.00 0.00 0.00 0.00 0.00 0.00 0.00 0.00 0.00 0.00 0.00 0.00 0.00 0.00 0.00 0.00 0.00 0.00 0.00 0.00 0.00 0.00 0.00 0.00 0.00 0.00

GFSGBSN_prec_precacc24_132.txt.gz
Total_Precipitation_Accumulation
0.10 0.09 0.11 0.13 0.13 0.14 0.23 0.32 0.36 0.48 0.65 0.47 0.42 0.49 0.49 0.79 0.90 1.00 0.56 0.41 0.31 0.22 0.14 0.22 0.95 1.75 1.14 0.97 0.42 0.02 0.07 0.03 0.00 0.00 0.00 0.00 0.00 0.00 0.00 0.00 0.00 0.00 0.00 0.00 0.00 0.00 0.00
0.08 0.08 0.09 0.10 0.09 0.11 0.20 0.29 0.38 0.56 0.43 0.32 0.30 0.23 0.21 0.21 0.36 0.30 0.16 0.27 0.31 0.20 0.08 0.16 0.83 1.48 0.83 0.89 0.46 0.10 0.08 0.00 0.00 0.00 0.00 0.00 0.00 0.00 0.00 0.00 0.00 0.00 0.00 0.00 0.00 0.00 0.00
0.08 0.07 0.06 0.05 0.07 0.08 0.11 0.13 0.11 0.12 0.19 0.18 0.15 0.12 0.07 0.14 0.23 0.23 0.26 0.27 0.16 0.08 0.08 0.32 0.69 0.98 1.00 1.06 0.69 0.40 0.06 0.00 0.00 0.00 0.00 0.00 0.00 0.00 0.00 0.00 0.00 0.00 0.00 0.00 0.00 0.00 0.00
0.07 0.04 0.04 0.04 0.07 0.08 0.13 0.11 0.11 0.10 0.14 0.15 0.11 0.07 0.06 0.12 0.21 0.26 0.22 0.15 0.10 0.09 0.08 0.65 1.07 0.74 1.49 1.11 0.64 0.36 0.01 0.00 0.00 0.00 0.00 0.00 0.00 0.00 0.00 0.00 0.00 0.00 0.00 0.00 0.00 0.00 0.00
0.06 0.04 0.03 0.04 0.07 0.10 0.13 0.09 0.10 0.13 0.13 0.13 0.07 0.11 0.16 0.16 0.16 0.25 0.14 0.13 0.20 0.14 0.25 0.75 0.77 0.72 1.55 1.29 0.60 0.16 0.00 0.00 0.00 0.00 0.00 0.00 0.00 0.00 0.00 0.00 0.00 0.00 0.00 0.00 0.00 0.00 0.00
0.05 0.04 0.02 0.04 0.05 0.08 0.09 0.07 0.08 0.11 0.12 0.06 0.06 0.24 0.28 0.20 0.21 0.28 0.17 0.20 0.51 0.13 0.50 0.55 0.54 0.73 1.32 1.07 0.37 0.07 0.00 0.00 0.00 0.00 0.00 0.00 0.00 0.00 0.00 0.00 0.00 0.00 0.00 0.00 0.00 0.00 0.00
0.03 0.04 0.03 0.03 0.04 0.05 0.06 0.06 0.06 0.07 0.08 0.05 0.03 0.06 0.10 0.14 0.08 0.08 0.02 0.29 0.30 0.36 0.77 0.73 0.46 0.36 0.61 0.52 0.11 0.03 0.00 0.00 0.00 0.00 0.00 0.00 0.00 0.00 0.00 0.00 0.00 0.00 0.00 0.00 0.00 0.00 0.00
0.02 0.04 0.03 0.03 0.03 0.04 0.03 0.05 0.05 0.04 0.04 0.02 0.01 0.02 0.04 0.10 0.12 0.05 0.03 0.22 0.28 0.60 1.40 1.05 0.51 0.39 0.46 0.19 0.07 0.00 0.00 0.00 0.00 0.00 0.00 0.00 0.00 0.00 0.00 0.00 0.00 0.00 0.00 0.00 0.00 0.00 0.00
0.02 0.03 0.03 0.02 0.03 0.03 0.02 0.03 0.02 0.03 0.03 0.01 0.00 0.00 0.00 0.01 0.02 0.02 0.10 0.30 0.46 0.29 0.71 1.19 0.80 0.64 0.48 0.11 0.03 0.00 0.00 0.00 0.00 0.00 0.00 0.00 0.00 0.00 0.00 0.00 0.00 0.00 0.00 0.00 0.00 0.00 0.00
0.02 0.03 0.02 0.02 0.02 0.02 0.02 0.01 0.02 0.01 0.01 0.01 0.00 0.00 0.00 0.00 0.00 0.02 0.07 0.16 0.14 0.03 0.17 0.80 0.42 0.33 0.13 0.03 0.00 0.00 0.00 0.00 0.00 0.00 0.00 0.00 0.00 0.00 0.00 0.00 0.00 0.00 0.00 0.00 0.00 0.02 0.01
0.02 0.03 0.03 0.02 0.01 0.01 0.02 0.01 0.00 0.01 0.00 0.00 0.00 0.00 0.00 0.00 0.00 0.01 0.01 0.00 0.00 0.00 0.10 0.29 0.14 0.04 0.01 0.00 0.00 0.00 0.00 0.00 0.00 0.00 0.00 0.00 0.00 0.00 0.00 0.00 0.00 0.00 0.00 0.00 0.00 0.02 0.05
0.02 0.01 0.03 0.02 0.02 0.01 0.01 0.01 0.00 0.00 0.00 0.00 0.00 0.00 0.00 0.00 0.00 0.00 0.00 0.00 0.00 0.00 0.15 0.05 0.03 0.01 0.00 0.00 0.00 0.00 0.00 0.00 0.00 0.00 0.00 0.00 0.00 0.00 0.00 0.00 0.00 0.00 0.00 0.00 0.00 0.03 0.08
0.01 0.01 0.02 0.03 0.02 0.01 0.01 0.01 0.00 0.00 0.00 0.00 0.00 0.00 0.00 0.00 0.00 0.00 0.00 0.00 0.00 0.04 0.04 0.03 0.02 0.00 0.00 0.00 0.00 0.00 0.00 0.00 0.00 0.00 0.00 0.00 0.00 0.00 0.00 0.00 0.00 0.00 0.02 0.01 0.01 0.06 0.02
0.01 0.01 0.01 0.02 0.02 0.02 0.02 0.01 0.00 0.00 0.00 0.00 0.00 0.00 0.00 0.00 0.00 0.00 0.00 0.00 0.03 0.06 0.01 0.00 0.00 0.00 0.00 0.00 0.00 0.00 0.00 0.00 0.00 0.00 0.00 0.00 0.00 0.00 0.00 0.00 0.00 0.00 0.02 0.08 0.05 0.02 0.02
0.01 0.01 0.01 0.01 0.01 0.01 0.01 0.01 0.00 0.00 0.00 0.00 0.00 0.00 0.00 0.00 0.00 0.00 0.00 0.00 0.03 0.01 0.00 0.00 0.00 0.00 0.00 0.00 0.00 0.00 0.00 0.00 0.00 0.00 0.00 0.00 0.00 0.00 0.00 0.00 0.00 0.01 0.06 0.12 0.16 0.06 0.14
0.01 0.01 0.01 0.00 0.01 0.01 0.01 0.00 0.00 0.00 0.00 0.00 0.00 0.00 0.00 0.00 0.00 0.00 0.00 0.01 0.00 0.00 0.00 0.00 0.00 0.00 0.00 0.00 0.00 0.00 0.00 0.00 0.02 0.01 0.01 0.01 0.01 0.00 0.00 0.00 0.00 0.03 0.09 0.16 0.17 0.14 0.15
0.00 0.00 0.01 0.01 0.00 0.00 0.00 0.00 0.00 0.00 0.00 0.00 0.00 0.00 0.00 0.00 0.00 0.00 0.00 0.00 0.00 0.00 0.00 0.00 0.00 0.00 0.00 0.00 0.02 0.06 0.06 0.04 0.02 0.03 0.03 0.03 0.01 0.00 0.00 0.00 0.02 0.09 0.13 0.08 0.08 0.07 0.13
0.00 0.00 0.00 0.00 0.00 0.00 0.00 0.00 0.00 0.00 0.00 0.00 0.00 0.00 0.00 0.00 0.00 0.00 0.00 0.00 0.00 0.00 0.00 0.00 0.00 0.00 0.00 0.01 0.02 0.06 0.03 0.02 0.00 0.00 0.01 0.00 0.01 0.00 0.00 0.00 0.00 0.01 0.02 0.02 0.06 0.10 0.04
0.00 0.01 0.00 0.00 0.00 0.01 0.01 0.00 0.00 0.00 0.00 0.00 0.00 0.00 0.00 0.00 0.00 0.00 0.00 0.00 0.00 0.00 0.00 0.00 0.00 0.00 0.00 0.00 0.00 0.00 0.00 0.00 0.00 0.00 0.00 0.00 0.01 0.00 0.00 0.00 0.00 0.00 0.00 0.00 0.01 0.02 0.01
0.00 0.00 0.00 0.00 0.00 0.01 0.01 0.00 0.00 0.00 0.00 0.00 0.00 0.00 0.00 0.00 0.00 0.00 0.00 0.00 0.00 0.00 0.00 0.00 0.00 0.00 0.00 0.00 0.00 0.00 0.00 0.00 0.00 0.00 0.00 0.00 0.00 0.00 0.00 0.00 0.00 0.00 0.00 0.00 0.00 0.00 0.00
0.00 0.00 0.00 0.00 0.00 0.01 0.01 0.00 0.00 0.00 0.00 0.00 0.00 0.00 0.00 0.00 0.00 0.00 0.00 0.00 0.00 0.00 0.00 0.00 0.00 0.00 0.00 0.00 0.00 0.00 0.00 0.00 0.00 0.00 0.00 0.00 0.00 0.00 0.00 0.00 0.00 0.00 0.00 0.00 0.00 0.00 0.00
0.00 0.00 0.00 0.00 0.00 0.01 0.00 0.00 0.00 0.00 0.00 0.00 0.00 0.00 0.00 0.00 0.00 0.00 0.00 0.00 0.00 0.00 0.00 0.00 0.00 0.00 0.00 0.00 0.00 0.00 0.00 0.00 0.00 0.00 0.00 0.00 0.00 0.00 0.00 0.00 0.00 0.00 0.00 0.00 0.00 0.00 0.00
0.00 0.00 0.00 0.00 0.00 0.00 0.00 0.00 0.00 0.00 0.00 0.00 0.00 0.00 0.00 0.00 0.00 0.00 0.00 0.00 0.00 0.00 0.00 0.00 0.00 0.00 0.00 0.00 0.00 0.00 0.00 0.00 0.00 0.00 0.00 0.00 0.00 0.00 0.00 0.00 0.00 0.00 0.00 0.00 0.00 0.00 0.00
0.00 0.00 0.00 0.00 0.01 0.00 0.00 0.00 0.00 0.00 0.00 0.00 0.00 0.00 0.00 0.00 0.00 0.00 0.00 0.00 0.00 0.00 0.00 0.00 0.00 0.00 0.00 0.00 0.00 0.00 0.00 0.00 0.00 0.00 0.00 0.00 0.00 0.00 0.00 0.00 0.00 0.00 0.00 0.00 0.00 0.00 0.00
0.00 0.00 0.01 0.00 0.00 0.00 0.00 0.00 0.00 0.00 0.00 0.00 0.00 0.00 0.00 0.00 0.00 0.00 0.00 0.00 0.00 0.00 0.00 0.00 0.00 0.00 0.00 0.00 0.00 0.00 0.00 0.00 0.00 0.00 0.00 0.00 0.00 0.00 0.00 0.00 0.00 0.00 0.00 0.00 0.00 0.00 0.00
0.01 0.01 0.01 0.00 0.00 0.00 0.00 0.00 0.00 0.00 0.00 0.00 0.00 0.00 0.00 0.00 0.00 0.00 0.00 0.00 0.00 0.00 0.00 0.00 0.00 0.00 0.00 0.00 0.00 0.00 0.00 0.00 0.00 0.00 0.00 0.00 0.00 0.00 0.00 0.00 0.00 0.00 0.00 0.00 0.00 0.00 0.00
0.01 0.01 0.00 0.00 0.00 0.00 0.00 0.00 0.00 0.00 0.00 0.00 0.00 0.00 0.00 0.00 0.00 0.00 0.00 0.00 0.00 0.00 0.00 0.00 0.00 0.00 0.00 0.00 0.00 0.00 0.00 0.00 0.00 0.00 0.00 0.00 0.00 0.00 0.00 0.00 0.00 0.00 0.00 0.00 0.00 0.00 0.00
0.01 0.01 0.01 0.00 0.00 0.00 0.00 0.01 0.01 0.01 0.00 0.00 0.00 0.00 0.00 0.00 0.00 0.00 0.00 0.00 0.00 0.00 0.00 0.00 0.00 0.00 0.00 0.00 0.00 0.00 0.00 0.00 0.00 0.00 0.00 0.00 0.00 0.00 0.00 0.00 0.00 0.00 0.00 0.00 0.00 0.00 0.00
0.03 0.01 0.01 0.01 0.02 0.02 0.01 0.01 0.01 0.02 0.02 0.01 0.00 0.00 0.00 0.00 0.00 0.00 0.00 0.00 0.00 0.00 0.00 0.00 0.00 0.00 0.00 0.00 0.00 0.00 0.00 0.00 0.00 0.00 0.00 0.00 0.00 0.00 0.00 0.00 0.00 0.00 0.00 0.00 0.00 0.00 0.00

GFSGBSN_prec_precacc24_135.txt.gz
Total_Precipitation_Accumulation
0.05 0.03 0.04 0.06 0.06 0.07 0.11 0.13 0.16 0.23 0.42 0.37 0.38 0.48 0.47 0.78 0.88 1.00 0.58 0.49 0.43 0.32 0.25 0.46 1.19 2.10 1.42 0.99 0.42 0.02 0.07 0.03 0.00 0.00 0.00 0.00 0.00 0.00 0.00 0.00 0.00 0.00 0.00 0.00 0.00 0.00 0.00
0.03 0.02 0.03 0.05 0.06 0.07 0.10 0.11 0.09 0.19 0.28 0.25 0.23 0.19 0.19 0.21 0.33 0.30 0.20 0.34 0.38 0.24 0.17 0.46 1.06 1.71 1.03 0.91 0.46 0.10 0.08 0.00 0.00 0.00 0.00 0.00 0.00 0.00 0.00 0.00 0.00 0.00 0.00 0.00 0.00 0.00 0.00
0.03 0.02 0.03 0.04 0.06 0.06 0.09 0.09 0.08 0.10 0.17 0.15 0.12 0.10 0.05 0.07 0.15 0.24 0.29 0.27 0.16 0.09 0.17 0.37 0.70 0.90 1.05 1.05 0.68 0.40 0.06 0.00 0.00 0.00 0.00 0.00 0.00 0.00 0.00 0.00 0.00 0.00 0.00 0.00 0.00 0.00 0.00
0.03 0.01 0.02 0.04 0.06 0.05 0.08 0.06 0.08 0.08 0.12 0.12 0.09 0.06 0.06 0.08 0.10 0.17 0.23 0.17 0.10 0.09 0.08 0.26 0.53 0.67 1.37 1.07 0.63 0.35 0.01 0.00 0.00 0.00 0.00 0.00 0.00 0.00 0.00 0.00 0.00 0.00 0.00 0.00 0.00 0.00 0.00
0.04 0.03 0.02 0.03 0.05 0.05 0.06 0.05 0.07 0.09 0.10 0.10 0.05 0.07 0.11 0.11 0.08 0.11 0.13 0.13 0.16 0.12 0.15 0.33 0.47 0.64 1.42 1.25 0.56 0.15 0.00 0.00 0.00 0.00 0.00 0.00 0.00 0.00 0.00 0.00 0.00 0.00 0.00 0.00 0.00 0.00 0.00
0.03 0.04 0.02 0.03 0.03 0.04 0.04 0.04 0.05 0.06 0.07 0.04 0.04 0.06 0.10 0.12 0.16 0.21 0.16 0.08 0.08 0.03 0.18 0.26 0.41 0.64 1.19 1.04 0.35 0.04 0.00 0.00 0.00 0.00 0.00 0.00 0.00 0.00 0.00 0.00 0.00 0.00 0.00 0.00 0.00 0.00 0.00
0.03 0.03 0.03 0.02 0.02 0.03 0.03 0.04 0.03 0.04 0.05 0.03 0.01 0.02 0.06 0.08 0.04 0.05 0.01 0.07 0.05 0.21 0.51 0.55 0.42 0.32 0.60 0.52 0.11 0.02 0.00 0.00 0.00 0.00 0.00 0.00 0.00 0.00 0.00 0.00 0.00 0.00 0.00 0.00 0.00 0.00 0.00
0.02 0.03 0.02 0.02 0.02 0.03 0.02 0.02 0.02 0.02 0.02 0.01 0.01 0.01 0.01 0.06 0.05 0.02 0.01 0.12 0.11 0.33 1.05 0.91 0.52 0.39 0.46 0.18 0.06 0.00 0.00 0.00 0.00 0.00 0.00 0.00 0.00 0.00 0.00 0.00 0.00 0.00 0.00 0.00 0.00 0.00 0.00
0.02 0.03 0.02 0.02 0.02 0.02 0.01 0.01 0.01 0.02 0.03 0.01 0.00 0.00 0.00 0.01 0.00 0.02 0.07 0.25 0.39 0.16 0.52 1.09 0.77 0.62 0.48 0.11 0.03 0.00 0.00 0.00 0.00 0.00 0.00 0.00 0.00 0.00 0.00 0.00 0.00 0.00 0.00 0.00 0.00 0.00 0.00
0.02 0.03 0.02 0.02 0.01 0.02 0.01 0.01 0.00 0.00 0.01 0.01 0.00 0.00 0.00 0.00 0.00 0.02 0.07 0.16 0.14 0.02 0.13 0.61 0.33 0.26 0.12 0.03 0.00 0.00 0.00 0.00 0.00 0.00 0.00 0.00 0.00 0.00 0.00 0.00 0.00 0.00 0.00 0.00 0.00 0.01 0.00
0.01 0.02 0.03 0.02 0.01 0.01 0.01 0.01 0.00 0.00 0.00 0.00 0.00 0.00 0.00 0.00 0.00 0.00 0.00 0.00 0.00 0.00 0.07 0.23 0.11 0.02 0.00 0.00 0.00 0.00 0.00 0.00 0.00 0.00 0.00 0.00 0.00 0.00 0.00 0.00 0.00 0.00 0.00 0.00 0.00 0.02 0.04
0.01 0.01 0.02 0.03 0.02 0.01 0.01 0.01 0.00 0.00 0.00 0.00 0.00 0.00 0.00 0.00 0.00 0.00 0.00 0.00 0.00 0.00 0.12 0.03 0.01 0.00 0.00 0.00 0.00 0.00 0.00 0.00 0.00 0.00 0.00 0.00 0.00 0.00 0.00 0.00 0.00 0.00 0.00 0.00 0.00 0.02 0.05
0.01 0.01 0.01 0.03 0.02 0.01 0.01 0.01 0.00 0.00 0.00 0.00 0.00 0.00 0.00 0.00 0.00 0.00 0.00 0.00 0.00 0.03 0.02 0.00 0.00 0.00 0.00 0.00 0.00 0.00 0.00 0.00 0.00 0.00 0.00 0.00 0.00 0.00 0.00 0.00 0.00 0.00 0.01 0.01 0.01 0.02 0.01
0.01 0.01 0.01 0.01 0.02 0.02 0.02 0.01 0.00 0.00 0.00 0.00 0.00 0.00 0.00 0.00 0.00 0.00 0.00 0.00 0.01 0.04 0.00 0.00 0.00 0.00 0.00 0.00 0.00 0.00 0.00 0.00 0.00 0.00 0.00 0.00 0.00 0.00 0.00 0.00 0.00 0.00 0.01 0.04 0.02 0.01 0.01
0.01 0.01 0.01 0.01 0.01 0.01 0.01 0.01 0.00 0.00 0.00 0.00 0.00 0.00 0.00 0.00 0.00 0.00 0.00 0.00 0.01 0.00 0.00 0.00 0.00 0.00 0.00 0.00 0.00 0.00 0.00 0.00 0.00 0.00 0.00 0.00 0.00 0.00 0.00 0.00 0.00 0.01 0.04 0.06 0.10 0.03 0.07
0.01 0.01 0.01 0.00 0.01 0.01 0.01 0.00 0.00 0.00 0.00 0.00 0.00 0.00 0.00 0.00 0.00 0.00 0.00 0.00 0.00 0.00 0.00 0.00 0.00 0.00 0.00 0.00 0.00 0.00 0.00 0.00 0.00 0.00 0.00 0.00 0.01 0.00 0.00 0.00 0.00 0.02 0.04 0.10 0.13 0.10 0.09
0.01 0.01 0.01 0.01 0.00 0.00 0.00 0.00 0.00 0.00 0.00 0.00 0.00 0.00 0.00 0.00 0.00 0.00 0.00 0.00 0.00 0.00 0.00 0.00 0.00 0.00 0.00 0.00 0.01 0.02 0.01 0.00 0.00 0.01 0.01 0.02 0.01 0.00 0.00 0.00 0.02 0.05 0.08 0.06 0.07 0.07 0.11
0.01 0.01 0.01 0.00 0.00 0.00 0.00 0.00 0.00 0.00 0.00 0.00 0.00 0.00 0.00 0.00 0.00 0.00 0.00 0.00 0.00 0.00 0.00 0.00 0.00 0.00 0.00 0.01 0.01 0.02 0.01 0.00 0.00 0.00 0.01 0.00 0.01 0.00 0.00 0.00 0.00 0.01 0.01 0.02 0.06 0.10 0.04
0.01 0.01 0.01 0.00 0.00 0.00 0.00 0.00 0.00 0.00 0.00 0.00 0.00 0.00 0.00 0.00 0.00 0.00 0.00 0.00 0.00 0.00 0.00 0.00 0.00 0.00 0.00 0.00 0.00 0.00 0.00 0.00 0.00 0.00 0.00 0.00 0.01 0.00 0.00 0.00 0.00 0.00 0.00 0.00 0.01 0.01 0.01
0.00 0.01 0.01 0.00 0.00 0.00 0.01 0.00 0.00 0.00 0.00 0.00 0.00 0.00 0.00 0.00 0.00 0.00 0.00 0.00 0.00 0.00 0.00 0.00 0.00 0.00 0.00 0.00 0.00 0.00 0.00 0.00 0.00 0.00 0.00 0.00 0.00 0.00 0.00 0.00 0.00 0.00 0.00 0.00 0.00 0.00 0.00
0.00 0.00 0.00 0.00 0.00 0.00 0.01 0.00 0.00 0.00 0.00 0.00 0.00 0.00 0.00 0.00 0.00 0.00 0.00 0.00 0.00 0.00 0.00 0.00 0.00 0.00 0.00 0.00 0.00 0.00 0.00 0.00 0.00 0.00 0.00 0.00 0.00 0.00 0.00 0.00 0.00 0.00 0.00 0.00 0.00 0.00 0.00
0.01 0.00 0.00 0.01 0.00 0.00 0.00 0.00 0.00 0.00 0.00 0.00 0.00 0.00 0.00 0.00 0.00 0.00 0.00 0.00 0.00 0.00 0.00 0.00 0.00 0.00 0.00 0.00 0.00 0.00 0.00 0.00 0.00 0.00 0.00 0.00 0.00 0.00 0.00 0.00 0.00 0.00 0.00 0.00 0.00 0.00 0.00
0.00 0.00 0.01 0.00 0.00 0.00 0.00 0.00 0.00 0.00 0.00 0.00 0.00 0.00 0.00 0.00 0.00 0.00 0.00 0.00 0.00 0.00 0.00 0.00 0.00 0.00 0.00 0.00 0.00 0.00 0.00 0.00 0.00 0.00 0.00 0.00 0.00 0.00 0.00 0.00 0.00 0.00 0.00 0.00 0.00 0.00 0.00
0.00 0.00 0.01 0.00 0.01 0.00 0.00 0.00 0.00 0.00 0.00 0.00 0.00 0.00 0.00 0.00 0.00 0.00 0.00 0.00 0.00 0.00 0.00 0.00 0.00 0.00 0.00 0.00 0.00 0.00 0.00 0.00 0.00 0.00 0.00 0.00 0.00 0.00 0.00 0.00 0.00 0.00 0.00 0.00 0.00 0.00 0.00
0.00 0.01 0.01 0.01 0.00 0.00 0.00 0.00 0.00 0.00 0.00 0.00 0.00 0.00 0.00 0.00 0.00 0.00 0.00 0.00 0.00 0.00 0.00 0.00 0.00 0.00 0.00 0.00 0.00 0.00 0.00 0.00 0.00 0.00 0.00 0.00 0.00 0.00 0.00 0.00 0.00 0.00 0.00 0.00 0.00 0.00 0.00
0.01 0.01 0.02 0.01 0.01 0.00 0.00 0.00 0.00 0.00 0.00 0.00 0.00 0.00 0.00 0.00 0.00 0.00 0.00 0.00 0.00 0.00 0.00 0.00 0.00 0.00 0.00 0.00 0.00 0.00 0.00 0.00 0.00 0.00 0.00 0.00 0.00 0.00 0.00 0.00 0.00 0.00 0.00 0.00 0.00 0.00 0.00
0.02 0.02 0.01 0.01 0.01 0.00 0.00 0.00 0.00 0.00 0.00 0.00 0.00 0.00 0.00 0.00 0.00 0.00 0.00 0.00 0.00 0.00 0.00 0.00 0.00 0.00 0.00 0.00 0.00 0.00 0.00 0.00 0.00 0.00 0.00 0.00 0.00 0.00 0.00 0.00 0.00 0.00 0.00 0.00 0.00 0.00 0.00
0.02 0.02 0.02 0.01 0.00 0.00 0.00 0.01 0.01 0.01 0.01 0.00 0.00 0.00 0.00 0.00 0.00 0.00 0.00 0.00 0.00 0.00 0.00 0.00 0.00 0.00 0.00 0.00 0.00 0.00 0.00 0.00 0.00 0.00 0.00 0.00 0.00 0.00 0.00 0.00 0.00 0.00 0.00 0.00 0.00 0.00 0.00
0.05 0.04 0.03 0.02 0.02 0.02 0.01 0.01 0.01 0.02 0.03 0.02 0.00 0.00 0.00 0.00 0.00 0.00 0.00 0.00 0.00 0.00 0.00 0.00 0.00 0.00 0.00 0.00 0.00 0.00 0.00 0.00 0.00 0.00 0.00 0.00 0.00 0.00 0.00 0.00 0.00 0.00 0.00 0.00 0.00 0.00 0.00

GFSGBSN_prec_precacc24_141.txt.gz
Total_Precipitation_Accumulation
0.01 0.01 0.04 0.06 0.06 0.07 0.08 0.07 0.07 0.10 0.18 0.17 0.16 0.27 0.51 0.93 1.57 1.73 1.05 0.66 0.45 0.30 0.32 0.58 1.15 2.00 1.57 0.85 0.31 0.02 0.02 0.01 0.00 0.00 0.00 0.00 0.00 0.00 0.00 0.00 0.00 0.00 0.00 0.00 0.00 0.00 0.00
0.01 0.01 0.03 0.05 0.06 0.06 0.07 0.07 0.06 0.10 0.14 0.14 0.11 0.12 0.19 0.36 0.71 0.99 0.90 0.78 0.55 0.35 0.32 0.67 1.06 1.29 1.04 0.77 0.34 0.05 0.05 0.00 0.00 0.00 0.00 0.00 0.00 0.00 0.00 0.00 0.00 0.00 0.00 0.00 0.00 0.00 0.00
0.02 0.01 0.02 0.03 0.06 0.05 0.05 0.05 0.05 0.08 0.10 0.11 0.09 0.10 0.06 0.12 0.40 0.71 0.75 0.67 0.52 0.40 0.55 0.65 0.72 0.55 0.80 0.87 0.58 0.30 0.05 0.00 0.00 0.00 0.00 0.00 0.00 0.00 0.00 0.00 0.00 0.00 0.00 0.00 0.00 0.00 0.00
0.02 0.01 0.02 0.03 0.05 0.05 0.04 0.03 0.05 0.06 0.07 0.09 0.07 0.04 0.05 0.08 0.14 0.21 0.28 0.28 0.26 0.37 0.39 0.43 0.49 0.44 0.96 0.88 0.46 0.21 0.00 0.00 0.00 0.00 0.00 0.00 0.00 0.00 0.00 0.00 0.00 0.00 0.00 0.00 0.00 0.00 0.00
0.03 0.02 0.02 0.03 0.04 0.04 0.03 0.03 0.03 0.06 0.05 0.05 0.03 0.02 0.02 0.06 0.08 0.08 0.07 0.07 0.11 0.18 0.20 0.23 0.30 0.46 1.08 0.99 0.36 0.07 0.00 0.00 0.00 0.00 0.00 0.00 0.00 0.00 0.00 0.00 0.00 0.00 0.00 0.00 0.00 0.00 0.00
0.04 0.02 0.02 0.02 0.02 0.03 0.02 0.02 0.02 0.03 0.05 0.02 0.02 0.03 0.01 0.03 0.09 0.10 0.09 0.03 0.01 0.02 0.06 0.09 0.15 0.36 0.88 0.69 0.21 0.02 0.00 0.00 0.00 0.00 0.00 0.00 0.00 0.00 0.00 0.00 0.00 0.00 0.00 0.00 0.00 0.00 0.00
0.03 0.03 0.02 0.01 0.02 0.02 0.02 0.02 0.02 0.02 0.03 0.03 0.01 0.01 0.01 0.00 0.00 0.00 0.00 0.00 0.00 0.11 0.06 0.13 0.19 0.18 0.43 0.29 0.08 0.01 0.00 0.00 0.00 0.00 0.00 0.00 0.00 0.00 0.00 0.00 0.00 0.00 0.00 0.00 0.00 0.00 0.00
0.02 0.03 0.03 0.02 0.02 0.03 0.02 0.01 0.01 0.00 0.01 0.01 0.01 0.01 0.00 0.00 0.00 0.00 0.00 0.00 0.03 0.07 0.29 0.27 0.23 0.18 0.22 0.08 0.05 0.00 0.00 0.00 0.00 0.00 0.00 0.00 0.00 0.00 0.00 0.00 0.00 0.00 0.00 0.00 0.00 0.00 0.00
0.02 0.02 0.03 0.02 0.02 0.02 0.01 0.01 0.00 0.00 0.00 0.00 0.00 0.00 0.00 0.00 0.00 0.00 0.00 0.06 0.07 0.01 0.16 0.48 0.34 0.30 0.21 0.05 0.01 0.00 0.00 0.00 0.00 0.00 0.00 0.00 0.00 0.00 0.00 0.00 0.00 0.00 0.00 0.00 0.00 0.00 0.00
0.02 0.01 0.02 0.02 0.02 0.02 0.01 0.01 0.00 0.00 0.00 0.00 0.00 0.00 0.00 0.00 0.00 0.01 0.00 0.01 0.01 0.00 0.03 0.22 0.15 0.15 0.09 0.02 0.00 0.00 0.00 0.00 0.00 0.00 0.00 0.00 0.00 0.00 0.00 0.00 0.00 0.00 0.00 0.00 0.00 0.00 0.00
0.02 0.02 0.02 0.02 0.01 0.01 0.02 0.01 0.00 0.00 0.00 0.00 0.00 0.00 0.00 0.00 0.00 0.00 0.00 0.00 0.00 0.00 0.04 0.16 0.06 0.00 0.00 0.00 0.00 0.00 0.00 0.00 0.00 0.00 0.00 0.00 0.00 0.00 0.00 0.00 0.00 0.00 0.00 0.00 0.00 0.00 0.01
0.03 0.01 0.02 0.02 0.02 0.01 0.02 0.01 0.01 0.00 0.00 0.00 0.00 0.00 0.00 0.00 0.00 0.00 0.00 0.00 0.00 0.00 0.06 0.01 0.00 0.00 0.00 0.00 0.00 0.00 0.00 0.00 0.00 0.00 0.00 0.00 0.00 0.00 0.00 0.00 0.00 0.00 0.00 0.00 0.00 0.01 0.01
0.03 0.02 0.01 0.02 0.01 0.01 0.01 0.01 0.00 0.00 0.00 0.00 0.00 0.00 0.00 0.00 0.00 0.00 0.00 0.00 0.00 0.01 0.01 0.00 0.00 0.00 0.00 0.00 0.00 0.00 0.00 0.00 0.00 0.00 0.00 0.00 0.00 0.00 0.00 0.00 0.00 0.00 0.00 0.00 0.00 0.01 0.00
0.04 0.02 0.02 0.02 0.01 0.01 0.01 0.01 0.00 0.00 0.00 0.00 0.00 0.00 0.00 0.00 0.00 0.00 0.00 0.00 0.00 0.01 0.00 0.00 0.00 0.00 0.00 0.00 0.00 0.00 0.00 0.00 0.00 0.00 0.00 0.00 0.00 0.00 0.00 0.00 0.00 0.00 0.00 0.01 0.01 0.00 0.00
0.03 0.02 0.02 0.01 0.01 0.01 0.01 0.01 0.00 0.00 0.00 0.00 0.00 0.00 0.00 0.00 0.00 0.00 0.00 0.00 0.00 0.00 0.00 0.00 0.00 0.00 0.00 0.00 0.00 0.00 0.00 0.00 0.00 0.00 0.00 0.00 0.00 0.00 0.00 0.00 0.00 0.01 0.02 0.01 0.03 0.01 0.02
0.03 0.03 0.02 0.01 0.01 0.00 0.00 0.00 0.00 0.00 0.00 0.00 0.00 0.00 0.00 0.00 0.00 0.00 0.00 0.00 0.00 0.00 0.00 0.00 0.00 0.00 0.00 0.00 0.00 0.00 0.00 0.00 0.00 0.00 0.00 0.00 0.00 0.00 0.00 0.00 0.00 0.01 0.02 0.05 0.07 0.05 0.03
0.02 0.03 0.03 0.02 0.00 0.00 0.00 0.00 0.00 0.00 0.00 0.00 0.00 0.00 0.00 0.00 0.00 0.00 0.00 0.00 0.00 0.00 0.00 0.00 0.00 0.00 0.00 0.00 0.00 0.00 0.00 0.00 0.00 0.00 0.00 0.00 0.00 0.00 0.00 0.00 0.01 0.02 0.02 0.02 0.04 0.03 0.03
0.02 0.02 0.03 0.02 0.01 0.00 0.00 0.00 0.00 0.00 0.00 0.00 0.00 0.00 0.00 0.00 0.00 0.00 0.00 0.00 0.00 0.00 0.00 0.00 0.00 0.00 0.00 0.00 0.00 0.00 0.00 0.00 0.00 0.00 0.00 0.00 0.01 0.00 0.00 0.00 0.00 0.00 0.01 0.01 0.03 0.05 0.02
0.02 0.02 0.03 0.01 0.00 0.00 0.00 0.00 0.00 0.00 0.00 0.00 0.00 0.00 0.00 0.00 0.00 0.00 0.00 0.00 0.00 0.00 0.00 0.00 0.00 0.00 0.00 0.00 0.00 0.00 0.00 0.00 0.00 0.00 0.00 0.00 0.00 0.00 0.00 0.00 0.00 0.00 0.00 0.00 0.00 0.01 0.01
0.02 0.02 0.02 0.01 0.01 0.00 0.00 0.00 0.00 0.00 0.00 0.00 0.00 0.00 0.00 0.00 0.00 0.00 0.00 0.00 0.00 0.00 0.00 0.00 0.00 0.00 0.00 0.00 0.00 0.00 0.00 0.00 0.00 0.00 0.00 0.00 0.00 0.00 0.00 0.00 0.00 0.00 0.00 0.00 0.00 0.00 0.00
0.01 0.02 0.02 0.02 0.01 0.00 0.00 0.00 0.00 0.00 0.00 0.00 0.00 0.00 0.00 0.00 0.00 0.00 0.00 0.00 0.00 0.00 0.00 0.00 0.00 0.00 0.00 0.00 0.00 0.00 0.00 0.00 0.00 0.00 0.00 0.00 0.00 0.00 0.00 0.00 0.00 0.00 0.00 0.00 0.00 0.00 0.00
0.01 0.02 0.02 0.01 0.01 0.00 0.00 0.00 0.00 0.00 0.00 0.00 0.00 0.00 0.00 0.00 0.00 0.00 0.00 0.00 0.00 0.00 0.00 0.00 0.00 0.00 0.00 0.00 0.00 0.00 0.00 0.00 0.00 0.00 0.00 0.00 0.00 0.00 0.00 0.00 0.00 0.00 0.00 0.00 0.00 0.00 0.00
0.01 0.01 0.01 0.01 0.01 0.00 0.00 0.00 0.00 0.00 0.00 0.00 0.00 0.00 0.00 0.00 0.00 0.00 0.00 0.00 0.00 0.00 0.00 0.00 0.00 0.00 0.00 0.00 0.00 0.00 0.00 0.00 0.00 0.00 0.00 0.00 0.00 0.00 0.00 0.00 0.00 0.00 0.00 0.00 0.00 0.00 0.00
0.00 0.01 0.02 0.01 0.01 0.01 0.00 0.00 0.00 0.00 0.00 0.00 0.00 0.00 0.00 0.00 0.00 0.00 0.00 0.00 0.00 0.00 0.00 0.00 0.00 0.00 0.00 0.00 0.00 0.00 0.00 0.00 0.00 0.00 0.00 0.00 0.00 0.00 0.00 0.00 0.00 0.00 0.00 0.00 0.00 0.00 0.00
0.01 0.01 0.02 0.02 0.02 0.01 0.00 0.00 0.00 0.00 0.00 0.00 0.00 0.00 0.00 0.00 0.00 0.00 0.00 0.00 0.00 0.00 0.00 0.00 0.00 0.00 0.00 0.00 0.00 0.00 0.00 0.00 0.00 0.00 0.00 0.00 0.00 0.00 0.00 0.00 0.00 0.00 0.00 0.00 0.00 0.00 0.00
0.01 0.02 0.02 0.02 0.02 0.01 0.00 0.00 0.00 0.00 0.00 0.00 0.00 0.00 0.00 0.00 0.00 0.00 0.00 0.00 0.00 0.00 0.00 0.00 0.00 0.00 0.00 0.00 0.00 0.00 0.00 0.00 0.00 0.00 0.00 0.00 0.00 0.00 0.00 0.00 0.00 0.00 0.00 0.00 0.00 0.00 0.00
0.02 0.02 0.02 0.02 0.02 0.01 0.00 0.01 0.01 0.01 0.00 0.00 0.00 0.00 0.00 0.00 0.00 0.00 0.00 0.00 0.00 0.00 0.00 0.00 0.00 0.00 0.00 0.00 0.00 0.00 0.00 0.00 0.00 0.00 0.00 0.00 0.00 0.00 0.00 0.00 0.00 0.00 0.00 0.00 0.00 0.00 0.00
0.02 0.02 0.03 0.02 0.02 0.01 0.00 0.01 0.02 0.03 0.02 0.00 0.00 0.00 0.00 0.00 0.00 0.00 0.00 0.00 0.00 0.00 0.00 0.00 0.00 0.00 0.00 0.00 0.00 0.00 0.00 0.00 0.00 0.00 0.00 0.00 0.00 0.00 0.00 0.00 0.00 0.00 0.00 0.00 0.00 0.00 0.00
0.05 0.05 0.04 0.03 0.03 0.02 0.01 0.02 0.03 0.04 0.05 0.06 0.00 0.00 0.01 0.02 0.01 0.00 0.00 0.00 0.00 0.00 0.00 0.00 0.00 0.00 0.00 0.00 0.00 0.00 0.00 0.00 0.00 0.00 0.00 0.00 0.00 0.00 0.00 0.00 0.00 0.00 0.00 0.00 0.00 0.00 0.00

GFSGBSN_prec_precacc24_144.txt.gz
Total_Precipitation_Accumulation
0.00 0.02 0.04 0.06 0.05 0.06 0.06 0.05 0.05 0.09 0.16 0.16 0.14 0.25 0.58 0.90 1.38 1.66 0.99 0.47 0.33 0.23 0.32 0.59 1.15 1.94 1.46 0.76 0.22 0.01 0.01 0.00 0.00 0.00 0.00 0.00 0.00 0.00 0.00 0.00 0.00 0.00 0.00 0.00 0.00 0.00 0.00
0.01 0.01 0.03 0.05 0.05 0.05 0.06 0.06 0.06 0.08 0.12 0.13 0.10 0.13 0.29 0.56 0.76 0.99 0.91 0.71 0.51 0.34 0.35 0.68 1.06 1.26 0.92 0.59 0.27 0.04 0.01 0.00 0.00 0.00 0.00 0.00 0.00 0.00 0.00 0.00 0.00 0.00 0.00 0.00 0.00 0.00 0.00
0.02 0.01 0.02 0.03 0.04 0.04 0.04 0.04 0.05 0.07 0.09 0.10 0.08 0.09 0.09 0.29 0.59 0.77 0.78 0.66 0.52 0.40 0.56 0.62 0.70 0.53 0.74 0.73 0.49 0.20 0.01 0.00 0.00 0.00 0.00 0.00 0.00 0.00 0.00 0.00 0.00 0.00 0.00 0.00 0.00 0.00 0.00
0.03 0.01 0.01 0.02 0.04 0.03 0.03 0.03 0.04 0.06 0.06 0.07 0.04 0.02 0.04 0.08 0.17 0.26 0.32 0.29 0.26 0.37 0.39 0.42 0.46 0.38 0.84 0.77 0.41 0.13 0.00 0.00 0.00 0.00 0.00 0.00 0.00 0.00 0.00 0.00 0.00 0.00 0.00 0.00 0.00 0.00 0.00
0.03 0.02 0.01 0.02 0.03 0.03 0.02 0.02 0.03 0.05 0.04 0.04 0.02 0.00 0.01 0.05 0.10 0.08 0.06 0.06 0.11 0.18 0.19 0.23 0.29 0.38 0.85 0.71 0.24 0.02 0.00 0.00 0.00 0.00 0.00 0.00 0.00 0.00 0.00 0.00 0.00 0.00 0.00 0.00 0.00 0.00 0.00
0.03 0.02 0.02 0.02 0.02 0.02 0.02 0.01 0.02 0.03 0.05 0.02 0.02 0.01 0.00 0.02 0.09 0.07 0.05 0.03 0.01 0.02 0.06 0.09 0.14 0.29 0.63 0.48 0.14 0.00 0.00 0.00 0.00 0.00 0.00 0.00 0.00 0.00 0.00 0.00 0.00 0.00 0.00 0.00 0.00 0.00 0.00
0.03 0.03 0.02 0.01 0.02 0.02 0.02 0.01 0.01 0.01 0.02 0.01 0.00 0.00 0.00 0.00 0.00 0.00 0.00 0.00 0.00 0.09 0.04 0.12 0.18 0.12 0.31 0.19 0.06 0.01 0.00 0.00 0.00 0.00 0.00 0.00 0.00 0.00 0.00 0.00 0.00 0.00 0.00 0.00 0.00 0.00 0.00
0.02 0.03 0.03 0.02 0.02 0.02 0.01 0.01 0.01 0.01 0.01 0.00 0.00 0.00 0.00 0.00 0.00 0.00 0.00 0.00 0.00 0.04 0.14 0.14 0.16 0.10 0.13 0.05 0.03 0.00 0.00 0.00 0.00 0.00 0.00 0.00 0.00 0.00 0.00 0.00 0.00 0.00 0.00 0.00 0.00 0.00 0.00
0.02 0.03 0.03 0.03 0.02 0.02 0.02 0.01 0.00 0.00 0.00 0.00 0.00 0.00 0.00 0.00 0.00 0.00 0.00 0.00 0.00 0.00 0.06 0.22 0.17 0.16 0.09 0.01 0.01 0.00 0.00 0.00 0.00 0.00 0.00 0.00 0.00 0.00 0.00 0.00 0.00 0.00 0.00 0.00 0.00 0.00 0.00
0.03 0.02 0.03 0.03 0.02 0.02 0.02 0.01 0.00 0.00 0.00 0.00 0.00 0.00 0.00 0.00 0.00 0.00 0.00 0.00 0.00 0.00 0.01 0.06 0.04 0.06 0.02 0.00 0.00 0.00 0.00 0.00 0.00 0.00 0.00 0.00 0.00 0.00 0.00 0.00 0.00 0.00 0.00 0.00 0.00 0.00 0.00
0.03 0.02 0.03 0.03 0.02 0.02 0.02 0.01 0.00 0.00 0.00 0.00 0.00 0.00 0.00 0.00 0.00 0.00 0.00 0.00 0.00 0.00 0.02 0.07 0.02 0.00 0.00 0.00 0.00 0.00 0.00 0.00 0.00 0.00 0.00 0.00 0.00 0.00 0.00 0.00 0.00 0.00 0.00 0.00 0.00 0.00 0.00
0.03 0.02 0.02 0.03 0.02 0.02 0.02 0.01 0.00 0.00 0.00 0.00 0.00 0.00 0.00 0.00 0.00 0.00 0.00 0.00 0.00 0.00 0.03 0.00 0.00 0.00 0.00 0.00 0.00 0.00 0.00 0.00 0.00 0.00 0.00 0.00 0.00 0.00 0.00 0.00 0.00 0.00 0.00 0.00 0.00 0.00 0.00
0.04 0.03 0.02 0.02 0.02 0.01 0.01 0.01 0.00 0.00 0.00 0.00 0.00 0.00 0.00 0.00 0.00 0.00 0.00 0.00 0.00 0.00 0.00 0.00 0.00 0.00 0.00 0.00 0.00 0.00 0.00 0.00 0.00 0.00 0.00 0.00 0.00 0.00 0.00 0.00 0.00 0.00 0.00 0.00 0.00 0.00 0.00
0.04 0.03 0.02 0.02 0.01 0.01 0.01 0.01 0.00 0.00 0.00 0.00 0.00 0.00 0.00 0.00 0.00 0.00 0.00 0.00 0.00 0.00 0.00 0.00 0.00 0.00 0.00 0.00 0.00 0.00 0.00 0.00 0.00 0.00 0.00 0.00 0.00 0.00 0.00 0.00 0.00 0.00 0.00 0.01 0.00 0.00 0.00
0.04 0.03 0.02 0.02 0.01 0.00 0.01 0.00 0.00 0.00 0.00 0.00 0.00 0.00 0.00 0.00 0.00 0.00 0.00 0.00 0.00 0.00 0.00 0.00 0.00 0.00 0.00 0.00 0.00 0.00 0.00 0.00 0.00 0.00 0.00 0.00 0.00 0.00 0.00 0.00 0.00 0.00 0.01 0.01 0.01 0.00 0.01
0.04 0.04 0.03 0.02 0.01 0.00 0.00 0.00 0.00 0.00 0.00 0.00 0.00 0.00 0.00 0.00 0.00 0.00 0.00 0.00 0.00 0.00 0.00 0.00 0.00 0.00 0.00 0.00 0.00 0.00 0.00 0.00 0.00 0.00 0.00 0.00 0.00 0.00 0.00 0.00 0.00 0.00 0.01 0.02 0.04 0.02 0.02
0.03 0.03 0.03 0.02 0.01 0.00 0.00 0.00 0.00 0.00 0.00 0.00 0.00 0.00 0.00 0.00 0.00 0.00 0.00 0.00 0.00 0.00 0.00 0.00 0.00 0.00 0.00 0.00 0.00 0.00 0.00 0.00 0.00 0.00 0.00 0.00 0.00 0.00 0.00 0.00 0.00 0.01 0.01 0.01 0.02 0.01 0.02
0.03 0.03 0.03 0.02 0.01 0.00 0.00 0.00 0.00 0.00 0.00 0.00 0.00 0.00 0.00 0.00 0.00 0.00 0.00 0.00 0.00 0.00 0.00 0.00 0.00 0.00 0.00 0.00 0.00 0.00 0.00 0.00 0.00 0.00 0.00 0.00 0.00 0.00 0.00 0.00 0.00 0.00 0.01 0.01 0.03 0.04 0.01
0.03 0.03 0.03 0.02 0.01 0.00 0.00 0.00 0.00 0.00 0.00 0.00 0.00 0.00 0.00 0.00 0.00 0.00 0.00 0.00 0.00 0.00 0.00 0.00 0.00 0.00 0.00 0.00 0.00 0.00 0.00 0.00 0.00 0.00 0.00 0.00 0.00 0.00 0.00 0.00 0.00 0.00 0.00 0.00 0.00 0.01 0.01
0.02 0.03 0.03 0.01 0.01 0.00 0.00 0.00 0.00 0.00 0.00 0.00 0.00 0.00 0.00 0.00 0.00 0.00 0.00 0.00 0.00 0.00 0.00 0.00 0.00 0.00 0.00 0.00 0.00 0.00 0.00 0.00 0.00 0.00 0.00 0.00 0.00 0.00 0.00 0.00 0.00 0.00 0.00 0.00 0.00 0.00 0.00
0.01 0.02 0.02 0.02 0.01 0.00 0.00 0.00 0.00 0.00 0.00 0.00 0.00 0.00 0.00 0.00 0.00 0.00 0.00 0.00 0.00 0.00 0.00 0.00 0.00 0.00 0.00 0.00 0.00 0.00 0.00 0.00 0.00 0.00 0.00 0.00 0.00 0.00 0.00 0.00 0.00 0.00 0.00 0.00 0.00 0.00 0.00
0.02 0.02 0.02 0.01 0.01 0.00 0.00 0.00 0.00 0.00 0.00 0.00 0.00 0.00 0.00 0.00 0.00 0.00 0.00 0.00 0.00 0.00 0.00 0.00 0.00 0.00 0.00 0.00 0.00 0.00 0.00 0.00 0.00 0.00 0.00 0.00 0.00 0.00 0.00 0.00 0.00 0.00 0.00 0.00 0.00 0.00 0.00
0.01 0.01 0.01 0.01 0.01 0.00 0.00 0.00 0.00 0.00 0.00 0.00 0.00 0.00 0.00 0.00 0.00 0.00 0.00 0.00 0.00 0.00 0.00 0.00 0.00 0.00 0.00 0.00 0.00 0.00 0.00 0.00 0.00 0.00 0.00 0.00 0.00 0.00 0.00 0.00 0.00 0.00 0.00 0.00 0.00 0.00 0.00
0.00 0.01 0.02 0.01 0.01 0.01 0.00 0.00 0.00 0.00 0.00 0.00 0.00 0.00 0.00 0.00 0.00 0.00 0.00 0.00 0.00 0.00 0.00 0.00 0.00 0.00 0.00 0.00 0.00 0.00 0.00 0.00 0.00 0.00 0.00 0.00 0.00 0.00 0.00 0.00 0.00 0.00 0.00 0.00 0.00 0.00 0.00
0.01 0.01 0.02 0.02 0.02 0.01 0.00 0.00 0.00 0.00 0.00 0.00 0.00 0.00 0.00 0.00 0.00 0.00 0.00 0.00 0.00 0.00 0.00 0.00 0.00 0.00 0.00 0.00 0.00 0.00 0.00 0.00 0.00 0.00 0.00 0.00 0.00 0.00 0.00 0.00 0.00 0.00 0.00 0.00 0.00 0.00 0.00
0.01 0.01 0.02 0.02 0.02 0.02 0.00 0.00 0.00 0.00 0.00 0.00 0.00 0.00 0.00 0.00 0.00 0.00 0.00 0.00 0.00 0.00 0.00 0.00 0.00 0.00 0.00 0.00 0.00 0.00 0.00 0.00 0.00 0.00 0.00 0.00 0.00 0.00 0.00 0.00 0.00 0.00 0.00 0.00 0.00 0.00 0.00
0.02 0.02 0.02 0.02 0.02 0.01 0.00 0.01 0.01 0.01 0.00 0.00 0.00 0.00 0.00 0.00 0.00 0.00 0.00 0.00 0.00 0.00 0.00 0.00 0.00 0.00 0.00 0.00 0.00 0.00 0.00 0.00 0.00 0.00 0.00 0.00 0.00 0.00 0.00 0.00 0.00 0.00 0.00 0.00 0.00 0.00 0.00
0.02 0.02 0.02 0.02 0.02 0.01 0.00 0.01 0.02 0.04 0.03 0.00 0.00 0.00 0.00 0.00 0.00 0.00 0.00 0.00 0.00 0.00 0.00 0.00 0.00 0.00 0.00 0.00 0.00 0.00 0.00 0.00 0.00 0.00 0.00 0.00 0.00 0.00 0.00 0.00 0.00 0.00 0.00 0.00 0.00 0.00 0.00
0.05 0.04 0.03 0.03 0.03 0.02 0.02 0.02 0.03 0.06 0.08 0.07 0.01 0.00 0.01 0.03 0.01 0.00 0.00 0.00 0.00 0.00 0.00 0.00 0.00 0.00 0.00 0.00 0.00 0.00 0.00 0.00 0.00 0.00 0.00 0.00 0.00 0.00 0.00 0.00 0.00 0.00 0.00 0.00 0.00 0.00 0.00

GFSGBSN_prec_precacc24_147.txt.gz
Total_Precipitation_Accumulation
0.00 0.02 0.04 0.04 0.03 0.04 0.05 0.05 0.05 0.08 0.16 0.14 0.12 0.25 0.57 0.88 1.36 1.47 0.86 0.46 0.31 0.20 0.33 0.60 1.12 1.79 1.26 0.64 0.13 0.00 0.00 0.00 0.00 0.00 0.00 0.00 0.00 0.00 0.00 0.00 0.00 0.00 0.00 0.00 0.00 0.00 0.00
0.02 0.01 0.02 0.03 0.02 0.03 0.04 0.04 0.05 0.07 0.10 0.09 0.08 0.12 0.30 0.55 0.75 0.99 0.89 0.66 0.48 0.33 0.35 0.68 1.02 1.24 0.78 0.44 0.20 0.01 0.00 0.00 0.00 0.00 0.00 0.00 0.00 0.00 0.00 0.00 0.00 0.00 0.00 0.00 0.00 0.00 0.00
0.02 0.01 0.02 0.02 0.01 0.02 0.03 0.03 0.04 0.05 0.07 0.05 0.05 0.09 0.08 0.30 0.58 0.77 0.76 0.60 0.48 0.39 0.55 0.60 0.67 0.48 0.60 0.52 0.41 0.12 0.00 0.00 0.00 0.00 0.00 0.00 0.00 0.00 0.00 0.00 0.00 0.00 0.00 0.00 0.00 0.00 0.00
0.03 0.02 0.02 0.02 0.02 0.01 0.01 0.02 0.02 0.03 0.04 0.04 0.01 0.02 0.03 0.08 0.18 0.24 0.27 0.23 0.26 0.37 0.37 0.41 0.45 0.35 0.66 0.52 0.32 0.09 0.00 0.00 0.00 0.00 0.00 0.00 0.00 0.00 0.00 0.00 0.00 0.00 0.00 0.00 0.00 0.00 0.00
0.03 0.02 0.02 0.02 0.02 0.02 0.01 0.01 0.02 0.03 0.02 0.02 0.00 0.00 0.00 0.01 0.03 0.06 0.05 0.06 0.11 0.18 0.18 0.22 0.29 0.35 0.61 0.45 0.17 0.02 0.00 0.00 0.00 0.00 0.00 0.00 0.00 0.00 0.00 0.00 0.00 0.00 0.00 0.00 0.00 0.00 0.00
0.03 0.03 0.02 0.02 0.02 0.02 0.01 0.01 0.01 0.01 0.01 0.00 0.00 0.00 0.00 0.00 0.01 0.03 0.02 0.01 0.00 0.02 0.06 0.09 0.11 0.25 0.47 0.32 0.08 0.00 0.00 0.00 0.00 0.00 0.00 0.00 0.00 0.00 0.00 0.00 0.00 0.00 0.00 0.00 0.00 0.00 0.00
0.03 0.03 0.03 0.02 0.02 0.02 0.02 0.01 0.01 0.01 0.00 0.00 0.00 0.00 0.00 0.00 0.00 0.00 0.00 0.00 0.00 0.08 0.04 0.09 0.13 0.10 0.23 0.10 0.01 0.00 0.00 0.00 0.00 0.00 0.00 0.00 0.00 0.00 0.00 0.00 0.00 0.00 0.00 0.00 0.00 0.00 0.00
0.03 0.03 0.04 0.03 0.03 0.03 0.02 0.01 0.01 0.00 0.00 0.00 0.00 0.00 0.00 0.00 0.00 0.00 0.00 0.00 0.00 0.03 0.12 0.12 0.12 0.07 0.08 0.03 0.00 0.00 0.00 0.00 0.00 0.00 0.00 0.00 0.00 0.00 0.00 0.00 0.00 0.00 0.00 0.00 0.00 0.00 0.00
0.03 0.03 0.03 0.03 0.03 0.02 0.02 0.01 0.01 0.00 0.00 0.00 0.00 0.00 0.00 0.00 0.00 0.00 0.00 0.00 0.00 0.00 0.04 0.17 0.11 0.07 0.03 0.00 0.00 0.00 0.00 0.00 0.00 0.00 0.00 0.00 0.00 0.00 0.00 0.00 0.00 0.00 0.00 0.00 0.00 0.00 0.00
0.03 0.02 0.03 0.03 0.02 0.03 0.02 0.00 0.00 0.00 0.00 0.00 0.00 0.00 0.00 0.00 0.00 0.00 0.00 0.00 0.00 0.00 0.00 0.02 0.01 0.01 0.00 0.00 0.00 0.00 0.00 0.00 0.00 0.00 0.00 0.00 0.00 0.00 0.00 0.00 0.00 0.00 0.00 0.00 0.00 0.00 0.00
0.03 0.02 0.03 0.03 0.02 0.02 0.02 0.01 0.00 0.00 0.00 0.00 0.00 0.00 0.00 0.00 0.00 0.00 0.00 0.00 0.00 0.00 0.01 0.01 0.00 0.00 0.00 0.00 0.00 0.00 0.00 0.00 0.00 0.00 0.00 0.00 0.00 0.00 0.00 0.00 0.00 0.00 0.00 0.00 0.00 0.00 0.00
0.04 0.02 0.02 0.02 0.02 0.02 0.03 0.02 0.00 0.00 0.00 0.00 0.00 0.00 0.00 0.00 0.00 0.00 0.00 0.00 0.00 0.00 0.01 0.00 0.00 0.00 0.00 0.00 0.00 0.00 0.00 0.00 0.00 0.00 0.00 0.00 0.00 0.00 0.00 0.00 0.00 0.00 0.00 0.00 0.00 0.00 0.00
0.04 0.03 0.02 0.02 0.01 0.01 0.01 0.01 0.00 0.00 0.00 0.00 0.00 0.00 0.00 0.00 0.00 0.00 0.00 0.00 0.00 0.00 0.00 0.00 0.00 0.00 0.00 0.00 0.00 0.00 0.00 0.00 0.00 0.00 0.00 0.00 0.00 0.00 0.00 0.00 0.00 0.00 0.00 0.00 0.00 0.00 0.00
0.04 0.03 0.03 0.02 0.01 0.01 0.01 0.01 0.00 0.00 0.00 0.00 0.00 0.00 0.00 0.00 0.00 0.00 0.00 0.00 0.00 0.00 0.00 0.00 0.00 0.00 0.00 0.00 0.00 0.00 0.00 0.00 0.00 0.00 0.00 0.00 0.00 0.00 0.00 0.00 0.00 0.00 0.00 0.00 0.00 0.00 0.00
0.03 0.03 0.02 0.02 0.01 0.00 0.00 0.00 0.00 0.00 0.00 0.00 0.00 0.00 0.00 0.00 0.00 0.00 0.00 0.00 0.00 0.00 0.00 0.00 0.00 0.00 0.00 0.00 0.00 0.00 0.00 0.00 0.00 0.00 0.00 0.00 0.00 0.00 0.00 0.00 0.00 0.00 0.00 0.00 0.00 0.00 0.00
0.04 0.03 0.03 0.02 0.01 0.00 0.00 0.00 0.00 0.00 0.00 0.00 0.00 0.00 0.00 0.00 0.00 0.00 0.00 0.00 0.00 0.00 0.00 0.00 0.00 0.00 0.00 0.00 0.00 0.00 0.00 0.00 0.00 0.00 0.00 0.00 0.00 0.00 0.00 0.00 0.00 0.00 0.00 0.00 0.00 0.00 0.01
0.03 0.03 0.03 0.02 0.01 0.00 0.00 0.00 0.00 0.00 0.00 0.00 0.00 0.00 0.00 0.00 0.00 0.00 0.00 0.00 0.00 0.00 0.00 0.00 0.00 0.00 0.00 0.00 0.00 0.00 0.00 0.00 0.00 0.00 0.00 0.00 0.00 0.00 0.00 0.00 0.00 0.00 0.00 0.00 0.01 0.00 0.01
0.03 0.03 0.03 0.02 0.01 0.00 0.00 0.00 0.00 0.00 0.00 0.00 0.00 0.00 0.00 0.00 0.00 0.00 0.00 0.00 0.00 0.00 0.00 0.00 0.00 0.00 0.00 0.00 0.00 0.00 0.00 0.00 0.00 0.00 0.00 0.00 0.00 0.00 0.00 0.00 0.00 0.00 0.00 0.00 0.01 0.02 0.01
0.03 0.03 0.03 0.02 0.01 0.00 0.00 0.00 0.00 0.00 0.00 0.00 0.00 0.00 0.00 0.00 0.00 0.00 0.00 0.00 0.00 0.00 0.00 0.00 0.00 0.00 0.00 0.00 0.00 0.00 0.00 0.00 0.00 0.00 0.00 0.00 0.00 0.00 0.00 0.00 0.00 0.00 0.00 0.00 0.00 0.00 0.00
0.02 0.03 0.03 0.01 0.01 0.00 0.00 0.00 0.00 0.00 0.00 0.00 0.00 0.00 0.00 0.00 0.00 0.00 0.00 0.00 0.00 0.00 0.00 0.00 0.00 0.00 0.00 0.00 0.00 0.00 0.00 0.00 0.00 0.00 0.00 0.00 0.00 0.00 0.00 0.00 0.00 0.00 0.00 0.00 0.00 0.00 0.00
0.01 0.02 0.02 0.02 0.01 0.00 0.00 0.00 0.00 0.00 0.00 0.00 0.00 0.00 0.00 0.00 0.00 0.00 0.00 0.00 0.00 0.00 0.00 0.00 0.00 0.00 0.00 0.00 0.00 0.00 0.00 0.00 0.00 0.00 0.00 0.00 0.00 0.00 0.00 0.00 0.00 0.00 0.00 0.00 0.00 0.00 0.00
0.02 0.02 0.02 0.01 0.01 0.00 0.00 0.00 0.00 0.00 0.00 0.00 0.00 0.00 0.00 0.00 0.00 0.00 0.00 0.00 0.00 0.00 0.00 0.00 0.00 0.00 0.00 0.00 0.00 0.00 0.00 0.00 0.00 0.00 0.00 0.00 0.00 0.00 0.00 0.00 0.00 0.00 0.00 0.00 0.00 0.00 0.00
0.01 0.01 0.01 0.01 0.01 0.00 0.00 0.00 0.00 0.00 0.00 0.00 0.00 0.00 0.00 0.00 0.00 0.00 0.00 0.00 0.00 0.00 0.00 0.00 0.00 0.00 0.00 0.00 0.00 0.00 0.00 0.00 0.00 0.00 0.00 0.00 0.00 0.00 0.00 0.00 0.00 0.00 0.00 0.00 0.00 0.00 0.00
0.00 0.01 0.02 0.01 0.01 0.01 0.00 0.00 0.00 0.00 0.00 0.00 0.00 0.00 0.00 0.00 0.00 0.00 0.00 0.00 0.00 0.00 0.00 0.00 0.00 0.00 0.00 0.00 0.00 0.00 0.00 0.00 0.00 0.00 0.00 0.00 0.00 0.00 0.00 0.00 0.00 0.00 0.00 0.00 0.00 0.00 0.00
0.01 0.01 0.02 0.02 0.02 0.01 0.00 0.00 0.00 0.00 0.00 0.00 0.00 0.00 0.00 0.00 0.00 0.00 0.00 0.00 0.00 0.00 0.00 0.00 0.00 0.00 0.00 0.00 0.00 0.00 0.00 0.00 0.00 0.00 0.00 0.00 0.00 0.00 0.00 0.00 0.00 0.00 0.00 0.00 0.00 0.00 0.00
0.01 0.01 0.02 0.02 0.02 0.02 0.00 0.00 0.00 0.00 0.00 0.00 0.00 0.00 0.00 0.00 0.00 0.00 0.00 0.00 0.00 0.00 0.00 0.00 0.00 0.00 0.00 0.00 0.00 0.00 0.00 0.00 0.00 0.00 0.00 0.00 0.00 0.00 0.00 0.00 0.00 0.00 0.00 0.00 0.00 0.00 0.00
0.02 0.02 0.02 0.02 0.02 0.01 0.00 0.01 0.01 0.01 0.00 0.00 0.00 0.00 0.00 0.00 0.00 0.00 0.00 0.00 0.00 0.00 0.00 0.00 0.00 0.00 0.00 0.00 0.00 0.00 0.00 0.00 0.00 0.00 0.00 0.01 0.00 0.00 0.00 0.00 0.00 0.00 0.00 0.00 0.00 0.00 0.00
0.02 0.02 0.02 0.02 0.02 0.01 0.00 0.01 0.02 0.04 0.03 0.00 0.00 0.00 0.00 0.00 0.00 0.00 0.00 0.00 0.00 0.00 0.00 0.00 0.00 0.00 0.00 0.00 0.00 0.00 0.00 0.00 0.00 0.00 0.00 0.00 0.00 0.00 0.00 0.01 0.00 0.00 0.00 0.00 0.00 0.00 0.00
0.05 0.04 0.03 0.02 0.02 0.01 0.02 0.02 0.03 0.06 0.09 0.11 0.01 0.00 0.01 0.03 0.01 0.00 0.00 0.00 0.00 0.00 0.00 0.00 0.00 0.00 0.00 0.00 0.00 0.00 0.00 0.00 0.00 0.00 0.00 0.00 0.00 0.00 0.00 0.00 0.00 0.00 0.00 0.00 0.00 0.00 0.00

GFSGBSN_prec_precacc24_150.txt.gz
Total_Precipitation_Accumulation
0.01 0.02 0.04 0.03 0.03 0.03 0.04 0.03 0.03 0.06 0.09 0.10 0.12 0.22 0.52 0.79 1.25 1.16 0.69 0.46 0.35 0.27 0.37 0.59 1.01 1.39 0.88 0.36 0.06 0.00 0.00 0.00 0.00 0.00 0.00 0.00 0.00 0.00 0.00 0.00 0.00 0.00 0.00 0.00 0.00 0.00 0.00
0.02 0.01 0.03 0.03 0.02 0.03 0.03 0.03 0.03 0.04 0.04 0.04 0.06 0.10 0.27 0.51 0.61 0.88 0.90 0.67 0.51 0.39 0.42 0.65 0.86 0.86 0.62 0.25 0.08 0.01 0.00 0.00 0.00 0.00 0.00 0.00 0.00 0.00 0.00 0.00 0.00 0.00 0.00 0.00 0.00 0.00 0.00
0.03 0.01 0.02 0.02 0.02 0.02 0.02 0.02 0.02 0.02 0.03 0.01 0.03 0.06 0.08 0.27 0.52 0.72 0.75 0.60 0.47 0.39 0.53 0.56 0.60 0.42 0.43 0.28 0.27 0.05 0.00 0.00 0.00 0.00 0.00 0.00 0.00 0.00 0.00 0.00 0.00 0.00 0.00 0.00 0.00 0.00 0.00
0.03 0.02 0.02 0.02 0.02 0.01 0.01 0.01 0.01 0.01 0.02 0.01 0.00 0.00 0.02 0.06 0.13 0.16 0.21 0.22 0.25 0.35 0.35 0.39 0.44 0.33 0.50 0.32 0.20 0.02 0.00 0.00 0.00 0.00 0.00 0.00 0.00 0.00 0.00 0.00 0.00 0.00 0.00 0.00 0.00 0.00 0.00
0.03 0.03 0.02 0.02 0.03 0.02 0.01 0.01 0.01 0.01 0.01 0.01 0.00 0.00 0.00 0.00 0.03 0.05 0.04 0.05 0.11 0.17 0.18 0.21 0.27 0.30 0.45 0.33 0.13 0.01 0.00 0.00 0.00 0.00 0.00 0.00 0.00 0.00 0.00 0.00 0.00 0.00 0.00 0.00 0.00 0.00 0.00
0.04 0.03 0.03 0.02 0.02 0.02 0.01 0.00 0.00 0.00 0.00 0.00 0.00 0.00 0.00 0.00 0.00 0.02 0.01 0.01 0.00 0.01 0.06 0.09 0.11 0.20 0.32 0.25 0.06 0.00 0.00 0.00 0.00 0.00 0.00 0.00 0.00 0.00 0.00 0.00 0.00 0.00 0.00 0.00 0.00 0.00 0.00
0.04 0.04 0.03 0.02 0.03 0.03 0.02 0.01 0.00 0.00 0.00 0.00 0.00 0.00 0.00 0.00 0.00 0.00 0.00 0.00 0.00 0.07 0.02 0.06 0.11 0.07 0.12 0.04 0.00 0.00 0.00 0.00 0.00 0.00 0.00 0.00 0.00 0.00 0.00 0.00 0.00 0.00 0.00 0.00 0.00 0.00 0.00
0.03 0.04 0.04 0.03 0.03 0.03 0.02 0.01 0.01 0.00 0.00 0.00 0.00 0.00 0.00 0.00 0.00 0.00 0.00 0.00 0.00 0.03 0.09 0.07 0.09 0.04 0.03 0.01 0.00 0.00 0.00 0.00 0.00 0.00 0.00 0.00 0.00 0.00 0.00 0.00 0.00 0.00 0.00 0.00 0.00 0.00 0.00
0.03 0.03 0.04 0.04 0.03 0.03 0.02 0.01 0.01 0.00 0.00 0.00 0.00 0.00 0.00 0.00 0.00 0.00 0.00 0.00 0.00 0.00 0.03 0.10 0.06 0.03 0.01 0.00 0.00 0.00 0.00 0.00 0.00 0.00 0.00 0.00 0.00 0.00 0.00 0.00 0.00 0.00 0.00 0.00 0.00 0.00 0.00
0.03 0.03 0.03 0.03 0.02 0.03 0.02 0.01 0.00 0.00 0.00 0.00 0.00 0.00 0.00 0.00 0.00 0.00 0.00 0.00 0.00 0.00 0.00 0.01 0.00 0.00 0.00 0.00 0.00 0.00 0.00 0.00 0.00 0.00 0.00 0.00 0.00 0.00 0.00 0.00 0.00 0.00 0.00 0.00 0.00 0.00 0.00
0.03 0.03 0.03 0.02 0.02 0.02 0.02 0.02 0.00 0.00 0.00 0.00 0.00 0.00 0.00 0.00 0.00 0.00 0.00 0.00 0.00 0.00 0.00 0.01 0.00 0.00 0.00 0.00 0.00 0.00 0.00 0.00 0.00 0.00 0.00 0.00 0.00 0.00 0.00 0.00 0.00 0.00 0.00 0.00 0.00 0.00 0.00
0.03 0.02 0.02 0.02 0.02 0.02 0.02 0.01 0.01 0.00 0.00 0.00 0.00 0.00 0.00 0.00 0.00 0.00 0.00 0.00 0.00 0.00 0.00 0.00 0.00 0.00 0.00 0.00 0.00 0.00 0.00 0.00 0.00 0.00 0.00 0.00 0.00 0.00 0.00 0.00 0.00 0.00 0.00 0.00 0.00 0.00 0.00
0.03 0.03 0.02 0.02 0.01 0.01 0.01 0.01 0.00 0.00 0.00 0.00 0.00 0.00 0.00 0.00 0.00 0.00 0.00 0.00 0.00 0.00 0.00 0.00 0.00 0.00 0.00 0.00 0.00 0.00 0.00 0.00 0.00 0.00 0.00 0.00 0.00 0.00 0.00 0.00 0.00 0.00 0.00 0.00 0.00 0.00 0.00
0.04 0.03 0.02 0.02 0.01 0.00 0.01 0.00 0.00 0.00 0.00 0.00 0.00 0.00 0.00 0.00 0.00 0.00 0.00 0.00 0.00 0.00 0.00 0.00 0.00 0.00 0.00 0.00 0.00 0.00 0.00 0.00 0.00 0.00 0.00 0.00 0.00 0.00 0.00 0.00 0.00 0.00 0.00 0.00 0.00 0.00 0.00
0.03 0.03 0.02 0.02 0.01 0.00 0.00 0.00 0.00 0.00 0.00 0.00 0.00 0.00 0.00 0.00 0.00 0.00 0.00 0.00 0.00 0.00 0.00 0.00 0.00 0.00 0.00 0.00 0.00 0.00 0.00 0.00 0.00 0.00 0.00 0.00 0.00 0.00 0.00 0.00 0.00 0.00 0.00 0.00 0.00 0.00 0.00
0.03 0.03 0.03 0.02 0.01 0.00 0.00 0.00 0.00 0.00 0.00 0.00 0.00 0.00 0.00 0.00 0.00 0.00 0.00 0.00 0.00 0.00 0.00 0.00 0.00 0.00 0.00 0.00 0.00 0.00 0.00 0.00 0.00 0.00 0.00 0.00 0.00 0.00 0.00 0.00 0.00 0.00 0.00 0.00 0.00 0.00 0.00
0.03 0.03 0.03 0.02 0.01 0.00 0.00 0.00 0.00 0.00 0.00 0.00 0.00 0.00 0.00 0.00 0.00 0.00 0.00 0.00 0.00 0.00 0.00 0.00 0.00 0.00 0.00 0.00 0.00 0.00 0.00 0.00 0.00 0.00 0.00 0.00 0.00 0.00 0.00 0.00 0.00 0.00 0.00 0.00 0.00 0.00 0.00
0.03 0.03 0.03 0.02 0.01 0.00 0.00 0.00 0.00 0.00 0.00 0.00 0.00 0.00 0.00 0.00 0.00 0.00 0.00 0.00 0.00 0.00 0.00 0.00 0.00 0.00 0.00 0.00 0.00 0.00 0.00 0.00 0.00 0.00 0.00 0.00 0.00 0.00 0.00 0.00 0.00 0.00 0.00 0.00 0.00 0.00 0.00
0.02 0.02 0.03 0.02 0.01 0.00 0.00 0.00 0.00 0.00 0.00 0.00 0.00 0.00 0.00 0.00 0.00 0.00 0.00 0.00 0.00 0.00 0.00 0.00 0.00 0.00 0.00 0.00 0.00 0.00 0.00 0.00 0.00 0.00 0.00 0.00 0.00 0.00 0.00 0.00 0.00 0.00 0.00 0.00 0.00 0.00 0.00
0.02 0.03 0.03 0.01 0.01 0.00 0.00 0.00 0.00 0.00 0.00 0.00 0.00 0.00 0.00 0.00 0.00 0.00 0.00 0.00 0.00 0.00 0.00 0.00 0.00 0.00 0.00 0.00 0.00 0.00 0.00 0.00 0.00 0.00 0.00 0.00 0.00 0.00 0.00 0.00 0.00 0.00 0.00 0.00 0.00 0.00 0.00
0.02 0.02 0.02 0.02 0.01 0.00 0.00 0.00 0.00 0.00 0.00 0.00 0.00 0.00 0.00 0.00 0.00 0.00 0.00 0.00 0.00 0.00 0.00 0.00 0.00 0.00 0.00 0.00 0.00 0.00 0.00 0.00 0.00 0.00 0.00 0.00 0.00 0.00 0.00 0.00 0.00 0.00 0.00 0.00 0.00 0.00 0.00
0.02 0.02 0.02 0.01 0.01 0.00 0.00 0.00 0.00 0.00 0.00 0.00 0.00 0.00 0.00 0.00 0.00 0.00 0.00 0.00 0.00 0.00 0.00 0.00 0.00 0.00 0.00 0.00 0.00 0.00 0.00 0.00 0.00 0.00 0.00 0.00 0.00 0.00 0.00 0.00 0.00 0.00 0.00 0.00 0.00 0.00 0.00
0.01 0.01 0.01 0.01 0.01 0.00 0.00 0.00 0.00 0.00 0.00 0.00 0.00 0.00 0.00 0.00 0.00 0.00 0.00 0.00 0.00 0.00 0.00 0.00 0.00 0.00 0.00 0.00 0.00 0.00 0.00 0.00 0.00 0.00 0.00 0.00 0.00 0.00 0.00 0.00 0.00 0.00 0.00 0.00 0.00 0.00 0.00
0.00 0.01 0.02 0.01 0.01 0.01 0.00 0.00 0.00 0.00 0.00 0.00 0.00 0.00 0.00 0.00 0.00 0.00 0.00 0.00 0.00 0.00 0.00 0.00 0.00 0.00 0.00 0.00 0.00 0.00 0.00 0.00 0.00 0.00 0.00 0.00 0.00 0.00 0.00 0.00 0.00 0.00 0.00 0.00 0.00 0.00 0.00
0.01 0.01 0.02 0.02 0.02 0.01 0.00 0.00 0.00 0.00 0.00 0.00 0.00 0.00 0.00 0.00 0.00 0.00 0.00 0.00 0.00 0.00 0.00 0.00 0.00 0.00 0.00 0.00 0.00 0.00 0.00 0.00 0.00 0.00 0.00 0.00 0.00 0.00 0.00 0.00 0.00 0.00 0.00 0.00 0.00 0.00 0.00
0.01 0.01 0.02 0.02 0.02 0.02 0.00 0.00 0.00 0.00 0.00 0.00 0.00 0.00 0.00 0.00 0.00 0.00 0.00 0.00 0.00 0.00 0.00 0.00 0.00 0.00 0.00 0.00 0.00 0.00 0.00 0.00 0.00 0.00 0.00 0.00 0.00 0.00 0.00 0.00 0.00 0.00 0.00 0.00 0.00 0.00 0.00
0.01 0.02 0.02 0.02 0.02 0.01 0.00 0.01 0.01 0.01 0.00 0.00 0.00 0.00 0.00 0.00 0.00 0.00 0.00 0.00 0.00 0.00 0.00 0.00 0.00 0.00 0.00 0.00 0.00 0.00 0.00 0.00 0.00 0.00 0.00 0.01 0.00 0.00 0.00 0.01 0.00 0.00 0.00 0.00 0.00 0.00 0.00
0.02 0.02 0.02 0.02 0.02 0.01 0.00 0.01 0.02 0.04 0.03 0.00 0.00 0.00 0.00 0.00 0.00 0.00 0.00 0.00 0.00 0.00 0.00 0.00 0.00 0.00 0.00 0.00 0.00 0.00 0.00 0.00 0.00 0.00 0.00 0.00 0.00 0.00 0.00 0.01 0.00 0.00 0.00 0.00 0.00 0.00 0.00
0.05 0.04 0.03 0.02 0.02 0.01 0.01 0.02 0.03 0.06 0.09 0.11 0.02 0.00 0.01 0.03 0.01 0.00 0.00 0.00 0.00 0.00 0.00 0.00 0.00 0.00 0.00 0.00 0.00 0.00 0.00 0.00 0.00 0.00 0.00 0.00 0.00 0.00 0.00 0.00 0.00 0.00 0.00 0.00 0.00 0.00 0.00